<?xml version="1.0" encoding="UTF-8" standalone="no" ?>
<gpx xmlns="http://www.topografix.com/GPX/1/1" xmlns:xsi="http://www.w3.org/2001/XMLSchema-instance" xsi:schemaLocation="http://www.topografix.com/GPX/1/1 http://www.topografix.com/GPX/1/1/gpx.xsd" version="1.1" creator="VisuGPX - https://www.visugpx.com">
  <metadata>
    <name>Champagnat Cyclisme sur route</name>
  </metadata>
  <trk>
    <name><![CDATA[Champagnat Cyclisme sur route_1]]></name>
    <trkseg>
      <trkpt lat="46.4826" lon="5.36824">
        <ele>263.6</ele>
        <time>2021-08-28T10:53:11Z</time>
      </trkpt>
      <trkpt lat="46.4825" lon="5.36813">
        <ele>262.4</ele>
        <time>2021-08-28T10:53:12Z</time>
      </trkpt>
      <trkpt lat="46.48228" lon="5.36793">
        <ele>260.8</ele>
        <time>2021-08-28T10:53:14Z</time>
      </trkpt>
      <trkpt lat="46.48205" lon="5.36774">
        <ele>259.6</ele>
        <time>2021-08-28T10:53:16Z</time>
      </trkpt>
      <trkpt lat="46.48193" lon="5.36765">
        <ele>258.6</ele>
        <time>2021-08-28T10:53:17Z</time>
      </trkpt>
      <trkpt lat="46.48182" lon="5.36755">
        <ele>257.8</ele>
        <time>2021-08-28T10:53:18Z</time>
      </trkpt>
      <trkpt lat="46.4817" lon="5.36746">
        <ele>256.6</ele>
        <time>2021-08-28T10:53:19Z</time>
      </trkpt>
      <trkpt lat="46.48148" lon="5.36727">
        <ele>255</ele>
        <time>2021-08-28T10:53:21Z</time>
      </trkpt>
      <trkpt lat="46.48128" lon="5.36712">
        <ele>253.6</ele>
        <time>2021-08-28T10:53:23Z</time>
      </trkpt>
      <trkpt lat="46.48119" lon="5.36705">
        <ele>253</ele>
        <time>2021-08-28T10:53:24Z</time>
      </trkpt>
      <trkpt lat="46.48108" lon="5.36692">
        <ele>252.2</ele>
        <time>2021-08-28T10:53:26Z</time>
      </trkpt>
      <trkpt lat="46.48109" lon="5.36676">
        <ele>251.4</ele>
        <time>2021-08-28T10:53:28Z</time>
      </trkpt>
      <trkpt lat="46.48113" lon="5.3667">
        <ele>251.2</ele>
        <time>2021-08-28T10:53:29Z</time>
      </trkpt>
      <trkpt lat="46.48119" lon="5.36664">
        <ele>250.4</ele>
        <time>2021-08-28T10:53:30Z</time>
      </trkpt>
      <trkpt lat="46.48125" lon="5.36659">
        <ele>250</ele>
        <time>2021-08-28T10:53:31Z</time>
      </trkpt>
      <trkpt lat="46.48139" lon="5.36647">
        <ele>249</ele>
        <time>2021-08-28T10:53:33Z</time>
      </trkpt>
      <trkpt lat="46.48144" lon="5.3664">
        <ele>248.2</ele>
        <time>2021-08-28T10:53:34Z</time>
      </trkpt>
      <trkpt lat="46.48151" lon="5.36633">
        <ele>247.4</ele>
        <time>2021-08-28T10:53:35Z</time>
      </trkpt>
      <trkpt lat="46.48179" lon="5.3661">
        <ele>246.4</ele>
        <time>2021-08-28T10:53:39Z</time>
      </trkpt>
      <trkpt lat="46.48186" lon="5.36607">
        <ele>246.4</ele>
        <time>2021-08-28T10:53:40Z</time>
      </trkpt>
      <trkpt lat="46.48193" lon="5.36604">
        <ele>246.2</ele>
        <time>2021-08-28T10:53:41Z</time>
      </trkpt>
      <trkpt lat="46.48208" lon="5.36598">
        <ele>246</ele>
        <time>2021-08-28T10:53:43Z</time>
      </trkpt>
      <trkpt lat="46.48218" lon="5.36585">
        <ele>246</ele>
        <time>2021-08-28T10:53:45Z</time>
      </trkpt>
      <trkpt lat="46.48228" lon="5.36559">
        <ele>246</ele>
        <time>2021-08-28T10:53:48Z</time>
      </trkpt>
      <trkpt lat="46.48232" lon="5.36552">
        <ele>246</ele>
        <time>2021-08-28T10:53:49Z</time>
      </trkpt>
      <trkpt lat="46.48266" lon="5.36515">
        <ele>245.8</ele>
        <time>2021-08-28T10:53:55Z</time>
      </trkpt>
      <trkpt lat="46.48283" lon="5.36496">
        <ele>245.2</ele>
        <time>2021-08-28T10:53:58Z</time>
      </trkpt>
      <trkpt lat="46.48313" lon="5.36463">
        <ele>244</ele>
        <time>2021-08-28T10:54:03Z</time>
      </trkpt>
      <trkpt lat="46.48319" lon="5.36457">
        <ele>244</ele>
        <time>2021-08-28T10:54:04Z</time>
      </trkpt>
      <trkpt lat="46.48337" lon="5.36437">
        <ele>243</ele>
        <time>2021-08-28T10:54:07Z</time>
      </trkpt>
      <trkpt lat="46.48368" lon="5.36404">
        <ele>241.8</ele>
        <time>2021-08-28T10:54:12Z</time>
      </trkpt>
      <trkpt lat="46.48374" lon="5.36398">
        <ele>241.6</ele>
        <time>2021-08-28T10:54:13Z</time>
      </trkpt>
      <trkpt lat="46.48397" lon="5.36373">
        <ele>240.6</ele>
        <time>2021-08-28T10:54:17Z</time>
      </trkpt>
      <trkpt lat="46.48418" lon="5.36357">
        <ele>240.4</ele>
        <time>2021-08-28T10:54:20Z</time>
      </trkpt>
      <trkpt lat="46.4845" lon="5.36347">
        <ele>240.2</ele>
        <time>2021-08-28T10:54:25Z</time>
      </trkpt>
      <trkpt lat="46.4849" lon="5.36342">
        <ele>239.6</ele>
        <time>2021-08-28T10:54:31Z</time>
      </trkpt>
      <trkpt lat="46.48503" lon="5.3634">
        <ele>239.4</ele>
        <time>2021-08-28T10:54:33Z</time>
      </trkpt>
      <trkpt lat="46.48549" lon="5.36332">
        <ele>238.8</ele>
        <time>2021-08-28T10:54:40Z</time>
      </trkpt>
      <trkpt lat="46.48563" lon="5.3633">
        <ele>238.4</ele>
        <time>2021-08-28T10:54:42Z</time>
      </trkpt>
      <trkpt lat="46.48606" lon="5.36322">
        <ele>237.6</ele>
        <time>2021-08-28T10:54:48Z</time>
      </trkpt>
      <trkpt lat="46.4862" lon="5.3631">
        <ele>237.4</ele>
        <time>2021-08-28T10:54:50Z</time>
      </trkpt>
      <trkpt lat="46.48628" lon="5.3629">
        <ele>237</ele>
        <time>2021-08-28T10:54:52Z</time>
      </trkpt>
      <trkpt lat="46.48631" lon="5.36278">
        <ele>236.8</ele>
        <time>2021-08-28T10:54:53Z</time>
      </trkpt>
      <trkpt lat="46.48633" lon="5.36266">
        <ele>236.4</ele>
        <time>2021-08-28T10:54:54Z</time>
      </trkpt>
      <trkpt lat="46.4864" lon="5.36215">
        <ele>235.2</ele>
        <time>2021-08-28T10:54:58Z</time>
      </trkpt>
      <trkpt lat="46.48641" lon="5.36202">
        <ele>234.8</ele>
        <time>2021-08-28T10:54:59Z</time>
      </trkpt>
      <trkpt lat="46.48645" lon="5.36152">
        <ele>234.2</ele>
        <time>2021-08-28T10:55:03Z</time>
      </trkpt>
      <trkpt lat="46.48652" lon="5.36113">
        <ele>233.4</ele>
        <time>2021-08-28T10:55:06Z</time>
      </trkpt>
      <trkpt lat="46.4866" lon="5.36079">
        <ele>233.2</ele>
        <time>2021-08-28T10:55:09Z</time>
      </trkpt>
      <trkpt lat="46.4867" lon="5.36037">
        <ele>233</ele>
        <time>2021-08-28T10:55:13Z</time>
      </trkpt>
      <trkpt lat="46.48678" lon="5.35984">
        <ele>234.2</ele>
        <time>2021-08-28T10:55:19Z</time>
      </trkpt>
      <trkpt lat="46.48683" lon="5.35937">
        <ele>234.6</ele>
        <time>2021-08-28T10:55:24Z</time>
      </trkpt>
      <trkpt lat="46.48685" lon="5.35927">
        <ele>234.6</ele>
        <time>2021-08-28T10:55:25Z</time>
      </trkpt>
      <trkpt lat="46.48702" lon="5.35876">
        <ele>234.4</ele>
        <time>2021-08-28T10:55:30Z</time>
      </trkpt>
      <trkpt lat="46.48733" lon="5.35805">
        <ele>233.2</ele>
        <time>2021-08-28T10:55:37Z</time>
      </trkpt>
      <trkpt lat="46.48737" lon="5.35795">
        <ele>233</ele>
        <time>2021-08-28T10:55:38Z</time>
      </trkpt>
      <trkpt lat="46.48762" lon="5.35736">
        <ele>231.8</ele>
        <time>2021-08-28T10:55:44Z</time>
      </trkpt>
      <trkpt lat="46.48767" lon="5.35727">
        <ele>231.8</ele>
        <time>2021-08-28T10:55:45Z</time>
      </trkpt>
      <trkpt lat="46.488" lon="5.35653">
        <ele>231.4</ele>
        <time>2021-08-28T10:55:53Z</time>
      </trkpt>
      <trkpt lat="46.48823" lon="5.356">
        <ele>231</ele>
        <time>2021-08-28T10:55:59Z</time>
      </trkpt>
      <trkpt lat="46.4885" lon="5.3554">
        <ele>231.2</ele>
        <time>2021-08-28T10:56:06Z</time>
      </trkpt>
      <trkpt lat="46.48879" lon="5.35472">
        <ele>231.6</ele>
        <time>2021-08-28T10:56:14Z</time>
      </trkpt>
      <trkpt lat="46.48883" lon="5.35463">
        <ele>231.4</ele>
        <time>2021-08-28T10:56:15Z</time>
      </trkpt>
      <trkpt lat="46.48916" lon="5.35391">
        <ele>231</ele>
        <time>2021-08-28T10:56:23Z</time>
      </trkpt>
      <trkpt lat="46.48924" lon="5.35371">
        <ele>231</ele>
        <time>2021-08-28T10:56:25Z</time>
      </trkpt>
      <trkpt lat="46.48933" lon="5.35352">
        <ele>231</ele>
        <time>2021-08-28T10:56:27Z</time>
      </trkpt>
      <trkpt lat="46.48937" lon="5.35343">
        <ele>230.8</ele>
        <time>2021-08-28T10:56:28Z</time>
      </trkpt>
      <trkpt lat="46.48965" lon="5.35278">
        <ele>230.2</ele>
        <time>2021-08-28T10:56:35Z</time>
      </trkpt>
      <trkpt lat="46.48983" lon="5.35236">
        <ele>230.2</ele>
        <time>2021-08-28T10:56:40Z</time>
      </trkpt>
      <trkpt lat="46.49002" lon="5.35189">
        <ele>230.6</ele>
        <time>2021-08-28T10:56:46Z</time>
      </trkpt>
      <trkpt lat="46.49018" lon="5.3515">
        <ele>232</ele>
        <time>2021-08-28T10:56:51Z</time>
      </trkpt>
      <trkpt lat="46.49025" lon="5.35134">
        <ele>232.4</ele>
        <time>2021-08-28T10:56:53Z</time>
      </trkpt>
      <trkpt lat="46.49033" lon="5.35118">
        <ele>232.4</ele>
        <time>2021-08-28T10:56:55Z</time>
      </trkpt>
      <trkpt lat="46.49045" lon="5.35105">
        <ele>232.4</ele>
        <time>2021-08-28T10:56:57Z</time>
      </trkpt>
      <trkpt lat="46.49089" lon="5.35069">
        <ele>232.4</ele>
        <time>2021-08-28T10:57:04Z</time>
      </trkpt>
      <trkpt lat="46.49137" lon="5.35028">
        <ele>231.4</ele>
        <time>2021-08-28T10:57:11Z</time>
      </trkpt>
      <trkpt lat="46.49157" lon="5.35011">
        <ele>231</ele>
        <time>2021-08-28T10:57:14Z</time>
      </trkpt>
      <trkpt lat="46.49184" lon="5.34986">
        <ele>230.8</ele>
        <time>2021-08-28T10:57:18Z</time>
      </trkpt>
      <trkpt lat="46.49188" lon="5.34981">
        <ele>231</ele>
        <time>2021-08-28T10:57:19Z</time>
      </trkpt>
      <trkpt lat="46.49202" lon="5.34964">
        <ele>230.8</ele>
        <time>2021-08-28T10:57:21Z</time>
      </trkpt>
      <trkpt lat="46.49216" lon="5.34941">
        <ele>230.6</ele>
        <time>2021-08-28T10:57:24Z</time>
      </trkpt>
      <trkpt lat="46.49255" lon="5.3488">
        <ele>229.8</ele>
        <time>2021-08-28T10:57:32Z</time>
      </trkpt>
      <trkpt lat="46.4926" lon="5.34872">
        <ele>229.6</ele>
        <time>2021-08-28T10:57:33Z</time>
      </trkpt>
      <trkpt lat="46.49287" lon="5.34843">
        <ele>229.4</ele>
        <time>2021-08-28T10:57:38Z</time>
      </trkpt>
      <trkpt lat="46.493" lon="5.34836">
        <ele>229</ele>
        <time>2021-08-28T10:57:40Z</time>
      </trkpt>
      <trkpt lat="46.49321" lon="5.3483">
        <ele>229.4</ele>
        <time>2021-08-28T10:57:43Z</time>
      </trkpt>
      <trkpt lat="46.4936" lon="5.34824">
        <ele>229.6</ele>
        <time>2021-08-28T10:57:49Z</time>
      </trkpt>
      <trkpt lat="46.49378" lon="5.3482">
        <ele>230</ele>
        <time>2021-08-28T10:57:52Z</time>
      </trkpt>
      <trkpt lat="46.49397" lon="5.34814">
        <ele>230</ele>
        <time>2021-08-28T10:57:55Z</time>
      </trkpt>
      <trkpt lat="46.49408" lon="5.34808">
        <ele>229.8</ele>
        <time>2021-08-28T10:57:57Z</time>
      </trkpt>
      <trkpt lat="46.49431" lon="5.34791">
        <ele>229.8</ele>
        <time>2021-08-28T10:58:01Z</time>
      </trkpt>
      <trkpt lat="46.49437" lon="5.34786">
        <ele>229.6</ele>
        <time>2021-08-28T10:58:02Z</time>
      </trkpt>
      <trkpt lat="46.49455" lon="5.34766">
        <ele>229.4</ele>
        <time>2021-08-28T10:58:05Z</time>
      </trkpt>
      <trkpt lat="46.49474" lon="5.34745">
        <ele>228.6</ele>
        <time>2021-08-28T10:58:08Z</time>
      </trkpt>
      <trkpt lat="46.49489" lon="5.34728">
        <ele>227.2</ele>
        <time>2021-08-28T10:58:10Z</time>
      </trkpt>
      <trkpt lat="46.49503" lon="5.34713">
        <ele>225.8</ele>
        <time>2021-08-28T10:58:12Z</time>
      </trkpt>
      <trkpt lat="46.49525" lon="5.34685">
        <ele>224.4</ele>
        <time>2021-08-28T10:58:15Z</time>
      </trkpt>
      <trkpt lat="46.49551" lon="5.34656">
        <ele>223.8</ele>
        <time>2021-08-28T10:58:18Z</time>
      </trkpt>
      <trkpt lat="46.49559" lon="5.34647">
        <ele>222.8</ele>
        <time>2021-08-28T10:58:19Z</time>
      </trkpt>
      <trkpt lat="46.49573" lon="5.34628">
        <ele>221.4</ele>
        <time>2021-08-28T10:58:21Z</time>
      </trkpt>
      <trkpt lat="46.49588" lon="5.34609">
        <ele>220.4</ele>
        <time>2021-08-28T10:58:23Z</time>
      </trkpt>
      <trkpt lat="46.49605" lon="5.34582">
        <ele>219.2</ele>
        <time>2021-08-28T10:58:26Z</time>
      </trkpt>
      <trkpt lat="46.49619" lon="5.34561">
        <ele>218</ele>
        <time>2021-08-28T10:58:28Z</time>
      </trkpt>
      <trkpt lat="46.49625" lon="5.34554">
        <ele>217.6</ele>
        <time>2021-08-28T10:58:29Z</time>
      </trkpt>
      <trkpt lat="46.49646" lon="5.34535">
        <ele>217</ele>
        <time>2021-08-28T10:58:33Z</time>
      </trkpt>
      <trkpt lat="46.49655" lon="5.34521">
        <ele>217</ele>
        <time>2021-08-28T10:58:35Z</time>
      </trkpt>
      <trkpt lat="46.4966" lon="5.34507">
        <ele>217.2</ele>
        <time>2021-08-28T10:58:37Z</time>
      </trkpt>
      <trkpt lat="46.49676" lon="5.34446">
        <ele>218.4</ele>
        <time>2021-08-28T10:58:45Z</time>
      </trkpt>
      <trkpt lat="46.49684" lon="5.34414">
        <ele>219.2</ele>
        <time>2021-08-28T10:58:49Z</time>
      </trkpt>
      <trkpt lat="46.49694" lon="5.34379">
        <ele>219.8</ele>
        <time>2021-08-28T10:58:54Z</time>
      </trkpt>
      <trkpt lat="46.49696" lon="5.34372">
        <ele>220</ele>
        <time>2021-08-28T10:58:55Z</time>
      </trkpt>
      <trkpt lat="46.49698" lon="5.34365">
        <ele>220.4</ele>
        <time>2021-08-28T10:58:56Z</time>
      </trkpt>
      <trkpt lat="46.49701" lon="5.3435">
        <ele>221.2</ele>
        <time>2021-08-28T10:58:58Z</time>
      </trkpt>
      <trkpt lat="46.49704" lon="5.34341">
        <ele>221.6</ele>
        <time>2021-08-28T10:58:59Z</time>
      </trkpt>
      <trkpt lat="46.49714" lon="5.34309">
        <ele>222.4</ele>
        <time>2021-08-28T10:59:03Z</time>
      </trkpt>
      <trkpt lat="46.49721" lon="5.34294">
        <ele>222.8</ele>
        <time>2021-08-28T10:59:05Z</time>
      </trkpt>
      <trkpt lat="46.49732" lon="5.3427">
        <ele>223</ele>
        <time>2021-08-28T10:59:08Z</time>
      </trkpt>
      <trkpt lat="46.49767" lon="5.34214">
        <ele>223</ele>
        <time>2021-08-28T10:59:16Z</time>
      </trkpt>
      <trkpt lat="46.49804" lon="5.34154">
        <ele>223</ele>
        <time>2021-08-28T10:59:25Z</time>
      </trkpt>
      <trkpt lat="46.49841" lon="5.34094">
        <ele>223.2</ele>
        <time>2021-08-28T10:59:34Z</time>
      </trkpt>
      <trkpt lat="46.49885" lon="5.34036">
        <ele>222.8</ele>
        <time>2021-08-28T10:59:43Z</time>
      </trkpt>
      <trkpt lat="46.49923" lon="5.33996">
        <ele>223.2</ele>
        <time>2021-08-28T10:59:51Z</time>
      </trkpt>
      <trkpt lat="46.49936" lon="5.33982">
        <ele>223.4</ele>
        <time>2021-08-28T10:59:54Z</time>
      </trkpt>
      <trkpt lat="46.49951" lon="5.33968">
        <ele>223.8</ele>
        <time>2021-08-28T10:59:57Z</time>
      </trkpt>
      <trkpt lat="46.4998" lon="5.33938">
        <ele>225.2</ele>
        <time>2021-08-28T11:00:03Z</time>
      </trkpt>
      <trkpt lat="46.49985" lon="5.33933">
        <ele>225.4</ele>
        <time>2021-08-28T11:00:04Z</time>
      </trkpt>
      <trkpt lat="46.50032" lon="5.3388">
        <ele>225.8</ele>
        <time>2021-08-28T11:00:13Z</time>
      </trkpt>
      <trkpt lat="46.50074" lon="5.33835">
        <ele>225.2</ele>
        <time>2021-08-28T11:00:20Z</time>
      </trkpt>
      <trkpt lat="46.50112" lon="5.33794">
        <ele>223.6</ele>
        <time>2021-08-28T11:00:26Z</time>
      </trkpt>
      <trkpt lat="46.50159" lon="5.33742">
        <ele>223</ele>
        <time>2021-08-28T11:00:34Z</time>
      </trkpt>
      <trkpt lat="46.50171" lon="5.3373">
        <ele>223</ele>
        <time>2021-08-28T11:00:36Z</time>
      </trkpt>
      <trkpt lat="46.50188" lon="5.33712">
        <ele>223</ele>
        <time>2021-08-28T11:00:39Z</time>
      </trkpt>
      <trkpt lat="46.50228" lon="5.33669">
        <ele>223.2</ele>
        <time>2021-08-28T11:00:46Z</time>
      </trkpt>
      <trkpt lat="46.50261" lon="5.33631">
        <ele>223.4</ele>
        <time>2021-08-28T11:00:52Z</time>
      </trkpt>
      <trkpt lat="46.50305" lon="5.33583">
        <ele>222.6</ele>
        <time>2021-08-28T11:01:00Z</time>
      </trkpt>
      <trkpt lat="46.50317" lon="5.33571">
        <ele>222.6</ele>
        <time>2021-08-28T11:01:02Z</time>
      </trkpt>
      <trkpt lat="46.50363" lon="5.33521">
        <ele>222</ele>
        <time>2021-08-28T11:01:10Z</time>
      </trkpt>
      <trkpt lat="46.50375" lon="5.33508">
        <ele>221.8</ele>
        <time>2021-08-28T11:01:12Z</time>
      </trkpt>
      <trkpt lat="46.5038" lon="5.33502">
        <ele>221.6</ele>
        <time>2021-08-28T11:01:13Z</time>
      </trkpt>
      <trkpt lat="46.50403" lon="5.33478">
        <ele>221.4</ele>
        <time>2021-08-28T11:01:17Z</time>
      </trkpt>
      <trkpt lat="46.50422" lon="5.33458">
        <ele>221.4</ele>
        <time>2021-08-28T11:01:20Z</time>
      </trkpt>
      <trkpt lat="46.50448" lon="5.3342">
        <ele>220.6</ele>
        <time>2021-08-28T11:01:25Z</time>
      </trkpt>
      <trkpt lat="46.50459" lon="5.33391">
        <ele>219.6</ele>
        <time>2021-08-28T11:01:28Z</time>
      </trkpt>
      <trkpt lat="46.50461" lon="5.33379">
        <ele>219.4</ele>
        <time>2021-08-28T11:01:29Z</time>
      </trkpt>
      <trkpt lat="46.50463" lon="5.33369">
        <ele>219.4</ele>
        <time>2021-08-28T11:01:30Z</time>
      </trkpt>
      <trkpt lat="46.50464" lon="5.33358">
        <ele>219.2</ele>
        <time>2021-08-28T11:01:31Z</time>
      </trkpt>
      <trkpt lat="46.50465" lon="5.33336">
        <ele>219.2</ele>
        <time>2021-08-28T11:01:33Z</time>
      </trkpt>
      <trkpt lat="46.50466" lon="5.33262">
        <ele>219.2</ele>
        <time>2021-08-28T11:01:40Z</time>
      </trkpt>
      <trkpt lat="46.50469" lon="5.33182">
        <ele>220</ele>
        <time>2021-08-28T11:01:48Z</time>
      </trkpt>
      <trkpt lat="46.5047" lon="5.33172">
        <ele>220</ele>
        <time>2021-08-28T11:01:49Z</time>
      </trkpt>
      <trkpt lat="46.50469" lon="5.33105">
        <ele>220.2</ele>
        <time>2021-08-28T11:01:55Z</time>
      </trkpt>
      <trkpt lat="46.50471" lon="5.3304">
        <ele>218.2</ele>
        <time>2021-08-28T11:02:00Z</time>
      </trkpt>
      <trkpt lat="46.50472" lon="5.33026">
        <ele>217.6</ele>
        <time>2021-08-28T11:02:01Z</time>
      </trkpt>
      <trkpt lat="46.50472" lon="5.32998">
        <ele>216.4</ele>
        <time>2021-08-28T11:02:03Z</time>
      </trkpt>
      <trkpt lat="46.50472" lon="5.3297">
        <ele>215.2</ele>
        <time>2021-08-28T11:02:05Z</time>
      </trkpt>
      <trkpt lat="46.50473" lon="5.32928">
        <ele>213.4</ele>
        <time>2021-08-28T11:02:08Z</time>
      </trkpt>
      <trkpt lat="46.50473" lon="5.32914">
        <ele>212.8</ele>
        <time>2021-08-28T11:02:09Z</time>
      </trkpt>
      <trkpt lat="46.50473" lon="5.329">
        <ele>212.4</ele>
        <time>2021-08-28T11:02:10Z</time>
      </trkpt>
      <trkpt lat="46.50473" lon="5.32858">
        <ele>210.6</ele>
        <time>2021-08-28T11:02:13Z</time>
      </trkpt>
      <trkpt lat="46.50474" lon="5.3283">
        <ele>209.4</ele>
        <time>2021-08-28T11:02:15Z</time>
      </trkpt>
      <trkpt lat="46.50474" lon="5.32787">
        <ele>208.4</ele>
        <time>2021-08-28T11:02:18Z</time>
      </trkpt>
      <trkpt lat="46.50474" lon="5.32774">
        <ele>208.2</ele>
        <time>2021-08-28T11:02:19Z</time>
      </trkpt>
      <trkpt lat="46.50475" lon="5.3275">
        <ele>207.4</ele>
        <time>2021-08-28T11:02:21Z</time>
      </trkpt>
      <trkpt lat="46.50476" lon="5.32666">
        <ele>207</ele>
        <time>2021-08-28T11:02:27Z</time>
      </trkpt>
      <trkpt lat="46.50477" lon="5.32639">
        <ele>207</ele>
        <time>2021-08-28T11:02:29Z</time>
      </trkpt>
      <trkpt lat="46.50475" lon="5.32562">
        <ele>206</ele>
        <time>2021-08-28T11:02:35Z</time>
      </trkpt>
      <trkpt lat="46.50474" lon="5.3255">
        <ele>205.6</ele>
        <time>2021-08-28T11:02:36Z</time>
      </trkpt>
      <trkpt lat="46.50473" lon="5.32525">
        <ele>205</ele>
        <time>2021-08-28T11:02:38Z</time>
      </trkpt>
      <trkpt lat="46.50465" lon="5.32441">
        <ele>204</ele>
        <time>2021-08-28T11:02:45Z</time>
      </trkpt>
      <trkpt lat="46.5046" lon="5.32407">
        <ele>204</ele>
        <time>2021-08-28T11:02:48Z</time>
      </trkpt>
      <trkpt lat="46.50447" lon="5.32348">
        <ele>204</ele>
        <time>2021-08-28T11:02:53Z</time>
      </trkpt>
      <trkpt lat="46.50433" lon="5.32281">
        <ele>203.8</ele>
        <time>2021-08-28T11:02:59Z</time>
      </trkpt>
      <trkpt lat="46.50429" lon="5.32237">
        <ele>203.6</ele>
        <time>2021-08-28T11:03:03Z</time>
      </trkpt>
      <trkpt lat="46.50429" lon="5.32215">
        <ele>203.6</ele>
        <time>2021-08-28T11:03:05Z</time>
      </trkpt>
      <trkpt lat="46.50435" lon="5.32197">
        <ele>203.6</ele>
        <time>2021-08-28T11:03:07Z</time>
      </trkpt>
      <trkpt lat="46.50441" lon="5.32189">
        <ele>203.6</ele>
        <time>2021-08-28T11:03:08Z</time>
      </trkpt>
      <trkpt lat="46.50454" lon="5.32178">
        <ele>203.6</ele>
        <time>2021-08-28T11:03:10Z</time>
      </trkpt>
      <trkpt lat="46.50458" lon="5.32173">
        <ele>203.4</ele>
        <time>2021-08-28T11:03:11Z</time>
      </trkpt>
      <trkpt lat="46.50463" lon="5.32163">
        <ele>203.4</ele>
        <time>2021-08-28T11:03:12Z</time>
      </trkpt>
      <trkpt lat="46.50471" lon="5.32136">
        <ele>203</ele>
        <time>2021-08-28T11:03:15Z</time>
      </trkpt>
      <trkpt lat="46.50477" lon="5.32114">
        <ele>202.8</ele>
        <time>2021-08-28T11:03:17Z</time>
      </trkpt>
      <trkpt lat="46.50502" lon="5.32061">
        <ele>202.8</ele>
        <time>2021-08-28T11:03:23Z</time>
      </trkpt>
      <trkpt lat="46.5053" lon="5.32017">
        <ele>202.8</ele>
        <time>2021-08-28T11:03:29Z</time>
      </trkpt>
      <trkpt lat="46.50551" lon="5.31985">
        <ele>203</ele>
        <time>2021-08-28T11:03:34Z</time>
      </trkpt>
      <trkpt lat="46.50565" lon="5.31953">
        <ele>204.2</ele>
        <time>2021-08-28T11:03:39Z</time>
      </trkpt>
      <trkpt lat="46.5057" lon="5.3194">
        <ele>204.8</ele>
        <time>2021-08-28T11:03:41Z</time>
      </trkpt>
      <trkpt lat="46.50574" lon="5.31929">
        <ele>205.4</ele>
        <time>2021-08-28T11:03:43Z</time>
      </trkpt>
      <trkpt lat="46.5058" lon="5.31911">
        <ele>206.2</ele>
        <time>2021-08-28T11:03:46Z</time>
      </trkpt>
      <trkpt lat="46.50582" lon="5.31905">
        <ele>206.6</ele>
        <time>2021-08-28T11:03:47Z</time>
      </trkpt>
      <trkpt lat="46.50587" lon="5.3189">
        <ele>207.8</ele>
        <time>2021-08-28T11:03:50Z</time>
      </trkpt>
      <trkpt lat="46.50589" lon="5.31884">
        <ele>208.2</ele>
        <time>2021-08-28T11:03:51Z</time>
      </trkpt>
      <trkpt lat="46.50595" lon="5.3187">
        <ele>209.4</ele>
        <time>2021-08-28T11:03:54Z</time>
      </trkpt>
      <trkpt lat="46.50601" lon="5.31855">
        <ele>209.6</ele>
        <time>2021-08-28T11:03:57Z</time>
      </trkpt>
      <trkpt lat="46.50611" lon="5.31826">
        <ele>210.6</ele>
        <time>2021-08-28T11:04:02Z</time>
      </trkpt>
      <trkpt lat="46.50614" lon="5.3182">
        <ele>210.8</ele>
        <time>2021-08-28T11:04:03Z</time>
      </trkpt>
      <trkpt lat="46.50629" lon="5.31773">
        <ele>211.8</ele>
        <time>2021-08-28T11:04:10Z</time>
      </trkpt>
      <trkpt lat="46.50631" lon="5.31766">
        <ele>211.8</ele>
        <time>2021-08-28T11:04:11Z</time>
      </trkpt>
      <trkpt lat="46.50646" lon="5.31733">
        <ele>212.2</ele>
        <time>2021-08-28T11:04:16Z</time>
      </trkpt>
      <trkpt lat="46.50654" lon="5.31723">
        <ele>212.2</ele>
        <time>2021-08-28T11:04:18Z</time>
      </trkpt>
      <trkpt lat="46.50664" lon="5.31717">
        <ele>212.4</ele>
        <time>2021-08-28T11:04:20Z</time>
      </trkpt>
      <trkpt lat="46.50681" lon="5.31711">
        <ele>212.4</ele>
        <time>2021-08-28T11:04:23Z</time>
      </trkpt>
      <trkpt lat="46.50691" lon="5.31709">
        <ele>212.6</ele>
        <time>2021-08-28T11:04:25Z</time>
      </trkpt>
      <trkpt lat="46.50728" lon="5.31706">
        <ele>212.4</ele>
        <time>2021-08-28T11:04:31Z</time>
      </trkpt>
      <trkpt lat="46.50761" lon="5.31704">
        <ele>212.2</ele>
        <time>2021-08-28T11:04:36Z</time>
      </trkpt>
      <trkpt lat="46.50767" lon="5.31706">
        <ele>212.2</ele>
        <time>2021-08-28T11:04:37Z</time>
      </trkpt>
      <trkpt lat="46.50773" lon="5.31708">
        <ele>212</ele>
        <time>2021-08-28T11:04:38Z</time>
      </trkpt>
      <trkpt lat="46.50784" lon="5.31714">
        <ele>212</ele>
        <time>2021-08-28T11:04:40Z</time>
      </trkpt>
      <trkpt lat="46.50795" lon="5.31723">
        <ele>212</ele>
        <time>2021-08-28T11:04:42Z</time>
      </trkpt>
      <trkpt lat="46.50822" lon="5.31744">
        <ele>211.8</ele>
        <time>2021-08-28T11:04:47Z</time>
      </trkpt>
      <trkpt lat="46.50834" lon="5.31747">
        <ele>212</ele>
        <time>2021-08-28T11:04:49Z</time>
      </trkpt>
      <trkpt lat="46.50839" lon="5.31747">
        <ele>212.2</ele>
        <time>2021-08-28T11:04:50Z</time>
      </trkpt>
      <trkpt lat="46.50849" lon="5.31743">
        <ele>212.6</ele>
        <time>2021-08-28T11:04:52Z</time>
      </trkpt>
      <trkpt lat="46.50854" lon="5.31739">
        <ele>212.8</ele>
        <time>2021-08-28T11:04:53Z</time>
      </trkpt>
      <trkpt lat="46.50881" lon="5.31712">
        <ele>213</ele>
        <time>2021-08-28T11:04:58Z</time>
      </trkpt>
      <trkpt lat="46.5093" lon="5.3166">
        <ele>213</ele>
        <time>2021-08-28T11:05:07Z</time>
      </trkpt>
      <trkpt lat="46.50976" lon="5.31613">
        <ele>212.2</ele>
        <time>2021-08-28T11:05:14Z</time>
      </trkpt>
      <trkpt lat="46.51009" lon="5.31579">
        <ele>211.8</ele>
        <time>2021-08-28T11:05:20Z</time>
      </trkpt>
      <trkpt lat="46.51029" lon="5.31555">
        <ele>212</ele>
        <time>2021-08-28T11:05:24Z</time>
      </trkpt>
      <trkpt lat="46.51032" lon="5.31547">
        <ele>212.2</ele>
        <time>2021-08-28T11:05:25Z</time>
      </trkpt>
      <trkpt lat="46.5104" lon="5.31527">
        <ele>212.4</ele>
        <time>2021-08-28T11:05:27Z</time>
      </trkpt>
      <trkpt lat="46.51044" lon="5.31507">
        <ele>212.2</ele>
        <time>2021-08-28T11:05:29Z</time>
      </trkpt>
      <trkpt lat="46.5106" lon="5.31435">
        <ele>211.4</ele>
        <time>2021-08-28T11:05:35Z</time>
      </trkpt>
      <trkpt lat="46.51062" lon="5.31423">
        <ele>210.6</ele>
        <time>2021-08-28T11:05:36Z</time>
      </trkpt>
      <trkpt lat="46.51065" lon="5.3141">
        <ele>210.4</ele>
        <time>2021-08-28T11:05:37Z</time>
      </trkpt>
      <trkpt lat="46.51068" lon="5.31387">
        <ele>209.6</ele>
        <time>2021-08-28T11:05:39Z</time>
      </trkpt>
      <trkpt lat="46.51068" lon="5.31358">
        <ele>209.4</ele>
        <time>2021-08-28T11:05:41Z</time>
      </trkpt>
      <trkpt lat="46.51067" lon="5.31345">
        <ele>209.2</ele>
        <time>2021-08-28T11:05:42Z</time>
      </trkpt>
      <trkpt lat="46.51068" lon="5.3132">
        <ele>208.6</ele>
        <time>2021-08-28T11:05:44Z</time>
      </trkpt>
      <trkpt lat="46.51072" lon="5.31308">
        <ele>208</ele>
        <time>2021-08-28T11:05:45Z</time>
      </trkpt>
      <trkpt lat="46.51078" lon="5.31297">
        <ele>207.6</ele>
        <time>2021-08-28T11:05:46Z</time>
      </trkpt>
      <trkpt lat="46.51093" lon="5.31277">
        <ele>207.2</ele>
        <time>2021-08-28T11:05:48Z</time>
      </trkpt>
      <trkpt lat="46.51108" lon="5.31258">
        <ele>206.6</ele>
        <time>2021-08-28T11:05:50Z</time>
      </trkpt>
      <trkpt lat="46.51123" lon="5.3124">
        <ele>205.2</ele>
        <time>2021-08-28T11:05:52Z</time>
      </trkpt>
      <trkpt lat="46.51138" lon="5.31221">
        <ele>204.4</ele>
        <time>2021-08-28T11:05:54Z</time>
      </trkpt>
      <trkpt lat="46.51145" lon="5.31212">
        <ele>204</ele>
        <time>2021-08-28T11:05:55Z</time>
      </trkpt>
      <trkpt lat="46.51186" lon="5.31164">
        <ele>203</ele>
        <time>2021-08-28T11:06:01Z</time>
      </trkpt>
      <trkpt lat="46.5122" lon="5.31123">
        <ele>202</ele>
        <time>2021-08-28T11:06:06Z</time>
      </trkpt>
      <trkpt lat="46.51242" lon="5.31096">
        <ele>201.4</ele>
        <time>2021-08-28T11:06:09Z</time>
      </trkpt>
      <trkpt lat="46.51248" lon="5.3109">
        <ele>201.2</ele>
        <time>2021-08-28T11:06:10Z</time>
      </trkpt>
      <trkpt lat="46.51256" lon="5.31085">
        <ele>200.8</ele>
        <time>2021-08-28T11:06:11Z</time>
      </trkpt>
      <trkpt lat="46.51266" lon="5.31081">
        <ele>200.8</ele>
        <time>2021-08-28T11:06:12Z</time>
      </trkpt>
      <trkpt lat="46.51298" lon="5.31078">
        <ele>199.8</ele>
        <time>2021-08-28T11:06:16Z</time>
      </trkpt>
      <trkpt lat="46.51306" lon="5.31078">
        <ele>199.8</ele>
        <time>2021-08-28T11:06:17Z</time>
      </trkpt>
      <trkpt lat="46.51344" lon="5.31075">
        <ele>199.8</ele>
        <time>2021-08-28T11:06:22Z</time>
      </trkpt>
      <trkpt lat="46.51388" lon="5.31073">
        <ele>200.2</ele>
        <time>2021-08-28T11:06:28Z</time>
      </trkpt>
      <trkpt lat="46.51422" lon="5.3107">
        <ele>200.4</ele>
        <time>2021-08-28T11:06:33Z</time>
      </trkpt>
      <trkpt lat="46.51436" lon="5.31071">
        <ele>200.4</ele>
        <time>2021-08-28T11:06:35Z</time>
      </trkpt>
      <trkpt lat="46.51482" lon="5.31072">
        <ele>200.2</ele>
        <time>2021-08-28T11:06:42Z</time>
      </trkpt>
      <trkpt lat="46.51539" lon="5.31075">
        <ele>200.6</ele>
        <time>2021-08-28T11:06:51Z</time>
      </trkpt>
      <trkpt lat="46.51544" lon="5.31075">
        <ele>200.6</ele>
        <time>2021-08-28T11:06:52Z</time>
      </trkpt>
      <trkpt lat="46.51563" lon="5.31077">
        <ele>201</ele>
        <time>2021-08-28T11:06:55Z</time>
      </trkpt>
      <trkpt lat="46.51593" lon="5.31084">
        <ele>201.4</ele>
        <time>2021-08-28T11:07:00Z</time>
      </trkpt>
      <trkpt lat="46.51624" lon="5.31099">
        <ele>201.4</ele>
        <time>2021-08-28T11:07:06Z</time>
      </trkpt>
      <trkpt lat="46.51628" lon="5.31101">
        <ele>201.6</ele>
        <time>2021-08-28T11:07:07Z</time>
      </trkpt>
      <trkpt lat="46.51639" lon="5.31104">
        <ele>201.8</ele>
        <time>2021-08-28T11:07:09Z</time>
      </trkpt>
      <trkpt lat="46.51647" lon="5.31104">
        <ele>202</ele>
        <time>2021-08-28T11:07:11Z</time>
      </trkpt>
      <trkpt lat="46.51653" lon="5.31103">
        <ele>202.2</ele>
        <time>2021-08-28T11:07:12Z</time>
      </trkpt>
      <trkpt lat="46.51658" lon="5.31102">
        <ele>202.4</ele>
        <time>2021-08-28T11:07:13Z</time>
      </trkpt>
      <trkpt lat="46.51666" lon="5.31103">
        <ele>202.6</ele>
        <time>2021-08-28T11:07:15Z</time>
      </trkpt>
      <trkpt lat="46.51671" lon="5.31107">
        <ele>202.8</ele>
        <time>2021-08-28T11:07:16Z</time>
      </trkpt>
      <trkpt lat="46.51675" lon="5.31113">
        <ele>202.8</ele>
        <time>2021-08-28T11:07:17Z</time>
      </trkpt>
      <trkpt lat="46.51685" lon="5.31133">
        <ele>203</ele>
        <time>2021-08-28T11:07:20Z</time>
      </trkpt>
      <trkpt lat="46.51708" lon="5.31162">
        <ele>202.6</ele>
        <time>2021-08-28T11:07:25Z</time>
      </trkpt>
      <trkpt lat="46.51721" lon="5.31172">
        <ele>202.4</ele>
        <time>2021-08-28T11:07:27Z</time>
      </trkpt>
      <trkpt lat="46.51734" lon="5.31177">
        <ele>202</ele>
        <time>2021-08-28T11:07:29Z</time>
      </trkpt>
      <trkpt lat="46.51743" lon="5.31179">
        <ele>202</ele>
        <time>2021-08-28T11:07:30Z</time>
      </trkpt>
      <trkpt lat="46.51774" lon="5.31181">
        <ele>200.8</ele>
        <time>2021-08-28T11:07:34Z</time>
      </trkpt>
      <trkpt lat="46.51822" lon="5.31185">
        <ele>199.4</ele>
        <time>2021-08-28T11:07:39Z</time>
      </trkpt>
      <trkpt lat="46.51831" lon="5.31187">
        <ele>199</ele>
        <time>2021-08-28T11:07:40Z</time>
      </trkpt>
      <trkpt lat="46.5184" lon="5.31191">
        <ele>198.2</ele>
        <time>2021-08-28T11:07:41Z</time>
      </trkpt>
      <trkpt lat="46.51849" lon="5.31196">
        <ele>197.6</ele>
        <time>2021-08-28T11:07:42Z</time>
      </trkpt>
      <trkpt lat="46.51855" lon="5.31201">
        <ele>196.4</ele>
        <time>2021-08-28T11:07:43Z</time>
      </trkpt>
      <trkpt lat="46.51863" lon="5.3121">
        <ele>195.8</ele>
        <time>2021-08-28T11:07:44Z</time>
      </trkpt>
      <trkpt lat="46.51876" lon="5.31226">
        <ele>195.2</ele>
        <time>2021-08-28T11:07:46Z</time>
      </trkpt>
      <trkpt lat="46.51888" lon="5.31243">
        <ele>195</ele>
        <time>2021-08-28T11:07:48Z</time>
      </trkpt>
      <trkpt lat="46.51926" lon="5.31299">
        <ele>195.4</ele>
        <time>2021-08-28T11:07:55Z</time>
      </trkpt>
      <trkpt lat="46.5193" lon="5.31305">
        <ele>195.2</ele>
        <time>2021-08-28T11:07:56Z</time>
      </trkpt>
      <trkpt lat="46.51967" lon="5.31357">
        <ele>195.2</ele>
        <time>2021-08-28T11:08:03Z</time>
      </trkpt>
      <trkpt lat="46.52009" lon="5.3142">
        <ele>195.8</ele>
        <time>2021-08-28T11:08:12Z</time>
      </trkpt>
      <trkpt lat="46.52017" lon="5.31432">
        <ele>195.8</ele>
        <time>2021-08-28T11:08:14Z</time>
      </trkpt>
      <trkpt lat="46.52038" lon="5.31464">
        <ele>196.2</ele>
        <time>2021-08-28T11:08:19Z</time>
      </trkpt>
      <trkpt lat="46.52046" lon="5.31476">
        <ele>196.4</ele>
        <time>2021-08-28T11:08:21Z</time>
      </trkpt>
      <trkpt lat="46.52067" lon="5.31504">
        <ele>197.2</ele>
        <time>2021-08-28T11:08:26Z</time>
      </trkpt>
      <trkpt lat="46.52078" lon="5.31519">
        <ele>198</ele>
        <time>2021-08-28T11:08:29Z</time>
      </trkpt>
      <trkpt lat="46.52082" lon="5.31525">
        <ele>198.2</ele>
        <time>2021-08-28T11:08:30Z</time>
      </trkpt>
      <trkpt lat="46.52102" lon="5.3155">
        <ele>199.4</ele>
        <time>2021-08-28T11:08:35Z</time>
      </trkpt>
      <trkpt lat="46.52106" lon="5.31555">
        <ele>199.4</ele>
        <time>2021-08-28T11:08:36Z</time>
      </trkpt>
      <trkpt lat="46.52125" lon="5.31581">
        <ele>200.6</ele>
        <time>2021-08-28T11:08:41Z</time>
      </trkpt>
      <trkpt lat="46.52136" lon="5.31596">
        <ele>201</ele>
        <time>2021-08-28T11:08:44Z</time>
      </trkpt>
      <trkpt lat="46.52147" lon="5.31612">
        <ele>201.6</ele>
        <time>2021-08-28T11:08:47Z</time>
      </trkpt>
      <trkpt lat="46.52165" lon="5.31637">
        <ele>202.4</ele>
        <time>2021-08-28T11:08:52Z</time>
      </trkpt>
      <trkpt lat="46.52169" lon="5.31642">
        <ele>202.6</ele>
        <time>2021-08-28T11:08:53Z</time>
      </trkpt>
      <trkpt lat="46.52186" lon="5.31669">
        <ele>203.6</ele>
        <time>2021-08-28T11:08:58Z</time>
      </trkpt>
      <trkpt lat="46.52194" lon="5.31678">
        <ele>204.2</ele>
        <time>2021-08-28T11:09:00Z</time>
      </trkpt>
      <trkpt lat="46.52208" lon="5.31702">
        <ele>204.8</ele>
        <time>2021-08-28T11:09:04Z</time>
      </trkpt>
      <trkpt lat="46.5222" lon="5.31719">
        <ele>205.2</ele>
        <time>2021-08-28T11:09:07Z</time>
      </trkpt>
      <trkpt lat="46.52246" lon="5.31758">
        <ele>206</ele>
        <time>2021-08-28T11:09:14Z</time>
      </trkpt>
      <trkpt lat="46.52249" lon="5.31763">
        <ele>206.2</ele>
        <time>2021-08-28T11:09:15Z</time>
      </trkpt>
      <trkpt lat="46.52264" lon="5.31783">
        <ele>207.2</ele>
        <time>2021-08-28T11:09:19Z</time>
      </trkpt>
      <trkpt lat="46.52285" lon="5.31814">
        <ele>207.6</ele>
        <time>2021-08-28T11:09:25Z</time>
      </trkpt>
      <trkpt lat="46.5231" lon="5.31848">
        <ele>208.2</ele>
        <time>2021-08-28T11:09:32Z</time>
      </trkpt>
      <trkpt lat="46.52314" lon="5.31853">
        <ele>208.4</ele>
        <time>2021-08-28T11:09:33Z</time>
      </trkpt>
      <trkpt lat="46.52335" lon="5.31884">
        <ele>209.4</ele>
        <time>2021-08-28T11:09:39Z</time>
      </trkpt>
      <trkpt lat="46.52354" lon="5.3191">
        <ele>210.2</ele>
        <time>2021-08-28T11:09:44Z</time>
      </trkpt>
      <trkpt lat="46.52362" lon="5.31921">
        <ele>210.6</ele>
        <time>2021-08-28T11:09:46Z</time>
      </trkpt>
      <trkpt lat="46.52384" lon="5.31953">
        <ele>210.8</ele>
        <time>2021-08-28T11:09:51Z</time>
      </trkpt>
      <trkpt lat="46.52415" lon="5.31996">
        <ele>209.6</ele>
        <time>2021-08-28T11:09:57Z</time>
      </trkpt>
      <trkpt lat="46.5242" lon="5.32004">
        <ele>209.4</ele>
        <time>2021-08-28T11:09:58Z</time>
      </trkpt>
      <trkpt lat="46.52448" lon="5.32044">
        <ele>208.4</ele>
        <time>2021-08-28T11:10:03Z</time>
      </trkpt>
      <trkpt lat="46.52464" lon="5.32068">
        <ele>207.4</ele>
        <time>2021-08-28T11:10:06Z</time>
      </trkpt>
      <trkpt lat="46.5247" lon="5.32076">
        <ele>207.2</ele>
        <time>2021-08-28T11:10:07Z</time>
      </trkpt>
      <trkpt lat="46.52498" lon="5.32116">
        <ele>205.8</ele>
        <time>2021-08-28T11:10:12Z</time>
      </trkpt>
      <trkpt lat="46.52521" lon="5.3215">
        <ele>204.4</ele>
        <time>2021-08-28T11:10:16Z</time>
      </trkpt>
      <trkpt lat="46.52548" lon="5.32179">
        <ele>203.4</ele>
        <time>2021-08-28T11:10:20Z</time>
      </trkpt>
      <trkpt lat="46.52563" lon="5.32191">
        <ele>203</ele>
        <time>2021-08-28T11:10:22Z</time>
      </trkpt>
      <trkpt lat="46.52591" lon="5.32206">
        <ele>201.8</ele>
        <time>2021-08-28T11:10:25Z</time>
      </trkpt>
      <trkpt lat="46.52608" lon="5.32213">
        <ele>201.2</ele>
        <time>2021-08-28T11:10:27Z</time>
      </trkpt>
      <trkpt lat="46.52618" lon="5.32217">
        <ele>200.4</ele>
        <time>2021-08-28T11:10:28Z</time>
      </trkpt>
      <trkpt lat="46.52638" lon="5.32229">
        <ele>199</ele>
        <time>2021-08-28T11:10:30Z</time>
      </trkpt>
      <trkpt lat="46.52655" lon="5.3224">
        <ele>197.6</ele>
        <time>2021-08-28T11:10:32Z</time>
      </trkpt>
      <trkpt lat="46.52672" lon="5.32255">
        <ele>196.2</ele>
        <time>2021-08-28T11:10:34Z</time>
      </trkpt>
      <trkpt lat="46.52682" lon="5.32264">
        <ele>195.6</ele>
        <time>2021-08-28T11:10:35Z</time>
      </trkpt>
      <trkpt lat="46.52696" lon="5.32279">
        <ele>194.6</ele>
        <time>2021-08-28T11:10:37Z</time>
      </trkpt>
      <trkpt lat="46.52715" lon="5.32305">
        <ele>193.6</ele>
        <time>2021-08-28T11:10:40Z</time>
      </trkpt>
      <trkpt lat="46.52734" lon="5.32328">
        <ele>193.4</ele>
        <time>2021-08-28T11:10:43Z</time>
      </trkpt>
      <trkpt lat="46.5277" lon="5.3237">
        <ele>194.2</ele>
        <time>2021-08-28T11:10:49Z</time>
      </trkpt>
      <trkpt lat="46.52807" lon="5.32413">
        <ele>193.8</ele>
        <time>2021-08-28T11:10:56Z</time>
      </trkpt>
      <trkpt lat="46.52853" lon="5.32462">
        <ele>193.6</ele>
        <time>2021-08-28T11:11:05Z</time>
      </trkpt>
      <trkpt lat="46.52894" lon="5.32504">
        <ele>194.2</ele>
        <time>2021-08-28T11:11:13Z</time>
      </trkpt>
      <trkpt lat="46.52937" lon="5.32547">
        <ele>194</ele>
        <time>2021-08-28T11:11:21Z</time>
      </trkpt>
      <trkpt lat="46.52972" lon="5.32581">
        <ele>194.6</ele>
        <time>2021-08-28T11:11:28Z</time>
      </trkpt>
      <trkpt lat="46.52976" lon="5.32585">
        <ele>194.8</ele>
        <time>2021-08-28T11:11:29Z</time>
      </trkpt>
      <trkpt lat="46.5299" lon="5.32597">
        <ele>195.2</ele>
        <time>2021-08-28T11:11:32Z</time>
      </trkpt>
      <trkpt lat="46.52997" lon="5.32606">
        <ele>195.8</ele>
        <time>2021-08-28T11:11:34Z</time>
      </trkpt>
      <trkpt lat="46.53008" lon="5.32618">
        <ele>196.8</ele>
        <time>2021-08-28T11:11:37Z</time>
      </trkpt>
      <trkpt lat="46.53018" lon="5.32629">
        <ele>198</ele>
        <time>2021-08-28T11:11:40Z</time>
      </trkpt>
      <trkpt lat="46.53022" lon="5.32633">
        <ele>198.2</ele>
        <time>2021-08-28T11:11:41Z</time>
      </trkpt>
      <trkpt lat="46.53032" lon="5.32644">
        <ele>199</ele>
        <time>2021-08-28T11:11:44Z</time>
      </trkpt>
      <trkpt lat="46.53051" lon="5.32665">
        <ele>200</ele>
        <time>2021-08-28T11:11:50Z</time>
      </trkpt>
      <trkpt lat="46.53054" lon="5.32669">
        <ele>200.2</ele>
        <time>2021-08-28T11:11:51Z</time>
      </trkpt>
      <trkpt lat="46.53069" lon="5.32686">
        <ele>201.6</ele>
        <time>2021-08-28T11:11:56Z</time>
      </trkpt>
      <trkpt lat="46.53079" lon="5.32696">
        <ele>202.2</ele>
        <time>2021-08-28T11:11:59Z</time>
      </trkpt>
      <trkpt lat="46.53085" lon="5.32703">
        <ele>202.6</ele>
        <time>2021-08-28T11:12:01Z</time>
      </trkpt>
      <trkpt lat="46.53096" lon="5.32718">
        <ele>203.8</ele>
        <time>2021-08-28T11:12:05Z</time>
      </trkpt>
      <trkpt lat="46.53106" lon="5.32727">
        <ele>205</ele>
        <time>2021-08-28T11:12:08Z</time>
      </trkpt>
      <trkpt lat="46.53109" lon="5.32731">
        <ele>205.2</ele>
        <time>2021-08-28T11:12:09Z</time>
      </trkpt>
      <trkpt lat="46.5312" lon="5.32744">
        <ele>206</ele>
        <time>2021-08-28T11:12:13Z</time>
      </trkpt>
      <trkpt lat="46.53128" lon="5.32754">
        <ele>206.8</ele>
        <time>2021-08-28T11:12:16Z</time>
      </trkpt>
      <trkpt lat="46.53141" lon="5.3277">
        <ele>207.2</ele>
        <time>2021-08-28T11:12:21Z</time>
      </trkpt>
      <trkpt lat="46.53145" lon="5.32777">
        <ele>207.6</ele>
        <time>2021-08-28T11:12:23Z</time>
      </trkpt>
      <trkpt lat="46.53155" lon="5.3279">
        <ele>208.2</ele>
        <time>2021-08-28T11:12:27Z</time>
      </trkpt>
      <trkpt lat="46.53157" lon="5.32794">
        <ele>208.4</ele>
        <time>2021-08-28T11:12:28Z</time>
      </trkpt>
      <trkpt lat="46.53166" lon="5.32808">
        <ele>209.4</ele>
        <time>2021-08-28T11:12:32Z</time>
      </trkpt>
      <trkpt lat="46.53176" lon="5.32828">
        <ele>210.2</ele>
        <time>2021-08-28T11:12:37Z</time>
      </trkpt>
      <trkpt lat="46.53178" lon="5.32831">
        <ele>210.6</ele>
        <time>2021-08-28T11:12:38Z</time>
      </trkpt>
      <trkpt lat="46.53186" lon="5.32846">
        <ele>211.6</ele>
        <time>2021-08-28T11:12:42Z</time>
      </trkpt>
      <trkpt lat="46.53192" lon="5.32856">
        <ele>212.4</ele>
        <time>2021-08-28T11:12:45Z</time>
      </trkpt>
      <trkpt lat="46.532" lon="5.32872">
        <ele>212.6</ele>
        <time>2021-08-28T11:12:49Z</time>
      </trkpt>
      <trkpt lat="46.53211" lon="5.32893">
        <ele>213.6</ele>
        <time>2021-08-28T11:12:54Z</time>
      </trkpt>
      <trkpt lat="46.53215" lon="5.32901">
        <ele>213.8</ele>
        <time>2021-08-28T11:12:56Z</time>
      </trkpt>
      <trkpt lat="46.53225" lon="5.32921">
        <ele>214.8</ele>
        <time>2021-08-28T11:13:01Z</time>
      </trkpt>
      <trkpt lat="46.53227" lon="5.32925">
        <ele>215</ele>
        <time>2021-08-28T11:13:02Z</time>
      </trkpt>
      <trkpt lat="46.53241" lon="5.32952">
        <ele>216</ele>
        <time>2021-08-28T11:13:08Z</time>
      </trkpt>
      <trkpt lat="46.53248" lon="5.32966">
        <ele>216.8</ele>
        <time>2021-08-28T11:13:11Z</time>
      </trkpt>
      <trkpt lat="46.5325" lon="5.32971">
        <ele>217</ele>
        <time>2021-08-28T11:13:12Z</time>
      </trkpt>
      <trkpt lat="46.53267" lon="5.33005">
        <ele>218.2</ele>
        <time>2021-08-28T11:13:19Z</time>
      </trkpt>
      <trkpt lat="46.5327" lon="5.3301">
        <ele>218.2</ele>
        <time>2021-08-28T11:13:20Z</time>
      </trkpt>
      <trkpt lat="46.53297" lon="5.33055">
        <ele>219</ele>
        <time>2021-08-28T11:13:29Z</time>
      </trkpt>
      <trkpt lat="46.5333" lon="5.33102">
        <ele>219</ele>
        <time>2021-08-28T11:13:38Z</time>
      </trkpt>
      <trkpt lat="46.53363" lon="5.33146">
        <ele>218.8</ele>
        <time>2021-08-28T11:13:46Z</time>
      </trkpt>
      <trkpt lat="46.53401" lon="5.33197">
        <ele>218.6</ele>
        <time>2021-08-28T11:13:55Z</time>
      </trkpt>
      <trkpt lat="46.5344" lon="5.33253">
        <ele>218.6</ele>
        <time>2021-08-28T11:14:04Z</time>
      </trkpt>
      <trkpt lat="46.53449" lon="5.33265">
        <ele>218.6</ele>
        <time>2021-08-28T11:14:06Z</time>
      </trkpt>
      <trkpt lat="46.53488" lon="5.33321">
        <ele>218.6</ele>
        <time>2021-08-28T11:14:15Z</time>
      </trkpt>
      <trkpt lat="46.53531" lon="5.3338">
        <ele>217.8</ele>
        <time>2021-08-28T11:14:24Z</time>
      </trkpt>
      <trkpt lat="46.53541" lon="5.33394">
        <ele>217.8</ele>
        <time>2021-08-28T11:14:26Z</time>
      </trkpt>
      <trkpt lat="46.53567" lon="5.33431">
        <ele>217</ele>
        <time>2021-08-28T11:14:31Z</time>
      </trkpt>
      <trkpt lat="46.53578" lon="5.33446">
        <ele>216.6</ele>
        <time>2021-08-28T11:14:33Z</time>
      </trkpt>
      <trkpt lat="46.53605" lon="5.33483">
        <ele>215.8</ele>
        <time>2021-08-28T11:14:38Z</time>
      </trkpt>
      <trkpt lat="46.5361" lon="5.33491">
        <ele>215.6</ele>
        <time>2021-08-28T11:14:39Z</time>
      </trkpt>
      <trkpt lat="46.53624" lon="5.3351">
        <ele>215.2</ele>
        <time>2021-08-28T11:14:42Z</time>
      </trkpt>
      <trkpt lat="46.53626" lon="5.33516">
        <ele>215</ele>
        <time>2021-08-28T11:14:43Z</time>
      </trkpt>
      <trkpt lat="46.53627" lon="5.3352">
        <ele>215</ele>
        <time>2021-08-28T11:14:44Z</time>
      </trkpt>
      <trkpt lat="46.53627" lon="5.33527">
        <ele>214.8</ele>
        <time>2021-08-28T11:14:46Z</time>
      </trkpt>
      <trkpt lat="46.53628" lon="5.33529">
        <ele>214.8</ele>
        <time>2021-08-28T11:14:47Z</time>
      </trkpt>
      <trkpt lat="46.53634" lon="5.33528">
        <ele>214.8</ele>
        <time>2021-08-28T11:14:49Z</time>
      </trkpt>
      <trkpt lat="46.53642" lon="5.3352">
        <ele>214.8</ele>
        <time>2021-08-28T11:14:51Z</time>
      </trkpt>
      <trkpt lat="46.5365" lon="5.33514">
        <ele>215</ele>
        <time>2021-08-28T11:14:53Z</time>
      </trkpt>
      <trkpt lat="46.53668" lon="5.33498">
        <ele>215</ele>
        <time>2021-08-28T11:14:57Z</time>
      </trkpt>
      <trkpt lat="46.53686" lon="5.33481">
        <ele>215.2</ele>
        <time>2021-08-28T11:15:01Z</time>
      </trkpt>
      <trkpt lat="46.53696" lon="5.33473">
        <ele>215.4</ele>
        <time>2021-08-28T11:15:03Z</time>
      </trkpt>
      <trkpt lat="46.53707" lon="5.33471">
        <ele>215.4</ele>
        <time>2021-08-28T11:15:05Z</time>
      </trkpt>
      <trkpt lat="46.53732" lon="5.33484">
        <ele>215.6</ele>
        <time>2021-08-28T11:15:09Z</time>
      </trkpt>
      <trkpt lat="46.53768" lon="5.33505">
        <ele>215.4</ele>
        <time>2021-08-28T11:15:14Z</time>
      </trkpt>
      <trkpt lat="46.53817" lon="5.33538">
        <ele>213.8</ele>
        <time>2021-08-28T11:15:21Z</time>
      </trkpt>
      <trkpt lat="46.53839" lon="5.33551">
        <ele>212.6</ele>
        <time>2021-08-28T11:15:24Z</time>
      </trkpt>
      <trkpt lat="46.53872" lon="5.33562">
        <ele>212</ele>
        <time>2021-08-28T11:15:28Z</time>
      </trkpt>
      <trkpt lat="46.53886" lon="5.33564">
        <ele>211.6</ele>
        <time>2021-08-28T11:15:30Z</time>
      </trkpt>
      <trkpt lat="46.53922" lon="5.33566">
        <ele>210.4</ele>
        <time>2021-08-28T11:15:34Z</time>
      </trkpt>
      <trkpt lat="46.53959" lon="5.33569">
        <ele>209</ele>
        <time>2021-08-28T11:15:38Z</time>
      </trkpt>
      <trkpt lat="46.53981" lon="5.33569">
        <ele>208.2</ele>
        <time>2021-08-28T11:15:40Z</time>
      </trkpt>
      <trkpt lat="46.53991" lon="5.3357">
        <ele>207.2</ele>
        <time>2021-08-28T11:15:41Z</time>
      </trkpt>
      <trkpt lat="46.5401" lon="5.33574">
        <ele>205.4</ele>
        <time>2021-08-28T11:15:43Z</time>
      </trkpt>
      <trkpt lat="46.5402" lon="5.33577">
        <ele>205.2</ele>
        <time>2021-08-28T11:15:44Z</time>
      </trkpt>
      <trkpt lat="46.5403" lon="5.33582">
        <ele>204.4</ele>
        <time>2021-08-28T11:15:45Z</time>
      </trkpt>
      <trkpt lat="46.54049" lon="5.33594">
        <ele>203.4</ele>
        <time>2021-08-28T11:15:47Z</time>
      </trkpt>
      <trkpt lat="46.54069" lon="5.33607">
        <ele>202.6</ele>
        <time>2021-08-28T11:15:49Z</time>
      </trkpt>
      <trkpt lat="46.54079" lon="5.33613">
        <ele>202.2</ele>
        <time>2021-08-28T11:15:50Z</time>
      </trkpt>
      <trkpt lat="46.54115" lon="5.33634">
        <ele>200.8</ele>
        <time>2021-08-28T11:15:54Z</time>
      </trkpt>
      <trkpt lat="46.54121" lon="5.33638">
        <ele>200.4</ele>
        <time>2021-08-28T11:15:55Z</time>
      </trkpt>
      <trkpt lat="46.54158" lon="5.33649">
        <ele>200.4</ele>
        <time>2021-08-28T11:16:00Z</time>
      </trkpt>
      <trkpt lat="46.54198" lon="5.33653">
        <ele>202</ele>
        <time>2021-08-28T11:16:07Z</time>
      </trkpt>
      <trkpt lat="46.54215" lon="5.33654">
        <ele>203.2</ele>
        <time>2021-08-28T11:16:10Z</time>
      </trkpt>
      <trkpt lat="46.54236" lon="5.33656">
        <ele>204.4</ele>
        <time>2021-08-28T11:16:14Z</time>
      </trkpt>
      <trkpt lat="46.54242" lon="5.33656">
        <ele>204.8</ele>
        <time>2021-08-28T11:16:15Z</time>
      </trkpt>
      <trkpt lat="46.54277" lon="5.33656">
        <ele>205</ele>
        <time>2021-08-28T11:16:21Z</time>
      </trkpt>
      <trkpt lat="46.54321" lon="5.3366">
        <ele>205</ele>
        <time>2021-08-28T11:16:27Z</time>
      </trkpt>
      <trkpt lat="46.5437" lon="5.3367">
        <ele>203.8</ele>
        <time>2021-08-28T11:16:33Z</time>
      </trkpt>
      <trkpt lat="46.54406" lon="5.33686">
        <ele>203.4</ele>
        <time>2021-08-28T11:16:38Z</time>
      </trkpt>
      <trkpt lat="46.54435" lon="5.337">
        <ele>203.4</ele>
        <time>2021-08-28T11:16:43Z</time>
      </trkpt>
      <trkpt lat="46.54459" lon="5.33708">
        <ele>204.2</ele>
        <time>2021-08-28T11:16:48Z</time>
      </trkpt>
      <trkpt lat="46.54464" lon="5.3371">
        <ele>204.4</ele>
        <time>2021-08-28T11:16:49Z</time>
      </trkpt>
      <trkpt lat="46.54473" lon="5.33715">
        <ele>205.2</ele>
        <time>2021-08-28T11:16:51Z</time>
      </trkpt>
      <trkpt lat="46.54486" lon="5.33721">
        <ele>206.4</ele>
        <time>2021-08-28T11:16:54Z</time>
      </trkpt>
      <trkpt lat="46.545" lon="5.33727">
        <ele>207.2</ele>
        <time>2021-08-28T11:16:57Z</time>
      </trkpt>
      <trkpt lat="46.54504" lon="5.3373">
        <ele>207.4</ele>
        <time>2021-08-28T11:16:58Z</time>
      </trkpt>
      <trkpt lat="46.54512" lon="5.33735">
        <ele>208.4</ele>
        <time>2021-08-28T11:17:00Z</time>
      </trkpt>
      <trkpt lat="46.54528" lon="5.33744">
        <ele>209.6</ele>
        <time>2021-08-28T11:17:04Z</time>
      </trkpt>
      <trkpt lat="46.54536" lon="5.33747">
        <ele>210</ele>
        <time>2021-08-28T11:17:06Z</time>
      </trkpt>
      <trkpt lat="46.54547" lon="5.33753">
        <ele>210.8</ele>
        <time>2021-08-28T11:17:09Z</time>
      </trkpt>
      <trkpt lat="46.54558" lon="5.3376">
        <ele>211.4</ele>
        <time>2021-08-28T11:17:12Z</time>
      </trkpt>
      <trkpt lat="46.54562" lon="5.33762">
        <ele>212</ele>
        <time>2021-08-28T11:17:13Z</time>
      </trkpt>
      <trkpt lat="46.5458" lon="5.33769">
        <ele>213.2</ele>
        <time>2021-08-28T11:17:18Z</time>
      </trkpt>
      <trkpt lat="46.54584" lon="5.33771">
        <ele>213.4</ele>
        <time>2021-08-28T11:17:19Z</time>
      </trkpt>
      <trkpt lat="46.546" lon="5.33776">
        <ele>214.2</ele>
        <time>2021-08-28T11:17:23Z</time>
      </trkpt>
      <trkpt lat="46.54618" lon="5.3378">
        <ele>215</ele>
        <time>2021-08-28T11:17:27Z</time>
      </trkpt>
      <trkpt lat="46.54628" lon="5.33782">
        <ele>215.6</ele>
        <time>2021-08-28T11:17:29Z</time>
      </trkpt>
      <trkpt lat="46.5465" lon="5.33788">
        <ele>215.8</ele>
        <time>2021-08-28T11:17:33Z</time>
      </trkpt>
      <trkpt lat="46.5469" lon="5.33791">
        <ele>215</ele>
        <time>2021-08-28T11:17:39Z</time>
      </trkpt>
      <trkpt lat="46.5472" lon="5.33785">
        <ele>214.4</ele>
        <time>2021-08-28T11:17:43Z</time>
      </trkpt>
      <trkpt lat="46.54728" lon="5.33783">
        <ele>214.4</ele>
        <time>2021-08-28T11:17:44Z</time>
      </trkpt>
      <trkpt lat="46.54763" lon="5.33779">
        <ele>213.2</ele>
        <time>2021-08-28T11:17:48Z</time>
      </trkpt>
      <trkpt lat="46.5478" lon="5.33778">
        <ele>212.4</ele>
        <time>2021-08-28T11:17:50Z</time>
      </trkpt>
      <trkpt lat="46.54788" lon="5.33778">
        <ele>212</ele>
        <time>2021-08-28T11:17:51Z</time>
      </trkpt>
      <trkpt lat="46.54805" lon="5.33779">
        <ele>211</ele>
        <time>2021-08-28T11:17:53Z</time>
      </trkpt>
      <trkpt lat="46.54839" lon="5.33781">
        <ele>209.6</ele>
        <time>2021-08-28T11:17:57Z</time>
      </trkpt>
      <trkpt lat="46.5488" lon="5.33775">
        <ele>208.4</ele>
        <time>2021-08-28T11:18:02Z</time>
      </trkpt>
      <trkpt lat="46.54888" lon="5.33774">
        <ele>208.2</ele>
        <time>2021-08-28T11:18:03Z</time>
      </trkpt>
      <trkpt lat="46.54898" lon="5.33773">
        <ele>207.8</ele>
        <time>2021-08-28T11:18:04Z</time>
      </trkpt>
      <trkpt lat="46.54913" lon="5.33772">
        <ele>207.4</ele>
        <time>2021-08-28T11:18:06Z</time>
      </trkpt>
      <trkpt lat="46.54931" lon="5.33774">
        <ele>207</ele>
        <time>2021-08-28T11:18:08Z</time>
      </trkpt>
      <trkpt lat="46.54988" lon="5.33787">
        <ele>206.8</ele>
        <time>2021-08-28T11:18:16Z</time>
      </trkpt>
      <trkpt lat="46.55021" lon="5.33799">
        <ele>207.2</ele>
        <time>2021-08-28T11:18:21Z</time>
      </trkpt>
      <trkpt lat="46.55058" lon="5.3382">
        <ele>207.6</ele>
        <time>2021-08-28T11:18:28Z</time>
      </trkpt>
      <trkpt lat="46.55078" lon="5.33836">
        <ele>208</ele>
        <time>2021-08-28T11:18:32Z</time>
      </trkpt>
      <trkpt lat="46.55091" lon="5.33851">
        <ele>208.2</ele>
        <time>2021-08-28T11:18:35Z</time>
      </trkpt>
      <trkpt lat="46.55098" lon="5.33861">
        <ele>208.6</ele>
        <time>2021-08-28T11:18:37Z</time>
      </trkpt>
      <trkpt lat="46.55119" lon="5.33891">
        <ele>209.4</ele>
        <time>2021-08-28T11:18:43Z</time>
      </trkpt>
      <trkpt lat="46.55122" lon="5.33896">
        <ele>209.8</ele>
        <time>2021-08-28T11:18:44Z</time>
      </trkpt>
      <trkpt lat="46.5514" lon="5.33923">
        <ele>210.8</ele>
        <time>2021-08-28T11:18:49Z</time>
      </trkpt>
      <trkpt lat="46.55149" lon="5.33939">
        <ele>211.4</ele>
        <time>2021-08-28T11:18:52Z</time>
      </trkpt>
      <trkpt lat="46.55157" lon="5.33954">
        <ele>211.8</ele>
        <time>2021-08-28T11:18:55Z</time>
      </trkpt>
      <trkpt lat="46.55164" lon="5.3397">
        <ele>213.4</ele>
        <time>2021-08-28T11:18:58Z</time>
      </trkpt>
      <trkpt lat="46.55174" lon="5.3399">
        <ele>214.8</ele>
        <time>2021-08-28T11:19:02Z</time>
      </trkpt>
      <trkpt lat="46.5518" lon="5.34006">
        <ele>215.4</ele>
        <time>2021-08-28T11:19:05Z</time>
      </trkpt>
      <trkpt lat="46.55183" lon="5.34018">
        <ele>216</ele>
        <time>2021-08-28T11:19:07Z</time>
      </trkpt>
      <trkpt lat="46.55183" lon="5.34024">
        <ele>216</ele>
        <time>2021-08-28T11:19:08Z</time>
      </trkpt>
      <trkpt lat="46.55185" lon="5.34036">
        <ele>216.4</ele>
        <time>2021-08-28T11:19:10Z</time>
      </trkpt>
      <trkpt lat="46.5519" lon="5.34052">
        <ele>217.2</ele>
        <time>2021-08-28T11:19:13Z</time>
      </trkpt>
      <trkpt lat="46.55192" lon="5.34058">
        <ele>217.4</ele>
        <time>2021-08-28T11:19:14Z</time>
      </trkpt>
      <trkpt lat="46.55202" lon="5.34081">
        <ele>217.8</ele>
        <time>2021-08-28T11:19:18Z</time>
      </trkpt>
      <trkpt lat="46.55211" lon="5.34096">
        <ele>218.2</ele>
        <time>2021-08-28T11:19:21Z</time>
      </trkpt>
      <trkpt lat="46.55213" lon="5.34102">
        <ele>218.4</ele>
        <time>2021-08-28T11:19:22Z</time>
      </trkpt>
      <trkpt lat="46.55223" lon="5.34128">
        <ele>218.6</ele>
        <time>2021-08-28T11:19:26Z</time>
      </trkpt>
      <trkpt lat="46.55227" lon="5.34143">
        <ele>219</ele>
        <time>2021-08-28T11:19:28Z</time>
      </trkpt>
      <trkpt lat="46.55229" lon="5.34152">
        <ele>219</ele>
        <time>2021-08-28T11:19:29Z</time>
      </trkpt>
      <trkpt lat="46.55232" lon="5.34181">
        <ele>219.4</ele>
        <time>2021-08-28T11:19:32Z</time>
      </trkpt>
      <trkpt lat="46.55232" lon="5.34189">
        <ele>219.6</ele>
        <time>2021-08-28T11:19:33Z</time>
      </trkpt>
      <trkpt lat="46.55233" lon="5.34199">
        <ele>219.8</ele>
        <time>2021-08-28T11:19:34Z</time>
      </trkpt>
      <trkpt lat="46.55237" lon="5.34219">
        <ele>219.8</ele>
        <time>2021-08-28T11:19:36Z</time>
      </trkpt>
      <trkpt lat="46.5524" lon="5.34228">
        <ele>219.8</ele>
        <time>2021-08-28T11:19:37Z</time>
      </trkpt>
      <trkpt lat="46.55245" lon="5.34237">
        <ele>219.4</ele>
        <time>2021-08-28T11:19:38Z</time>
      </trkpt>
      <trkpt lat="46.55261" lon="5.34262">
        <ele>219</ele>
        <time>2021-08-28T11:19:41Z</time>
      </trkpt>
      <trkpt lat="46.55292" lon="5.34293">
        <ele>218</ele>
        <time>2021-08-28T11:19:46Z</time>
      </trkpt>
      <trkpt lat="46.55324" lon="5.3433">
        <ele>216.8</ele>
        <time>2021-08-28T11:19:51Z</time>
      </trkpt>
      <trkpt lat="46.55346" lon="5.34349">
        <ele>215.4</ele>
        <time>2021-08-28T11:19:54Z</time>
      </trkpt>
      <trkpt lat="46.55359" lon="5.34362">
        <ele>214.8</ele>
        <time>2021-08-28T11:19:56Z</time>
      </trkpt>
      <trkpt lat="46.55372" lon="5.34374">
        <ele>214.2</ele>
        <time>2021-08-28T11:19:58Z</time>
      </trkpt>
      <trkpt lat="46.55397" lon="5.34403">
        <ele>213.4</ele>
        <time>2021-08-28T11:20:02Z</time>
      </trkpt>
      <trkpt lat="46.55404" lon="5.3441">
        <ele>213.2</ele>
        <time>2021-08-28T11:20:03Z</time>
      </trkpt>
      <trkpt lat="46.55451" lon="5.34462">
        <ele>212.6</ele>
        <time>2021-08-28T11:20:11Z</time>
      </trkpt>
      <trkpt lat="46.55457" lon="5.34468">
        <ele>212.6</ele>
        <time>2021-08-28T11:20:12Z</time>
      </trkpt>
      <trkpt lat="46.55501" lon="5.34514">
        <ele>212.6</ele>
        <time>2021-08-28T11:20:20Z</time>
      </trkpt>
      <trkpt lat="46.55507" lon="5.34519">
        <ele>212.6</ele>
        <time>2021-08-28T11:20:21Z</time>
      </trkpt>
      <trkpt lat="46.55551" lon="5.34548">
        <ele>212.8</ele>
        <time>2021-08-28T11:20:28Z</time>
      </trkpt>
      <trkpt lat="46.55571" lon="5.34554">
        <ele>212.6</ele>
        <time>2021-08-28T11:20:31Z</time>
      </trkpt>
      <trkpt lat="46.55599" lon="5.34564">
        <ele>211.8</ele>
        <time>2021-08-28T11:20:35Z</time>
      </trkpt>
      <trkpt lat="46.55632" lon="5.34575">
        <ele>210.8</ele>
        <time>2021-08-28T11:20:39Z</time>
      </trkpt>
      <trkpt lat="46.55641" lon="5.34577">
        <ele>210.4</ele>
        <time>2021-08-28T11:20:40Z</time>
      </trkpt>
      <trkpt lat="46.55648" lon="5.34578">
        <ele>210.4</ele>
        <time>2021-08-28T11:20:41Z</time>
      </trkpt>
      <trkpt lat="46.55667" lon="5.34577">
        <ele>209.4</ele>
        <time>2021-08-28T11:20:43Z</time>
      </trkpt>
      <trkpt lat="46.55675" lon="5.34577">
        <ele>208.2</ele>
        <time>2021-08-28T11:20:44Z</time>
      </trkpt>
      <trkpt lat="46.55695" lon="5.34576">
        <ele>206.8</ele>
        <time>2021-08-28T11:20:46Z</time>
      </trkpt>
      <trkpt lat="46.55714" lon="5.34578">
        <ele>205.2</ele>
        <time>2021-08-28T11:20:48Z</time>
      </trkpt>
      <trkpt lat="46.55723" lon="5.3458">
        <ele>203.8</ele>
        <time>2021-08-28T11:20:49Z</time>
      </trkpt>
      <trkpt lat="46.55742" lon="5.34585">
        <ele>202.6</ele>
        <time>2021-08-28T11:20:51Z</time>
      </trkpt>
      <trkpt lat="46.55781" lon="5.34593">
        <ele>201.6</ele>
        <time>2021-08-28T11:20:55Z</time>
      </trkpt>
      <trkpt lat="46.55808" lon="5.346">
        <ele>200.2</ele>
        <time>2021-08-28T11:20:58Z</time>
      </trkpt>
      <trkpt lat="46.55833" lon="5.34606">
        <ele>199.8</ele>
        <time>2021-08-28T11:21:01Z</time>
      </trkpt>
      <trkpt lat="46.55893" lon="5.34622">
        <ele>199.4</ele>
        <time>2021-08-28T11:21:09Z</time>
      </trkpt>
      <trkpt lat="46.55917" lon="5.34627">
        <ele>199.2</ele>
        <time>2021-08-28T11:21:12Z</time>
      </trkpt>
      <trkpt lat="46.55932" lon="5.34631">
        <ele>199</ele>
        <time>2021-08-28T11:21:14Z</time>
      </trkpt>
      <trkpt lat="46.55947" lon="5.34633">
        <ele>198.8</ele>
        <time>2021-08-28T11:21:16Z</time>
      </trkpt>
      <trkpt lat="46.55981" lon="5.34642">
        <ele>198.4</ele>
        <time>2021-08-28T11:21:21Z</time>
      </trkpt>
      <trkpt lat="46.55987" lon="5.34644">
        <ele>198.4</ele>
        <time>2021-08-28T11:21:22Z</time>
      </trkpt>
      <trkpt lat="46.56012" lon="5.34651">
        <ele>198.8</ele>
        <time>2021-08-28T11:21:26Z</time>
      </trkpt>
      <trkpt lat="46.56065" lon="5.34665">
        <ele>199.8</ele>
        <time>2021-08-28T11:21:34Z</time>
      </trkpt>
      <trkpt lat="46.56119" lon="5.34677">
        <ele>200</ele>
        <time>2021-08-28T11:21:43Z</time>
      </trkpt>
      <trkpt lat="46.56129" lon="5.34679">
        <ele>200.2</ele>
        <time>2021-08-28T11:21:45Z</time>
      </trkpt>
      <trkpt lat="46.5615" lon="5.3468">
        <ele>200.6</ele>
        <time>2021-08-28T11:21:49Z</time>
      </trkpt>
      <trkpt lat="46.56169" lon="5.34678">
        <ele>201.4</ele>
        <time>2021-08-28T11:21:53Z</time>
      </trkpt>
      <trkpt lat="46.56187" lon="5.34675">
        <ele>202.2</ele>
        <time>2021-08-28T11:21:57Z</time>
      </trkpt>
      <trkpt lat="46.56191" lon="5.34675">
        <ele>202.4</ele>
        <time>2021-08-28T11:21:58Z</time>
      </trkpt>
      <trkpt lat="46.56213" lon="5.34668">
        <ele>203.8</ele>
        <time>2021-08-28T11:22:03Z</time>
      </trkpt>
      <trkpt lat="46.56218" lon="5.34667">
        <ele>204</ele>
        <time>2021-08-28T11:22:04Z</time>
      </trkpt>
      <trkpt lat="46.56226" lon="5.34665">
        <ele>204.6</ele>
        <time>2021-08-28T11:22:06Z</time>
      </trkpt>
      <trkpt lat="46.56234" lon="5.34663">
        <ele>205</ele>
        <time>2021-08-28T11:22:08Z</time>
      </trkpt>
      <trkpt lat="46.56246" lon="5.3466">
        <ele>205.4</ele>
        <time>2021-08-28T11:22:11Z</time>
      </trkpt>
      <trkpt lat="46.56278" lon="5.3465">
        <ele>205.8</ele>
        <time>2021-08-28T11:22:19Z</time>
      </trkpt>
      <trkpt lat="46.56286" lon="5.34648">
        <ele>206.4</ele>
        <time>2021-08-28T11:22:21Z</time>
      </trkpt>
      <trkpt lat="46.56304" lon="5.34647">
        <ele>207.8</ele>
        <time>2021-08-28T11:22:26Z</time>
      </trkpt>
      <trkpt lat="46.56308" lon="5.34648">
        <ele>208</ele>
        <time>2021-08-28T11:22:27Z</time>
      </trkpt>
      <trkpt lat="46.56323" lon="5.3465">
        <ele>209.2</ele>
        <time>2021-08-28T11:22:31Z</time>
      </trkpt>
      <trkpt lat="46.5634" lon="5.34656">
        <ele>209.6</ele>
        <time>2021-08-28T11:22:35Z</time>
      </trkpt>
      <trkpt lat="46.56364" lon="5.34669">
        <ele>210</ele>
        <time>2021-08-28T11:22:40Z</time>
      </trkpt>
      <trkpt lat="46.56374" lon="5.34673">
        <ele>210.2</ele>
        <time>2021-08-28T11:22:42Z</time>
      </trkpt>
      <trkpt lat="46.56398" lon="5.34677">
        <ele>210.4</ele>
        <time>2021-08-28T11:22:46Z</time>
      </trkpt>
      <trkpt lat="46.5643" lon="5.3469">
        <ele>209.8</ele>
        <time>2021-08-28T11:22:51Z</time>
      </trkpt>
      <trkpt lat="46.56449" lon="5.34701">
        <ele>209</ele>
        <time>2021-08-28T11:22:54Z</time>
      </trkpt>
      <trkpt lat="46.56475" lon="5.34715">
        <ele>208.4</ele>
        <time>2021-08-28T11:22:58Z</time>
      </trkpt>
      <trkpt lat="46.56493" lon="5.34726">
        <ele>207.4</ele>
        <time>2021-08-28T11:23:01Z</time>
      </trkpt>
      <trkpt lat="46.56506" lon="5.34733">
        <ele>206.2</ele>
        <time>2021-08-28T11:23:03Z</time>
      </trkpt>
      <trkpt lat="46.5652" lon="5.3474">
        <ele>205</ele>
        <time>2021-08-28T11:23:05Z</time>
      </trkpt>
      <trkpt lat="46.56527" lon="5.34744">
        <ele>204.6</ele>
        <time>2021-08-28T11:23:06Z</time>
      </trkpt>
      <trkpt lat="46.56541" lon="5.34752">
        <ele>204</ele>
        <time>2021-08-28T11:23:08Z</time>
      </trkpt>
      <trkpt lat="46.56572" lon="5.34769">
        <ele>202.4</ele>
        <time>2021-08-28T11:23:12Z</time>
      </trkpt>
      <trkpt lat="46.56589" lon="5.34774">
        <ele>201.4</ele>
        <time>2021-08-28T11:23:14Z</time>
      </trkpt>
      <trkpt lat="46.56597" lon="5.34772">
        <ele>201.2</ele>
        <time>2021-08-28T11:23:15Z</time>
      </trkpt>
      <trkpt lat="46.56605" lon="5.34766">
        <ele>201</ele>
        <time>2021-08-28T11:23:16Z</time>
      </trkpt>
      <trkpt lat="46.56612" lon="5.34757">
        <ele>200.2</ele>
        <time>2021-08-28T11:23:17Z</time>
      </trkpt>
      <trkpt lat="46.56617" lon="5.34747">
        <ele>200</ele>
        <time>2021-08-28T11:23:18Z</time>
      </trkpt>
      <trkpt lat="46.56633" lon="5.34712">
        <ele>199</ele>
        <time>2021-08-28T11:23:21Z</time>
      </trkpt>
      <trkpt lat="46.5664" lon="5.34703">
        <ele>198.4</ele>
        <time>2021-08-28T11:23:22Z</time>
      </trkpt>
      <trkpt lat="46.56647" lon="5.34696">
        <ele>198</ele>
        <time>2021-08-28T11:23:23Z</time>
      </trkpt>
      <trkpt lat="46.56655" lon="5.34691">
        <ele>197.4</ele>
        <time>2021-08-28T11:23:24Z</time>
      </trkpt>
      <trkpt lat="46.56663" lon="5.34688">
        <ele>197.2</ele>
        <time>2021-08-28T11:23:25Z</time>
      </trkpt>
      <trkpt lat="46.56687" lon="5.34682">
        <ele>196.4</ele>
        <time>2021-08-28T11:23:28Z</time>
      </trkpt>
      <trkpt lat="46.5671" lon="5.34674">
        <ele>196</ele>
        <time>2021-08-28T11:23:31Z</time>
      </trkpt>
      <trkpt lat="46.56745" lon="5.34661">
        <ele>196.4</ele>
        <time>2021-08-28T11:23:36Z</time>
      </trkpt>
      <trkpt lat="46.56759" lon="5.34664">
        <ele>196.6</ele>
        <time>2021-08-28T11:23:38Z</time>
      </trkpt>
      <trkpt lat="46.56764" lon="5.3467">
        <ele>196.8</ele>
        <time>2021-08-28T11:23:39Z</time>
      </trkpt>
      <trkpt lat="46.56769" lon="5.34678">
        <ele>196.8</ele>
        <time>2021-08-28T11:23:40Z</time>
      </trkpt>
      <trkpt lat="46.56776" lon="5.34697">
        <ele>196.8</ele>
        <time>2021-08-28T11:23:42Z</time>
      </trkpt>
      <trkpt lat="46.5679" lon="5.34755">
        <ele>196.6</ele>
        <time>2021-08-28T11:23:48Z</time>
      </trkpt>
      <trkpt lat="46.56806" lon="5.34835">
        <ele>196.4</ele>
        <time>2021-08-28T11:23:56Z</time>
      </trkpt>
      <trkpt lat="46.56808" lon="5.34845">
        <ele>196.4</ele>
        <time>2021-08-28T11:23:57Z</time>
      </trkpt>
      <trkpt lat="46.5682" lon="5.34912">
        <ele>196.8</ele>
        <time>2021-08-28T11:24:04Z</time>
      </trkpt>
      <trkpt lat="46.56829" lon="5.34963">
        <ele>197.4</ele>
        <time>2021-08-28T11:24:10Z</time>
      </trkpt>
      <trkpt lat="46.56832" lon="5.34972">
        <ele>197.6</ele>
        <time>2021-08-28T11:24:11Z</time>
      </trkpt>
      <trkpt lat="46.56833" lon="5.34977">
        <ele>197.8</ele>
        <time>2021-08-28T11:24:12Z</time>
      </trkpt>
      <trkpt lat="46.56846" lon="5.3501">
        <ele>198.8</ele>
        <time>2021-08-28T11:24:17Z</time>
      </trkpt>
      <trkpt lat="46.56848" lon="5.35016">
        <ele>199</ele>
        <time>2021-08-28T11:24:18Z</time>
      </trkpt>
      <trkpt lat="46.56857" lon="5.35034">
        <ele>200</ele>
        <time>2021-08-28T11:24:21Z</time>
      </trkpt>
      <trkpt lat="46.56866" lon="5.35057">
        <ele>200.8</ele>
        <time>2021-08-28T11:24:25Z</time>
      </trkpt>
      <trkpt lat="46.56869" lon="5.35063">
        <ele>201.2</ele>
        <time>2021-08-28T11:24:26Z</time>
      </trkpt>
      <trkpt lat="46.56877" lon="5.35079">
        <ele>202.4</ele>
        <time>2021-08-28T11:24:29Z</time>
      </trkpt>
      <trkpt lat="46.56886" lon="5.35101">
        <ele>203.6</ele>
        <time>2021-08-28T11:24:33Z</time>
      </trkpt>
      <trkpt lat="46.56889" lon="5.35106">
        <ele>203.8</ele>
        <time>2021-08-28T11:24:34Z</time>
      </trkpt>
      <trkpt lat="46.56897" lon="5.35122">
        <ele>204.8</ele>
        <time>2021-08-28T11:24:37Z</time>
      </trkpt>
      <trkpt lat="46.56906" lon="5.35143">
        <ele>205.8</ele>
        <time>2021-08-28T11:24:41Z</time>
      </trkpt>
      <trkpt lat="46.56909" lon="5.35147">
        <ele>206</ele>
        <time>2021-08-28T11:24:42Z</time>
      </trkpt>
      <trkpt lat="46.56912" lon="5.35152">
        <ele>206.2</ele>
        <time>2021-08-28T11:24:43Z</time>
      </trkpt>
      <trkpt lat="46.56928" lon="5.3517">
        <ele>207.2</ele>
        <time>2021-08-28T11:24:47Z</time>
      </trkpt>
      <trkpt lat="46.56934" lon="5.35175">
        <ele>207.4</ele>
        <time>2021-08-28T11:24:48Z</time>
      </trkpt>
      <trkpt lat="46.56955" lon="5.35192">
        <ele>207.6</ele>
        <time>2021-08-28T11:24:52Z</time>
      </trkpt>
      <trkpt lat="46.56961" lon="5.35198">
        <ele>207.6</ele>
        <time>2021-08-28T11:24:53Z</time>
      </trkpt>
      <trkpt lat="46.56966" lon="5.35207">
        <ele>207.4</ele>
        <time>2021-08-28T11:24:54Z</time>
      </trkpt>
      <trkpt lat="46.56972" lon="5.35228">
        <ele>207.2</ele>
        <time>2021-08-28T11:24:56Z</time>
      </trkpt>
      <trkpt lat="46.5698" lon="5.35266">
        <ele>205.8</ele>
        <time>2021-08-28T11:24:59Z</time>
      </trkpt>
      <trkpt lat="46.56986" lon="5.35291">
        <ele>204.2</ele>
        <time>2021-08-28T11:25:01Z</time>
      </trkpt>
      <trkpt lat="46.56993" lon="5.35315">
        <ele>203.2</ele>
        <time>2021-08-28T11:25:03Z</time>
      </trkpt>
      <trkpt lat="46.57004" lon="5.35348">
        <ele>202</ele>
        <time>2021-08-28T11:25:06Z</time>
      </trkpt>
      <trkpt lat="46.57028" lon="5.35422">
        <ele>201.4</ele>
        <time>2021-08-28T11:25:13Z</time>
      </trkpt>
      <trkpt lat="46.57031" lon="5.35432">
        <ele>201.4</ele>
        <time>2021-08-28T11:25:14Z</time>
      </trkpt>
      <trkpt lat="46.57037" lon="5.35487">
        <ele>201</ele>
        <time>2021-08-28T11:25:19Z</time>
      </trkpt>
      <trkpt lat="46.57039" lon="5.35506">
        <ele>200.8</ele>
        <time>2021-08-28T11:25:21Z</time>
      </trkpt>
      <trkpt lat="46.57042" lon="5.35534">
        <ele>200.4</ele>
        <time>2021-08-28T11:25:24Z</time>
      </trkpt>
      <trkpt lat="46.57048" lon="5.35595">
        <ele>199.8</ele>
        <time>2021-08-28T11:25:30Z</time>
      </trkpt>
      <trkpt lat="46.5705" lon="5.35606">
        <ele>199.8</ele>
        <time>2021-08-28T11:25:31Z</time>
      </trkpt>
      <trkpt lat="46.57053" lon="5.35616">
        <ele>199.6</ele>
        <time>2021-08-28T11:25:32Z</time>
      </trkpt>
      <trkpt lat="46.57061" lon="5.35635">
        <ele>199.4</ele>
        <time>2021-08-28T11:25:34Z</time>
      </trkpt>
      <trkpt lat="46.57072" lon="5.35649">
        <ele>199</ele>
        <time>2021-08-28T11:25:36Z</time>
      </trkpt>
      <trkpt lat="46.57083" lon="5.35662">
        <ele>199</ele>
        <time>2021-08-28T11:25:38Z</time>
      </trkpt>
      <trkpt lat="46.57114" lon="5.35704">
        <ele>199</ele>
        <time>2021-08-28T11:25:44Z</time>
      </trkpt>
      <trkpt lat="46.5713" lon="5.35724">
        <ele>199.2</ele>
        <time>2021-08-28T11:25:47Z</time>
      </trkpt>
      <trkpt lat="46.57142" lon="5.35734">
        <ele>199.6</ele>
        <time>2021-08-28T11:25:49Z</time>
      </trkpt>
      <trkpt lat="46.57188" lon="5.35763">
        <ele>200</ele>
        <time>2021-08-28T11:25:57Z</time>
      </trkpt>
      <trkpt lat="46.57237" lon="5.35796">
        <ele>199.8</ele>
        <time>2021-08-28T11:26:05Z</time>
      </trkpt>
      <trkpt lat="46.57249" lon="5.35803">
        <ele>199.4</ele>
        <time>2021-08-28T11:26:07Z</time>
      </trkpt>
      <trkpt lat="46.5726" lon="5.3581">
        <ele>199</ele>
        <time>2021-08-28T11:26:09Z</time>
      </trkpt>
      <trkpt lat="46.57277" lon="5.3582">
        <ele>199</ele>
        <time>2021-08-28T11:26:12Z</time>
      </trkpt>
      <trkpt lat="46.57293" lon="5.35831">
        <ele>199</ele>
        <time>2021-08-28T11:26:15Z</time>
      </trkpt>
      <trkpt lat="46.57311" lon="5.35837">
        <ele>199.8</ele>
        <time>2021-08-28T11:26:18Z</time>
      </trkpt>
      <trkpt lat="46.57334" lon="5.35842">
        <ele>200.2</ele>
        <time>2021-08-28T11:26:22Z</time>
      </trkpt>
      <trkpt lat="46.57345" lon="5.3584">
        <ele>200.4</ele>
        <time>2021-08-28T11:26:24Z</time>
      </trkpt>
      <trkpt lat="46.5735" lon="5.35837">
        <ele>200.4</ele>
        <time>2021-08-28T11:26:25Z</time>
      </trkpt>
      <trkpt lat="46.57355" lon="5.35834">
        <ele>200.6</ele>
        <time>2021-08-28T11:26:26Z</time>
      </trkpt>
      <trkpt lat="46.57364" lon="5.35823">
        <ele>200.8</ele>
        <time>2021-08-28T11:26:28Z</time>
      </trkpt>
      <trkpt lat="46.57368" lon="5.35817">
        <ele>200.8</ele>
        <time>2021-08-28T11:26:29Z</time>
      </trkpt>
      <trkpt lat="46.57392" lon="5.35774">
        <ele>201.8</ele>
        <time>2021-08-28T11:26:36Z</time>
      </trkpt>
      <trkpt lat="46.57407" lon="5.35752">
        <ele>202.6</ele>
        <time>2021-08-28T11:26:40Z</time>
      </trkpt>
      <trkpt lat="46.57412" lon="5.35748">
        <ele>202.8</ele>
        <time>2021-08-28T11:26:41Z</time>
      </trkpt>
      <trkpt lat="46.5744" lon="5.35731">
        <ele>202.6</ele>
        <time>2021-08-28T11:26:45Z</time>
      </trkpt>
      <trkpt lat="46.57479" lon="5.35707">
        <ele>200.8</ele>
        <time>2021-08-28T11:26:50Z</time>
      </trkpt>
      <trkpt lat="46.57496" lon="5.35696">
        <ele>199.2</ele>
        <time>2021-08-28T11:26:52Z</time>
      </trkpt>
      <trkpt lat="46.57504" lon="5.3569">
        <ele>197.8</ele>
        <time>2021-08-28T11:26:53Z</time>
      </trkpt>
      <trkpt lat="46.57528" lon="5.35672">
        <ele>196.6</ele>
        <time>2021-08-28T11:26:56Z</time>
      </trkpt>
      <trkpt lat="46.57536" lon="5.35665">
        <ele>196.2</ele>
        <time>2021-08-28T11:26:57Z</time>
      </trkpt>
      <trkpt lat="46.57542" lon="5.35656">
        <ele>195.8</ele>
        <time>2021-08-28T11:26:58Z</time>
      </trkpt>
      <trkpt lat="46.57549" lon="5.35647">
        <ele>195.6</ele>
        <time>2021-08-28T11:26:59Z</time>
      </trkpt>
      <trkpt lat="46.57581" lon="5.35601">
        <ele>194.2</ele>
        <time>2021-08-28T11:27:04Z</time>
      </trkpt>
      <trkpt lat="46.57612" lon="5.35575">
        <ele>193</ele>
        <time>2021-08-28T11:27:08Z</time>
      </trkpt>
      <trkpt lat="46.5766" lon="5.35528">
        <ele>192.4</ele>
        <time>2021-08-28T11:27:15Z</time>
      </trkpt>
      <trkpt lat="46.57694" lon="5.35505">
        <ele>193.2</ele>
        <time>2021-08-28T11:27:20Z</time>
      </trkpt>
      <trkpt lat="46.57726" lon="5.35483">
        <ele>194</ele>
        <time>2021-08-28T11:27:26Z</time>
      </trkpt>
      <trkpt lat="46.57735" lon="5.35477">
        <ele>194.8</ele>
        <time>2021-08-28T11:27:28Z</time>
      </trkpt>
      <trkpt lat="46.57747" lon="5.35467">
        <ele>195.6</ele>
        <time>2021-08-28T11:27:31Z</time>
      </trkpt>
      <trkpt lat="46.57751" lon="5.35464">
        <ele>196.4</ele>
        <time>2021-08-28T11:27:32Z</time>
      </trkpt>
      <trkpt lat="46.57762" lon="5.35456">
        <ele>197.8</ele>
        <time>2021-08-28T11:27:35Z</time>
      </trkpt>
      <trkpt lat="46.57766" lon="5.35453">
        <ele>198</ele>
        <time>2021-08-28T11:27:36Z</time>
      </trkpt>
      <trkpt lat="46.57777" lon="5.35444">
        <ele>199</ele>
        <time>2021-08-28T11:27:39Z</time>
      </trkpt>
      <trkpt lat="46.57788" lon="5.35436">
        <ele>200.4</ele>
        <time>2021-08-28T11:27:42Z</time>
      </trkpt>
      <trkpt lat="46.57796" lon="5.35432">
        <ele>201.2</ele>
        <time>2021-08-28T11:27:44Z</time>
      </trkpt>
      <trkpt lat="46.57799" lon="5.3543">
        <ele>201.4</ele>
        <time>2021-08-28T11:27:45Z</time>
      </trkpt>
      <trkpt lat="46.57807" lon="5.35426">
        <ele>202</ele>
        <time>2021-08-28T11:27:47Z</time>
      </trkpt>
      <trkpt lat="46.57815" lon="5.35427">
        <ele>202.6</ele>
        <time>2021-08-28T11:27:49Z</time>
      </trkpt>
      <trkpt lat="46.57821" lon="5.35435">
        <ele>202.8</ele>
        <time>2021-08-28T11:27:51Z</time>
      </trkpt>
      <trkpt lat="46.57823" lon="5.3544">
        <ele>203</ele>
        <time>2021-08-28T11:27:52Z</time>
      </trkpt>
      <trkpt lat="46.57825" lon="5.35446">
        <ele>203.2</ele>
        <time>2021-08-28T11:27:53Z</time>
      </trkpt>
      <trkpt lat="46.57827" lon="5.35468">
        <ele>203.8</ele>
        <time>2021-08-28T11:27:56Z</time>
      </trkpt>
      <trkpt lat="46.57828" lon="5.35475">
        <ele>203.8</ele>
        <time>2021-08-28T11:27:57Z</time>
      </trkpt>
      <trkpt lat="46.57838" lon="5.35517">
        <ele>203.8</ele>
        <time>2021-08-28T11:28:02Z</time>
      </trkpt>
      <trkpt lat="46.57858" lon="5.35567">
        <ele>202.4</ele>
        <time>2021-08-28T11:28:07Z</time>
      </trkpt>
      <trkpt lat="46.57866" lon="5.35589">
        <ele>201.6</ele>
        <time>2021-08-28T11:28:09Z</time>
      </trkpt>
      <trkpt lat="46.57871" lon="5.35612">
        <ele>201</ele>
        <time>2021-08-28T11:28:11Z</time>
      </trkpt>
      <trkpt lat="46.57874" lon="5.35634">
        <ele>200.8</ele>
        <time>2021-08-28T11:28:13Z</time>
      </trkpt>
      <trkpt lat="46.57876" lon="5.35654">
        <ele>200.8</ele>
        <time>2021-08-28T11:28:15Z</time>
      </trkpt>
      <trkpt lat="46.5788" lon="5.35674">
        <ele>201</ele>
        <time>2021-08-28T11:28:17Z</time>
      </trkpt>
      <trkpt lat="46.57888" lon="5.357">
        <ele>201.8</ele>
        <time>2021-08-28T11:28:20Z</time>
      </trkpt>
      <trkpt lat="46.57892" lon="5.35708">
        <ele>202</ele>
        <time>2021-08-28T11:28:21Z</time>
      </trkpt>
      <trkpt lat="46.57896" lon="5.35716">
        <ele>202.2</ele>
        <time>2021-08-28T11:28:22Z</time>
      </trkpt>
      <trkpt lat="46.57903" lon="5.35733">
        <ele>202.2</ele>
        <time>2021-08-28T11:28:24Z</time>
      </trkpt>
      <trkpt lat="46.57927" lon="5.35786">
        <ele>202.4</ele>
        <time>2021-08-28T11:28:30Z</time>
      </trkpt>
      <trkpt lat="46.5793" lon="5.35797">
        <ele>202.4</ele>
        <time>2021-08-28T11:28:31Z</time>
      </trkpt>
      <trkpt lat="46.57932" lon="5.35808">
        <ele>202.2</ele>
        <time>2021-08-28T11:28:32Z</time>
      </trkpt>
      <trkpt lat="46.57932" lon="5.35831">
        <ele>202</ele>
        <time>2021-08-28T11:28:34Z</time>
      </trkpt>
      <trkpt lat="46.57928" lon="5.35855">
        <ele>201.6</ele>
        <time>2021-08-28T11:28:36Z</time>
      </trkpt>
      <trkpt lat="46.57923" lon="5.35876">
        <ele>201</ele>
        <time>2021-08-28T11:28:38Z</time>
      </trkpt>
      <trkpt lat="46.57917" lon="5.35897">
        <ele>200.6</ele>
        <time>2021-08-28T11:28:40Z</time>
      </trkpt>
      <trkpt lat="46.57912" lon="5.35918">
        <ele>200.4</ele>
        <time>2021-08-28T11:28:42Z</time>
      </trkpt>
      <trkpt lat="46.57907" lon="5.35941">
        <ele>200.2</ele>
        <time>2021-08-28T11:28:44Z</time>
      </trkpt>
      <trkpt lat="46.57906" lon="5.35967">
        <ele>200</ele>
        <time>2021-08-28T11:28:46Z</time>
      </trkpt>
      <trkpt lat="46.5791" lon="5.35979">
        <ele>199.8</ele>
        <time>2021-08-28T11:28:47Z</time>
      </trkpt>
      <trkpt lat="46.57915" lon="5.35988">
        <ele>199.6</ele>
        <time>2021-08-28T11:28:48Z</time>
      </trkpt>
      <trkpt lat="46.57922" lon="5.35995">
        <ele>198.8</ele>
        <time>2021-08-28T11:28:49Z</time>
      </trkpt>
      <trkpt lat="46.57937" lon="5.36008">
        <ele>198</ele>
        <time>2021-08-28T11:28:51Z</time>
      </trkpt>
      <trkpt lat="46.57952" lon="5.36021">
        <ele>197.6</ele>
        <time>2021-08-28T11:28:53Z</time>
      </trkpt>
      <trkpt lat="46.57965" lon="5.36034">
        <ele>197.2</ele>
        <time>2021-08-28T11:28:55Z</time>
      </trkpt>
      <trkpt lat="46.57971" lon="5.36041">
        <ele>197.2</ele>
        <time>2021-08-28T11:28:56Z</time>
      </trkpt>
      <trkpt lat="46.57977" lon="5.36049">
        <ele>197.2</ele>
        <time>2021-08-28T11:28:57Z</time>
      </trkpt>
      <trkpt lat="46.57987" lon="5.36065">
        <ele>197.2</ele>
        <time>2021-08-28T11:28:59Z</time>
      </trkpt>
      <trkpt lat="46.57992" lon="5.36074">
        <ele>197.4</ele>
        <time>2021-08-28T11:29:00Z</time>
      </trkpt>
      <trkpt lat="46.58003" lon="5.36103">
        <ele>197.8</ele>
        <time>2021-08-28T11:29:03Z</time>
      </trkpt>
      <trkpt lat="46.58018" lon="5.36149">
        <ele>198.4</ele>
        <time>2021-08-28T11:29:08Z</time>
      </trkpt>
      <trkpt lat="46.5802" lon="5.36159">
        <ele>198.6</ele>
        <time>2021-08-28T11:29:09Z</time>
      </trkpt>
      <trkpt lat="46.58021" lon="5.36197">
        <ele>199</ele>
        <time>2021-08-28T11:29:13Z</time>
      </trkpt>
      <trkpt lat="46.58018" lon="5.36225">
        <ele>199.6</ele>
        <time>2021-08-28T11:29:16Z</time>
      </trkpt>
      <trkpt lat="46.58019" lon="5.36243">
        <ele>200</ele>
        <time>2021-08-28T11:29:18Z</time>
      </trkpt>
      <trkpt lat="46.5802" lon="5.36261">
        <ele>200.2</ele>
        <time>2021-08-28T11:29:20Z</time>
      </trkpt>
      <trkpt lat="46.58022" lon="5.36299">
        <ele>200.8</ele>
        <time>2021-08-28T11:29:24Z</time>
      </trkpt>
      <trkpt lat="46.58029" lon="5.36338">
        <ele>200.4</ele>
        <time>2021-08-28T11:29:28Z</time>
      </trkpt>
      <trkpt lat="46.58035" lon="5.36354">
        <ele>200.4</ele>
        <time>2021-08-28T11:29:30Z</time>
      </trkpt>
      <trkpt lat="46.58044" lon="5.36369">
        <ele>200.4</ele>
        <time>2021-08-28T11:29:32Z</time>
      </trkpt>
      <trkpt lat="46.58068" lon="5.364">
        <ele>200</ele>
        <time>2021-08-28T11:29:37Z</time>
      </trkpt>
      <trkpt lat="46.58073" lon="5.36409">
        <ele>200.2</ele>
        <time>2021-08-28T11:29:38Z</time>
      </trkpt>
      <trkpt lat="46.58087" lon="5.36427">
        <ele>200.6</ele>
        <time>2021-08-28T11:29:41Z</time>
      </trkpt>
      <trkpt lat="46.58098" lon="5.36449">
        <ele>200.8</ele>
        <time>2021-08-28T11:29:44Z</time>
      </trkpt>
      <trkpt lat="46.58112" lon="5.36479">
        <ele>200.8</ele>
        <time>2021-08-28T11:29:48Z</time>
      </trkpt>
      <trkpt lat="46.58121" lon="5.36506">
        <ele>201</ele>
        <time>2021-08-28T11:29:51Z</time>
      </trkpt>
      <trkpt lat="46.58127" lon="5.3654">
        <ele>201.2</ele>
        <time>2021-08-28T11:29:55Z</time>
      </trkpt>
      <trkpt lat="46.58128" lon="5.36549">
        <ele>201.4</ele>
        <time>2021-08-28T11:29:56Z</time>
      </trkpt>
      <trkpt lat="46.58129" lon="5.36567">
        <ele>201.4</ele>
        <time>2021-08-28T11:29:58Z</time>
      </trkpt>
      <trkpt lat="46.58128" lon="5.36585">
        <ele>201.6</ele>
        <time>2021-08-28T11:30:00Z</time>
      </trkpt>
      <trkpt lat="46.58128" lon="5.36597">
        <ele>201.8</ele>
        <time>2021-08-28T11:30:01Z</time>
      </trkpt>
      <trkpt lat="46.58129" lon="5.36605">
        <ele>202</ele>
        <time>2021-08-28T11:30:02Z</time>
      </trkpt>
      <trkpt lat="46.58133" lon="5.36622">
        <ele>202</ele>
        <time>2021-08-28T11:30:04Z</time>
      </trkpt>
      <trkpt lat="46.58144" lon="5.36654">
        <ele>201.8</ele>
        <time>2021-08-28T11:30:08Z</time>
      </trkpt>
      <trkpt lat="46.58168" lon="5.36712">
        <ele>201.8</ele>
        <time>2021-08-28T11:30:15Z</time>
      </trkpt>
      <trkpt lat="46.58187" lon="5.36763">
        <ele>201.2</ele>
        <time>2021-08-28T11:30:21Z</time>
      </trkpt>
      <trkpt lat="46.5821" lon="5.36818">
        <ele>201.2</ele>
        <time>2021-08-28T11:30:28Z</time>
      </trkpt>
      <trkpt lat="46.58237" lon="5.36887">
        <ele>202</ele>
        <time>2021-08-28T11:30:37Z</time>
      </trkpt>
      <trkpt lat="46.5824" lon="5.36894">
        <ele>202.2</ele>
        <time>2021-08-28T11:30:38Z</time>
      </trkpt>
      <trkpt lat="46.58243" lon="5.36901">
        <ele>202.4</ele>
        <time>2021-08-28T11:30:39Z</time>
      </trkpt>
      <trkpt lat="46.5825" lon="5.36914">
        <ele>202.6</ele>
        <time>2021-08-28T11:30:41Z</time>
      </trkpt>
      <trkpt lat="46.58253" lon="5.3692">
        <ele>202.8</ele>
        <time>2021-08-28T11:30:42Z</time>
      </trkpt>
      <trkpt lat="46.58263" lon="5.3694">
        <ele>203.4</ele>
        <time>2021-08-28T11:30:45Z</time>
      </trkpt>
      <trkpt lat="46.58273" lon="5.36961">
        <ele>203.6</ele>
        <time>2021-08-28T11:30:48Z</time>
      </trkpt>
      <trkpt lat="46.58276" lon="5.36967">
        <ele>203.6</ele>
        <time>2021-08-28T11:30:49Z</time>
      </trkpt>
      <trkpt lat="46.58293" lon="5.36988">
        <ele>203.8</ele>
        <time>2021-08-28T11:30:53Z</time>
      </trkpt>
      <trkpt lat="46.58298" lon="5.36991">
        <ele>203.8</ele>
        <time>2021-08-28T11:30:54Z</time>
      </trkpt>
      <trkpt lat="46.58335" lon="5.37008">
        <ele>204.8</ele>
        <time>2021-08-28T11:31:01Z</time>
      </trkpt>
      <trkpt lat="46.58344" lon="5.37014">
        <ele>205</ele>
        <time>2021-08-28T11:31:03Z</time>
      </trkpt>
      <trkpt lat="46.58369" lon="5.37026">
        <ele>205.8</ele>
        <time>2021-08-28T11:31:08Z</time>
      </trkpt>
      <trkpt lat="46.58374" lon="5.37028">
        <ele>205.8</ele>
        <time>2021-08-28T11:31:09Z</time>
      </trkpt>
      <trkpt lat="46.58384" lon="5.37031">
        <ele>206</ele>
        <time>2021-08-28T11:31:11Z</time>
      </trkpt>
      <trkpt lat="46.58404" lon="5.3704">
        <ele>207</ele>
        <time>2021-08-28T11:31:15Z</time>
      </trkpt>
      <trkpt lat="46.58417" lon="5.37047">
        <ele>207.4</ele>
        <time>2021-08-28T11:31:18Z</time>
      </trkpt>
      <trkpt lat="46.58431" lon="5.37052">
        <ele>208.4</ele>
        <time>2021-08-28T11:31:21Z</time>
      </trkpt>
      <trkpt lat="46.58443" lon="5.37059">
        <ele>209.8</ele>
        <time>2021-08-28T11:31:24Z</time>
      </trkpt>
      <trkpt lat="46.58451" lon="5.37064">
        <ele>210.2</ele>
        <time>2021-08-28T11:31:26Z</time>
      </trkpt>
      <trkpt lat="46.58456" lon="5.37066">
        <ele>210.4</ele>
        <time>2021-08-28T11:31:27Z</time>
      </trkpt>
      <trkpt lat="46.58465" lon="5.3707">
        <ele>211</ele>
        <time>2021-08-28T11:31:29Z</time>
      </trkpt>
      <trkpt lat="46.58472" lon="5.37076">
        <ele>211.6</ele>
        <time>2021-08-28T11:31:31Z</time>
      </trkpt>
      <trkpt lat="46.58481" lon="5.37082">
        <ele>212.2</ele>
        <time>2021-08-28T11:31:33Z</time>
      </trkpt>
      <trkpt lat="46.58501" lon="5.37099">
        <ele>212.4</ele>
        <time>2021-08-28T11:31:38Z</time>
      </trkpt>
      <trkpt lat="46.58526" lon="5.37129">
        <ele>212.6</ele>
        <time>2021-08-28T11:31:44Z</time>
      </trkpt>
      <trkpt lat="46.58545" lon="5.37155">
        <ele>211.8</ele>
        <time>2021-08-28T11:31:48Z</time>
      </trkpt>
      <trkpt lat="46.58549" lon="5.37164">
        <ele>211.8</ele>
        <time>2021-08-28T11:31:49Z</time>
      </trkpt>
      <trkpt lat="46.58552" lon="5.37173">
        <ele>211</ele>
        <time>2021-08-28T11:31:50Z</time>
      </trkpt>
      <trkpt lat="46.58556" lon="5.37182">
        <ele>210.8</ele>
        <time>2021-08-28T11:31:51Z</time>
      </trkpt>
      <trkpt lat="46.58568" lon="5.37216">
        <ele>210</ele>
        <time>2021-08-28T11:31:55Z</time>
      </trkpt>
      <trkpt lat="46.58571" lon="5.37225">
        <ele>209.8</ele>
        <time>2021-08-28T11:31:56Z</time>
      </trkpt>
      <trkpt lat="46.58592" lon="5.37293">
        <ele>209.6</ele>
        <time>2021-08-28T11:32:04Z</time>
      </trkpt>
      <trkpt lat="46.5861" lon="5.37371">
        <ele>210</ele>
        <time>2021-08-28T11:32:13Z</time>
      </trkpt>
      <trkpt lat="46.58614" lon="5.37388">
        <ele>210</ele>
        <time>2021-08-28T11:32:15Z</time>
      </trkpt>
      <trkpt lat="46.58637" lon="5.37465">
        <ele>209.6</ele>
        <time>2021-08-28T11:32:24Z</time>
      </trkpt>
      <trkpt lat="46.58671" lon="5.37523">
        <ele>209.8</ele>
        <time>2021-08-28T11:32:32Z</time>
      </trkpt>
      <trkpt lat="46.58675" lon="5.37529">
        <ele>209.8</ele>
        <time>2021-08-28T11:32:33Z</time>
      </trkpt>
      <trkpt lat="46.58707" lon="5.3757">
        <ele>210.6</ele>
        <time>2021-08-28T11:32:40Z</time>
      </trkpt>
      <trkpt lat="46.58716" lon="5.3758">
        <ele>211.2</ele>
        <time>2021-08-28T11:32:42Z</time>
      </trkpt>
      <trkpt lat="46.58732" lon="5.37601">
        <ele>211.4</ele>
        <time>2021-08-28T11:32:46Z</time>
      </trkpt>
      <trkpt lat="46.58755" lon="5.3763">
        <ele>212</ele>
        <time>2021-08-28T11:32:52Z</time>
      </trkpt>
      <trkpt lat="46.58759" lon="5.37635">
        <ele>212.4</ele>
        <time>2021-08-28T11:32:53Z</time>
      </trkpt>
      <trkpt lat="46.58771" lon="5.37652">
        <ele>213.6</ele>
        <time>2021-08-28T11:32:56Z</time>
      </trkpt>
      <trkpt lat="46.58785" lon="5.37676">
        <ele>214.2</ele>
        <time>2021-08-28T11:33:00Z</time>
      </trkpt>
      <trkpt lat="46.58798" lon="5.37702">
        <ele>214.8</ele>
        <time>2021-08-28T11:33:04Z</time>
      </trkpt>
      <trkpt lat="46.58815" lon="5.37736">
        <ele>215.2</ele>
        <time>2021-08-28T11:33:09Z</time>
      </trkpt>
      <trkpt lat="46.5884" lon="5.37791">
        <ele>215.8</ele>
        <time>2021-08-28T11:33:17Z</time>
      </trkpt>
      <trkpt lat="46.58846" lon="5.37804">
        <ele>215.8</ele>
        <time>2021-08-28T11:33:19Z</time>
      </trkpt>
      <trkpt lat="46.58873" lon="5.37847">
        <ele>216.2</ele>
        <time>2021-08-28T11:33:26Z</time>
      </trkpt>
      <trkpt lat="46.58877" lon="5.37853">
        <ele>216.4</ele>
        <time>2021-08-28T11:33:27Z</time>
      </trkpt>
      <trkpt lat="46.58903" lon="5.37877">
        <ele>216.2</ele>
        <time>2021-08-28T11:33:32Z</time>
      </trkpt>
      <trkpt lat="46.58939" lon="5.37903">
        <ele>215.8</ele>
        <time>2021-08-28T11:33:38Z</time>
      </trkpt>
      <trkpt lat="46.5895" lon="5.37914">
        <ele>215.6</ele>
        <time>2021-08-28T11:33:40Z</time>
      </trkpt>
      <trkpt lat="46.58958" lon="5.37929">
        <ele>215.6</ele>
        <time>2021-08-28T11:33:42Z</time>
      </trkpt>
      <trkpt lat="46.58978" lon="5.3798">
        <ele>214.6</ele>
        <time>2021-08-28T11:33:48Z</time>
      </trkpt>
      <trkpt lat="46.58981" lon="5.3799">
        <ele>214.6</ele>
        <time>2021-08-28T11:33:49Z</time>
      </trkpt>
      <trkpt lat="46.59008" lon="5.38063">
        <ele>214</ele>
        <time>2021-08-28T11:33:58Z</time>
      </trkpt>
      <trkpt lat="46.59035" lon="5.38138">
        <ele>214.4</ele>
        <time>2021-08-28T11:34:07Z</time>
      </trkpt>
      <trkpt lat="46.59039" lon="5.38147">
        <ele>214.6</ele>
        <time>2021-08-28T11:34:08Z</time>
      </trkpt>
      <trkpt lat="46.59063" lon="5.38215">
        <ele>214</ele>
        <time>2021-08-28T11:34:16Z</time>
      </trkpt>
      <trkpt lat="46.59072" lon="5.38239">
        <ele>213.6</ele>
        <time>2021-08-28T11:34:19Z</time>
      </trkpt>
      <trkpt lat="46.59075" lon="5.38247">
        <ele>213.6</ele>
        <time>2021-08-28T11:34:20Z</time>
      </trkpt>
      <trkpt lat="46.591" lon="5.38324">
        <ele>213.4</ele>
        <time>2021-08-28T11:34:29Z</time>
      </trkpt>
      <trkpt lat="46.59125" lon="5.38401">
        <ele>213.4</ele>
        <time>2021-08-28T11:34:38Z</time>
      </trkpt>
      <trkpt lat="46.59139" lon="5.38444">
        <ele>213.2</ele>
        <time>2021-08-28T11:34:43Z</time>
      </trkpt>
      <trkpt lat="46.59147" lon="5.3846">
        <ele>213.4</ele>
        <time>2021-08-28T11:34:45Z</time>
      </trkpt>
      <trkpt lat="46.5918" lon="5.38511">
        <ele>214</ele>
        <time>2021-08-28T11:34:52Z</time>
      </trkpt>
      <trkpt lat="46.59191" lon="5.38523">
        <ele>214.6</ele>
        <time>2021-08-28T11:34:54Z</time>
      </trkpt>
      <trkpt lat="46.59219" lon="5.38553">
        <ele>215.6</ele>
        <time>2021-08-28T11:34:59Z</time>
      </trkpt>
      <trkpt lat="46.59225" lon="5.38559">
        <ele>215.8</ele>
        <time>2021-08-28T11:35:00Z</time>
      </trkpt>
      <trkpt lat="46.59255" lon="5.38592">
        <ele>216.2</ele>
        <time>2021-08-28T11:35:05Z</time>
      </trkpt>
      <trkpt lat="46.59302" lon="5.38643">
        <ele>215.6</ele>
        <time>2021-08-28T11:35:12Z</time>
      </trkpt>
      <trkpt lat="46.5934" lon="5.38684">
        <ele>215</ele>
        <time>2021-08-28T11:35:18Z</time>
      </trkpt>
      <trkpt lat="46.59351" lon="5.38696">
        <ele>215.2</ele>
        <time>2021-08-28T11:35:20Z</time>
      </trkpt>
      <trkpt lat="46.5939" lon="5.38739">
        <ele>216</ele>
        <time>2021-08-28T11:35:27Z</time>
      </trkpt>
      <trkpt lat="46.59428" lon="5.38781">
        <ele>216.2</ele>
        <time>2021-08-28T11:35:34Z</time>
      </trkpt>
      <trkpt lat="46.59437" lon="5.38796">
        <ele>216.4</ele>
        <time>2021-08-28T11:35:36Z</time>
      </trkpt>
      <trkpt lat="46.59443" lon="5.38813">
        <ele>216.4</ele>
        <time>2021-08-28T11:35:38Z</time>
      </trkpt>
      <trkpt lat="46.59448" lon="5.3886">
        <ele>216.6</ele>
        <time>2021-08-28T11:35:43Z</time>
      </trkpt>
      <trkpt lat="46.5945" lon="5.38889">
        <ele>216.8</ele>
        <time>2021-08-28T11:35:46Z</time>
      </trkpt>
      <trkpt lat="46.59454" lon="5.38907">
        <ele>216.8</ele>
        <time>2021-08-28T11:35:48Z</time>
      </trkpt>
      <trkpt lat="46.59457" lon="5.38916">
        <ele>217</ele>
        <time>2021-08-28T11:35:49Z</time>
      </trkpt>
      <trkpt lat="46.59476" lon="5.38972">
        <ele>216.6</ele>
        <time>2021-08-28T11:35:55Z</time>
      </trkpt>
      <trkpt lat="46.59484" lon="5.39035">
        <ele>216.4</ele>
        <time>2021-08-28T11:36:01Z</time>
      </trkpt>
      <trkpt lat="46.59494" lon="5.39116">
        <ele>216.4</ele>
        <time>2021-08-28T11:36:09Z</time>
      </trkpt>
      <trkpt lat="46.59502" lon="5.39171">
        <ele>216.4</ele>
        <time>2021-08-28T11:36:15Z</time>
      </trkpt>
      <trkpt lat="46.59508" lon="5.39188">
        <ele>216.6</ele>
        <time>2021-08-28T11:36:17Z</time>
      </trkpt>
      <trkpt lat="46.59517" lon="5.39202">
        <ele>217</ele>
        <time>2021-08-28T11:36:19Z</time>
      </trkpt>
      <trkpt lat="46.59522" lon="5.39206">
        <ele>217</ele>
        <time>2021-08-28T11:36:20Z</time>
      </trkpt>
      <trkpt lat="46.59529" lon="5.39209">
        <ele>217.2</ele>
        <time>2021-08-28T11:36:21Z</time>
      </trkpt>
      <trkpt lat="46.59542" lon="5.39211">
        <ele>217.4</ele>
        <time>2021-08-28T11:36:23Z</time>
      </trkpt>
      <trkpt lat="46.59574" lon="5.39206">
        <ele>217.6</ele>
        <time>2021-08-28T11:36:28Z</time>
      </trkpt>
      <trkpt lat="46.5958" lon="5.39203">
        <ele>217.6</ele>
        <time>2021-08-28T11:36:29Z</time>
      </trkpt>
      <trkpt lat="46.59599" lon="5.39193">
        <ele>217.8</ele>
        <time>2021-08-28T11:36:32Z</time>
      </trkpt>
      <trkpt lat="46.59618" lon="5.39188">
        <ele>217.8</ele>
        <time>2021-08-28T11:36:35Z</time>
      </trkpt>
      <trkpt lat="46.59658" lon="5.39191">
        <ele>217.8</ele>
        <time>2021-08-28T11:36:41Z</time>
      </trkpt>
      <trkpt lat="46.59682" lon="5.39195">
        <ele>218.2</ele>
        <time>2021-08-28T11:36:45Z</time>
      </trkpt>
      <trkpt lat="46.59694" lon="5.39199">
        <ele>218.8</ele>
        <time>2021-08-28T11:36:47Z</time>
      </trkpt>
      <trkpt lat="46.59706" lon="5.39202">
        <ele>219.4</ele>
        <time>2021-08-28T11:36:49Z</time>
      </trkpt>
      <trkpt lat="46.59718" lon="5.39206">
        <ele>219.4</ele>
        <time>2021-08-28T11:36:51Z</time>
      </trkpt>
      <trkpt lat="46.59728" lon="5.39215">
        <ele>219.4</ele>
        <time>2021-08-28T11:36:53Z</time>
      </trkpt>
      <trkpt lat="46.59736" lon="5.39224">
        <ele>219.4</ele>
        <time>2021-08-28T11:36:56Z</time>
      </trkpt>
      <trkpt lat="46.59751" lon="5.39215">
        <ele>219.2</ele>
        <time>2021-08-28T11:37:01Z</time>
      </trkpt>
      <trkpt lat="46.59756" lon="5.39211">
        <ele>219</ele>
        <time>2021-08-28T11:37:02Z</time>
      </trkpt>
      <trkpt lat="46.59768" lon="5.39205">
        <ele>219</ele>
        <time>2021-08-28T11:37:04Z</time>
      </trkpt>
      <trkpt lat="46.59795" lon="5.39196">
        <ele>218.2</ele>
        <time>2021-08-28T11:37:08Z</time>
      </trkpt>
      <trkpt lat="46.59802" lon="5.39195">
        <ele>218.2</ele>
        <time>2021-08-28T11:37:09Z</time>
      </trkpt>
      <trkpt lat="46.59837" lon="5.39198">
        <ele>217.2</ele>
        <time>2021-08-28T11:37:14Z</time>
      </trkpt>
      <trkpt lat="46.59863" lon="5.39201">
        <ele>217.2</ele>
        <time>2021-08-28T11:37:18Z</time>
      </trkpt>
      <trkpt lat="46.59877" lon="5.39199">
        <ele>217.2</ele>
        <time>2021-08-28T11:37:20Z</time>
      </trkpt>
      <trkpt lat="46.59925" lon="5.39187">
        <ele>217.4</ele>
        <time>2021-08-28T11:37:27Z</time>
      </trkpt>
      <trkpt lat="46.59964" lon="5.39187">
        <ele>216.8</ele>
        <time>2021-08-28T11:37:32Z</time>
      </trkpt>
      <trkpt lat="46.59989" lon="5.39193">
        <ele>215.8</ele>
        <time>2021-08-28T11:37:35Z</time>
      </trkpt>
      <trkpt lat="46.59997" lon="5.39196">
        <ele>215.6</ele>
        <time>2021-08-28T11:37:36Z</time>
      </trkpt>
      <trkpt lat="46.60003" lon="5.39199">
        <ele>215.2</ele>
        <time>2021-08-28T11:37:37Z</time>
      </trkpt>
      <trkpt lat="46.60025" lon="5.39218">
        <ele>214.4</ele>
        <time>2021-08-28T11:37:40Z</time>
      </trkpt>
      <trkpt lat="46.60029" lon="5.39224">
        <ele>214.2</ele>
        <time>2021-08-28T11:37:41Z</time>
      </trkpt>
      <trkpt lat="46.60035" lon="5.39234">
        <ele>213.8</ele>
        <time>2021-08-28T11:37:42Z</time>
      </trkpt>
      <trkpt lat="46.60045" lon="5.39259">
        <ele>213.4</ele>
        <time>2021-08-28T11:37:44Z</time>
      </trkpt>
      <trkpt lat="46.60048" lon="5.39272">
        <ele>213.2</ele>
        <time>2021-08-28T11:37:45Z</time>
      </trkpt>
      <trkpt lat="46.6005" lon="5.39286">
        <ele>212.8</ele>
        <time>2021-08-28T11:37:46Z</time>
      </trkpt>
      <trkpt lat="46.60052" lon="5.393">
        <ele>212</ele>
        <time>2021-08-28T11:37:47Z</time>
      </trkpt>
      <trkpt lat="46.60051" lon="5.39329">
        <ele>211</ele>
        <time>2021-08-28T11:37:49Z</time>
      </trkpt>
      <trkpt lat="46.60048" lon="5.39358">
        <ele>209.8</ele>
        <time>2021-08-28T11:37:51Z</time>
      </trkpt>
      <trkpt lat="46.60043" lon="5.39386">
        <ele>208.8</ele>
        <time>2021-08-28T11:37:53Z</time>
      </trkpt>
      <trkpt lat="46.60036" lon="5.39424">
        <ele>208.2</ele>
        <time>2021-08-28T11:37:56Z</time>
      </trkpt>
      <trkpt lat="46.60033" lon="5.39459">
        <ele>208.2</ele>
        <time>2021-08-28T11:37:59Z</time>
      </trkpt>
      <trkpt lat="46.60033" lon="5.39471">
        <ele>208.2</ele>
        <time>2021-08-28T11:38:00Z</time>
      </trkpt>
      <trkpt lat="46.60035" lon="5.39482">
        <ele>208.2</ele>
        <time>2021-08-28T11:38:01Z</time>
      </trkpt>
      <trkpt lat="46.60046" lon="5.39516">
        <ele>208.2</ele>
        <time>2021-08-28T11:38:04Z</time>
      </trkpt>
      <trkpt lat="46.60062" lon="5.3955">
        <ele>207.2</ele>
        <time>2021-08-28T11:38:07Z</time>
      </trkpt>
      <trkpt lat="46.60068" lon="5.39561">
        <ele>206.6</ele>
        <time>2021-08-28T11:38:08Z</time>
      </trkpt>
      <trkpt lat="46.60072" lon="5.39571">
        <ele>206.2</ele>
        <time>2021-08-28T11:38:09Z</time>
      </trkpt>
      <trkpt lat="46.60089" lon="5.39623">
        <ele>205.4</ele>
        <time>2021-08-28T11:38:13Z</time>
      </trkpt>
      <trkpt lat="46.60087" lon="5.39648">
        <ele>204.8</ele>
        <time>2021-08-28T11:38:15Z</time>
      </trkpt>
      <trkpt lat="46.60085" lon="5.39662">
        <ele>204.6</ele>
        <time>2021-08-28T11:38:16Z</time>
      </trkpt>
      <trkpt lat="46.6008" lon="5.39678">
        <ele>204.4</ele>
        <time>2021-08-28T11:38:17Z</time>
      </trkpt>
      <trkpt lat="46.60075" lon="5.3969">
        <ele>203.6</ele>
        <time>2021-08-28T11:38:19Z</time>
      </trkpt>
      <trkpt lat="46.60065" lon="5.39712">
        <ele>203.4</ele>
        <time>2021-08-28T11:38:20Z</time>
      </trkpt>
      <trkpt lat="46.60063" lon="5.39743">
        <ele>202</ele>
        <time>2021-08-28T11:38:22Z</time>
      </trkpt>
      <trkpt lat="46.6007" lon="5.3977">
        <ele>201.2</ele>
        <time>2021-08-28T11:38:24Z</time>
      </trkpt>
      <trkpt lat="46.60075" lon="5.39782">
        <ele>201</ele>
        <time>2021-08-28T11:38:25Z</time>
      </trkpt>
      <trkpt lat="46.60091" lon="5.39816">
        <ele>200.2</ele>
        <time>2021-08-28T11:38:28Z</time>
      </trkpt>
      <trkpt lat="46.60097" lon="5.39825">
        <ele>200.2</ele>
        <time>2021-08-28T11:38:29Z</time>
      </trkpt>
      <trkpt lat="46.60104" lon="5.39833">
        <ele>199.8</ele>
        <time>2021-08-28T11:38:30Z</time>
      </trkpt>
      <trkpt lat="46.60125" lon="5.39853">
        <ele>199.6</ele>
        <time>2021-08-28T11:38:33Z</time>
      </trkpt>
      <trkpt lat="46.60164" lon="5.39889">
        <ele>199</ele>
        <time>2021-08-28T11:38:39Z</time>
      </trkpt>
      <trkpt lat="46.6017" lon="5.39896">
        <ele>199</ele>
        <time>2021-08-28T11:38:40Z</time>
      </trkpt>
      <trkpt lat="46.60175" lon="5.39904">
        <ele>199</ele>
        <time>2021-08-28T11:38:41Z</time>
      </trkpt>
      <trkpt lat="46.60182" lon="5.39921">
        <ele>199.4</ele>
        <time>2021-08-28T11:38:43Z</time>
      </trkpt>
      <trkpt lat="46.60184" lon="5.39929">
        <ele>199.4</ele>
        <time>2021-08-28T11:38:44Z</time>
      </trkpt>
      <trkpt lat="46.60186" lon="5.39939">
        <ele>199.6</ele>
        <time>2021-08-28T11:38:45Z</time>
      </trkpt>
      <trkpt lat="46.60187" lon="5.39967">
        <ele>200.2</ele>
        <time>2021-08-28T11:38:48Z</time>
      </trkpt>
      <trkpt lat="46.60187" lon="5.40001">
        <ele>201</ele>
        <time>2021-08-28T11:38:52Z</time>
      </trkpt>
      <trkpt lat="46.60188" lon="5.40009">
        <ele>201.4</ele>
        <time>2021-08-28T11:38:53Z</time>
      </trkpt>
      <trkpt lat="46.60188" lon="5.40026">
        <ele>202.2</ele>
        <time>2021-08-28T11:38:55Z</time>
      </trkpt>
      <trkpt lat="46.60189" lon="5.40052">
        <ele>202.6</ele>
        <time>2021-08-28T11:38:58Z</time>
      </trkpt>
      <trkpt lat="46.6019" lon="5.4006">
        <ele>202.8</ele>
        <time>2021-08-28T11:38:59Z</time>
      </trkpt>
      <trkpt lat="46.6019" lon="5.40086">
        <ele>203.2</ele>
        <time>2021-08-28T11:39:02Z</time>
      </trkpt>
      <trkpt lat="46.60188" lon="5.40117">
        <ele>203.6</ele>
        <time>2021-08-28T11:39:06Z</time>
      </trkpt>
      <trkpt lat="46.60178" lon="5.40166">
        <ele>204</ele>
        <time>2021-08-28T11:39:12Z</time>
      </trkpt>
      <trkpt lat="46.60172" lon="5.40203">
        <ele>204</ele>
        <time>2021-08-28T11:39:16Z</time>
      </trkpt>
      <trkpt lat="46.60172" lon="5.40215">
        <ele>204</ele>
        <time>2021-08-28T11:39:17Z</time>
      </trkpt>
      <trkpt lat="46.60173" lon="5.40225">
        <ele>204</ele>
        <time>2021-08-28T11:39:18Z</time>
      </trkpt>
      <trkpt lat="46.60178" lon="5.40242">
        <ele>204</ele>
        <time>2021-08-28T11:39:20Z</time>
      </trkpt>
      <trkpt lat="46.60204" lon="5.4031">
        <ele>203.8</ele>
        <time>2021-08-28T11:39:28Z</time>
      </trkpt>
      <trkpt lat="46.60216" lon="5.40357">
        <ele>204</ele>
        <time>2021-08-28T11:39:34Z</time>
      </trkpt>
      <trkpt lat="46.60218" lon="5.40365">
        <ele>204</ele>
        <time>2021-08-28T11:39:35Z</time>
      </trkpt>
      <trkpt lat="46.60219" lon="5.40376">
        <ele>204</ele>
        <time>2021-08-28T11:39:36Z</time>
      </trkpt>
      <trkpt lat="46.60219" lon="5.40405">
        <ele>204.2</ele>
        <time>2021-08-28T11:39:39Z</time>
      </trkpt>
      <trkpt lat="46.60217" lon="5.40469">
        <ele>203.6</ele>
        <time>2021-08-28T11:39:44Z</time>
      </trkpt>
      <trkpt lat="46.60218" lon="5.40483">
        <ele>203.2</ele>
        <time>2021-08-28T11:39:45Z</time>
      </trkpt>
      <trkpt lat="46.6022" lon="5.40499">
        <ele>203.2</ele>
        <time>2021-08-28T11:39:46Z</time>
      </trkpt>
      <trkpt lat="46.60226" lon="5.40524">
        <ele>202</ele>
        <time>2021-08-28T11:39:48Z</time>
      </trkpt>
      <trkpt lat="46.60232" lon="5.40551">
        <ele>200.6</ele>
        <time>2021-08-28T11:39:50Z</time>
      </trkpt>
      <trkpt lat="46.60234" lon="5.40567">
        <ele>200</ele>
        <time>2021-08-28T11:39:51Z</time>
      </trkpt>
      <trkpt lat="46.60235" lon="5.40578">
        <ele>199.8</ele>
        <time>2021-08-28T11:39:52Z</time>
      </trkpt>
      <trkpt lat="46.60234" lon="5.40591">
        <ele>199.6</ele>
        <time>2021-08-28T11:39:53Z</time>
      </trkpt>
      <trkpt lat="46.60232" lon="5.40604">
        <ele>199.6</ele>
        <time>2021-08-28T11:39:54Z</time>
      </trkpt>
      <trkpt lat="46.60228" lon="5.40619">
        <ele>199.4</ele>
        <time>2021-08-28T11:39:55Z</time>
      </trkpt>
      <trkpt lat="46.60218" lon="5.40641">
        <ele>199</ele>
        <time>2021-08-28T11:39:57Z</time>
      </trkpt>
      <trkpt lat="46.60208" lon="5.40658">
        <ele>199</ele>
        <time>2021-08-28T11:39:59Z</time>
      </trkpt>
      <trkpt lat="46.60177" lon="5.40719">
        <ele>198.4</ele>
        <time>2021-08-28T11:40:05Z</time>
      </trkpt>
      <trkpt lat="46.60174" lon="5.4073">
        <ele>198.4</ele>
        <time>2021-08-28T11:40:06Z</time>
      </trkpt>
      <trkpt lat="46.60172" lon="5.4074">
        <ele>198.6</ele>
        <time>2021-08-28T11:40:07Z</time>
      </trkpt>
      <trkpt lat="46.60172" lon="5.40764">
        <ele>198.6</ele>
        <time>2021-08-28T11:40:09Z</time>
      </trkpt>
      <trkpt lat="46.60175" lon="5.4079">
        <ele>198.6</ele>
        <time>2021-08-28T11:40:11Z</time>
      </trkpt>
      <trkpt lat="46.60178" lon="5.40798">
        <ele>198.6</ele>
        <time>2021-08-28T11:40:12Z</time>
      </trkpt>
      <trkpt lat="46.60182" lon="5.40807">
        <ele>198.6</ele>
        <time>2021-08-28T11:40:13Z</time>
      </trkpt>
      <trkpt lat="46.60194" lon="5.40825">
        <ele>198.6</ele>
        <time>2021-08-28T11:40:15Z</time>
      </trkpt>
      <trkpt lat="46.60231" lon="5.40858">
        <ele>198.8</ele>
        <time>2021-08-28T11:40:21Z</time>
      </trkpt>
      <trkpt lat="46.60258" lon="5.4088">
        <ele>199.2</ele>
        <time>2021-08-28T11:40:26Z</time>
      </trkpt>
      <trkpt lat="46.60268" lon="5.40888">
        <ele>199.4</ele>
        <time>2021-08-28T11:40:28Z</time>
      </trkpt>
      <trkpt lat="46.60284" lon="5.40902">
        <ele>200.2</ele>
        <time>2021-08-28T11:40:31Z</time>
      </trkpt>
      <trkpt lat="46.60292" lon="5.40911">
        <ele>200.6</ele>
        <time>2021-08-28T11:40:33Z</time>
      </trkpt>
      <trkpt lat="46.603" lon="5.40923">
        <ele>201.2</ele>
        <time>2021-08-28T11:40:35Z</time>
      </trkpt>
      <trkpt lat="46.60304" lon="5.40929">
        <ele>201.6</ele>
        <time>2021-08-28T11:40:37Z</time>
      </trkpt>
      <trkpt lat="46.60309" lon="5.40939">
        <ele>202</ele>
        <time>2021-08-28T11:40:38Z</time>
      </trkpt>
      <trkpt lat="46.60318" lon="5.40956">
        <ele>202.8</ele>
        <time>2021-08-28T11:40:41Z</time>
      </trkpt>
      <trkpt lat="46.60321" lon="5.4096">
        <ele>203.2</ele>
        <time>2021-08-28T11:40:42Z</time>
      </trkpt>
      <trkpt lat="46.60323" lon="5.40964">
        <ele>203.4</ele>
        <time>2021-08-28T11:40:43Z</time>
      </trkpt>
      <trkpt lat="46.60327" lon="5.4097">
        <ele>203.6</ele>
        <time>2021-08-28T11:40:44Z</time>
      </trkpt>
      <trkpt lat="46.60329" lon="5.40975">
        <ele>204</ele>
        <time>2021-08-28T11:40:45Z</time>
      </trkpt>
      <trkpt lat="46.60333" lon="5.40982">
        <ele>205</ele>
        <time>2021-08-28T11:40:47Z</time>
      </trkpt>
      <trkpt lat="46.60336" lon="5.40986">
        <ele>205.4</ele>
        <time>2021-08-28T11:40:48Z</time>
      </trkpt>
      <trkpt lat="46.60342" lon="5.40993">
        <ele>206</ele>
        <time>2021-08-28T11:40:50Z</time>
      </trkpt>
      <trkpt lat="46.60352" lon="5.41002">
        <ele>207.2</ele>
        <time>2021-08-28T11:40:53Z</time>
      </trkpt>
      <trkpt lat="46.60356" lon="5.41005">
        <ele>207.6</ele>
        <time>2021-08-28T11:40:54Z</time>
      </trkpt>
      <trkpt lat="46.60364" lon="5.41009">
        <ele>208.4</ele>
        <time>2021-08-28T11:40:56Z</time>
      </trkpt>
      <trkpt lat="46.60375" lon="5.41017">
        <ele>209.4</ele>
        <time>2021-08-28T11:40:59Z</time>
      </trkpt>
      <trkpt lat="46.6038" lon="5.4102">
        <ele>209.6</ele>
        <time>2021-08-28T11:41:00Z</time>
      </trkpt>
      <trkpt lat="46.60398" lon="5.41039">
        <ele>210.4</ele>
        <time>2021-08-28T11:41:05Z</time>
      </trkpt>
      <trkpt lat="46.60404" lon="5.41047">
        <ele>210.6</ele>
        <time>2021-08-28T11:41:07Z</time>
      </trkpt>
      <trkpt lat="46.60407" lon="5.41052">
        <ele>211</ele>
        <time>2021-08-28T11:41:08Z</time>
      </trkpt>
      <trkpt lat="46.6041" lon="5.41059">
        <ele>211</ele>
        <time>2021-08-28T11:41:09Z</time>
      </trkpt>
      <trkpt lat="46.60418" lon="5.41084">
        <ele>211.6</ele>
        <time>2021-08-28T11:41:13Z</time>
      </trkpt>
      <trkpt lat="46.60423" lon="5.41097">
        <ele>211.6</ele>
        <time>2021-08-28T11:41:15Z</time>
      </trkpt>
      <trkpt lat="46.60429" lon="5.4111">
        <ele>211.6</ele>
        <time>2021-08-28T11:41:17Z</time>
      </trkpt>
      <trkpt lat="46.6044" lon="5.41123">
        <ele>211.6</ele>
        <time>2021-08-28T11:41:19Z</time>
      </trkpt>
      <trkpt lat="46.60445" lon="5.41128">
        <ele>211.6</ele>
        <time>2021-08-28T11:41:20Z</time>
      </trkpt>
      <trkpt lat="46.60456" lon="5.41134">
        <ele>211.6</ele>
        <time>2021-08-28T11:41:22Z</time>
      </trkpt>
      <trkpt lat="46.60471" lon="5.41139">
        <ele>211</ele>
        <time>2021-08-28T11:41:24Z</time>
      </trkpt>
      <trkpt lat="46.605" lon="5.41141">
        <ele>210.4</ele>
        <time>2021-08-28T11:41:28Z</time>
      </trkpt>
      <trkpt lat="46.60508" lon="5.41141">
        <ele>210</ele>
        <time>2021-08-28T11:41:29Z</time>
      </trkpt>
      <trkpt lat="46.60522" lon="5.41141">
        <ele>209.2</ele>
        <time>2021-08-28T11:41:31Z</time>
      </trkpt>
      <trkpt lat="46.60547" lon="5.41143">
        <ele>208</ele>
        <time>2021-08-28T11:41:34Z</time>
      </trkpt>
      <trkpt lat="46.60563" lon="5.41146">
        <ele>207.6</ele>
        <time>2021-08-28T11:41:36Z</time>
      </trkpt>
      <trkpt lat="46.60596" lon="5.41155">
        <ele>207</ele>
        <time>2021-08-28T11:41:40Z</time>
      </trkpt>
      <trkpt lat="46.60604" lon="5.41158">
        <ele>206.8</ele>
        <time>2021-08-28T11:41:41Z</time>
      </trkpt>
      <trkpt lat="46.60612" lon="5.4116">
        <ele>206.8</ele>
        <time>2021-08-28T11:41:42Z</time>
      </trkpt>
      <trkpt lat="46.60628" lon="5.41165">
        <ele>206</ele>
        <time>2021-08-28T11:41:44Z</time>
      </trkpt>
      <trkpt lat="46.60636" lon="5.41168">
        <ele>205.4</ele>
        <time>2021-08-28T11:41:46Z</time>
      </trkpt>
      <trkpt lat="46.60661" lon="5.41176">
        <ele>204.8</ele>
        <time>2021-08-28T11:41:48Z</time>
      </trkpt>
      <trkpt lat="46.60678" lon="5.41183">
        <ele>204.6</ele>
        <time>2021-08-28T11:41:50Z</time>
      </trkpt>
      <trkpt lat="46.60693" lon="5.41194">
        <ele>204.2</ele>
        <time>2021-08-28T11:41:52Z</time>
      </trkpt>
      <trkpt lat="46.60712" lon="5.41216">
        <ele>203.8</ele>
        <time>2021-08-28T11:41:55Z</time>
      </trkpt>
      <trkpt lat="46.60724" lon="5.41231">
        <ele>204.2</ele>
        <time>2021-08-28T11:41:57Z</time>
      </trkpt>
      <trkpt lat="46.60752" lon="5.41266">
        <ele>204.4</ele>
        <time>2021-08-28T11:42:02Z</time>
      </trkpt>
      <trkpt lat="46.60795" lon="5.4131">
        <ele>204.2</ele>
        <time>2021-08-28T11:42:09Z</time>
      </trkpt>
      <trkpt lat="46.60809" lon="5.41323">
        <ele>203.8</ele>
        <time>2021-08-28T11:42:11Z</time>
      </trkpt>
      <trkpt lat="46.60826" lon="5.41332">
        <ele>202.2</ele>
        <time>2021-08-28T11:42:13Z</time>
      </trkpt>
      <trkpt lat="46.60838" lon="5.41332">
        <ele>201</ele>
        <time>2021-08-28T11:42:15Z</time>
      </trkpt>
      <trkpt lat="46.60845" lon="5.41331">
        <ele>200.8</ele>
        <time>2021-08-28T11:42:16Z</time>
      </trkpt>
      <trkpt lat="46.60859" lon="5.41322">
        <ele>200.6</ele>
        <time>2021-08-28T11:42:18Z</time>
      </trkpt>
      <trkpt lat="46.60869" lon="5.41309">
        <ele>200.6</ele>
        <time>2021-08-28T11:42:20Z</time>
      </trkpt>
      <trkpt lat="46.60894" lon="5.41277">
        <ele>200</ele>
        <time>2021-08-28T11:42:24Z</time>
      </trkpt>
      <trkpt lat="46.60926" lon="5.4124">
        <ele>199.4</ele>
        <time>2021-08-28T11:42:29Z</time>
      </trkpt>
      <trkpt lat="46.60945" lon="5.41219">
        <ele>198.8</ele>
        <time>2021-08-28T11:42:32Z</time>
      </trkpt>
      <trkpt lat="46.60971" lon="5.41193">
        <ele>198.6</ele>
        <time>2021-08-28T11:42:36Z</time>
      </trkpt>
      <trkpt lat="46.61013" lon="5.41157">
        <ele>198.6</ele>
        <time>2021-08-28T11:42:42Z</time>
      </trkpt>
      <trkpt lat="46.61027" lon="5.41152">
        <ele>198.8</ele>
        <time>2021-08-28T11:42:44Z</time>
      </trkpt>
      <trkpt lat="46.6104" lon="5.41154">
        <ele>198.8</ele>
        <time>2021-08-28T11:42:46Z</time>
      </trkpt>
      <trkpt lat="46.61051" lon="5.41168">
        <ele>198.2</ele>
        <time>2021-08-28T11:42:48Z</time>
      </trkpt>
      <trkpt lat="46.61063" lon="5.41215">
        <ele>198</ele>
        <time>2021-08-28T11:42:53Z</time>
      </trkpt>
      <trkpt lat="46.61071" lon="5.41239">
        <ele>197.8</ele>
        <time>2021-08-28T11:42:56Z</time>
      </trkpt>
      <trkpt lat="46.61079" lon="5.41257">
        <ele>197.8</ele>
        <time>2021-08-28T11:42:58Z</time>
      </trkpt>
      <trkpt lat="46.61082" lon="5.41263">
        <ele>197.8</ele>
        <time>2021-08-28T11:42:59Z</time>
      </trkpt>
      <trkpt lat="46.61108" lon="5.41318">
        <ele>197.2</ele>
        <time>2021-08-28T11:43:06Z</time>
      </trkpt>
      <trkpt lat="46.61114" lon="5.41364">
        <ele>197.4</ele>
        <time>2021-08-28T11:43:11Z</time>
      </trkpt>
      <trkpt lat="46.61123" lon="5.4144">
        <ele>197.4</ele>
        <time>2021-08-28T11:43:19Z</time>
      </trkpt>
      <trkpt lat="46.61141" lon="5.41491">
        <ele>197.2</ele>
        <time>2021-08-28T11:43:25Z</time>
      </trkpt>
      <trkpt lat="46.61174" lon="5.41548">
        <ele>197.8</ele>
        <time>2021-08-28T11:43:33Z</time>
      </trkpt>
      <trkpt lat="46.61212" lon="5.41609">
        <ele>197.4</ele>
        <time>2021-08-28T11:43:42Z</time>
      </trkpt>
      <trkpt lat="46.61236" lon="5.4166">
        <ele>197.2</ele>
        <time>2021-08-28T11:43:49Z</time>
      </trkpt>
      <trkpt lat="46.61265" lon="5.41715">
        <ele>197.4</ele>
        <time>2021-08-28T11:43:57Z</time>
      </trkpt>
      <trkpt lat="46.61303" lon="5.4177">
        <ele>197.4</ele>
        <time>2021-08-28T11:44:06Z</time>
      </trkpt>
      <trkpt lat="46.61321" lon="5.41794">
        <ele>197</ele>
        <time>2021-08-28T11:44:10Z</time>
      </trkpt>
      <trkpt lat="46.61342" lon="5.41822">
        <ele>196.8</ele>
        <time>2021-08-28T11:44:15Z</time>
      </trkpt>
      <trkpt lat="46.61375" lon="5.41864">
        <ele>197.2</ele>
        <time>2021-08-28T11:44:23Z</time>
      </trkpt>
      <trkpt lat="46.61405" lon="5.419">
        <ele>197.6</ele>
        <time>2021-08-28T11:44:30Z</time>
      </trkpt>
      <trkpt lat="46.61408" lon="5.41906">
        <ele>197.6</ele>
        <time>2021-08-28T11:44:31Z</time>
      </trkpt>
      <trkpt lat="46.6144" lon="5.41973">
        <ele>197.8</ele>
        <time>2021-08-28T11:44:41Z</time>
      </trkpt>
      <trkpt lat="46.6145" lon="5.41993">
        <ele>197.8</ele>
        <time>2021-08-28T11:44:44Z</time>
      </trkpt>
      <trkpt lat="46.61465" lon="5.42028">
        <ele>198</ele>
        <time>2021-08-28T11:44:49Z</time>
      </trkpt>
      <trkpt lat="46.61475" lon="5.42047">
        <ele>198</ele>
        <time>2021-08-28T11:44:52Z</time>
      </trkpt>
      <trkpt lat="46.61503" lon="5.42088">
        <ele>198.2</ele>
        <time>2021-08-28T11:44:59Z</time>
      </trkpt>
      <trkpt lat="46.61506" lon="5.42095">
        <ele>198.2</ele>
        <time>2021-08-28T11:45:00Z</time>
      </trkpt>
      <trkpt lat="46.61521" lon="5.42134">
        <ele>198.2</ele>
        <time>2021-08-28T11:45:05Z</time>
      </trkpt>
      <trkpt lat="46.61539" lon="5.42195">
        <ele>198</ele>
        <time>2021-08-28T11:45:13Z</time>
      </trkpt>
      <trkpt lat="46.61545" lon="5.42216">
        <ele>198</ele>
        <time>2021-08-28T11:45:16Z</time>
      </trkpt>
      <trkpt lat="46.61558" lon="5.42281">
        <ele>198.4</ele>
        <time>2021-08-28T11:45:24Z</time>
      </trkpt>
      <trkpt lat="46.61568" lon="5.42357">
        <ele>198.6</ele>
        <time>2021-08-28T11:45:33Z</time>
      </trkpt>
      <trkpt lat="46.61574" lon="5.42406">
        <ele>199.2</ele>
        <time>2021-08-28T11:45:39Z</time>
      </trkpt>
      <trkpt lat="46.61578" lon="5.42424">
        <ele>199.4</ele>
        <time>2021-08-28T11:45:41Z</time>
      </trkpt>
      <trkpt lat="46.61596" lon="5.42473">
        <ele>199.8</ele>
        <time>2021-08-28T11:45:48Z</time>
      </trkpt>
      <trkpt lat="46.61609" lon="5.42504">
        <ele>200.4</ele>
        <time>2021-08-28T11:45:53Z</time>
      </trkpt>
      <trkpt lat="46.61617" lon="5.42515">
        <ele>201.2</ele>
        <time>2021-08-28T11:45:55Z</time>
      </trkpt>
      <trkpt lat="46.61626" lon="5.42521">
        <ele>201.6</ele>
        <time>2021-08-28T11:45:57Z</time>
      </trkpt>
      <trkpt lat="46.61638" lon="5.42529">
        <ele>202</ele>
        <time>2021-08-28T11:46:00Z</time>
      </trkpt>
      <trkpt lat="46.61649" lon="5.42539">
        <ele>202.6</ele>
        <time>2021-08-28T11:46:03Z</time>
      </trkpt>
      <trkpt lat="46.61662" lon="5.42548">
        <ele>203.2</ele>
        <time>2021-08-28T11:46:06Z</time>
      </trkpt>
      <trkpt lat="46.6167" lon="5.42556">
        <ele>203.6</ele>
        <time>2021-08-28T11:46:08Z</time>
      </trkpt>
      <trkpt lat="46.61673" lon="5.42558">
        <ele>203.8</ele>
        <time>2021-08-28T11:46:09Z</time>
      </trkpt>
      <trkpt lat="46.61688" lon="5.42572">
        <ele>204.4</ele>
        <time>2021-08-28T11:46:13Z</time>
      </trkpt>
      <trkpt lat="46.61691" lon="5.42575">
        <ele>204.8</ele>
        <time>2021-08-28T11:46:14Z</time>
      </trkpt>
      <trkpt lat="46.61708" lon="5.42592">
        <ele>205.8</ele>
        <time>2021-08-28T11:46:18Z</time>
      </trkpt>
      <trkpt lat="46.61715" lon="5.42601">
        <ele>206.2</ele>
        <time>2021-08-28T11:46:20Z</time>
      </trkpt>
      <trkpt lat="46.61727" lon="5.42618">
        <ele>206.4</ele>
        <time>2021-08-28T11:46:24Z</time>
      </trkpt>
      <trkpt lat="46.61732" lon="5.4263">
        <ele>206.4</ele>
        <time>2021-08-28T11:46:26Z</time>
      </trkpt>
      <trkpt lat="46.61739" lon="5.42656">
        <ele>207</ele>
        <time>2021-08-28T11:46:30Z</time>
      </trkpt>
      <trkpt lat="46.61744" lon="5.42666">
        <ele>207.4</ele>
        <time>2021-08-28T11:46:32Z</time>
      </trkpt>
      <trkpt lat="46.61755" lon="5.42676">
        <ele>208</ele>
        <time>2021-08-28T11:46:35Z</time>
      </trkpt>
      <trkpt lat="46.61764" lon="5.42683">
        <ele>208.2</ele>
        <time>2021-08-28T11:46:37Z</time>
      </trkpt>
      <trkpt lat="46.61772" lon="5.4269">
        <ele>208.4</ele>
        <time>2021-08-28T11:46:39Z</time>
      </trkpt>
      <trkpt lat="46.61785" lon="5.42703">
        <ele>208.8</ele>
        <time>2021-08-28T11:46:43Z</time>
      </trkpt>
      <trkpt lat="46.61789" lon="5.42706">
        <ele>209.2</ele>
        <time>2021-08-28T11:46:44Z</time>
      </trkpt>
      <trkpt lat="46.61796" lon="5.42711">
        <ele>209.6</ele>
        <time>2021-08-28T11:46:46Z</time>
      </trkpt>
      <trkpt lat="46.61809" lon="5.42719">
        <ele>210.4</ele>
        <time>2021-08-28T11:46:49Z</time>
      </trkpt>
      <trkpt lat="46.61834" lon="5.42734">
        <ele>211.2</ele>
        <time>2021-08-28T11:46:55Z</time>
      </trkpt>
      <trkpt lat="46.61839" lon="5.42737">
        <ele>211.4</ele>
        <time>2021-08-28T11:46:56Z</time>
      </trkpt>
      <trkpt lat="46.61867" lon="5.42751">
        <ele>212.4</ele>
        <time>2021-08-28T11:47:02Z</time>
      </trkpt>
      <trkpt lat="46.61871" lon="5.42754">
        <ele>212.4</ele>
        <time>2021-08-28T11:47:03Z</time>
      </trkpt>
      <trkpt lat="46.61903" lon="5.42782">
        <ele>212.8</ele>
        <time>2021-08-28T11:47:10Z</time>
      </trkpt>
      <trkpt lat="46.61936" lon="5.42828">
        <ele>213.2</ele>
        <time>2021-08-28T11:47:19Z</time>
      </trkpt>
      <trkpt lat="46.61948" lon="5.42849">
        <ele>213.4</ele>
        <time>2021-08-28T11:47:23Z</time>
      </trkpt>
      <trkpt lat="46.61962" lon="5.4287">
        <ele>213.8</ele>
        <time>2021-08-28T11:47:27Z</time>
      </trkpt>
      <trkpt lat="46.61984" lon="5.42901">
        <ele>214.8</ele>
        <time>2021-08-28T11:47:33Z</time>
      </trkpt>
      <trkpt lat="46.61996" lon="5.42916">
        <ele>215</ele>
        <time>2021-08-28T11:47:36Z</time>
      </trkpt>
      <trkpt lat="46.62023" lon="5.42946">
        <ele>215</ele>
        <time>2021-08-28T11:47:42Z</time>
      </trkpt>
      <trkpt lat="46.62033" lon="5.42955">
        <ele>214.8</ele>
        <time>2021-08-28T11:47:44Z</time>
      </trkpt>
      <trkpt lat="46.62056" lon="5.42975">
        <ele>213.6</ele>
        <time>2021-08-28T11:47:48Z</time>
      </trkpt>
      <trkpt lat="46.62062" lon="5.42981">
        <ele>213.4</ele>
        <time>2021-08-28T11:47:49Z</time>
      </trkpt>
      <trkpt lat="46.62093" lon="5.43006">
        <ele>212.6</ele>
        <time>2021-08-28T11:47:54Z</time>
      </trkpt>
      <trkpt lat="46.62105" lon="5.43015">
        <ele>211.8</ele>
        <time>2021-08-28T11:47:56Z</time>
      </trkpt>
      <trkpt lat="46.62111" lon="5.4302">
        <ele>211.4</ele>
        <time>2021-08-28T11:47:57Z</time>
      </trkpt>
      <trkpt lat="46.62138" lon="5.43051">
        <ele>210.8</ele>
        <time>2021-08-28T11:48:02Z</time>
      </trkpt>
      <trkpt lat="46.62142" lon="5.43058">
        <ele>210.6</ele>
        <time>2021-08-28T11:48:03Z</time>
      </trkpt>
      <trkpt lat="46.62156" lon="5.43085">
        <ele>211</ele>
        <time>2021-08-28T11:48:07Z</time>
      </trkpt>
      <trkpt lat="46.62171" lon="5.43121">
        <ele>213.2</ele>
        <time>2021-08-28T11:48:13Z</time>
      </trkpt>
      <trkpt lat="46.62183" lon="5.4315">
        <ele>214.2</ele>
        <time>2021-08-28T11:48:18Z</time>
      </trkpt>
      <trkpt lat="46.62188" lon="5.43161">
        <ele>214.4</ele>
        <time>2021-08-28T11:48:20Z</time>
      </trkpt>
      <trkpt lat="46.62198" lon="5.43184">
        <ele>215.2</ele>
        <time>2021-08-28T11:48:24Z</time>
      </trkpt>
      <trkpt lat="46.62207" lon="5.43207">
        <ele>215.8</ele>
        <time>2021-08-28T11:48:28Z</time>
      </trkpt>
      <trkpt lat="46.6221" lon="5.43217">
        <ele>216.2</ele>
        <time>2021-08-28T11:48:30Z</time>
      </trkpt>
      <trkpt lat="46.62212" lon="5.43221">
        <ele>216.4</ele>
        <time>2021-08-28T11:48:31Z</time>
      </trkpt>
      <trkpt lat="46.62214" lon="5.43226">
        <ele>216.4</ele>
        <time>2021-08-28T11:48:33Z</time>
      </trkpt>
      <trkpt lat="46.62214" lon="5.43226">
        <ele>216.6</ele>
        <time>2021-08-28T11:48:37Z</time>
      </trkpt>
      <trkpt lat="46.62217" lon="5.43231">
        <ele>217.4</ele>
        <time>2021-08-28T11:49:14Z</time>
      </trkpt>
      <trkpt lat="46.62224" lon="5.43244">
        <ele>217.2</ele>
        <time>2021-08-28T11:49:17Z</time>
      </trkpt>
      <trkpt lat="46.62228" lon="5.4325">
        <ele>216.8</ele>
        <time>2021-08-28T11:49:18Z</time>
      </trkpt>
      <trkpt lat="46.62246" lon="5.43274">
        <ele>216.4</ele>
        <time>2021-08-28T11:49:22Z</time>
      </trkpt>
      <trkpt lat="46.62281" lon="5.43313">
        <ele>215.4</ele>
        <time>2021-08-28T11:49:28Z</time>
      </trkpt>
      <trkpt lat="46.62328" lon="5.43364">
        <ele>214.2</ele>
        <time>2021-08-28T11:49:35Z</time>
      </trkpt>
      <trkpt lat="46.62347" lon="5.43385">
        <ele>213.2</ele>
        <time>2021-08-28T11:49:38Z</time>
      </trkpt>
      <trkpt lat="46.62386" lon="5.43428">
        <ele>212.4</ele>
        <time>2021-08-28T11:49:44Z</time>
      </trkpt>
      <trkpt lat="46.624" lon="5.43443">
        <ele>211.8</ele>
        <time>2021-08-28T11:49:46Z</time>
      </trkpt>
      <trkpt lat="46.62444" lon="5.43492">
        <ele>211.4</ele>
        <time>2021-08-28T11:49:53Z</time>
      </trkpt>
      <trkpt lat="46.62492" lon="5.43546">
        <ele>211.6</ele>
        <time>2021-08-28T11:50:01Z</time>
      </trkpt>
      <trkpt lat="46.62511" lon="5.43565">
        <ele>211.2</ele>
        <time>2021-08-28T11:50:04Z</time>
      </trkpt>
      <trkpt lat="46.62523" lon="5.43579">
        <ele>210.6</ele>
        <time>2021-08-28T11:50:06Z</time>
      </trkpt>
      <trkpt lat="46.62548" lon="5.43606">
        <ele>210.4</ele>
        <time>2021-08-28T11:50:10Z</time>
      </trkpt>
      <trkpt lat="46.62581" lon="5.43641">
        <ele>209.4</ele>
        <time>2021-08-28T11:50:15Z</time>
      </trkpt>
      <trkpt lat="46.626" lon="5.43662">
        <ele>208.4</ele>
        <time>2021-08-28T11:50:18Z</time>
      </trkpt>
      <trkpt lat="46.62605" lon="5.4367">
        <ele>208.2</ele>
        <time>2021-08-28T11:50:19Z</time>
      </trkpt>
      <trkpt lat="46.62619" lon="5.437">
        <ele>207.4</ele>
        <time>2021-08-28T11:50:22Z</time>
      </trkpt>
      <trkpt lat="46.62622" lon="5.43711">
        <ele>207.2</ele>
        <time>2021-08-28T11:50:23Z</time>
      </trkpt>
      <trkpt lat="46.62624" lon="5.43722">
        <ele>207.2</ele>
        <time>2021-08-28T11:50:24Z</time>
      </trkpt>
      <trkpt lat="46.62626" lon="5.43756">
        <ele>207</ele>
        <time>2021-08-28T11:50:27Z</time>
      </trkpt>
      <trkpt lat="46.62629" lon="5.43843">
        <ele>207.2</ele>
        <time>2021-08-28T11:50:35Z</time>
      </trkpt>
      <trkpt lat="46.62632" lon="5.43885">
        <ele>207.2</ele>
        <time>2021-08-28T11:50:39Z</time>
      </trkpt>
      <trkpt lat="46.62635" lon="5.43896">
        <ele>207.2</ele>
        <time>2021-08-28T11:50:40Z</time>
      </trkpt>
      <trkpt lat="46.62638" lon="5.43901">
        <ele>207.6</ele>
        <time>2021-08-28T11:50:41Z</time>
      </trkpt>
      <trkpt lat="46.62653" lon="5.4392">
        <ele>207.8</ele>
        <time>2021-08-28T11:50:44Z</time>
      </trkpt>
      <trkpt lat="46.62682" lon="5.43956">
        <ele>208.6</ele>
        <time>2021-08-28T11:50:50Z</time>
      </trkpt>
      <trkpt lat="46.62691" lon="5.43969">
        <ele>208.8</ele>
        <time>2021-08-28T11:50:52Z</time>
      </trkpt>
      <trkpt lat="46.62715" lon="5.44008">
        <ele>209.6</ele>
        <time>2021-08-28T11:50:58Z</time>
      </trkpt>
      <trkpt lat="46.62721" lon="5.44023">
        <ele>209.8</ele>
        <time>2021-08-28T11:51:00Z</time>
      </trkpt>
      <trkpt lat="46.62741" lon="5.44083">
        <ele>210.8</ele>
        <time>2021-08-28T11:51:08Z</time>
      </trkpt>
      <trkpt lat="46.62756" lon="5.44124">
        <ele>211.6</ele>
        <time>2021-08-28T11:51:14Z</time>
      </trkpt>
      <trkpt lat="46.6276" lon="5.4413">
        <ele>211.6</ele>
        <time>2021-08-28T11:51:15Z</time>
      </trkpt>
      <trkpt lat="46.62764" lon="5.44137">
        <ele>211.6</ele>
        <time>2021-08-28T11:51:16Z</time>
      </trkpt>
      <trkpt lat="46.62778" lon="5.44157">
        <ele>211.4</ele>
        <time>2021-08-28T11:51:19Z</time>
      </trkpt>
      <trkpt lat="46.62809" lon="5.44205">
        <ele>210</ele>
        <time>2021-08-28T11:51:25Z</time>
      </trkpt>
      <trkpt lat="46.62814" lon="5.44218">
        <ele>209.8</ele>
        <time>2021-08-28T11:51:26Z</time>
      </trkpt>
      <trkpt lat="46.62831" lon="5.44261">
        <ele>208.6</ele>
        <time>2021-08-28T11:51:30Z</time>
      </trkpt>
      <trkpt lat="46.62835" lon="5.44274">
        <ele>208.6</ele>
        <time>2021-08-28T11:51:31Z</time>
      </trkpt>
      <trkpt lat="46.62839" lon="5.44298">
        <ele>207.8</ele>
        <time>2021-08-28T11:51:33Z</time>
      </trkpt>
      <trkpt lat="46.6284" lon="5.4431">
        <ele>207.2</ele>
        <time>2021-08-28T11:51:34Z</time>
      </trkpt>
      <trkpt lat="46.62841" lon="5.44346">
        <ele>207</ele>
        <time>2021-08-28T11:51:37Z</time>
      </trkpt>
      <trkpt lat="46.62842" lon="5.44421">
        <ele>207.2</ele>
        <time>2021-08-28T11:51:44Z</time>
      </trkpt>
      <trkpt lat="46.62839" lon="5.44492">
        <ele>207.2</ele>
        <time>2021-08-28T11:51:51Z</time>
      </trkpt>
      <trkpt lat="46.62833" lon="5.4451">
        <ele>207.2</ele>
        <time>2021-08-28T11:51:53Z</time>
      </trkpt>
      <trkpt lat="46.62825" lon="5.44525">
        <ele>207</ele>
        <time>2021-08-28T11:51:55Z</time>
      </trkpt>
      <trkpt lat="46.62821" lon="5.44533">
        <ele>207</ele>
        <time>2021-08-28T11:51:56Z</time>
      </trkpt>
      <trkpt lat="46.62819" lon="5.44553">
        <ele>206.4</ele>
        <time>2021-08-28T11:51:58Z</time>
      </trkpt>
      <trkpt lat="46.62824" lon="5.44572">
        <ele>206.2</ele>
        <time>2021-08-28T11:52:00Z</time>
      </trkpt>
      <trkpt lat="46.6283" lon="5.44578">
        <ele>206</ele>
        <time>2021-08-28T11:52:01Z</time>
      </trkpt>
      <trkpt lat="46.62836" lon="5.44583">
        <ele>205.8</ele>
        <time>2021-08-28T11:52:02Z</time>
      </trkpt>
      <trkpt lat="46.6285" lon="5.44589">
        <ele>205.6</ele>
        <time>2021-08-28T11:52:04Z</time>
      </trkpt>
      <trkpt lat="46.62871" lon="5.44591">
        <ele>205</ele>
        <time>2021-08-28T11:52:07Z</time>
      </trkpt>
      <trkpt lat="46.62878" lon="5.44594">
        <ele>205</ele>
        <time>2021-08-28T11:52:08Z</time>
      </trkpt>
      <trkpt lat="46.62884" lon="5.44598">
        <ele>204.8</ele>
        <time>2021-08-28T11:52:09Z</time>
      </trkpt>
      <trkpt lat="46.6289" lon="5.44603">
        <ele>204.6</ele>
        <time>2021-08-28T11:52:10Z</time>
      </trkpt>
      <trkpt lat="46.62906" lon="5.44624">
        <ele>204.4</ele>
        <time>2021-08-28T11:52:13Z</time>
      </trkpt>
      <trkpt lat="46.62938" lon="5.4466">
        <ele>204.4</ele>
        <time>2021-08-28T11:52:19Z</time>
      </trkpt>
      <trkpt lat="46.62944" lon="5.44666">
        <ele>204</ele>
        <time>2021-08-28T11:52:20Z</time>
      </trkpt>
      <trkpt lat="46.62979" lon="5.44698">
        <ele>204.4</ele>
        <time>2021-08-28T11:52:26Z</time>
      </trkpt>
      <trkpt lat="46.62984" lon="5.44701">
        <ele>204.4</ele>
        <time>2021-08-28T11:52:27Z</time>
      </trkpt>
      <trkpt lat="46.62996" lon="5.44706">
        <ele>204.2</ele>
        <time>2021-08-28T11:52:29Z</time>
      </trkpt>
      <trkpt lat="46.63002" lon="5.44707">
        <ele>204.2</ele>
        <time>2021-08-28T11:52:30Z</time>
      </trkpt>
      <trkpt lat="46.63047" lon="5.44711">
        <ele>204.2</ele>
        <time>2021-08-28T11:52:37Z</time>
      </trkpt>
      <trkpt lat="46.63087" lon="5.4473">
        <ele>204.2</ele>
        <time>2021-08-28T11:52:44Z</time>
      </trkpt>
      <trkpt lat="46.63133" lon="5.44759">
        <ele>204.4</ele>
        <time>2021-08-28T11:52:52Z</time>
      </trkpt>
      <trkpt lat="46.63138" lon="5.44765">
        <ele>204.4</ele>
        <time>2021-08-28T11:52:53Z</time>
      </trkpt>
      <trkpt lat="46.63146" lon="5.44777">
        <ele>204.2</ele>
        <time>2021-08-28T11:52:55Z</time>
      </trkpt>
      <trkpt lat="46.6315" lon="5.44785">
        <ele>204.2</ele>
        <time>2021-08-28T11:52:56Z</time>
      </trkpt>
      <trkpt lat="46.63174" lon="5.44826">
        <ele>204.2</ele>
        <time>2021-08-28T11:53:02Z</time>
      </trkpt>
      <trkpt lat="46.63201" lon="5.44847">
        <ele>204.2</ele>
        <time>2021-08-28T11:53:07Z</time>
      </trkpt>
      <trkpt lat="46.63237" lon="5.4488">
        <ele>204.2</ele>
        <time>2021-08-28T11:53:14Z</time>
      </trkpt>
      <trkpt lat="46.6327" lon="5.44919">
        <ele>204.8</ele>
        <time>2021-08-28T11:53:22Z</time>
      </trkpt>
      <trkpt lat="46.63275" lon="5.44923">
        <ele>204.8</ele>
        <time>2021-08-28T11:53:23Z</time>
      </trkpt>
      <trkpt lat="46.63283" lon="5.4493">
        <ele>205</ele>
        <time>2021-08-28T11:53:25Z</time>
      </trkpt>
      <trkpt lat="46.63296" lon="5.44938">
        <ele>205.6</ele>
        <time>2021-08-28T11:53:28Z</time>
      </trkpt>
      <trkpt lat="46.63303" lon="5.44942">
        <ele>206.2</ele>
        <time>2021-08-28T11:53:30Z</time>
      </trkpt>
      <trkpt lat="46.63326" lon="5.44958">
        <ele>206.8</ele>
        <time>2021-08-28T11:53:36Z</time>
      </trkpt>
      <trkpt lat="46.63337" lon="5.44965">
        <ele>207.2</ele>
        <time>2021-08-28T11:53:39Z</time>
      </trkpt>
      <trkpt lat="46.63352" lon="5.44973">
        <ele>208.4</ele>
        <time>2021-08-28T11:53:43Z</time>
      </trkpt>
      <trkpt lat="46.6336" lon="5.44975">
        <ele>208.8</ele>
        <time>2021-08-28T11:53:45Z</time>
      </trkpt>
      <trkpt lat="46.63377" lon="5.44975">
        <ele>209.4</ele>
        <time>2021-08-28T11:53:49Z</time>
      </trkpt>
      <trkpt lat="46.63385" lon="5.44973">
        <ele>209.8</ele>
        <time>2021-08-28T11:53:51Z</time>
      </trkpt>
      <trkpt lat="46.63398" lon="5.44971">
        <ele>210.4</ele>
        <time>2021-08-28T11:53:54Z</time>
      </trkpt>
      <trkpt lat="46.63423" lon="5.44973">
        <ele>211.4</ele>
        <time>2021-08-28T11:54:00Z</time>
      </trkpt>
      <trkpt lat="46.63427" lon="5.44974">
        <ele>211.6</ele>
        <time>2021-08-28T11:54:01Z</time>
      </trkpt>
      <trkpt lat="46.6345" lon="5.44987">
        <ele>212.4</ele>
        <time>2021-08-28T11:54:07Z</time>
      </trkpt>
      <trkpt lat="46.63454" lon="5.44989">
        <ele>212.6</ele>
        <time>2021-08-28T11:54:08Z</time>
      </trkpt>
      <trkpt lat="46.63461" lon="5.44993">
        <ele>213.6</ele>
        <time>2021-08-28T11:54:10Z</time>
      </trkpt>
      <trkpt lat="46.63473" lon="5.45002">
        <ele>214.6</ele>
        <time>2021-08-28T11:54:13Z</time>
      </trkpt>
      <trkpt lat="46.63484" lon="5.4501">
        <ele>215.4</ele>
        <time>2021-08-28T11:54:16Z</time>
      </trkpt>
      <trkpt lat="46.63495" lon="5.4502">
        <ele>215.8</ele>
        <time>2021-08-28T11:54:19Z</time>
      </trkpt>
      <trkpt lat="46.63515" lon="5.45044">
        <ele>216.4</ele>
        <time>2021-08-28T11:54:25Z</time>
      </trkpt>
      <trkpt lat="46.6355" lon="5.45093">
        <ele>216.8</ele>
        <time>2021-08-28T11:54:35Z</time>
      </trkpt>
      <trkpt lat="46.63555" lon="5.45099">
        <ele>216.8</ele>
        <time>2021-08-28T11:54:36Z</time>
      </trkpt>
      <trkpt lat="46.63572" lon="5.45122">
        <ele>217</ele>
        <time>2021-08-28T11:54:40Z</time>
      </trkpt>
      <trkpt lat="46.63595" lon="5.45162">
        <ele>216.4</ele>
        <time>2021-08-28T11:54:45Z</time>
      </trkpt>
      <trkpt lat="46.63602" lon="5.45181">
        <ele>215.6</ele>
        <time>2021-08-28T11:54:47Z</time>
      </trkpt>
      <trkpt lat="46.63617" lon="5.45223">
        <ele>214.4</ele>
        <time>2021-08-28T11:54:51Z</time>
      </trkpt>
      <trkpt lat="46.63634" lon="5.45266">
        <ele>212.8</ele>
        <time>2021-08-28T11:54:55Z</time>
      </trkpt>
      <trkpt lat="46.63639" lon="5.45276">
        <ele>211.4</ele>
        <time>2021-08-28T11:54:56Z</time>
      </trkpt>
      <trkpt lat="46.63645" lon="5.45286">
        <ele>211.2</ele>
        <time>2021-08-28T11:54:57Z</time>
      </trkpt>
      <trkpt lat="46.63652" lon="5.45295">
        <ele>210.6</ele>
        <time>2021-08-28T11:54:58Z</time>
      </trkpt>
      <trkpt lat="46.63665" lon="5.45313">
        <ele>209.4</ele>
        <time>2021-08-28T11:55:00Z</time>
      </trkpt>
      <trkpt lat="46.63671" lon="5.45323">
        <ele>209.2</ele>
        <time>2021-08-28T11:55:01Z</time>
      </trkpt>
      <trkpt lat="46.63676" lon="5.45334">
        <ele>208.8</ele>
        <time>2021-08-28T11:55:02Z</time>
      </trkpt>
      <trkpt lat="46.6368" lon="5.45346">
        <ele>207.8</ele>
        <time>2021-08-28T11:55:03Z</time>
      </trkpt>
      <trkpt lat="46.6369" lon="5.45382">
        <ele>207</ele>
        <time>2021-08-28T11:55:06Z</time>
      </trkpt>
      <trkpt lat="46.63693" lon="5.45394">
        <ele>206.4</ele>
        <time>2021-08-28T11:55:07Z</time>
      </trkpt>
      <trkpt lat="46.63704" lon="5.45443">
        <ele>205.4</ele>
        <time>2021-08-28T11:55:11Z</time>
      </trkpt>
      <trkpt lat="46.63709" lon="5.45466">
        <ele>205</ele>
        <time>2021-08-28T11:55:13Z</time>
      </trkpt>
      <trkpt lat="46.63728" lon="5.45545">
        <ele>205</ele>
        <time>2021-08-28T11:55:20Z</time>
      </trkpt>
      <trkpt lat="46.63733" lon="5.45566">
        <ele>205</ele>
        <time>2021-08-28T11:55:22Z</time>
      </trkpt>
      <trkpt lat="46.63755" lon="5.45634">
        <ele>205</ele>
        <time>2021-08-28T11:55:29Z</time>
      </trkpt>
      <trkpt lat="46.63778" lon="5.45673">
        <ele>205</ele>
        <time>2021-08-28T11:55:34Z</time>
      </trkpt>
      <trkpt lat="46.63805" lon="5.45723">
        <ele>205.4</ele>
        <time>2021-08-28T11:55:40Z</time>
      </trkpt>
      <trkpt lat="46.6384" lon="5.45789">
        <ele>205</ele>
        <time>2021-08-28T11:55:48Z</time>
      </trkpt>
      <trkpt lat="46.63849" lon="5.45805">
        <ele>205.2</ele>
        <time>2021-08-28T11:55:50Z</time>
      </trkpt>
      <trkpt lat="46.63856" lon="5.45823">
        <ele>205</ele>
        <time>2021-08-28T11:55:52Z</time>
      </trkpt>
      <trkpt lat="46.6386" lon="5.45842">
        <ele>205.4</ele>
        <time>2021-08-28T11:55:54Z</time>
      </trkpt>
      <trkpt lat="46.6386" lon="5.45892">
        <ele>205.4</ele>
        <time>2021-08-28T11:55:59Z</time>
      </trkpt>
      <trkpt lat="46.6386" lon="5.45902">
        <ele>205.4</ele>
        <time>2021-08-28T11:56:00Z</time>
      </trkpt>
      <trkpt lat="46.63867" lon="5.45951">
        <ele>205.4</ele>
        <time>2021-08-28T11:56:05Z</time>
      </trkpt>
      <trkpt lat="46.6388" lon="5.46029">
        <ele>206</ele>
        <time>2021-08-28T11:56:14Z</time>
      </trkpt>
      <trkpt lat="46.63883" lon="5.46046">
        <ele>206.2</ele>
        <time>2021-08-28T11:56:16Z</time>
      </trkpt>
      <trkpt lat="46.63895" lon="5.46095">
        <ele>206.4</ele>
        <time>2021-08-28T11:56:22Z</time>
      </trkpt>
      <trkpt lat="46.63904" lon="5.46137">
        <ele>207.2</ele>
        <time>2021-08-28T11:56:27Z</time>
      </trkpt>
      <trkpt lat="46.63906" lon="5.46154">
        <ele>207.6</ele>
        <time>2021-08-28T11:56:29Z</time>
      </trkpt>
      <trkpt lat="46.63914" lon="5.46213">
        <ele>208.2</ele>
        <time>2021-08-28T11:56:36Z</time>
      </trkpt>
      <trkpt lat="46.63915" lon="5.46221">
        <ele>208.8</ele>
        <time>2021-08-28T11:56:37Z</time>
      </trkpt>
      <trkpt lat="46.63919" lon="5.46255">
        <ele>209.6</ele>
        <time>2021-08-28T11:56:41Z</time>
      </trkpt>
      <trkpt lat="46.6392" lon="5.46281">
        <ele>209.8</ele>
        <time>2021-08-28T11:56:44Z</time>
      </trkpt>
      <trkpt lat="46.63923" lon="5.46306">
        <ele>210</ele>
        <time>2021-08-28T11:56:47Z</time>
      </trkpt>
      <trkpt lat="46.63929" lon="5.46329">
        <ele>210.2</ele>
        <time>2021-08-28T11:56:50Z</time>
      </trkpt>
      <trkpt lat="46.63935" lon="5.46342">
        <ele>210.4</ele>
        <time>2021-08-28T11:56:52Z</time>
      </trkpt>
      <trkpt lat="46.63943" lon="5.46354">
        <ele>210.8</ele>
        <time>2021-08-28T11:56:54Z</time>
      </trkpt>
      <trkpt lat="46.63947" lon="5.4636">
        <ele>210.8</ele>
        <time>2021-08-28T11:56:55Z</time>
      </trkpt>
      <trkpt lat="46.63961" lon="5.46376">
        <ele>210.8</ele>
        <time>2021-08-28T11:56:58Z</time>
      </trkpt>
      <trkpt lat="46.63984" lon="5.46403">
        <ele>211.2</ele>
        <time>2021-08-28T11:57:03Z</time>
      </trkpt>
      <trkpt lat="46.63995" lon="5.46412">
        <ele>211.2</ele>
        <time>2021-08-28T11:57:05Z</time>
      </trkpt>
      <trkpt lat="46.64013" lon="5.46422">
        <ele>211.6</ele>
        <time>2021-08-28T11:57:08Z</time>
      </trkpt>
      <trkpt lat="46.64069" lon="5.46448">
        <ele>211</ele>
        <time>2021-08-28T11:57:17Z</time>
      </trkpt>
      <trkpt lat="46.64119" lon="5.46468">
        <ele>211.2</ele>
        <time>2021-08-28T11:57:25Z</time>
      </trkpt>
      <trkpt lat="46.64141" lon="5.46486">
        <ele>211.2</ele>
        <time>2021-08-28T11:57:29Z</time>
      </trkpt>
      <trkpt lat="46.64149" lon="5.46502">
        <ele>211.2</ele>
        <time>2021-08-28T11:57:31Z</time>
      </trkpt>
      <trkpt lat="46.64157" lon="5.46518">
        <ele>211</ele>
        <time>2021-08-28T11:57:33Z</time>
      </trkpt>
      <trkpt lat="46.64183" lon="5.4657">
        <ele>211</ele>
        <time>2021-08-28T11:57:40Z</time>
      </trkpt>
      <trkpt lat="46.64188" lon="5.46576">
        <ele>211.2</ele>
        <time>2021-08-28T11:57:41Z</time>
      </trkpt>
      <trkpt lat="46.64199" lon="5.46586">
        <ele>211.4</ele>
        <time>2021-08-28T11:57:43Z</time>
      </trkpt>
      <trkpt lat="46.64205" lon="5.46589">
        <ele>211.4</ele>
        <time>2021-08-28T11:57:44Z</time>
      </trkpt>
      <trkpt lat="46.64241" lon="5.46596">
        <ele>211.6</ele>
        <time>2021-08-28T11:57:50Z</time>
      </trkpt>
      <trkpt lat="46.64272" lon="5.466">
        <ele>211.8</ele>
        <time>2021-08-28T11:57:55Z</time>
      </trkpt>
      <trkpt lat="46.64283" lon="5.46603">
        <ele>212.2</ele>
        <time>2021-08-28T11:57:57Z</time>
      </trkpt>
      <trkpt lat="46.64304" lon="5.46609">
        <ele>212.8</ele>
        <time>2021-08-28T11:58:01Z</time>
      </trkpt>
      <trkpt lat="46.6432" lon="5.46613">
        <ele>213.2</ele>
        <time>2021-08-28T11:58:04Z</time>
      </trkpt>
      <trkpt lat="46.64351" lon="5.46619">
        <ele>214</ele>
        <time>2021-08-28T11:58:10Z</time>
      </trkpt>
      <trkpt lat="46.64361" lon="5.46618">
        <ele>214.4</ele>
        <time>2021-08-28T11:58:12Z</time>
      </trkpt>
      <trkpt lat="46.64399" lon="5.46612">
        <ele>214</ele>
        <time>2021-08-28T11:58:19Z</time>
      </trkpt>
      <trkpt lat="46.64405" lon="5.46611">
        <ele>213.8</ele>
        <time>2021-08-28T11:58:20Z</time>
      </trkpt>
      <trkpt lat="46.64415" lon="5.46611">
        <ele>213.6</ele>
        <time>2021-08-28T11:58:22Z</time>
      </trkpt>
      <trkpt lat="46.64423" lon="5.46615">
        <ele>213.4</ele>
        <time>2021-08-28T11:58:24Z</time>
      </trkpt>
      <trkpt lat="46.64429" lon="5.46623">
        <ele>213.4</ele>
        <time>2021-08-28T11:58:26Z</time>
      </trkpt>
      <trkpt lat="46.64429" lon="5.4663">
        <ele>213.4</ele>
        <time>2021-08-28T11:58:27Z</time>
      </trkpt>
      <trkpt lat="46.64429" lon="5.46636">
        <ele>213.4</ele>
        <time>2021-08-28T11:58:28Z</time>
      </trkpt>
      <trkpt lat="46.64427" lon="5.46677">
        <ele>214</ele>
        <time>2021-08-28T11:58:34Z</time>
      </trkpt>
      <trkpt lat="46.64426" lon="5.46712">
        <ele>215.2</ele>
        <time>2021-08-28T11:58:39Z</time>
      </trkpt>
      <trkpt lat="46.64426" lon="5.46727">
        <ele>215.8</ele>
        <time>2021-08-28T11:58:41Z</time>
      </trkpt>
      <trkpt lat="46.64426" lon="5.46743">
        <ele>216.4</ele>
        <time>2021-08-28T11:58:43Z</time>
      </trkpt>
      <trkpt lat="46.64426" lon="5.46776">
        <ele>217.6</ele>
        <time>2021-08-28T11:58:48Z</time>
      </trkpt>
      <trkpt lat="46.64426" lon="5.46782">
        <ele>217.6</ele>
        <time>2021-08-28T11:58:49Z</time>
      </trkpt>
      <trkpt lat="46.64425" lon="5.4682">
        <ele>218.6</ele>
        <time>2021-08-28T11:58:55Z</time>
      </trkpt>
      <trkpt lat="46.64424" lon="5.46839">
        <ele>219.6</ele>
        <time>2021-08-28T11:58:58Z</time>
      </trkpt>
      <trkpt lat="46.64423" lon="5.46845">
        <ele>219.8</ele>
        <time>2021-08-28T11:58:59Z</time>
      </trkpt>
      <trkpt lat="46.64418" lon="5.46869">
        <ele>221</ele>
        <time>2021-08-28T11:59:03Z</time>
      </trkpt>
      <trkpt lat="46.64413" lon="5.46886">
        <ele>221.4</ele>
        <time>2021-08-28T11:59:06Z</time>
      </trkpt>
      <trkpt lat="46.64408" lon="5.46896">
        <ele>221.8</ele>
        <time>2021-08-28T11:59:08Z</time>
      </trkpt>
      <trkpt lat="46.64405" lon="5.46901">
        <ele>222.2</ele>
        <time>2021-08-28T11:59:09Z</time>
      </trkpt>
      <trkpt lat="46.64394" lon="5.46918">
        <ele>223.2</ele>
        <time>2021-08-28T11:59:13Z</time>
      </trkpt>
      <trkpt lat="46.64376" lon="5.46945">
        <ele>224.4</ele>
        <time>2021-08-28T11:59:19Z</time>
      </trkpt>
      <trkpt lat="46.64371" lon="5.46955">
        <ele>224.8</ele>
        <time>2021-08-28T11:59:21Z</time>
      </trkpt>
      <trkpt lat="46.64364" lon="5.46972">
        <ele>225.4</ele>
        <time>2021-08-28T11:59:24Z</time>
      </trkpt>
      <trkpt lat="46.64356" lon="5.46998">
        <ele>226.4</ele>
        <time>2021-08-28T11:59:28Z</time>
      </trkpt>
      <trkpt lat="46.64354" lon="5.47005">
        <ele>226.6</ele>
        <time>2021-08-28T11:59:29Z</time>
      </trkpt>
      <trkpt lat="46.64348" lon="5.47048">
        <ele>227.2</ele>
        <time>2021-08-28T11:59:35Z</time>
      </trkpt>
      <trkpt lat="46.64346" lon="5.4707">
        <ele>227.6</ele>
        <time>2021-08-28T11:59:38Z</time>
      </trkpt>
      <trkpt lat="46.64347" lon="5.47077">
        <ele>227.8</ele>
        <time>2021-08-28T11:59:39Z</time>
      </trkpt>
      <trkpt lat="46.64351" lon="5.47084">
        <ele>227.8</ele>
        <time>2021-08-28T11:59:40Z</time>
      </trkpt>
      <trkpt lat="46.64358" lon="5.47096">
        <ele>227.8</ele>
        <time>2021-08-28T11:59:42Z</time>
      </trkpt>
      <trkpt lat="46.64361" lon="5.47103">
        <ele>228</ele>
        <time>2021-08-28T11:59:43Z</time>
      </trkpt>
      <trkpt lat="46.64378" lon="5.47157">
        <ele>228</ele>
        <time>2021-08-28T11:59:50Z</time>
      </trkpt>
      <trkpt lat="46.64403" lon="5.47234">
        <ele>228.6</ele>
        <time>2021-08-28T12:00:00Z</time>
      </trkpt>
      <trkpt lat="46.64408" lon="5.4725">
        <ele>228.8</ele>
        <time>2021-08-28T12:00:02Z</time>
      </trkpt>
      <trkpt lat="46.64425" lon="5.47299">
        <ele>229</ele>
        <time>2021-08-28T12:00:08Z</time>
      </trkpt>
      <trkpt lat="46.64451" lon="5.47376">
        <ele>229</ele>
        <time>2021-08-28T12:00:17Z</time>
      </trkpt>
      <trkpt lat="46.64454" lon="5.47385">
        <ele>229</ele>
        <time>2021-08-28T12:00:18Z</time>
      </trkpt>
      <trkpt lat="46.6448" lon="5.47458">
        <ele>229.4</ele>
        <time>2021-08-28T12:00:27Z</time>
      </trkpt>
      <trkpt lat="46.64504" lon="5.47526">
        <ele>230</ele>
        <time>2021-08-28T12:00:36Z</time>
      </trkpt>
      <trkpt lat="46.64506" lon="5.47534">
        <ele>230.2</ele>
        <time>2021-08-28T12:00:37Z</time>
      </trkpt>
      <trkpt lat="46.64522" lon="5.47581">
        <ele>231.2</ele>
        <time>2021-08-28T12:00:44Z</time>
      </trkpt>
      <trkpt lat="46.64525" lon="5.47588">
        <ele>231.2</ele>
        <time>2021-08-28T12:00:45Z</time>
      </trkpt>
      <trkpt lat="46.64537" lon="5.47622">
        <ele>232.2</ele>
        <time>2021-08-28T12:00:50Z</time>
      </trkpt>
      <trkpt lat="46.64539" lon="5.47628">
        <ele>232.4</ele>
        <time>2021-08-28T12:00:51Z</time>
      </trkpt>
      <trkpt lat="46.64551" lon="5.47663">
        <ele>233</ele>
        <time>2021-08-28T12:00:56Z</time>
      </trkpt>
      <trkpt lat="46.64559" lon="5.47683">
        <ele>233.2</ele>
        <time>2021-08-28T12:00:59Z</time>
      </trkpt>
      <trkpt lat="46.64584" lon="5.47755">
        <ele>233.2</ele>
        <time>2021-08-28T12:01:09Z</time>
      </trkpt>
      <trkpt lat="46.64594" lon="5.4778">
        <ele>233</ele>
        <time>2021-08-28T12:01:14Z</time>
      </trkpt>
      <trkpt lat="46.64596" lon="5.47775">
        <ele>233</ele>
        <time>2021-08-28T12:01:16Z</time>
      </trkpt>
      <trkpt lat="46.64588" lon="5.47753">
        <ele>233.4</ele>
        <time>2021-08-28T12:01:21Z</time>
      </trkpt>
      <trkpt lat="46.64579" lon="5.47727">
        <ele>233.4</ele>
        <time>2021-08-28T12:01:26Z</time>
      </trkpt>
      <trkpt lat="46.64569" lon="5.47702">
        <ele>233.2</ele>
        <time>2021-08-28T12:01:32Z</time>
      </trkpt>
      <trkpt lat="46.64567" lon="5.47709">
        <ele>233</ele>
        <time>2021-08-28T12:01:35Z</time>
      </trkpt>
      <trkpt lat="46.64573" lon="5.47726">
        <ele>232.8</ele>
        <time>2021-08-28T12:01:38Z</time>
      </trkpt>
      <trkpt lat="46.64575" lon="5.47732">
        <ele>232.8</ele>
        <time>2021-08-28T12:01:39Z</time>
      </trkpt>
      <trkpt lat="46.64579" lon="5.47745">
        <ele>233</ele>
        <time>2021-08-28T12:01:44Z</time>
      </trkpt>
      <trkpt lat="46.64579" lon="5.47745">
        <ele>233</ele>
        <time>2021-08-28T12:01:45Z</time>
      </trkpt>
      <trkpt lat="46.64581" lon="5.47749">
        <ele>233.2</ele>
        <time>2021-08-28T12:01:55Z</time>
      </trkpt>
      <trkpt lat="46.64585" lon="5.4776">
        <ele>233.2</ele>
        <time>2021-08-28T12:01:58Z</time>
      </trkpt>
      <trkpt lat="46.64597" lon="5.47793">
        <ele>232.8</ele>
        <time>2021-08-28T12:02:03Z</time>
      </trkpt>
      <trkpt lat="46.64618" lon="5.47856">
        <ele>232.6</ele>
        <time>2021-08-28T12:02:11Z</time>
      </trkpt>
      <trkpt lat="46.64631" lon="5.47922">
        <ele>233.2</ele>
        <time>2021-08-28T12:02:19Z</time>
      </trkpt>
      <trkpt lat="46.64643" lon="5.47995">
        <ele>234</ele>
        <time>2021-08-28T12:02:28Z</time>
      </trkpt>
      <trkpt lat="46.6465" lon="5.48043">
        <ele>234.4</ele>
        <time>2021-08-28T12:02:34Z</time>
      </trkpt>
      <trkpt lat="46.64653" lon="5.48059">
        <ele>234.8</ele>
        <time>2021-08-28T12:02:36Z</time>
      </trkpt>
      <trkpt lat="46.64663" lon="5.48128">
        <ele>235.2</ele>
        <time>2021-08-28T12:02:45Z</time>
      </trkpt>
      <trkpt lat="46.64665" lon="5.48144">
        <ele>235.4</ele>
        <time>2021-08-28T12:02:47Z</time>
      </trkpt>
      <trkpt lat="46.6467" lon="5.48175">
        <ele>236.8</ele>
        <time>2021-08-28T12:02:51Z</time>
      </trkpt>
      <trkpt lat="46.64672" lon="5.4819">
        <ele>237</ele>
        <time>2021-08-28T12:02:53Z</time>
      </trkpt>
      <trkpt lat="46.64682" lon="5.48234">
        <ele>237.6</ele>
        <time>2021-08-28T12:02:59Z</time>
      </trkpt>
      <trkpt lat="46.64685" lon="5.4824">
        <ele>237.6</ele>
        <time>2021-08-28T12:03:00Z</time>
      </trkpt>
      <trkpt lat="46.64689" lon="5.48245">
        <ele>237.6</ele>
        <time>2021-08-28T12:03:01Z</time>
      </trkpt>
      <trkpt lat="46.647" lon="5.48249">
        <ele>237.8</ele>
        <time>2021-08-28T12:03:03Z</time>
      </trkpt>
      <trkpt lat="46.64711" lon="5.4825">
        <ele>238.2</ele>
        <time>2021-08-28T12:03:05Z</time>
      </trkpt>
      <trkpt lat="46.64726" lon="5.48257">
        <ele>238.2</ele>
        <time>2021-08-28T12:03:08Z</time>
      </trkpt>
      <trkpt lat="46.64731" lon="5.48261">
        <ele>238.2</ele>
        <time>2021-08-28T12:03:09Z</time>
      </trkpt>
      <trkpt lat="46.64752" lon="5.48274">
        <ele>238.6</ele>
        <time>2021-08-28T12:03:13Z</time>
      </trkpt>
      <trkpt lat="46.64768" lon="5.48285">
        <ele>239</ele>
        <time>2021-08-28T12:03:16Z</time>
      </trkpt>
      <trkpt lat="46.64799" lon="5.4831">
        <ele>239.8</ele>
        <time>2021-08-28T12:03:22Z</time>
      </trkpt>
      <trkpt lat="46.64805" lon="5.48314">
        <ele>240</ele>
        <time>2021-08-28T12:03:23Z</time>
      </trkpt>
      <trkpt lat="46.64858" lon="5.48354">
        <ele>240</ele>
        <time>2021-08-28T12:03:32Z</time>
      </trkpt>
      <trkpt lat="46.64908" lon="5.48396">
        <ele>239</ele>
        <time>2021-08-28T12:03:41Z</time>
      </trkpt>
      <trkpt lat="46.64955" lon="5.4844">
        <ele>239</ele>
        <time>2021-08-28T12:03:50Z</time>
      </trkpt>
      <trkpt lat="46.65006" lon="5.48479">
        <ele>238.6</ele>
        <time>2021-08-28T12:03:59Z</time>
      </trkpt>
      <trkpt lat="46.65012" lon="5.48484">
        <ele>238.4</ele>
        <time>2021-08-28T12:04:00Z</time>
      </trkpt>
      <trkpt lat="46.65062" lon="5.48517">
        <ele>238.2</ele>
        <time>2021-08-28T12:04:08Z</time>
      </trkpt>
      <trkpt lat="46.65116" lon="5.48548">
        <ele>238.6</ele>
        <time>2021-08-28T12:04:16Z</time>
      </trkpt>
      <trkpt lat="46.65122" lon="5.48551">
        <ele>238.4</ele>
        <time>2021-08-28T12:04:17Z</time>
      </trkpt>
      <trkpt lat="46.65174" lon="5.48579">
        <ele>238.6</ele>
        <time>2021-08-28T12:04:25Z</time>
      </trkpt>
      <trkpt lat="46.65181" lon="5.48581">
        <ele>238.8</ele>
        <time>2021-08-28T12:04:26Z</time>
      </trkpt>
      <trkpt lat="46.65219" lon="5.48599">
        <ele>239</ele>
        <time>2021-08-28T12:04:32Z</time>
      </trkpt>
      <trkpt lat="46.65267" lon="5.48631">
        <ele>238.2</ele>
        <time>2021-08-28T12:04:40Z</time>
      </trkpt>
      <trkpt lat="46.65293" lon="5.48645">
        <ele>238</ele>
        <time>2021-08-28T12:04:44Z</time>
      </trkpt>
      <trkpt lat="46.653" lon="5.48647">
        <ele>237.8</ele>
        <time>2021-08-28T12:04:45Z</time>
      </trkpt>
      <trkpt lat="46.65344" lon="5.48654">
        <ele>236.8</ele>
        <time>2021-08-28T12:04:51Z</time>
      </trkpt>
      <trkpt lat="46.65377" lon="5.48669">
        <ele>235.8</ele>
        <time>2021-08-28T12:04:55Z</time>
      </trkpt>
      <trkpt lat="46.65385" lon="5.48674">
        <ele>235.2</ele>
        <time>2021-08-28T12:04:56Z</time>
      </trkpt>
      <trkpt lat="46.65402" lon="5.48687">
        <ele>234.2</ele>
        <time>2021-08-28T12:04:58Z</time>
      </trkpt>
      <trkpt lat="46.6542" lon="5.48699">
        <ele>233</ele>
        <time>2021-08-28T12:05:00Z</time>
      </trkpt>
      <trkpt lat="46.65429" lon="5.48703">
        <ele>231.6</ele>
        <time>2021-08-28T12:05:01Z</time>
      </trkpt>
      <trkpt lat="46.65438" lon="5.48706">
        <ele>231</ele>
        <time>2021-08-28T12:05:02Z</time>
      </trkpt>
      <trkpt lat="46.65448" lon="5.48707">
        <ele>229.6</ele>
        <time>2021-08-28T12:05:03Z</time>
      </trkpt>
      <trkpt lat="46.65458" lon="5.48706">
        <ele>229</ele>
        <time>2021-08-28T12:05:04Z</time>
      </trkpt>
      <trkpt lat="46.65468" lon="5.48705">
        <ele>228</ele>
        <time>2021-08-28T12:05:05Z</time>
      </trkpt>
      <trkpt lat="46.65488" lon="5.48703">
        <ele>227</ele>
        <time>2021-08-28T12:05:07Z</time>
      </trkpt>
      <trkpt lat="46.65507" lon="5.487">
        <ele>225.8</ele>
        <time>2021-08-28T12:05:09Z</time>
      </trkpt>
      <trkpt lat="46.65536" lon="5.48697">
        <ele>225</ele>
        <time>2021-08-28T12:05:12Z</time>
      </trkpt>
      <trkpt lat="46.65545" lon="5.48697">
        <ele>224.6</ele>
        <time>2021-08-28T12:05:13Z</time>
      </trkpt>
      <trkpt lat="46.65554" lon="5.48699">
        <ele>224.6</ele>
        <time>2021-08-28T12:05:14Z</time>
      </trkpt>
      <trkpt lat="46.6557" lon="5.48707">
        <ele>224.2</ele>
        <time>2021-08-28T12:05:16Z</time>
      </trkpt>
      <trkpt lat="46.65578" lon="5.48712">
        <ele>224</ele>
        <time>2021-08-28T12:05:17Z</time>
      </trkpt>
      <trkpt lat="46.65584" lon="5.48719">
        <ele>224</ele>
        <time>2021-08-28T12:05:18Z</time>
      </trkpt>
      <trkpt lat="46.6559" lon="5.48727">
        <ele>223.8</ele>
        <time>2021-08-28T12:05:19Z</time>
      </trkpt>
      <trkpt lat="46.65624" lon="5.48769">
        <ele>224.8</ele>
        <time>2021-08-28T12:05:25Z</time>
      </trkpt>
      <trkpt lat="46.65642" lon="5.48795">
        <ele>225.8</ele>
        <time>2021-08-28T12:05:29Z</time>
      </trkpt>
      <trkpt lat="46.65647" lon="5.48802">
        <ele>225.8</ele>
        <time>2021-08-28T12:05:30Z</time>
      </trkpt>
      <trkpt lat="46.65656" lon="5.4882">
        <ele>226.8</ele>
        <time>2021-08-28T12:05:33Z</time>
      </trkpt>
      <trkpt lat="46.65661" lon="5.48832">
        <ele>227.2</ele>
        <time>2021-08-28T12:05:35Z</time>
      </trkpt>
      <trkpt lat="46.65667" lon="5.48851">
        <ele>228.4</ele>
        <time>2021-08-28T12:05:38Z</time>
      </trkpt>
      <trkpt lat="46.65669" lon="5.48858">
        <ele>228.6</ele>
        <time>2021-08-28T12:05:39Z</time>
      </trkpt>
      <trkpt lat="46.65671" lon="5.48864">
        <ele>229</ele>
        <time>2021-08-28T12:05:40Z</time>
      </trkpt>
      <trkpt lat="46.65674" lon="5.48884">
        <ele>229.4</ele>
        <time>2021-08-28T12:05:43Z</time>
      </trkpt>
      <trkpt lat="46.65676" lon="5.48899">
        <ele>231</ele>
        <time>2021-08-28T12:05:45Z</time>
      </trkpt>
      <trkpt lat="46.65678" lon="5.48917">
        <ele>232</ele>
        <time>2021-08-28T12:05:48Z</time>
      </trkpt>
      <trkpt lat="46.65678" lon="5.48924">
        <ele>232.6</ele>
        <time>2021-08-28T12:05:49Z</time>
      </trkpt>
      <trkpt lat="46.65679" lon="5.48931">
        <ele>233.2</ele>
        <time>2021-08-28T12:05:50Z</time>
      </trkpt>
      <trkpt lat="46.65681" lon="5.48952">
        <ele>234.2</ele>
        <time>2021-08-28T12:05:53Z</time>
      </trkpt>
      <trkpt lat="46.65681" lon="5.48959">
        <ele>234.4</ele>
        <time>2021-08-28T12:05:54Z</time>
      </trkpt>
      <trkpt lat="46.65685" lon="5.48998">
        <ele>235.6</ele>
        <time>2021-08-28T12:06:00Z</time>
      </trkpt>
      <trkpt lat="46.65686" lon="5.49005">
        <ele>235.8</ele>
        <time>2021-08-28T12:06:01Z</time>
      </trkpt>
      <trkpt lat="46.6569" lon="5.49037">
        <ele>236.6</ele>
        <time>2021-08-28T12:06:06Z</time>
      </trkpt>
      <trkpt lat="46.65694" lon="5.49057">
        <ele>237</ele>
        <time>2021-08-28T12:06:09Z</time>
      </trkpt>
      <trkpt lat="46.65696" lon="5.49064">
        <ele>237.2</ele>
        <time>2021-08-28T12:06:10Z</time>
      </trkpt>
      <trkpt lat="46.65699" lon="5.49078">
        <ele>237.6</ele>
        <time>2021-08-28T12:06:12Z</time>
      </trkpt>
      <trkpt lat="46.65707" lon="5.49115">
        <ele>238.4</ele>
        <time>2021-08-28T12:06:17Z</time>
      </trkpt>
      <trkpt lat="46.65709" lon="5.49123">
        <ele>238.4</ele>
        <time>2021-08-28T12:06:18Z</time>
      </trkpt>
      <trkpt lat="46.65714" lon="5.49146">
        <ele>238.6</ele>
        <time>2021-08-28T12:06:21Z</time>
      </trkpt>
      <trkpt lat="46.65726" lon="5.49194">
        <ele>239.2</ele>
        <time>2021-08-28T12:06:27Z</time>
      </trkpt>
      <trkpt lat="46.65746" lon="5.49264">
        <ele>239.6</ele>
        <time>2021-08-28T12:06:35Z</time>
      </trkpt>
      <trkpt lat="46.65768" lon="5.49339">
        <ele>239</ele>
        <time>2021-08-28T12:06:44Z</time>
      </trkpt>
      <trkpt lat="46.6577" lon="5.49348">
        <ele>239</ele>
        <time>2021-08-28T12:06:45Z</time>
      </trkpt>
      <trkpt lat="46.65792" lon="5.49425">
        <ele>239.4</ele>
        <time>2021-08-28T12:06:54Z</time>
      </trkpt>
      <trkpt lat="46.65803" lon="5.49459">
        <ele>239.6</ele>
        <time>2021-08-28T12:06:58Z</time>
      </trkpt>
      <trkpt lat="46.65806" lon="5.49467">
        <ele>239.6</ele>
        <time>2021-08-28T12:06:59Z</time>
      </trkpt>
      <trkpt lat="46.65827" lon="5.49532">
        <ele>239.8</ele>
        <time>2021-08-28T12:07:07Z</time>
      </trkpt>
      <trkpt lat="46.65841" lon="5.496">
        <ele>240.2</ele>
        <time>2021-08-28T12:07:15Z</time>
      </trkpt>
      <trkpt lat="46.65846" lon="5.49627">
        <ele>240.8</ele>
        <time>2021-08-28T12:07:18Z</time>
      </trkpt>
      <trkpt lat="46.65858" lon="5.49691">
        <ele>241.4</ele>
        <time>2021-08-28T12:07:25Z</time>
      </trkpt>
      <trkpt lat="46.65874" lon="5.49772">
        <ele>241.2</ele>
        <time>2021-08-28T12:07:34Z</time>
      </trkpt>
      <trkpt lat="46.65875" lon="5.4978">
        <ele>241.2</ele>
        <time>2021-08-28T12:07:35Z</time>
      </trkpt>
      <trkpt lat="46.65887" lon="5.49831">
        <ele>241.8</ele>
        <time>2021-08-28T12:07:41Z</time>
      </trkpt>
      <trkpt lat="46.65889" lon="5.49838">
        <ele>242</ele>
        <time>2021-08-28T12:07:42Z</time>
      </trkpt>
      <trkpt lat="46.659" lon="5.49891">
        <ele>242.4</ele>
        <time>2021-08-28T12:07:49Z</time>
      </trkpt>
      <trkpt lat="46.65896" lon="5.49903">
        <ele>242.8</ele>
        <time>2021-08-28T12:07:51Z</time>
      </trkpt>
      <trkpt lat="46.65891" lon="5.49905">
        <ele>242.8</ele>
        <time>2021-08-28T12:07:52Z</time>
      </trkpt>
      <trkpt lat="46.65886" lon="5.49908">
        <ele>243</ele>
        <time>2021-08-28T12:07:53Z</time>
      </trkpt>
      <trkpt lat="46.65875" lon="5.49912">
        <ele>243</ele>
        <time>2021-08-28T12:07:55Z</time>
      </trkpt>
      <trkpt lat="46.65853" lon="5.49925">
        <ele>243.2</ele>
        <time>2021-08-28T12:07:59Z</time>
      </trkpt>
      <trkpt lat="46.65836" lon="5.49934">
        <ele>243.4</ele>
        <time>2021-08-28T12:08:02Z</time>
      </trkpt>
      <trkpt lat="46.65802" lon="5.49954">
        <ele>243.6</ele>
        <time>2021-08-28T12:08:08Z</time>
      </trkpt>
      <trkpt lat="46.65791" lon="5.49962">
        <ele>243.6</ele>
        <time>2021-08-28T12:08:10Z</time>
      </trkpt>
      <trkpt lat="46.65755" lon="5.49983">
        <ele>242.8</ele>
        <time>2021-08-28T12:08:16Z</time>
      </trkpt>
      <trkpt lat="46.6572" lon="5.50006">
        <ele>242.2</ele>
        <time>2021-08-28T12:08:21Z</time>
      </trkpt>
      <trkpt lat="46.65705" lon="5.50019">
        <ele>241.4</ele>
        <time>2021-08-28T12:08:23Z</time>
      </trkpt>
      <trkpt lat="46.65689" lon="5.50034">
        <ele>241.2</ele>
        <time>2021-08-28T12:08:25Z</time>
      </trkpt>
      <trkpt lat="46.65675" lon="5.50057">
        <ele>240.2</ele>
        <time>2021-08-28T12:08:27Z</time>
      </trkpt>
      <trkpt lat="46.65671" lon="5.50069">
        <ele>239.6</ele>
        <time>2021-08-28T12:08:28Z</time>
      </trkpt>
      <trkpt lat="46.65667" lon="5.50083">
        <ele>238.6</ele>
        <time>2021-08-28T12:08:29Z</time>
      </trkpt>
      <trkpt lat="46.65659" lon="5.50109">
        <ele>237</ele>
        <time>2021-08-28T12:08:31Z</time>
      </trkpt>
      <trkpt lat="46.65656" lon="5.50121">
        <ele>236.2</ele>
        <time>2021-08-28T12:08:32Z</time>
      </trkpt>
      <trkpt lat="46.65655" lon="5.50134">
        <ele>236</ele>
        <time>2021-08-28T12:08:33Z</time>
      </trkpt>
      <trkpt lat="46.65656" lon="5.50147">
        <ele>235.6</ele>
        <time>2021-08-28T12:08:34Z</time>
      </trkpt>
      <trkpt lat="46.65663" lon="5.50172">
        <ele>235.2</ele>
        <time>2021-08-28T12:08:36Z</time>
      </trkpt>
      <trkpt lat="46.65669" lon="5.50197">
        <ele>234.8</ele>
        <time>2021-08-28T12:08:38Z</time>
      </trkpt>
      <trkpt lat="46.65678" lon="5.50235">
        <ele>233.8</ele>
        <time>2021-08-28T12:08:41Z</time>
      </trkpt>
      <trkpt lat="46.65685" lon="5.50272">
        <ele>233.4</ele>
        <time>2021-08-28T12:08:44Z</time>
      </trkpt>
      <trkpt lat="46.65691" lon="5.50333">
        <ele>233.2</ele>
        <time>2021-08-28T12:08:49Z</time>
      </trkpt>
      <trkpt lat="46.65695" lon="5.50402">
        <ele>233.6</ele>
        <time>2021-08-28T12:08:55Z</time>
      </trkpt>
      <trkpt lat="46.65696" lon="5.50465">
        <ele>234.2</ele>
        <time>2021-08-28T12:09:01Z</time>
      </trkpt>
      <trkpt lat="46.65701" lon="5.50524">
        <ele>234.6</ele>
        <time>2021-08-28T12:09:07Z</time>
      </trkpt>
      <trkpt lat="46.65703" lon="5.50533">
        <ele>234.6</ele>
        <time>2021-08-28T12:09:08Z</time>
      </trkpt>
      <trkpt lat="46.65714" lon="5.50568">
        <ele>234.6</ele>
        <time>2021-08-28T12:09:12Z</time>
      </trkpt>
      <trkpt lat="46.65717" lon="5.50577">
        <ele>234.6</ele>
        <time>2021-08-28T12:09:13Z</time>
      </trkpt>
      <trkpt lat="46.65719" lon="5.50596">
        <ele>234.8</ele>
        <time>2021-08-28T12:09:15Z</time>
      </trkpt>
      <trkpt lat="46.65719" lon="5.50605">
        <ele>234.8</ele>
        <time>2021-08-28T12:09:16Z</time>
      </trkpt>
      <trkpt lat="46.65719" lon="5.50615">
        <ele>235</ele>
        <time>2021-08-28T12:09:17Z</time>
      </trkpt>
      <trkpt lat="46.65716" lon="5.50633">
        <ele>235.2</ele>
        <time>2021-08-28T12:09:19Z</time>
      </trkpt>
      <trkpt lat="46.65714" lon="5.50642">
        <ele>235.4</ele>
        <time>2021-08-28T12:09:20Z</time>
      </trkpt>
      <trkpt lat="46.65706" lon="5.50667">
        <ele>235.8</ele>
        <time>2021-08-28T12:09:23Z</time>
      </trkpt>
      <trkpt lat="46.65691" lon="5.50717">
        <ele>236.6</ele>
        <time>2021-08-28T12:09:29Z</time>
      </trkpt>
      <trkpt lat="46.65689" lon="5.50726">
        <ele>236.6</ele>
        <time>2021-08-28T12:09:30Z</time>
      </trkpt>
      <trkpt lat="46.65688" lon="5.50753">
        <ele>236.8</ele>
        <time>2021-08-28T12:09:33Z</time>
      </trkpt>
      <trkpt lat="46.65688" lon="5.50762">
        <ele>237</ele>
        <time>2021-08-28T12:09:34Z</time>
      </trkpt>
      <trkpt lat="46.65688" lon="5.50771">
        <ele>237.2</ele>
        <time>2021-08-28T12:09:35Z</time>
      </trkpt>
      <trkpt lat="46.65689" lon="5.508">
        <ele>237.8</ele>
        <time>2021-08-28T12:09:39Z</time>
      </trkpt>
      <trkpt lat="46.65691" lon="5.50808">
        <ele>237.8</ele>
        <time>2021-08-28T12:09:40Z</time>
      </trkpt>
      <trkpt lat="46.65695" lon="5.50821">
        <ele>238.2</ele>
        <time>2021-08-28T12:09:42Z</time>
      </trkpt>
      <trkpt lat="46.65698" lon="5.50826">
        <ele>238.2</ele>
        <time>2021-08-28T12:09:43Z</time>
      </trkpt>
      <trkpt lat="46.65711" lon="5.50844">
        <ele>238.8</ele>
        <time>2021-08-28T12:09:47Z</time>
      </trkpt>
      <trkpt lat="46.65714" lon="5.50848">
        <ele>239.4</ele>
        <time>2021-08-28T12:09:48Z</time>
      </trkpt>
      <trkpt lat="46.65718" lon="5.50851">
        <ele>239.6</ele>
        <time>2021-08-28T12:09:49Z</time>
      </trkpt>
      <trkpt lat="46.65721" lon="5.50853">
        <ele>240.4</ele>
        <time>2021-08-28T12:09:50Z</time>
      </trkpt>
      <trkpt lat="46.65734" lon="5.50861">
        <ele>241.6</ele>
        <time>2021-08-28T12:09:53Z</time>
      </trkpt>
      <trkpt lat="46.6575" lon="5.50871">
        <ele>242.8</ele>
        <time>2021-08-28T12:09:57Z</time>
      </trkpt>
      <trkpt lat="46.65761" lon="5.50882">
        <ele>244.4</ele>
        <time>2021-08-28T12:10:00Z</time>
      </trkpt>
      <trkpt lat="46.65766" lon="5.50891">
        <ele>244.8</ele>
        <time>2021-08-28T12:10:02Z</time>
      </trkpt>
      <trkpt lat="46.65768" lon="5.50897">
        <ele>245</ele>
        <time>2021-08-28T12:10:03Z</time>
      </trkpt>
      <trkpt lat="46.65771" lon="5.50908">
        <ele>245.8</ele>
        <time>2021-08-28T12:10:05Z</time>
      </trkpt>
      <trkpt lat="46.65773" lon="5.5092">
        <ele>246.4</ele>
        <time>2021-08-28T12:10:07Z</time>
      </trkpt>
      <trkpt lat="46.65773" lon="5.50931">
        <ele>246.8</ele>
        <time>2021-08-28T12:10:09Z</time>
      </trkpt>
      <trkpt lat="46.65772" lon="5.50957">
        <ele>248</ele>
        <time>2021-08-28T12:10:13Z</time>
      </trkpt>
      <trkpt lat="46.65772" lon="5.50963">
        <ele>248.4</ele>
        <time>2021-08-28T12:10:14Z</time>
      </trkpt>
      <trkpt lat="46.6577" lon="5.50976">
        <ele>249</ele>
        <time>2021-08-28T12:10:16Z</time>
      </trkpt>
      <trkpt lat="46.65769" lon="5.51006">
        <ele>250</ele>
        <time>2021-08-28T12:10:21Z</time>
      </trkpt>
      <trkpt lat="46.65769" lon="5.51012">
        <ele>250.2</ele>
        <time>2021-08-28T12:10:22Z</time>
      </trkpt>
      <trkpt lat="46.6577" lon="5.51036">
        <ele>251.2</ele>
        <time>2021-08-28T12:10:26Z</time>
      </trkpt>
      <trkpt lat="46.65771" lon="5.51071">
        <ele>251.8</ele>
        <time>2021-08-28T12:10:31Z</time>
      </trkpt>
      <trkpt lat="46.65772" lon="5.51092">
        <ele>252.2</ele>
        <time>2021-08-28T12:10:34Z</time>
      </trkpt>
      <trkpt lat="46.65773" lon="5.51143">
        <ele>253</ele>
        <time>2021-08-28T12:10:41Z</time>
      </trkpt>
      <trkpt lat="46.65774" lon="5.51172">
        <ele>253.4</ele>
        <time>2021-08-28T12:10:45Z</time>
      </trkpt>
      <trkpt lat="46.65775" lon="5.51209">
        <ele>253.8</ele>
        <time>2021-08-28T12:10:50Z</time>
      </trkpt>
      <trkpt lat="46.65777" lon="5.51266">
        <ele>254.4</ele>
        <time>2021-08-28T12:10:57Z</time>
      </trkpt>
      <trkpt lat="46.65777" lon="5.51283">
        <ele>254.6</ele>
        <time>2021-08-28T12:10:59Z</time>
      </trkpt>
      <trkpt lat="46.65779" lon="5.51366">
        <ele>255.2</ele>
        <time>2021-08-28T12:11:09Z</time>
      </trkpt>
      <trkpt lat="46.65779" lon="5.51375">
        <ele>255.2</ele>
        <time>2021-08-28T12:11:10Z</time>
      </trkpt>
      <trkpt lat="46.65779" lon="5.51391">
        <ele>255.4</ele>
        <time>2021-08-28T12:11:12Z</time>
      </trkpt>
      <trkpt lat="46.65781" lon="5.51439">
        <ele>255.8</ele>
        <time>2021-08-28T12:11:18Z</time>
      </trkpt>
      <trkpt lat="46.65781" lon="5.51446">
        <ele>256</ele>
        <time>2021-08-28T12:11:19Z</time>
      </trkpt>
      <trkpt lat="46.65781" lon="5.51453">
        <ele>256</ele>
        <time>2021-08-28T12:11:20Z</time>
      </trkpt>
      <trkpt lat="46.65778" lon="5.51467">
        <ele>256.4</ele>
        <time>2021-08-28T12:11:22Z</time>
      </trkpt>
      <trkpt lat="46.65775" lon="5.51473">
        <ele>256.6</ele>
        <time>2021-08-28T12:11:23Z</time>
      </trkpt>
      <trkpt lat="46.65768" lon="5.51485">
        <ele>256.8</ele>
        <time>2021-08-28T12:11:25Z</time>
      </trkpt>
      <trkpt lat="46.65766" lon="5.51492">
        <ele>257</ele>
        <time>2021-08-28T12:11:26Z</time>
      </trkpt>
      <trkpt lat="46.65766" lon="5.515">
        <ele>257</ele>
        <time>2021-08-28T12:11:27Z</time>
      </trkpt>
      <trkpt lat="46.65772" lon="5.51515">
        <ele>257</ele>
        <time>2021-08-28T12:11:29Z</time>
      </trkpt>
      <trkpt lat="46.65779" lon="5.51527">
        <ele>257</ele>
        <time>2021-08-28T12:11:31Z</time>
      </trkpt>
      <trkpt lat="46.65783" lon="5.51545">
        <ele>257.2</ele>
        <time>2021-08-28T12:11:33Z</time>
      </trkpt>
      <trkpt lat="46.65794" lon="5.51596">
        <ele>257.6</ele>
        <time>2021-08-28T12:11:39Z</time>
      </trkpt>
      <trkpt lat="46.65799" lon="5.51612">
        <ele>257.6</ele>
        <time>2021-08-28T12:11:41Z</time>
      </trkpt>
      <trkpt lat="46.65807" lon="5.51658">
        <ele>257.8</ele>
        <time>2021-08-28T12:11:46Z</time>
      </trkpt>
      <trkpt lat="46.65819" lon="5.51739">
        <ele>257.8</ele>
        <time>2021-08-28T12:11:55Z</time>
      </trkpt>
      <trkpt lat="46.65821" lon="5.51756">
        <ele>257.6</ele>
        <time>2021-08-28T12:11:57Z</time>
      </trkpt>
      <trkpt lat="46.65833" lon="5.51839">
        <ele>258.6</ele>
        <time>2021-08-28T12:12:07Z</time>
      </trkpt>
      <trkpt lat="46.65846" lon="5.51918">
        <ele>259</ele>
        <time>2021-08-28T12:12:17Z</time>
      </trkpt>
      <trkpt lat="46.65857" lon="5.5198">
        <ele>259.2</ele>
        <time>2021-08-28T12:12:25Z</time>
      </trkpt>
      <trkpt lat="46.65866" lon="5.52038">
        <ele>259.2</ele>
        <time>2021-08-28T12:12:32Z</time>
      </trkpt>
      <trkpt lat="46.65865" lon="5.52047">
        <ele>259.2</ele>
        <time>2021-08-28T12:12:33Z</time>
      </trkpt>
      <trkpt lat="46.65862" lon="5.52056">
        <ele>259</ele>
        <time>2021-08-28T12:12:34Z</time>
      </trkpt>
      <trkpt lat="46.65852" lon="5.52071">
        <ele>258.6</ele>
        <time>2021-08-28T12:12:36Z</time>
      </trkpt>
      <trkpt lat="46.6582" lon="5.5211">
        <ele>258</ele>
        <time>2021-08-28T12:12:42Z</time>
      </trkpt>
      <trkpt lat="46.65782" lon="5.52159">
        <ele>258</ele>
        <time>2021-08-28T12:12:49Z</time>
      </trkpt>
      <trkpt lat="46.65754" lon="5.52215">
        <ele>258</ele>
        <time>2021-08-28T12:12:55Z</time>
      </trkpt>
      <trkpt lat="46.65743" lon="5.52233">
        <ele>258</ele>
        <time>2021-08-28T12:12:57Z</time>
      </trkpt>
      <trkpt lat="46.65728" lon="5.52249">
        <ele>257.6</ele>
        <time>2021-08-28T12:12:59Z</time>
      </trkpt>
      <trkpt lat="46.65696" lon="5.52278">
        <ele>255.8</ele>
        <time>2021-08-28T12:13:03Z</time>
      </trkpt>
      <trkpt lat="46.65687" lon="5.52285">
        <ele>255.4</ele>
        <time>2021-08-28T12:13:04Z</time>
      </trkpt>
      <trkpt lat="46.65677" lon="5.52292">
        <ele>254.6</ele>
        <time>2021-08-28T12:13:05Z</time>
      </trkpt>
      <trkpt lat="46.65639" lon="5.52318">
        <ele>253.6</ele>
        <time>2021-08-28T12:13:09Z</time>
      </trkpt>
      <trkpt lat="46.65588" lon="5.5235">
        <ele>252.6</ele>
        <time>2021-08-28T12:13:15Z</time>
      </trkpt>
      <trkpt lat="46.65564" lon="5.52367">
        <ele>252.6</ele>
        <time>2021-08-28T12:13:18Z</time>
      </trkpt>
      <trkpt lat="46.65511" lon="5.52411">
        <ele>251.8</ele>
        <time>2021-08-28T12:13:25Z</time>
      </trkpt>
      <trkpt lat="46.65462" lon="5.52455">
        <ele>252.2</ele>
        <time>2021-08-28T12:13:32Z</time>
      </trkpt>
      <trkpt lat="46.65455" lon="5.52461">
        <ele>252.4</ele>
        <time>2021-08-28T12:13:33Z</time>
      </trkpt>
      <trkpt lat="46.65411" lon="5.52506">
        <ele>252.8</ele>
        <time>2021-08-28T12:13:40Z</time>
      </trkpt>
      <trkpt lat="46.65402" lon="5.52523">
        <ele>253</ele>
        <time>2021-08-28T12:13:42Z</time>
      </trkpt>
      <trkpt lat="46.65394" lon="5.52542">
        <ele>253</ele>
        <time>2021-08-28T12:13:44Z</time>
      </trkpt>
      <trkpt lat="46.65381" lon="5.5259">
        <ele>253.8</ele>
        <time>2021-08-28T12:13:49Z</time>
      </trkpt>
      <trkpt lat="46.65375" lon="5.52609">
        <ele>254</ele>
        <time>2021-08-28T12:13:51Z</time>
      </trkpt>
      <trkpt lat="46.65352" lon="5.52662">
        <ele>254.4</ele>
        <time>2021-08-28T12:13:57Z</time>
      </trkpt>
      <trkpt lat="46.65331" lon="5.52688">
        <ele>254.8</ele>
        <time>2021-08-28T12:14:01Z</time>
      </trkpt>
      <trkpt lat="46.65326" lon="5.52694">
        <ele>254.8</ele>
        <time>2021-08-28T12:14:02Z</time>
      </trkpt>
      <trkpt lat="46.65315" lon="5.52706">
        <ele>255.2</ele>
        <time>2021-08-28T12:14:04Z</time>
      </trkpt>
      <trkpt lat="46.65295" lon="5.52727">
        <ele>255.4</ele>
        <time>2021-08-28T12:14:08Z</time>
      </trkpt>
      <trkpt lat="46.65286" lon="5.52737">
        <ele>256</ele>
        <time>2021-08-28T12:14:10Z</time>
      </trkpt>
      <trkpt lat="46.65266" lon="5.52755">
        <ele>256.4</ele>
        <time>2021-08-28T12:14:14Z</time>
      </trkpt>
      <trkpt lat="46.65257" lon="5.52764">
        <ele>256.8</ele>
        <time>2021-08-28T12:14:16Z</time>
      </trkpt>
      <trkpt lat="46.65252" lon="5.52767">
        <ele>257</ele>
        <time>2021-08-28T12:14:17Z</time>
      </trkpt>
      <trkpt lat="46.65241" lon="5.52777">
        <ele>257.8</ele>
        <time>2021-08-28T12:14:20Z</time>
      </trkpt>
      <trkpt lat="46.65239" lon="5.52777">
        <ele>258.2</ele>
        <time>2021-08-28T12:14:22Z</time>
      </trkpt>
      <trkpt lat="46.65239" lon="5.52777">
        <ele>258.4</ele>
        <time>2021-08-28T12:14:23Z</time>
      </trkpt>
      <trkpt lat="46.65237" lon="5.52777">
        <ele>258.8</ele>
        <time>2021-08-28T12:14:25Z</time>
      </trkpt>
      <trkpt lat="46.65231" lon="5.52777">
        <ele>259.2</ele>
        <time>2021-08-28T12:14:28Z</time>
      </trkpt>
      <trkpt lat="46.65228" lon="5.52778">
        <ele>259.4</ele>
        <time>2021-08-28T12:14:29Z</time>
      </trkpt>
      <trkpt lat="46.65218" lon="5.52779">
        <ele>259.4</ele>
        <time>2021-08-28T12:14:32Z</time>
      </trkpt>
      <trkpt lat="46.65214" lon="5.5278">
        <ele>259.4</ele>
        <time>2021-08-28T12:14:33Z</time>
      </trkpt>
      <trkpt lat="46.65205" lon="5.52783">
        <ele>259.4</ele>
        <time>2021-08-28T12:14:35Z</time>
      </trkpt>
      <trkpt lat="46.65202" lon="5.52788">
        <ele>259.4</ele>
        <time>2021-08-28T12:14:36Z</time>
      </trkpt>
      <trkpt lat="46.65199" lon="5.52794">
        <ele>259.4</ele>
        <time>2021-08-28T12:14:37Z</time>
      </trkpt>
      <trkpt lat="46.65194" lon="5.5281">
        <ele>259.6</ele>
        <time>2021-08-28T12:14:39Z</time>
      </trkpt>
      <trkpt lat="46.65193" lon="5.52817">
        <ele>259.8</ele>
        <time>2021-08-28T12:14:40Z</time>
      </trkpt>
      <trkpt lat="46.6519" lon="5.5285">
        <ele>260.2</ele>
        <time>2021-08-28T12:14:44Z</time>
      </trkpt>
      <trkpt lat="46.65175" lon="5.52881">
        <ele>260</ele>
        <time>2021-08-28T12:14:48Z</time>
      </trkpt>
      <trkpt lat="46.6515" lon="5.52928">
        <ele>259.6</ele>
        <time>2021-08-28T12:14:54Z</time>
      </trkpt>
      <trkpt lat="46.65124" lon="5.52979">
        <ele>258.6</ele>
        <time>2021-08-28T12:15:00Z</time>
      </trkpt>
      <trkpt lat="46.65104" lon="5.53026">
        <ele>259.6</ele>
        <time>2021-08-28T12:15:06Z</time>
      </trkpt>
      <trkpt lat="46.65094" lon="5.53049">
        <ele>260.6</ele>
        <time>2021-08-28T12:15:09Z</time>
      </trkpt>
      <trkpt lat="46.65084" lon="5.53073">
        <ele>261</ele>
        <time>2021-08-28T12:15:12Z</time>
      </trkpt>
      <trkpt lat="46.65046" lon="5.53141">
        <ele>261.6</ele>
        <time>2021-08-28T12:15:21Z</time>
      </trkpt>
      <trkpt lat="46.65038" lon="5.53156">
        <ele>261.8</ele>
        <time>2021-08-28T12:15:23Z</time>
      </trkpt>
      <trkpt lat="46.65015" lon="5.53213">
        <ele>262.2</ele>
        <time>2021-08-28T12:15:30Z</time>
      </trkpt>
      <trkpt lat="46.65004" lon="5.53238">
        <ele>262.6</ele>
        <time>2021-08-28T12:15:33Z</time>
      </trkpt>
      <trkpt lat="46.64986" lon="5.53277">
        <ele>263.2</ele>
        <time>2021-08-28T12:15:38Z</time>
      </trkpt>
      <trkpt lat="46.64966" lon="5.53313">
        <ele>263.8</ele>
        <time>2021-08-28T12:15:43Z</time>
      </trkpt>
      <trkpt lat="46.64959" lon="5.53328">
        <ele>264</ele>
        <time>2021-08-28T12:15:45Z</time>
      </trkpt>
      <trkpt lat="46.64932" lon="5.53396">
        <ele>264.8</ele>
        <time>2021-08-28T12:15:53Z</time>
      </trkpt>
      <trkpt lat="46.64928" lon="5.53402">
        <ele>264.8</ele>
        <time>2021-08-28T12:15:54Z</time>
      </trkpt>
      <trkpt lat="46.64901" lon="5.53463">
        <ele>265.4</ele>
        <time>2021-08-28T12:16:01Z</time>
      </trkpt>
      <trkpt lat="46.64893" lon="5.5348">
        <ele>265.8</ele>
        <time>2021-08-28T12:16:03Z</time>
      </trkpt>
      <trkpt lat="46.64878" lon="5.53521">
        <ele>266.6</ele>
        <time>2021-08-28T12:16:08Z</time>
      </trkpt>
      <trkpt lat="46.64858" lon="5.53576">
        <ele>267</ele>
        <time>2021-08-28T12:16:15Z</time>
      </trkpt>
      <trkpt lat="46.64856" lon="5.53584">
        <ele>267.4</ele>
        <time>2021-08-28T12:16:16Z</time>
      </trkpt>
      <trkpt lat="46.64834" lon="5.5364">
        <ele>268</ele>
        <time>2021-08-28T12:16:23Z</time>
      </trkpt>
      <trkpt lat="46.64825" lon="5.53664">
        <ele>268</ele>
        <time>2021-08-28T12:16:26Z</time>
      </trkpt>
      <trkpt lat="46.64801" lon="5.53728">
        <ele>268.2</ele>
        <time>2021-08-28T12:16:34Z</time>
      </trkpt>
      <trkpt lat="46.64773" lon="5.53802">
        <ele>268.6</ele>
        <time>2021-08-28T12:16:43Z</time>
      </trkpt>
      <trkpt lat="46.64765" lon="5.53818">
        <ele>268.8</ele>
        <time>2021-08-28T12:16:45Z</time>
      </trkpt>
      <trkpt lat="46.64747" lon="5.53846">
        <ele>269</ele>
        <time>2021-08-28T12:16:49Z</time>
      </trkpt>
      <trkpt lat="46.64743" lon="5.5385">
        <ele>269</ele>
        <time>2021-08-28T12:16:50Z</time>
      </trkpt>
      <trkpt lat="46.64731" lon="5.53861">
        <ele>269.2</ele>
        <time>2021-08-28T12:16:52Z</time>
      </trkpt>
      <trkpt lat="46.64716" lon="5.5387">
        <ele>269.6</ele>
        <time>2021-08-28T12:16:55Z</time>
      </trkpt>
      <trkpt lat="46.64687" lon="5.53879">
        <ele>270</ele>
        <time>2021-08-28T12:17:00Z</time>
      </trkpt>
      <trkpt lat="46.64681" lon="5.53879">
        <ele>270.2</ele>
        <time>2021-08-28T12:17:01Z</time>
      </trkpt>
      <trkpt lat="46.64671" lon="5.53881">
        <ele>270.6</ele>
        <time>2021-08-28T12:17:03Z</time>
      </trkpt>
      <trkpt lat="46.64662" lon="5.53889">
        <ele>271</ele>
        <time>2021-08-28T12:17:05Z</time>
      </trkpt>
      <trkpt lat="46.64665" lon="5.539">
        <ele>271</ele>
        <time>2021-08-28T12:17:07Z</time>
      </trkpt>
      <trkpt lat="46.64668" lon="5.53906">
        <ele>271</ele>
        <time>2021-08-28T12:17:08Z</time>
      </trkpt>
      <trkpt lat="46.64671" lon="5.53913">
        <ele>271</ele>
        <time>2021-08-28T12:17:09Z</time>
      </trkpt>
      <trkpt lat="46.6468" lon="5.53936">
        <ele>271.6</ele>
        <time>2021-08-28T12:17:12Z</time>
      </trkpt>
      <trkpt lat="46.64694" lon="5.53989">
        <ele>271.6</ele>
        <time>2021-08-28T12:17:19Z</time>
      </trkpt>
      <trkpt lat="46.647" lon="5.54011">
        <ele>271.8</ele>
        <time>2021-08-28T12:17:22Z</time>
      </trkpt>
      <trkpt lat="46.647" lon="5.54023">
        <ele>272</ele>
        <time>2021-08-28T12:17:24Z</time>
      </trkpt>
      <trkpt lat="46.64699" lon="5.54029">
        <ele>272</ele>
        <time>2021-08-28T12:17:25Z</time>
      </trkpt>
      <trkpt lat="46.64697" lon="5.54034">
        <ele>272.2</ele>
        <time>2021-08-28T12:17:26Z</time>
      </trkpt>
      <trkpt lat="46.64688" lon="5.54041">
        <ele>272.6</ele>
        <time>2021-08-28T12:17:28Z</time>
      </trkpt>
      <trkpt lat="46.64677" lon="5.54043">
        <ele>273.6</ele>
        <time>2021-08-28T12:17:30Z</time>
      </trkpt>
      <trkpt lat="46.6466" lon="5.54046">
        <ele>274.2</ele>
        <time>2021-08-28T12:17:33Z</time>
      </trkpt>
      <trkpt lat="46.64654" lon="5.54047">
        <ele>274.2</ele>
        <time>2021-08-28T12:17:34Z</time>
      </trkpt>
      <trkpt lat="46.64632" lon="5.54058">
        <ele>274.4</ele>
        <time>2021-08-28T12:17:38Z</time>
      </trkpt>
      <trkpt lat="46.64596" lon="5.54085">
        <ele>274.2</ele>
        <time>2021-08-28T12:17:44Z</time>
      </trkpt>
      <trkpt lat="46.6456" lon="5.54115">
        <ele>274.4</ele>
        <time>2021-08-28T12:17:51Z</time>
      </trkpt>
      <trkpt lat="46.64556" lon="5.54119">
        <ele>274.4</ele>
        <time>2021-08-28T12:17:52Z</time>
      </trkpt>
      <trkpt lat="46.64552" lon="5.54132">
        <ele>274.4</ele>
        <time>2021-08-28T12:17:54Z</time>
      </trkpt>
      <trkpt lat="46.64556" lon="5.54146">
        <ele>274.6</ele>
        <time>2021-08-28T12:17:56Z</time>
      </trkpt>
      <trkpt lat="46.64559" lon="5.54153">
        <ele>274.6</ele>
        <time>2021-08-28T12:17:57Z</time>
      </trkpt>
      <trkpt lat="46.64581" lon="5.54199">
        <ele>275.8</ele>
        <time>2021-08-28T12:18:05Z</time>
      </trkpt>
      <trkpt lat="46.64586" lon="5.54212">
        <ele>276.4</ele>
        <time>2021-08-28T12:18:07Z</time>
      </trkpt>
      <trkpt lat="46.64593" lon="5.54232">
        <ele>277.2</ele>
        <time>2021-08-28T12:18:10Z</time>
      </trkpt>
      <trkpt lat="46.64602" lon="5.54257">
        <ele>278.2</ele>
        <time>2021-08-28T12:18:14Z</time>
      </trkpt>
      <trkpt lat="46.6461" lon="5.54278">
        <ele>278.6</ele>
        <time>2021-08-28T12:18:17Z</time>
      </trkpt>
      <trkpt lat="46.64629" lon="5.54336">
        <ele>279.4</ele>
        <time>2021-08-28T12:18:26Z</time>
      </trkpt>
      <trkpt lat="46.64642" lon="5.54382">
        <ele>280.4</ele>
        <time>2021-08-28T12:18:33Z</time>
      </trkpt>
      <trkpt lat="46.64644" lon="5.54388">
        <ele>280.6</ele>
        <time>2021-08-28T12:18:34Z</time>
      </trkpt>
      <trkpt lat="46.64651" lon="5.54417">
        <ele>281.6</ele>
        <time>2021-08-28T12:18:38Z</time>
      </trkpt>
      <trkpt lat="46.64658" lon="5.54442">
        <ele>282.6</ele>
        <time>2021-08-28T12:18:42Z</time>
      </trkpt>
      <trkpt lat="46.64668" lon="5.54481">
        <ele>283.8</ele>
        <time>2021-08-28T12:18:48Z</time>
      </trkpt>
      <trkpt lat="46.64673" lon="5.54495">
        <ele>284</ele>
        <time>2021-08-28T12:18:50Z</time>
      </trkpt>
      <trkpt lat="46.64691" lon="5.5453">
        <ele>283.8</ele>
        <time>2021-08-28T12:18:55Z</time>
      </trkpt>
      <trkpt lat="46.64716" lon="5.54581">
        <ele>282.6</ele>
        <time>2021-08-28T12:19:01Z</time>
      </trkpt>
      <trkpt lat="46.64727" lon="5.54612">
        <ele>282</ele>
        <time>2021-08-28T12:19:04Z</time>
      </trkpt>
      <trkpt lat="46.64732" lon="5.54636">
        <ele>281.6</ele>
        <time>2021-08-28T12:19:06Z</time>
      </trkpt>
      <trkpt lat="46.64733" lon="5.5466">
        <ele>280.6</ele>
        <time>2021-08-28T12:19:08Z</time>
      </trkpt>
      <trkpt lat="46.64732" lon="5.54674">
        <ele>280.4</ele>
        <time>2021-08-28T12:19:09Z</time>
      </trkpt>
      <trkpt lat="46.64731" lon="5.54685">
        <ele>280</ele>
        <time>2021-08-28T12:19:10Z</time>
      </trkpt>
      <trkpt lat="46.64723" lon="5.54747">
        <ele>279.6</ele>
        <time>2021-08-28T12:19:16Z</time>
      </trkpt>
      <trkpt lat="46.64711" lon="5.54818">
        <ele>279.8</ele>
        <time>2021-08-28T12:19:23Z</time>
      </trkpt>
      <trkpt lat="46.64691" lon="5.54884">
        <ele>279.6</ele>
        <time>2021-08-28T12:19:31Z</time>
      </trkpt>
      <trkpt lat="46.64685" lon="5.54898">
        <ele>279.8</ele>
        <time>2021-08-28T12:19:33Z</time>
      </trkpt>
      <trkpt lat="46.64676" lon="5.5491">
        <ele>280</ele>
        <time>2021-08-28T12:19:35Z</time>
      </trkpt>
      <trkpt lat="46.64666" lon="5.54922">
        <ele>280.4</ele>
        <time>2021-08-28T12:19:37Z</time>
      </trkpt>
      <trkpt lat="46.64659" lon="5.54931">
        <ele>280.6</ele>
        <time>2021-08-28T12:19:39Z</time>
      </trkpt>
      <trkpt lat="46.64654" lon="5.54938">
        <ele>280.8</ele>
        <time>2021-08-28T12:19:40Z</time>
      </trkpt>
      <trkpt lat="46.64645" lon="5.54947">
        <ele>281.2</ele>
        <time>2021-08-28T12:19:42Z</time>
      </trkpt>
      <trkpt lat="46.64637" lon="5.54957">
        <ele>281.8</ele>
        <time>2021-08-28T12:19:44Z</time>
      </trkpt>
      <trkpt lat="46.6463" lon="5.5497">
        <ele>282.4</ele>
        <time>2021-08-28T12:19:46Z</time>
      </trkpt>
      <trkpt lat="46.64614" lon="5.55013">
        <ele>283.2</ele>
        <time>2021-08-28T12:19:52Z</time>
      </trkpt>
      <trkpt lat="46.64612" lon="5.5502">
        <ele>283.4</ele>
        <time>2021-08-28T12:19:53Z</time>
      </trkpt>
      <trkpt lat="46.64599" lon="5.55058">
        <ele>284.2</ele>
        <time>2021-08-28T12:19:58Z</time>
      </trkpt>
      <trkpt lat="46.64591" lon="5.55081">
        <ele>284.8</ele>
        <time>2021-08-28T12:20:01Z</time>
      </trkpt>
      <trkpt lat="46.64588" lon="5.55088">
        <ele>285</ele>
        <time>2021-08-28T12:20:02Z</time>
      </trkpt>
      <trkpt lat="46.6458" lon="5.55109">
        <ele>285.4</ele>
        <time>2021-08-28T12:20:05Z</time>
      </trkpt>
      <trkpt lat="46.64567" lon="5.55143">
        <ele>286.4</ele>
        <time>2021-08-28T12:20:10Z</time>
      </trkpt>
      <trkpt lat="46.64562" lon="5.55154">
        <ele>286.6</ele>
        <time>2021-08-28T12:20:12Z</time>
      </trkpt>
      <trkpt lat="46.64532" lon="5.55221">
        <ele>287.4</ele>
        <time>2021-08-28T12:20:22Z</time>
      </trkpt>
      <trkpt lat="46.64504" lon="5.55276">
        <ele>288</ele>
        <time>2021-08-28T12:20:30Z</time>
      </trkpt>
      <trkpt lat="46.64483" lon="5.55312">
        <ele>288.6</ele>
        <time>2021-08-28T12:20:35Z</time>
      </trkpt>
      <trkpt lat="46.64469" lon="5.55333">
        <ele>288.8</ele>
        <time>2021-08-28T12:20:38Z</time>
      </trkpt>
      <trkpt lat="46.64435" lon="5.55374">
        <ele>289.6</ele>
        <time>2021-08-28T12:20:45Z</time>
      </trkpt>
      <trkpt lat="46.64429" lon="5.55381">
        <ele>289.8</ele>
        <time>2021-08-28T12:20:46Z</time>
      </trkpt>
      <trkpt lat="46.64393" lon="5.5543">
        <ele>290.4</ele>
        <time>2021-08-28T12:20:54Z</time>
      </trkpt>
      <trkpt lat="46.64355" lon="5.55495">
        <ele>290.8</ele>
        <time>2021-08-28T12:21:03Z</time>
      </trkpt>
      <trkpt lat="46.64352" lon="5.55503">
        <ele>290.8</ele>
        <time>2021-08-28T12:21:04Z</time>
      </trkpt>
      <trkpt lat="46.64319" lon="5.55568">
        <ele>291.6</ele>
        <time>2021-08-28T12:21:13Z</time>
      </trkpt>
      <trkpt lat="46.64311" lon="5.55583">
        <ele>291.8</ele>
        <time>2021-08-28T12:21:15Z</time>
      </trkpt>
      <trkpt lat="46.64282" lon="5.55639">
        <ele>293</ele>
        <time>2021-08-28T12:21:23Z</time>
      </trkpt>
      <trkpt lat="46.64274" lon="5.55654">
        <ele>293</ele>
        <time>2021-08-28T12:21:25Z</time>
      </trkpt>
      <trkpt lat="46.6424" lon="5.55719">
        <ele>293.4</ele>
        <time>2021-08-28T12:21:34Z</time>
      </trkpt>
      <trkpt lat="46.64232" lon="5.55733">
        <ele>293.4</ele>
        <time>2021-08-28T12:21:36Z</time>
      </trkpt>
      <trkpt lat="46.64213" lon="5.55771">
        <ele>294</ele>
        <time>2021-08-28T12:21:41Z</time>
      </trkpt>
      <trkpt lat="46.64201" lon="5.55793">
        <ele>294</ele>
        <time>2021-08-28T12:21:44Z</time>
      </trkpt>
      <trkpt lat="46.64193" lon="5.55807">
        <ele>294.2</ele>
        <time>2021-08-28T12:21:46Z</time>
      </trkpt>
      <trkpt lat="46.64174" lon="5.55845">
        <ele>295</ele>
        <time>2021-08-28T12:21:51Z</time>
      </trkpt>
      <trkpt lat="46.64166" lon="5.5586">
        <ele>295.4</ele>
        <time>2021-08-28T12:21:53Z</time>
      </trkpt>
      <trkpt lat="46.64158" lon="5.55876">
        <ele>295.8</ele>
        <time>2021-08-28T12:21:55Z</time>
      </trkpt>
      <trkpt lat="46.64152" lon="5.55892">
        <ele>296</ele>
        <time>2021-08-28T12:21:57Z</time>
      </trkpt>
      <trkpt lat="46.64146" lon="5.55909">
        <ele>296.2</ele>
        <time>2021-08-28T12:21:59Z</time>
      </trkpt>
      <trkpt lat="46.64116" lon="5.55979">
        <ele>297</ele>
        <time>2021-08-28T12:22:08Z</time>
      </trkpt>
      <trkpt lat="46.64112" lon="5.55986">
        <ele>297.2</ele>
        <time>2021-08-28T12:22:09Z</time>
      </trkpt>
      <trkpt lat="46.64081" lon="5.5603">
        <ele>298.2</ele>
        <time>2021-08-28T12:22:16Z</time>
      </trkpt>
      <trkpt lat="46.64073" lon="5.56042">
        <ele>298.6</ele>
        <time>2021-08-28T12:22:18Z</time>
      </trkpt>
      <trkpt lat="46.64052" lon="5.56082">
        <ele>299.6</ele>
        <time>2021-08-28T12:22:24Z</time>
      </trkpt>
      <trkpt lat="46.64038" lon="5.56128">
        <ele>300.6</ele>
        <time>2021-08-28T12:22:30Z</time>
      </trkpt>
      <trkpt lat="46.64037" lon="5.56136">
        <ele>300.8</ele>
        <time>2021-08-28T12:22:31Z</time>
      </trkpt>
      <trkpt lat="46.6403" lon="5.56175">
        <ele>302</ele>
        <time>2021-08-28T12:22:36Z</time>
      </trkpt>
      <trkpt lat="46.64025" lon="5.56197">
        <ele>302.6</ele>
        <time>2021-08-28T12:22:39Z</time>
      </trkpt>
      <trkpt lat="46.6402" lon="5.56218">
        <ele>303</ele>
        <time>2021-08-28T12:22:42Z</time>
      </trkpt>
      <trkpt lat="46.64015" lon="5.56232">
        <ele>303.2</ele>
        <time>2021-08-28T12:22:44Z</time>
      </trkpt>
      <trkpt lat="46.64006" lon="5.56252">
        <ele>304</ele>
        <time>2021-08-28T12:22:47Z</time>
      </trkpt>
      <trkpt lat="46.63992" lon="5.56275">
        <ele>305.2</ele>
        <time>2021-08-28T12:22:51Z</time>
      </trkpt>
      <trkpt lat="46.63984" lon="5.56286">
        <ele>306</ele>
        <time>2021-08-28T12:22:53Z</time>
      </trkpt>
      <trkpt lat="46.63976" lon="5.56297">
        <ele>306.6</ele>
        <time>2021-08-28T12:22:55Z</time>
      </trkpt>
      <trkpt lat="46.63958" lon="5.56316">
        <ele>307.2</ele>
        <time>2021-08-28T12:22:59Z</time>
      </trkpt>
      <trkpt lat="46.63954" lon="5.56318">
        <ele>307.8</ele>
        <time>2021-08-28T12:23:00Z</time>
      </trkpt>
      <trkpt lat="46.63929" lon="5.5633">
        <ele>308.8</ele>
        <time>2021-08-28T12:23:05Z</time>
      </trkpt>
      <trkpt lat="46.63905" lon="5.56338">
        <ele>310</ele>
        <time>2021-08-28T12:23:10Z</time>
      </trkpt>
      <trkpt lat="46.63892" lon="5.56344">
        <ele>310.8</ele>
        <time>2021-08-28T12:23:13Z</time>
      </trkpt>
      <trkpt lat="46.63888" lon="5.56347">
        <ele>311</ele>
        <time>2021-08-28T12:23:14Z</time>
      </trkpt>
      <trkpt lat="46.63869" lon="5.56367">
        <ele>311.8</ele>
        <time>2021-08-28T12:23:19Z</time>
      </trkpt>
      <trkpt lat="46.63859" lon="5.56382">
        <ele>312.2</ele>
        <time>2021-08-28T12:23:22Z</time>
      </trkpt>
      <trkpt lat="46.63843" lon="5.56407">
        <ele>313.4</ele>
        <time>2021-08-28T12:23:27Z</time>
      </trkpt>
      <trkpt lat="46.63832" lon="5.56429">
        <ele>314.4</ele>
        <time>2021-08-28T12:23:31Z</time>
      </trkpt>
      <trkpt lat="46.63823" lon="5.56448">
        <ele>315</ele>
        <time>2021-08-28T12:23:34Z</time>
      </trkpt>
      <trkpt lat="46.63802" lon="5.56497">
        <ele>315</ele>
        <time>2021-08-28T12:23:40Z</time>
      </trkpt>
      <trkpt lat="46.63789" lon="5.56551">
        <ele>314.6</ele>
        <time>2021-08-28T12:23:46Z</time>
      </trkpt>
      <trkpt lat="46.63782" lon="5.56589">
        <ele>315</ele>
        <time>2021-08-28T12:23:51Z</time>
      </trkpt>
      <trkpt lat="46.6378" lon="5.56595">
        <ele>315.4</ele>
        <time>2021-08-28T12:23:52Z</time>
      </trkpt>
      <trkpt lat="46.63778" lon="5.56602">
        <ele>315.8</ele>
        <time>2021-08-28T12:23:53Z</time>
      </trkpt>
      <trkpt lat="46.6377" lon="5.56625">
        <ele>317.6</ele>
        <time>2021-08-28T12:23:57Z</time>
      </trkpt>
      <trkpt lat="46.63766" lon="5.56636">
        <ele>318.4</ele>
        <time>2021-08-28T12:23:59Z</time>
      </trkpt>
      <trkpt lat="46.63763" lon="5.56642">
        <ele>319</ele>
        <time>2021-08-28T12:24:00Z</time>
      </trkpt>
      <trkpt lat="46.6375" lon="5.56666">
        <ele>320</ele>
        <time>2021-08-28T12:24:05Z</time>
      </trkpt>
      <trkpt lat="46.63744" lon="5.56676">
        <ele>320.4</ele>
        <time>2021-08-28T12:24:07Z</time>
      </trkpt>
      <trkpt lat="46.63728" lon="5.56695">
        <ele>321.4</ele>
        <time>2021-08-28T12:24:12Z</time>
      </trkpt>
      <trkpt lat="46.63721" lon="5.56703">
        <ele>322.2</ele>
        <time>2021-08-28T12:24:14Z</time>
      </trkpt>
      <trkpt lat="46.63714" lon="5.56708">
        <ele>322.4</ele>
        <time>2021-08-28T12:24:16Z</time>
      </trkpt>
      <trkpt lat="46.63696" lon="5.56722">
        <ele>323.6</ele>
        <time>2021-08-28T12:24:21Z</time>
      </trkpt>
      <trkpt lat="46.63693" lon="5.56724">
        <ele>323.8</ele>
        <time>2021-08-28T12:24:22Z</time>
      </trkpt>
      <trkpt lat="46.63679" lon="5.56733">
        <ele>324.8</ele>
        <time>2021-08-28T12:24:26Z</time>
      </trkpt>
      <trkpt lat="46.63665" lon="5.56744">
        <ele>325.8</ele>
        <time>2021-08-28T12:24:30Z</time>
      </trkpt>
      <trkpt lat="46.63662" lon="5.56746">
        <ele>326</ele>
        <time>2021-08-28T12:24:31Z</time>
      </trkpt>
      <trkpt lat="46.63644" lon="5.56762">
        <ele>327.2</ele>
        <time>2021-08-28T12:24:36Z</time>
      </trkpt>
      <trkpt lat="46.63641" lon="5.56766">
        <ele>327.4</ele>
        <time>2021-08-28T12:24:37Z</time>
      </trkpt>
      <trkpt lat="46.63631" lon="5.56777">
        <ele>327.8</ele>
        <time>2021-08-28T12:24:40Z</time>
      </trkpt>
      <trkpt lat="46.63626" lon="5.56784">
        <ele>328.2</ele>
        <time>2021-08-28T12:24:42Z</time>
      </trkpt>
      <trkpt lat="46.63616" lon="5.56802">
        <ele>329.4</ele>
        <time>2021-08-28T12:24:46Z</time>
      </trkpt>
      <trkpt lat="46.63614" lon="5.56807">
        <ele>329.6</ele>
        <time>2021-08-28T12:24:47Z</time>
      </trkpt>
      <trkpt lat="46.63607" lon="5.56821">
        <ele>330.4</ele>
        <time>2021-08-28T12:24:50Z</time>
      </trkpt>
      <trkpt lat="46.63601" lon="5.56835">
        <ele>331.4</ele>
        <time>2021-08-28T12:24:53Z</time>
      </trkpt>
      <trkpt lat="46.63593" lon="5.56859">
        <ele>332.8</ele>
        <time>2021-08-28T12:24:58Z</time>
      </trkpt>
      <trkpt lat="46.63582" lon="5.56896">
        <ele>334</ele>
        <time>2021-08-28T12:25:05Z</time>
      </trkpt>
      <trkpt lat="46.63579" lon="5.56906">
        <ele>334.6</ele>
        <time>2021-08-28T12:25:07Z</time>
      </trkpt>
      <trkpt lat="46.63574" lon="5.5692">
        <ele>335.4</ele>
        <time>2021-08-28T12:25:10Z</time>
      </trkpt>
      <trkpt lat="46.63566" lon="5.5694">
        <ele>336.4</ele>
        <time>2021-08-28T12:25:14Z</time>
      </trkpt>
      <trkpt lat="46.63559" lon="5.56953">
        <ele>337.4</ele>
        <time>2021-08-28T12:25:17Z</time>
      </trkpt>
      <trkpt lat="46.63557" lon="5.56958">
        <ele>337.4</ele>
        <time>2021-08-28T12:25:18Z</time>
      </trkpt>
      <trkpt lat="46.63544" lon="5.56979">
        <ele>338.6</ele>
        <time>2021-08-28T12:25:22Z</time>
      </trkpt>
      <trkpt lat="46.63534" lon="5.56996">
        <ele>339.8</ele>
        <time>2021-08-28T12:25:26Z</time>
      </trkpt>
      <trkpt lat="46.63531" lon="5.57">
        <ele>340.2</ele>
        <time>2021-08-28T12:25:27Z</time>
      </trkpt>
      <trkpt lat="46.63519" lon="5.57014">
        <ele>341</ele>
        <time>2021-08-28T12:25:31Z</time>
      </trkpt>
      <trkpt lat="46.63503" lon="5.57032">
        <ele>342</ele>
        <time>2021-08-28T12:25:36Z</time>
      </trkpt>
      <trkpt lat="46.63492" lon="5.57041">
        <ele>342.8</ele>
        <time>2021-08-28T12:25:39Z</time>
      </trkpt>
      <trkpt lat="46.63484" lon="5.57047">
        <ele>343</ele>
        <time>2021-08-28T12:25:42Z</time>
      </trkpt>
      <trkpt lat="46.63472" lon="5.57057">
        <ele>343.2</ele>
        <time>2021-08-28T12:25:44Z</time>
      </trkpt>
      <trkpt lat="46.6346" lon="5.57068">
        <ele>343.2</ele>
        <time>2021-08-28T12:25:48Z</time>
      </trkpt>
      <trkpt lat="46.63426" lon="5.57094">
        <ele>343.2</ele>
        <time>2021-08-28T12:25:54Z</time>
      </trkpt>
      <trkpt lat="46.63383" lon="5.5713">
        <ele>343.6</ele>
        <time>2021-08-28T12:26:02Z</time>
      </trkpt>
      <trkpt lat="46.63347" lon="5.57162">
        <ele>344</ele>
        <time>2021-08-28T12:26:09Z</time>
      </trkpt>
      <trkpt lat="46.63323" lon="5.57183">
        <ele>344.4</ele>
        <time>2021-08-28T12:26:15Z</time>
      </trkpt>
      <trkpt lat="46.63313" lon="5.57191">
        <ele>344.8</ele>
        <time>2021-08-28T12:26:16Z</time>
      </trkpt>
      <trkpt lat="46.63297" lon="5.57203">
        <ele>345.4</ele>
        <time>2021-08-28T12:26:20Z</time>
      </trkpt>
      <trkpt lat="46.63265" lon="5.57225">
        <ele>345.6</ele>
        <time>2021-08-28T12:26:25Z</time>
      </trkpt>
      <trkpt lat="46.63222" lon="5.57259">
        <ele>344.8</ele>
        <time>2021-08-28T12:26:33Z</time>
      </trkpt>
      <trkpt lat="46.63217" lon="5.57265">
        <ele>344.8</ele>
        <time>2021-08-28T12:26:34Z</time>
      </trkpt>
      <trkpt lat="46.63175" lon="5.57314">
        <ele>345.2</ele>
        <time>2021-08-28T12:26:42Z</time>
      </trkpt>
      <trkpt lat="46.63131" lon="5.5735">
        <ele>344.8</ele>
        <time>2021-08-28T12:26:49Z</time>
      </trkpt>
      <trkpt lat="46.63117" lon="5.57356">
        <ele>344.4</ele>
        <time>2021-08-28T12:26:51Z</time>
      </trkpt>
      <trkpt lat="46.6311" lon="5.57358">
        <ele>344.2</ele>
        <time>2021-08-28T12:26:52Z</time>
      </trkpt>
      <trkpt lat="46.63103" lon="5.57359">
        <ele>344</ele>
        <time>2021-08-28T12:26:54Z</time>
      </trkpt>
      <trkpt lat="46.63048" lon="5.57362">
        <ele>344.6</ele>
        <time>2021-08-28T12:27:02Z</time>
      </trkpt>
      <trkpt lat="46.63036" lon="5.57364">
        <ele>344.6</ele>
        <time>2021-08-28T12:27:03Z</time>
      </trkpt>
      <trkpt lat="46.63025" lon="5.57368">
        <ele>345.4</ele>
        <time>2021-08-28T12:27:05Z</time>
      </trkpt>
      <trkpt lat="46.63021" lon="5.5737">
        <ele>345.6</ele>
        <time>2021-08-28T12:27:06Z</time>
      </trkpt>
      <trkpt lat="46.63021" lon="5.5737">
        <ele>345.8</ele>
        <time>2021-08-28T12:27:07Z</time>
      </trkpt>
      <trkpt lat="46.62998" lon="5.5738">
        <ele>346.6</ele>
        <time>2021-08-28T12:27:11Z</time>
      </trkpt>
      <trkpt lat="46.62952" lon="5.57399">
        <ele>347.6</ele>
        <time>2021-08-28T12:27:18Z</time>
      </trkpt>
      <trkpt lat="46.62947" lon="5.57402">
        <ele>348.2</ele>
        <time>2021-08-28T12:27:19Z</time>
      </trkpt>
      <trkpt lat="46.62932" lon="5.57413">
        <ele>349</ele>
        <time>2021-08-28T12:27:22Z</time>
      </trkpt>
      <trkpt lat="46.62914" lon="5.57428">
        <ele>349.8</ele>
        <time>2021-08-28T12:27:26Z</time>
      </trkpt>
      <trkpt lat="46.62909" lon="5.57432">
        <ele>350</ele>
        <time>2021-08-28T12:27:27Z</time>
      </trkpt>
      <trkpt lat="46.62899" lon="5.57441">
        <ele>350.2</ele>
        <time>2021-08-28T12:27:29Z</time>
      </trkpt>
      <trkpt lat="46.62875" lon="5.57462">
        <ele>351</ele>
        <time>2021-08-28T12:27:35Z</time>
      </trkpt>
      <trkpt lat="46.62862" lon="5.57474">
        <ele>351.2</ele>
        <time>2021-08-28T12:27:37Z</time>
      </trkpt>
      <trkpt lat="46.62853" lon="5.57482">
        <ele>352.2</ele>
        <time>2021-08-28T12:27:40Z</time>
      </trkpt>
      <trkpt lat="46.62838" lon="5.57492">
        <ele>352.8</ele>
        <time>2021-08-28T12:27:42Z</time>
      </trkpt>
      <trkpt lat="46.6283" lon="5.57501">
        <ele>353.2</ele>
        <time>2021-08-28T12:27:44Z</time>
      </trkpt>
      <trkpt lat="46.62827" lon="5.57506">
        <ele>353.6</ele>
        <time>2021-08-28T12:27:45Z</time>
      </trkpt>
      <trkpt lat="46.62824" lon="5.57513">
        <ele>353.6</ele>
        <time>2021-08-28T12:27:46Z</time>
      </trkpt>
      <trkpt lat="46.6282" lon="5.57527">
        <ele>354.4</ele>
        <time>2021-08-28T12:27:48Z</time>
      </trkpt>
      <trkpt lat="46.6282" lon="5.57535">
        <ele>354.4</ele>
        <time>2021-08-28T12:27:49Z</time>
      </trkpt>
      <trkpt lat="46.6282" lon="5.5754">
        <ele>354.6</ele>
        <time>2021-08-28T12:27:50Z</time>
      </trkpt>
      <trkpt lat="46.62819" lon="5.57565">
        <ele>355</ele>
        <time>2021-08-28T12:27:53Z</time>
      </trkpt>
      <trkpt lat="46.62817" lon="5.5757">
        <ele>355.4</ele>
        <time>2021-08-28T12:27:55Z</time>
      </trkpt>
      <trkpt lat="46.62813" lon="5.57584">
        <ele>355.6</ele>
        <time>2021-08-28T12:27:56Z</time>
      </trkpt>
      <trkpt lat="46.62809" lon="5.57591">
        <ele>355.8</ele>
        <time>2021-08-28T12:27:57Z</time>
      </trkpt>
      <trkpt lat="46.62805" lon="5.57596">
        <ele>356</ele>
        <time>2021-08-28T12:27:58Z</time>
      </trkpt>
      <trkpt lat="46.62793" lon="5.57613">
        <ele>356.8</ele>
        <time>2021-08-28T12:28:01Z</time>
      </trkpt>
      <trkpt lat="46.6279" lon="5.5762">
        <ele>357</ele>
        <time>2021-08-28T12:28:02Z</time>
      </trkpt>
      <trkpt lat="46.62786" lon="5.57626">
        <ele>357</ele>
        <time>2021-08-28T12:28:04Z</time>
      </trkpt>
      <trkpt lat="46.62771" lon="5.57654">
        <ele>357.2</ele>
        <time>2021-08-28T12:28:07Z</time>
      </trkpt>
      <trkpt lat="46.62763" lon="5.57663">
        <ele>357</ele>
        <time>2021-08-28T12:28:09Z</time>
      </trkpt>
      <trkpt lat="46.62758" lon="5.57668">
        <ele>357</ele>
        <time>2021-08-28T12:28:10Z</time>
      </trkpt>
      <trkpt lat="46.62739" lon="5.5768">
        <ele>357</ele>
        <time>2021-08-28T12:28:14Z</time>
      </trkpt>
      <trkpt lat="46.62734" lon="5.57682">
        <ele>357</ele>
        <time>2021-08-28T12:28:15Z</time>
      </trkpt>
      <trkpt lat="46.62715" lon="5.57686">
        <ele>358</ele>
        <time>2021-08-28T12:28:19Z</time>
      </trkpt>
      <trkpt lat="46.62712" lon="5.57686">
        <ele>358.4</ele>
        <time>2021-08-28T12:28:20Z</time>
      </trkpt>
      <trkpt lat="46.627" lon="5.57684">
        <ele>359.2</ele>
        <time>2021-08-28T12:28:23Z</time>
      </trkpt>
      <trkpt lat="46.62687" lon="5.57679">
        <ele>360.2</ele>
        <time>2021-08-28T12:28:26Z</time>
      </trkpt>
      <trkpt lat="46.62679" lon="5.57675">
        <ele>360.8</ele>
        <time>2021-08-28T12:28:28Z</time>
      </trkpt>
      <trkpt lat="46.62671" lon="5.57674">
        <ele>361.2</ele>
        <time>2021-08-28T12:28:30Z</time>
      </trkpt>
      <trkpt lat="46.62671" lon="5.57674">
        <ele>361.4</ele>
        <time>2021-08-28T12:28:31Z</time>
      </trkpt>
      <trkpt lat="46.62647" lon="5.57683">
        <ele>362.4</ele>
        <time>2021-08-28T12:28:35Z</time>
      </trkpt>
      <trkpt lat="46.62632" lon="5.57689">
        <ele>363.2</ele>
        <time>2021-08-28T12:28:38Z</time>
      </trkpt>
      <trkpt lat="46.62617" lon="5.57694">
        <ele>363.4</ele>
        <time>2021-08-28T12:28:41Z</time>
      </trkpt>
      <trkpt lat="46.62593" lon="5.57707">
        <ele>363.4</ele>
        <time>2021-08-28T12:28:46Z</time>
      </trkpt>
      <trkpt lat="46.62578" lon="5.57717">
        <ele>363.6</ele>
        <time>2021-08-28T12:28:49Z</time>
      </trkpt>
      <trkpt lat="46.62558" lon="5.57727">
        <ele>364</ele>
        <time>2021-08-28T12:28:53Z</time>
      </trkpt>
      <trkpt lat="46.62535" lon="5.57736">
        <ele>364.4</ele>
        <time>2021-08-28T12:28:58Z</time>
      </trkpt>
      <trkpt lat="46.62524" lon="5.57737">
        <ele>364.6</ele>
        <time>2021-08-28T12:29:00Z</time>
      </trkpt>
      <trkpt lat="46.62498" lon="5.57739">
        <ele>365.4</ele>
        <time>2021-08-28T12:29:06Z</time>
      </trkpt>
      <trkpt lat="46.62494" lon="5.57739">
        <ele>365.8</ele>
        <time>2021-08-28T12:29:07Z</time>
      </trkpt>
      <trkpt lat="46.62478" lon="5.57739">
        <ele>366.6</ele>
        <time>2021-08-28T12:29:11Z</time>
      </trkpt>
      <trkpt lat="46.62468" lon="5.57738">
        <ele>367.4</ele>
        <time>2021-08-28T12:29:14Z</time>
      </trkpt>
      <trkpt lat="46.62461" lon="5.57737">
        <ele>367.8</ele>
        <time>2021-08-28T12:29:16Z</time>
      </trkpt>
      <trkpt lat="46.62447" lon="5.57734">
        <ele>369</ele>
        <time>2021-08-28T12:29:20Z</time>
      </trkpt>
      <trkpt lat="46.62444" lon="5.57734">
        <ele>369.4</ele>
        <time>2021-08-28T12:29:22Z</time>
      </trkpt>
      <trkpt lat="46.62426" lon="5.57731">
        <ele>370.2</ele>
        <time>2021-08-28T12:29:26Z</time>
      </trkpt>
      <trkpt lat="46.62412" lon="5.57724">
        <ele>370.8</ele>
        <time>2021-08-28T12:29:30Z</time>
      </trkpt>
      <trkpt lat="46.6241" lon="5.5772">
        <ele>371</ele>
        <time>2021-08-28T12:29:31Z</time>
      </trkpt>
      <trkpt lat="46.6241" lon="5.5772">
        <ele>371.2</ele>
        <time>2021-08-28T12:29:32Z</time>
      </trkpt>
      <trkpt lat="46.62409" lon="5.57711">
        <ele>371.2</ele>
        <time>2021-08-28T12:29:33Z</time>
      </trkpt>
      <trkpt lat="46.62411" lon="5.57707">
        <ele>371.4</ele>
        <time>2021-08-28T12:29:34Z</time>
      </trkpt>
      <trkpt lat="46.62413" lon="5.57705">
        <ele>371.6</ele>
        <time>2021-08-28T12:29:35Z</time>
      </trkpt>
      <trkpt lat="46.62421" lon="5.57703">
        <ele>372.4</ele>
        <time>2021-08-28T12:29:37Z</time>
      </trkpt>
      <trkpt lat="46.62437" lon="5.57705">
        <ele>373.8</ele>
        <time>2021-08-28T12:29:41Z</time>
      </trkpt>
      <trkpt lat="46.62445" lon="5.57705">
        <ele>374.2</ele>
        <time>2021-08-28T12:29:43Z</time>
      </trkpt>
      <trkpt lat="46.62456" lon="5.57702">
        <ele>374.8</ele>
        <time>2021-08-28T12:29:46Z</time>
      </trkpt>
      <trkpt lat="46.62471" lon="5.57693">
        <ele>375.4</ele>
        <time>2021-08-28T12:29:50Z</time>
      </trkpt>
      <trkpt lat="46.62481" lon="5.57686">
        <ele>375.8</ele>
        <time>2021-08-28T12:29:53Z</time>
      </trkpt>
      <trkpt lat="46.625" lon="5.5767">
        <ele>376.8</ele>
        <time>2021-08-28T12:29:59Z</time>
      </trkpt>
      <trkpt lat="46.62515" lon="5.57654">
        <ele>378</ele>
        <time>2021-08-28T12:30:04Z</time>
      </trkpt>
      <trkpt lat="46.62526" lon="5.5764">
        <ele>378.8</ele>
        <time>2021-08-28T12:30:08Z</time>
      </trkpt>
      <trkpt lat="46.62529" lon="5.57637">
        <ele>379.2</ele>
        <time>2021-08-28T12:30:09Z</time>
      </trkpt>
      <trkpt lat="46.6255" lon="5.57611">
        <ele>380.4</ele>
        <time>2021-08-28T12:30:16Z</time>
      </trkpt>
      <trkpt lat="46.62553" lon="5.57607">
        <ele>380.6</ele>
        <time>2021-08-28T12:30:17Z</time>
      </trkpt>
      <trkpt lat="46.62562" lon="5.57595">
        <ele>381.4</ele>
        <time>2021-08-28T12:30:21Z</time>
      </trkpt>
      <trkpt lat="46.62582" lon="5.57575">
        <ele>382</ele>
        <time>2021-08-28T12:30:26Z</time>
      </trkpt>
      <trkpt lat="46.62589" lon="5.57568">
        <ele>382.6</ele>
        <time>2021-08-28T12:30:28Z</time>
      </trkpt>
      <trkpt lat="46.62608" lon="5.57548">
        <ele>383.6</ele>
        <time>2021-08-28T12:30:34Z</time>
      </trkpt>
      <trkpt lat="46.6261" lon="5.57544">
        <ele>383.8</ele>
        <time>2021-08-28T12:30:35Z</time>
      </trkpt>
      <trkpt lat="46.62612" lon="5.57538">
        <ele>384</ele>
        <time>2021-08-28T12:30:36Z</time>
      </trkpt>
      <trkpt lat="46.62611" lon="5.57529">
        <ele>384.4</ele>
        <time>2021-08-28T12:30:38Z</time>
      </trkpt>
      <trkpt lat="46.6261" lon="5.57525">
        <ele>384.8</ele>
        <time>2021-08-28T12:30:39Z</time>
      </trkpt>
      <trkpt lat="46.62603" lon="5.5752">
        <ele>385.2</ele>
        <time>2021-08-28T12:30:41Z</time>
      </trkpt>
      <trkpt lat="46.62592" lon="5.57523">
        <ele>386</ele>
        <time>2021-08-28T12:30:44Z</time>
      </trkpt>
      <trkpt lat="46.62589" lon="5.57525">
        <ele>386.4</ele>
        <time>2021-08-28T12:30:45Z</time>
      </trkpt>
      <trkpt lat="46.62578" lon="5.57533">
        <ele>387.2</ele>
        <time>2021-08-28T12:30:48Z</time>
      </trkpt>
      <trkpt lat="46.62559" lon="5.57547">
        <ele>388.2</ele>
        <time>2021-08-28T12:30:53Z</time>
      </trkpt>
      <trkpt lat="46.62556" lon="5.57549">
        <ele>388.4</ele>
        <time>2021-08-28T12:30:54Z</time>
      </trkpt>
      <trkpt lat="46.62552" lon="5.57552">
        <ele>389</ele>
        <time>2021-08-28T12:30:55Z</time>
      </trkpt>
      <trkpt lat="46.62548" lon="5.57554">
        <ele>389.4</ele>
        <time>2021-08-28T12:30:56Z</time>
      </trkpt>
      <trkpt lat="46.6253" lon="5.57565">
        <ele>389.8</ele>
        <time>2021-08-28T12:31:01Z</time>
      </trkpt>
      <trkpt lat="46.62506" lon="5.57572">
        <ele>390.6</ele>
        <time>2021-08-28T12:31:07Z</time>
      </trkpt>
      <trkpt lat="46.62494" lon="5.57577">
        <ele>392</ele>
        <time>2021-08-28T12:31:10Z</time>
      </trkpt>
      <trkpt lat="46.62482" lon="5.57581">
        <ele>392.6</ele>
        <time>2021-08-28T12:31:13Z</time>
      </trkpt>
      <trkpt lat="46.62459" lon="5.5759">
        <ele>393</ele>
        <time>2021-08-28T12:31:19Z</time>
      </trkpt>
      <trkpt lat="46.62452" lon="5.57594">
        <ele>393.4</ele>
        <time>2021-08-28T12:31:21Z</time>
      </trkpt>
      <trkpt lat="46.62446" lon="5.57597">
        <ele>394.4</ele>
        <time>2021-08-28T12:31:23Z</time>
      </trkpt>
      <trkpt lat="46.62439" lon="5.57601">
        <ele>395</ele>
        <time>2021-08-28T12:31:25Z</time>
      </trkpt>
      <trkpt lat="46.62429" lon="5.57606">
        <ele>395.6</ele>
        <time>2021-08-28T12:31:28Z</time>
      </trkpt>
      <trkpt lat="46.62423" lon="5.57609">
        <ele>395.8</ele>
        <time>2021-08-28T12:31:30Z</time>
      </trkpt>
      <trkpt lat="46.62413" lon="5.57614">
        <ele>396.8</ele>
        <time>2021-08-28T12:31:33Z</time>
      </trkpt>
      <trkpt lat="46.62393" lon="5.5762">
        <ele>397.8</ele>
        <time>2021-08-28T12:31:39Z</time>
      </trkpt>
      <trkpt lat="46.62382" lon="5.57618">
        <ele>398.8</ele>
        <time>2021-08-28T12:31:42Z</time>
      </trkpt>
      <trkpt lat="46.62368" lon="5.57612">
        <ele>399.4</ele>
        <time>2021-08-28T12:31:46Z</time>
      </trkpt>
      <trkpt lat="46.62345" lon="5.57598">
        <ele>400.2</ele>
        <time>2021-08-28T12:31:53Z</time>
      </trkpt>
      <trkpt lat="46.62345" lon="5.57598">
        <ele>400.4</ele>
        <time>2021-08-28T12:31:54Z</time>
      </trkpt>
      <trkpt lat="46.6232" lon="5.57595">
        <ele>401.2</ele>
        <time>2021-08-28T12:32:00Z</time>
      </trkpt>
      <trkpt lat="46.62303" lon="5.57598">
        <ele>402.2</ele>
        <time>2021-08-28T12:32:05Z</time>
      </trkpt>
      <trkpt lat="46.62293" lon="5.57601">
        <ele>402.8</ele>
        <time>2021-08-28T12:32:08Z</time>
      </trkpt>
      <trkpt lat="46.62293" lon="5.57601">
        <ele>403.2</ele>
        <time>2021-08-28T12:32:09Z</time>
      </trkpt>
      <trkpt lat="46.62274" lon="5.57615">
        <ele>404.2</ele>
        <time>2021-08-28T12:32:14Z</time>
      </trkpt>
      <trkpt lat="46.62263" lon="5.57637">
        <ele>405.4</ele>
        <time>2021-08-28T12:32:19Z</time>
      </trkpt>
      <trkpt lat="46.62259" lon="5.57647">
        <ele>406</ele>
        <time>2021-08-28T12:32:21Z</time>
      </trkpt>
      <trkpt lat="46.62255" lon="5.5766">
        <ele>406.4</ele>
        <time>2021-08-28T12:32:24Z</time>
      </trkpt>
      <trkpt lat="46.62252" lon="5.57679">
        <ele>406.8</ele>
        <time>2021-08-28T12:32:28Z</time>
      </trkpt>
      <trkpt lat="46.62251" lon="5.57689">
        <ele>407.4</ele>
        <time>2021-08-28T12:32:30Z</time>
      </trkpt>
      <trkpt lat="46.62253" lon="5.57709">
        <ele>408.2</ele>
        <time>2021-08-28T12:32:34Z</time>
      </trkpt>
      <trkpt lat="46.62255" lon="5.57719">
        <ele>408.6</ele>
        <time>2021-08-28T12:32:36Z</time>
      </trkpt>
      <trkpt lat="46.62262" lon="5.57742">
        <ele>409.4</ele>
        <time>2021-08-28T12:32:41Z</time>
      </trkpt>
      <trkpt lat="46.62263" lon="5.57746">
        <ele>409.6</ele>
        <time>2021-08-28T12:32:42Z</time>
      </trkpt>
      <trkpt lat="46.62271" lon="5.57762">
        <ele>410.6</ele>
        <time>2021-08-28T12:32:46Z</time>
      </trkpt>
      <trkpt lat="46.62275" lon="5.57771">
        <ele>410.8</ele>
        <time>2021-08-28T12:32:48Z</time>
      </trkpt>
      <trkpt lat="46.62282" lon="5.57789">
        <ele>411.6</ele>
        <time>2021-08-28T12:32:52Z</time>
      </trkpt>
      <trkpt lat="46.62282" lon="5.57793">
        <ele>411.8</ele>
        <time>2021-08-28T12:32:53Z</time>
      </trkpt>
      <trkpt lat="46.62278" lon="5.57811">
        <ele>412.8</ele>
        <time>2021-08-28T12:32:57Z</time>
      </trkpt>
      <trkpt lat="46.62266" lon="5.57823">
        <ele>414.2</ele>
        <time>2021-08-28T12:33:01Z</time>
      </trkpt>
      <trkpt lat="46.62263" lon="5.57826">
        <ele>414.4</ele>
        <time>2021-08-28T12:33:02Z</time>
      </trkpt>
      <trkpt lat="46.62254" lon="5.57832">
        <ele>416</ele>
        <time>2021-08-28T12:33:05Z</time>
      </trkpt>
      <trkpt lat="46.62241" lon="5.57841">
        <ele>417</ele>
        <time>2021-08-28T12:33:09Z</time>
      </trkpt>
      <trkpt lat="46.62238" lon="5.57843">
        <ele>417.4</ele>
        <time>2021-08-28T12:33:10Z</time>
      </trkpt>
      <trkpt lat="46.62225" lon="5.57857">
        <ele>418.8</ele>
        <time>2021-08-28T12:33:15Z</time>
      </trkpt>
      <trkpt lat="46.62211" lon="5.57874">
        <ele>420</ele>
        <time>2021-08-28T12:33:21Z</time>
      </trkpt>
      <trkpt lat="46.62209" lon="5.57877">
        <ele>420.2</ele>
        <time>2021-08-28T12:33:22Z</time>
      </trkpt>
      <trkpt lat="46.62204" lon="5.57882">
        <ele>420.6</ele>
        <time>2021-08-28T12:33:24Z</time>
      </trkpt>
      <trkpt lat="46.622" lon="5.57889">
        <ele>421</ele>
        <time>2021-08-28T12:33:26Z</time>
      </trkpt>
      <trkpt lat="46.62186" lon="5.57914">
        <ele>422</ele>
        <time>2021-08-28T12:33:32Z</time>
      </trkpt>
      <trkpt lat="46.62182" lon="5.57921">
        <ele>422.2</ele>
        <time>2021-08-28T12:33:34Z</time>
      </trkpt>
      <trkpt lat="46.62177" lon="5.57927">
        <ele>423</ele>
        <time>2021-08-28T12:33:36Z</time>
      </trkpt>
      <trkpt lat="46.62174" lon="5.5793">
        <ele>423.2</ele>
        <time>2021-08-28T12:33:37Z</time>
      </trkpt>
      <trkpt lat="46.62163" lon="5.57941">
        <ele>424.2</ele>
        <time>2021-08-28T12:33:41Z</time>
      </trkpt>
      <trkpt lat="46.62157" lon="5.57947">
        <ele>424.8</ele>
        <time>2021-08-28T12:33:43Z</time>
      </trkpt>
      <trkpt lat="46.62145" lon="5.57957">
        <ele>425.4</ele>
        <time>2021-08-28T12:33:47Z</time>
      </trkpt>
      <trkpt lat="46.62133" lon="5.57968">
        <ele>426.6</ele>
        <time>2021-08-28T12:33:51Z</time>
      </trkpt>
      <trkpt lat="46.6213" lon="5.5797">
        <ele>426.8</ele>
        <time>2021-08-28T12:33:52Z</time>
      </trkpt>
      <trkpt lat="46.6212" lon="5.57978">
        <ele>427.4</ele>
        <time>2021-08-28T12:33:55Z</time>
      </trkpt>
      <trkpt lat="46.62111" lon="5.57985">
        <ele>428.4</ele>
        <time>2021-08-28T12:33:58Z</time>
      </trkpt>
      <trkpt lat="46.62096" lon="5.57997">
        <ele>429.4</ele>
        <time>2021-08-28T12:34:03Z</time>
      </trkpt>
      <trkpt lat="46.62087" lon="5.58004">
        <ele>429.6</ele>
        <time>2021-08-28T12:34:06Z</time>
      </trkpt>
      <trkpt lat="46.6207" lon="5.58016">
        <ele>430.6</ele>
        <time>2021-08-28T12:34:11Z</time>
      </trkpt>
      <trkpt lat="46.62066" lon="5.58019">
        <ele>430.8</ele>
        <time>2021-08-28T12:34:12Z</time>
      </trkpt>
      <trkpt lat="46.62053" lon="5.5802">
        <ele>431.6</ele>
        <time>2021-08-28T12:34:16Z</time>
      </trkpt>
      <trkpt lat="46.6205" lon="5.58017">
        <ele>431.8</ele>
        <time>2021-08-28T12:34:17Z</time>
      </trkpt>
      <trkpt lat="46.62047" lon="5.58003">
        <ele>432.4</ele>
        <time>2021-08-28T12:34:20Z</time>
      </trkpt>
      <trkpt lat="46.62048" lon="5.57999">
        <ele>432.6</ele>
        <time>2021-08-28T12:34:21Z</time>
      </trkpt>
      <trkpt lat="46.62049" lon="5.57996">
        <ele>433.2</ele>
        <time>2021-08-28T12:34:22Z</time>
      </trkpt>
      <trkpt lat="46.62052" lon="5.57993">
        <ele>433.4</ele>
        <time>2021-08-28T12:34:23Z</time>
      </trkpt>
      <trkpt lat="46.62063" lon="5.57984">
        <ele>434.4</ele>
        <time>2021-08-28T12:34:26Z</time>
      </trkpt>
      <trkpt lat="46.62069" lon="5.57979">
        <ele>434.8</ele>
        <time>2021-08-28T12:34:28Z</time>
      </trkpt>
      <trkpt lat="46.62081" lon="5.57969">
        <ele>435.4</ele>
        <time>2021-08-28T12:34:31Z</time>
      </trkpt>
      <trkpt lat="46.62102" lon="5.57951">
        <ele>435.8</ele>
        <time>2021-08-28T12:34:36Z</time>
      </trkpt>
      <trkpt lat="46.6213" lon="5.57931">
        <ele>436.6</ele>
        <time>2021-08-28T12:34:43Z</time>
      </trkpt>
      <trkpt lat="46.62153" lon="5.57913">
        <ele>437.6</ele>
        <time>2021-08-28T12:34:49Z</time>
      </trkpt>
      <trkpt lat="46.62158" lon="5.57897">
        <ele>438.6</ele>
        <time>2021-08-28T12:34:52Z</time>
      </trkpt>
      <trkpt lat="46.62157" lon="5.57892">
        <ele>439</ele>
        <time>2021-08-28T12:34:53Z</time>
      </trkpt>
      <trkpt lat="46.62152" lon="5.57887">
        <ele>439.6</ele>
        <time>2021-08-28T12:34:55Z</time>
      </trkpt>
      <trkpt lat="46.62149" lon="5.57886">
        <ele>439.8</ele>
        <time>2021-08-28T12:34:56Z</time>
      </trkpt>
      <trkpt lat="46.62133" lon="5.57889">
        <ele>441</ele>
        <time>2021-08-28T12:35:01Z</time>
      </trkpt>
      <trkpt lat="46.62115" lon="5.57897">
        <ele>442.2</ele>
        <time>2021-08-28T12:35:06Z</time>
      </trkpt>
      <trkpt lat="46.62111" lon="5.57898">
        <ele>442.2</ele>
        <time>2021-08-28T12:35:07Z</time>
      </trkpt>
      <trkpt lat="46.62103" lon="5.57901">
        <ele>443</ele>
        <time>2021-08-28T12:35:09Z</time>
      </trkpt>
      <trkpt lat="46.62099" lon="5.57903">
        <ele>443.2</ele>
        <time>2021-08-28T12:35:10Z</time>
      </trkpt>
      <trkpt lat="46.62085" lon="5.57908">
        <ele>443.4</ele>
        <time>2021-08-28T12:35:13Z</time>
      </trkpt>
      <trkpt lat="46.62068" lon="5.57914">
        <ele>444.4</ele>
        <time>2021-08-28T12:35:17Z</time>
      </trkpt>
      <trkpt lat="46.6206" lon="5.57917">
        <ele>444.8</ele>
        <time>2021-08-28T12:35:19Z</time>
      </trkpt>
      <trkpt lat="46.62042" lon="5.57925">
        <ele>445.6</ele>
        <time>2021-08-28T12:35:23Z</time>
      </trkpt>
      <trkpt lat="46.62038" lon="5.57926">
        <ele>445.8</ele>
        <time>2021-08-28T12:35:24Z</time>
      </trkpt>
      <trkpt lat="46.6203" lon="5.5793">
        <ele>446.6</ele>
        <time>2021-08-28T12:35:27Z</time>
      </trkpt>
      <trkpt lat="46.62014" lon="5.57938">
        <ele>447.6</ele>
        <time>2021-08-28T12:35:31Z</time>
      </trkpt>
      <trkpt lat="46.62011" lon="5.5794">
        <ele>447.8</ele>
        <time>2021-08-28T12:35:32Z</time>
      </trkpt>
      <trkpt lat="46.62002" lon="5.57947">
        <ele>448.8</ele>
        <time>2021-08-28T12:35:35Z</time>
      </trkpt>
      <trkpt lat="46.61989" lon="5.57958">
        <ele>449.8</ele>
        <time>2021-08-28T12:35:39Z</time>
      </trkpt>
      <trkpt lat="46.61986" lon="5.57961">
        <ele>450</ele>
        <time>2021-08-28T12:35:40Z</time>
      </trkpt>
      <trkpt lat="46.61964" lon="5.5798">
        <ele>451.2</ele>
        <time>2021-08-28T12:35:47Z</time>
      </trkpt>
      <trkpt lat="46.61959" lon="5.57984">
        <ele>451.6</ele>
        <time>2021-08-28T12:35:49Z</time>
      </trkpt>
      <trkpt lat="46.6195" lon="5.57993">
        <ele>452.2</ele>
        <time>2021-08-28T12:35:52Z</time>
      </trkpt>
      <trkpt lat="46.61939" lon="5.58001">
        <ele>452.8</ele>
        <time>2021-08-28T12:35:56Z</time>
      </trkpt>
      <trkpt lat="46.61936" lon="5.58004">
        <ele>453.2</ele>
        <time>2021-08-28T12:35:57Z</time>
      </trkpt>
      <trkpt lat="46.61915" lon="5.58022">
        <ele>454.4</ele>
        <time>2021-08-28T12:36:04Z</time>
      </trkpt>
      <trkpt lat="46.61912" lon="5.58025">
        <ele>454.6</ele>
        <time>2021-08-28T12:36:05Z</time>
      </trkpt>
      <trkpt lat="46.61905" lon="5.58036">
        <ele>455.8</ele>
        <time>2021-08-28T12:36:08Z</time>
      </trkpt>
      <trkpt lat="46.61902" lon="5.58046">
        <ele>456.6</ele>
        <time>2021-08-28T12:36:10Z</time>
      </trkpt>
      <trkpt lat="46.61902" lon="5.58046">
        <ele>457</ele>
        <time>2021-08-28T12:36:11Z</time>
      </trkpt>
      <trkpt lat="46.61902" lon="5.58055">
        <ele>457</ele>
        <time>2021-08-28T12:36:12Z</time>
      </trkpt>
      <trkpt lat="46.61904" lon="5.58065">
        <ele>457.2</ele>
        <time>2021-08-28T12:36:14Z</time>
      </trkpt>
      <trkpt lat="46.61913" lon="5.58083">
        <ele>458</ele>
        <time>2021-08-28T12:36:18Z</time>
      </trkpt>
      <trkpt lat="46.61917" lon="5.5809">
        <ele>458.2</ele>
        <time>2021-08-28T12:36:20Z</time>
      </trkpt>
      <trkpt lat="46.61928" lon="5.58106">
        <ele>459.2</ele>
        <time>2021-08-28T12:36:24Z</time>
      </trkpt>
      <trkpt lat="46.61941" lon="5.58127">
        <ele>459.6</ele>
        <time>2021-08-28T12:36:29Z</time>
      </trkpt>
      <trkpt lat="46.6195" lon="5.58141">
        <ele>460.2</ele>
        <time>2021-08-28T12:36:33Z</time>
      </trkpt>
      <trkpt lat="46.61962" lon="5.58157">
        <ele>461.4</ele>
        <time>2021-08-28T12:36:38Z</time>
      </trkpt>
      <trkpt lat="46.61975" lon="5.58166">
        <ele>462.4</ele>
        <time>2021-08-28T12:36:42Z</time>
      </trkpt>
      <trkpt lat="46.61982" lon="5.58168">
        <ele>463</ele>
        <time>2021-08-28T12:36:44Z</time>
      </trkpt>
      <trkpt lat="46.61989" lon="5.5817">
        <ele>463.6</ele>
        <time>2021-08-28T12:36:46Z</time>
      </trkpt>
      <trkpt lat="46.61999" lon="5.58173">
        <ele>464.8</ele>
        <time>2021-08-28T12:36:49Z</time>
      </trkpt>
      <trkpt lat="46.62009" lon="5.58174">
        <ele>465.4</ele>
        <time>2021-08-28T12:36:52Z</time>
      </trkpt>
      <trkpt lat="46.62016" lon="5.58176">
        <ele>465.8</ele>
        <time>2021-08-28T12:36:54Z</time>
      </trkpt>
      <trkpt lat="46.62033" lon="5.58183">
        <ele>466.6</ele>
        <time>2021-08-28T12:36:59Z</time>
      </trkpt>
      <trkpt lat="46.62036" lon="5.58185">
        <ele>466.6</ele>
        <time>2021-08-28T12:37:00Z</time>
      </trkpt>
      <trkpt lat="46.62055" lon="5.582">
        <ele>468</ele>
        <time>2021-08-28T12:37:06Z</time>
      </trkpt>
      <trkpt lat="46.62068" lon="5.58214">
        <ele>468.8</ele>
        <time>2021-08-28T12:37:11Z</time>
      </trkpt>
      <trkpt lat="46.62081" lon="5.58227">
        <ele>470</ele>
        <time>2021-08-28T12:37:15Z</time>
      </trkpt>
      <trkpt lat="46.62086" lon="5.58233">
        <ele>470.2</ele>
        <time>2021-08-28T12:37:17Z</time>
      </trkpt>
      <trkpt lat="46.62101" lon="5.58258">
        <ele>471</ele>
        <time>2021-08-28T12:37:24Z</time>
      </trkpt>
      <trkpt lat="46.621" lon="5.58266">
        <ele>471.2</ele>
        <time>2021-08-28T12:37:26Z</time>
      </trkpt>
      <trkpt lat="46.62098" lon="5.58269">
        <ele>471.4</ele>
        <time>2021-08-28T12:37:27Z</time>
      </trkpt>
      <trkpt lat="46.62095" lon="5.58269">
        <ele>471.6</ele>
        <time>2021-08-28T12:37:28Z</time>
      </trkpt>
      <trkpt lat="46.6209" lon="5.58265">
        <ele>472</ele>
        <time>2021-08-28T12:37:30Z</time>
      </trkpt>
      <trkpt lat="46.62079" lon="5.5825">
        <ele>473</ele>
        <time>2021-08-28T12:37:34Z</time>
      </trkpt>
      <trkpt lat="46.62073" lon="5.58244">
        <ele>473.8</ele>
        <time>2021-08-28T12:37:36Z</time>
      </trkpt>
      <trkpt lat="46.62067" lon="5.58238">
        <ele>474.4</ele>
        <time>2021-08-28T12:37:38Z</time>
      </trkpt>
      <trkpt lat="46.62058" lon="5.5823">
        <ele>475.6</ele>
        <time>2021-08-28T12:37:41Z</time>
      </trkpt>
      <trkpt lat="46.62049" lon="5.58223">
        <ele>476.4</ele>
        <time>2021-08-28T12:37:44Z</time>
      </trkpt>
      <trkpt lat="46.62039" lon="5.5822">
        <ele>476.8</ele>
        <time>2021-08-28T12:37:47Z</time>
      </trkpt>
      <trkpt lat="46.62025" lon="5.58219">
        <ele>477.8</ele>
        <time>2021-08-28T12:37:51Z</time>
      </trkpt>
      <trkpt lat="46.62021" lon="5.58219">
        <ele>478.2</ele>
        <time>2021-08-28T12:37:52Z</time>
      </trkpt>
      <trkpt lat="46.62007" lon="5.58221">
        <ele>479.4</ele>
        <time>2021-08-28T12:37:56Z</time>
      </trkpt>
      <trkpt lat="46.61997" lon="5.58221">
        <ele>479.8</ele>
        <time>2021-08-28T12:37:59Z</time>
      </trkpt>
      <trkpt lat="46.61984" lon="5.5822">
        <ele>480.4</ele>
        <time>2021-08-28T12:38:03Z</time>
      </trkpt>
      <trkpt lat="46.61963" lon="5.5822">
        <ele>481.2</ele>
        <time>2021-08-28T12:38:09Z</time>
      </trkpt>
      <trkpt lat="46.6196" lon="5.58219">
        <ele>481.6</ele>
        <time>2021-08-28T12:38:10Z</time>
      </trkpt>
      <trkpt lat="46.6195" lon="5.58219">
        <ele>482.4</ele>
        <time>2021-08-28T12:38:13Z</time>
      </trkpt>
      <trkpt lat="46.61933" lon="5.5822">
        <ele>483.4</ele>
        <time>2021-08-28T12:38:18Z</time>
      </trkpt>
      <trkpt lat="46.61912" lon="5.5822">
        <ele>484.8</ele>
        <time>2021-08-28T12:38:24Z</time>
      </trkpt>
      <trkpt lat="46.61904" lon="5.5822">
        <ele>485.4</ele>
        <time>2021-08-28T12:38:26Z</time>
      </trkpt>
      <trkpt lat="46.61893" lon="5.58219">
        <ele>486</ele>
        <time>2021-08-28T12:38:29Z</time>
      </trkpt>
      <trkpt lat="46.61878" lon="5.58214">
        <ele>486.8</ele>
        <time>2021-08-28T12:38:33Z</time>
      </trkpt>
      <trkpt lat="46.61874" lon="5.58212">
        <ele>487</ele>
        <time>2021-08-28T12:38:34Z</time>
      </trkpt>
      <trkpt lat="46.61859" lon="5.58204">
        <ele>488.4</ele>
        <time>2021-08-28T12:38:38Z</time>
      </trkpt>
      <trkpt lat="46.61851" lon="5.582">
        <ele>488.8</ele>
        <time>2021-08-28T12:38:40Z</time>
      </trkpt>
      <trkpt lat="46.61841" lon="5.58194">
        <ele>489.2</ele>
        <time>2021-08-28T12:38:43Z</time>
      </trkpt>
      <trkpt lat="46.61828" lon="5.58185">
        <ele>490</ele>
        <time>2021-08-28T12:38:47Z</time>
      </trkpt>
      <trkpt lat="46.61821" lon="5.58181">
        <ele>490.4</ele>
        <time>2021-08-28T12:38:49Z</time>
      </trkpt>
      <trkpt lat="46.61812" lon="5.58176">
        <ele>491.6</ele>
        <time>2021-08-28T12:38:52Z</time>
      </trkpt>
      <trkpt lat="46.61799" lon="5.58171">
        <ele>492.2</ele>
        <time>2021-08-28T12:38:56Z</time>
      </trkpt>
      <trkpt lat="46.6179" lon="5.58166">
        <ele>493</ele>
        <time>2021-08-28T12:38:59Z</time>
      </trkpt>
      <trkpt lat="46.61777" lon="5.58161">
        <ele>494.2</ele>
        <time>2021-08-28T12:39:03Z</time>
      </trkpt>
      <trkpt lat="46.61757" lon="5.58154">
        <ele>495.2</ele>
        <time>2021-08-28T12:39:09Z</time>
      </trkpt>
      <trkpt lat="46.61753" lon="5.58153">
        <ele>495.4</ele>
        <time>2021-08-28T12:39:10Z</time>
      </trkpt>
      <trkpt lat="46.61747" lon="5.58151">
        <ele>495.8</ele>
        <time>2021-08-28T12:39:12Z</time>
      </trkpt>
      <trkpt lat="46.6173" lon="5.58148">
        <ele>496.6</ele>
        <time>2021-08-28T12:39:17Z</time>
      </trkpt>
      <trkpt lat="46.6172" lon="5.58147">
        <ele>497.8</ele>
        <time>2021-08-28T12:39:20Z</time>
      </trkpt>
      <trkpt lat="46.61713" lon="5.58146">
        <ele>498.2</ele>
        <time>2021-08-28T12:39:22Z</time>
      </trkpt>
      <trkpt lat="46.61699" lon="5.58145">
        <ele>499</ele>
        <time>2021-08-28T12:39:26Z</time>
      </trkpt>
      <trkpt lat="46.61685" lon="5.58145">
        <ele>500</ele>
        <time>2021-08-28T12:39:30Z</time>
      </trkpt>
      <trkpt lat="46.61682" lon="5.58145">
        <ele>500.2</ele>
        <time>2021-08-28T12:39:31Z</time>
      </trkpt>
      <trkpt lat="46.61668" lon="5.58146">
        <ele>501.2</ele>
        <time>2021-08-28T12:39:35Z</time>
      </trkpt>
      <trkpt lat="46.61657" lon="5.58146">
        <ele>502</ele>
        <time>2021-08-28T12:39:38Z</time>
      </trkpt>
      <trkpt lat="46.6165" lon="5.58145">
        <ele>502.4</ele>
        <time>2021-08-28T12:39:40Z</time>
      </trkpt>
      <trkpt lat="46.61636" lon="5.58145">
        <ele>502.6</ele>
        <time>2021-08-28T12:39:44Z</time>
      </trkpt>
      <trkpt lat="46.61629" lon="5.58146">
        <ele>503.4</ele>
        <time>2021-08-28T12:39:46Z</time>
      </trkpt>
      <trkpt lat="46.61619" lon="5.58148">
        <ele>504.2</ele>
        <time>2021-08-28T12:39:49Z</time>
      </trkpt>
      <trkpt lat="46.61616" lon="5.58149">
        <ele>504.6</ele>
        <time>2021-08-28T12:39:50Z</time>
      </trkpt>
      <trkpt lat="46.61595" lon="5.58153">
        <ele>505.8</ele>
        <time>2021-08-28T12:39:56Z</time>
      </trkpt>
      <trkpt lat="46.61588" lon="5.58153">
        <ele>506</ele>
        <time>2021-08-28T12:39:58Z</time>
      </trkpt>
      <trkpt lat="46.61582" lon="5.58143">
        <ele>506.8</ele>
        <time>2021-08-28T12:40:01Z</time>
      </trkpt>
      <trkpt lat="46.61581" lon="5.58138">
        <ele>506.8</ele>
        <time>2021-08-28T12:40:02Z</time>
      </trkpt>
      <trkpt lat="46.61582" lon="5.58133">
        <ele>507</ele>
        <time>2021-08-28T12:40:03Z</time>
      </trkpt>
      <trkpt lat="46.61586" lon="5.58124">
        <ele>507</ele>
        <time>2021-08-28T12:40:05Z</time>
      </trkpt>
      <trkpt lat="46.61598" lon="5.5811">
        <ele>507.8</ele>
        <time>2021-08-28T12:40:09Z</time>
      </trkpt>
      <trkpt lat="46.61604" lon="5.58104">
        <ele>508.2</ele>
        <time>2021-08-28T12:40:11Z</time>
      </trkpt>
      <trkpt lat="46.61607" lon="5.581">
        <ele>508.4</ele>
        <time>2021-08-28T12:40:12Z</time>
      </trkpt>
      <trkpt lat="46.61615" lon="5.58093">
        <ele>508.8</ele>
        <time>2021-08-28T12:40:14Z</time>
      </trkpt>
      <trkpt lat="46.61623" lon="5.58087">
        <ele>508.8</ele>
        <time>2021-08-28T12:40:16Z</time>
      </trkpt>
      <trkpt lat="46.6164" lon="5.58078">
        <ele>509.8</ele>
        <time>2021-08-28T12:40:20Z</time>
      </trkpt>
      <trkpt lat="46.61647" lon="5.58076">
        <ele>510</ele>
        <time>2021-08-28T12:40:22Z</time>
      </trkpt>
      <trkpt lat="46.6167" lon="5.58067">
        <ele>511</ele>
        <time>2021-08-28T12:40:28Z</time>
      </trkpt>
      <trkpt lat="46.61673" lon="5.58066">
        <ele>511.2</ele>
        <time>2021-08-28T12:40:29Z</time>
      </trkpt>
      <trkpt lat="46.61686" lon="5.58057">
        <ele>512.2</ele>
        <time>2021-08-28T12:40:33Z</time>
      </trkpt>
      <trkpt lat="46.61688" lon="5.58054">
        <ele>512.4</ele>
        <time>2021-08-28T12:40:34Z</time>
      </trkpt>
      <trkpt lat="46.61698" lon="5.58042">
        <ele>513</ele>
        <time>2021-08-28T12:40:39Z</time>
      </trkpt>
      <trkpt lat="46.61701" lon="5.58039">
        <ele>513</ele>
        <time>2021-08-28T12:40:40Z</time>
      </trkpt>
      <trkpt lat="46.61715" lon="5.58027">
        <ele>513.8</ele>
        <time>2021-08-28T12:40:43Z</time>
      </trkpt>
      <trkpt lat="46.61723" lon="5.5802">
        <ele>514.4</ele>
        <time>2021-08-28T12:40:45Z</time>
      </trkpt>
      <trkpt lat="46.61736" lon="5.58002">
        <ele>515</ele>
        <time>2021-08-28T12:40:49Z</time>
      </trkpt>
      <trkpt lat="46.61738" lon="5.57991">
        <ele>515.4</ele>
        <time>2021-08-28T12:40:51Z</time>
      </trkpt>
      <trkpt lat="46.61737" lon="5.57987">
        <ele>515.4</ele>
        <time>2021-08-28T12:40:52Z</time>
      </trkpt>
      <trkpt lat="46.61734" lon="5.57984">
        <ele>515.4</ele>
        <time>2021-08-28T12:40:53Z</time>
      </trkpt>
      <trkpt lat="46.61729" lon="5.57982">
        <ele>515.8</ele>
        <time>2021-08-28T12:40:55Z</time>
      </trkpt>
      <trkpt lat="46.61717" lon="5.57992">
        <ele>516.8</ele>
        <time>2021-08-28T12:40:59Z</time>
      </trkpt>
      <trkpt lat="46.6171" lon="5.58002">
        <ele>517.8</ele>
        <time>2021-08-28T12:41:02Z</time>
      </trkpt>
      <trkpt lat="46.61702" lon="5.58011">
        <ele>519</ele>
        <time>2021-08-28T12:41:05Z</time>
      </trkpt>
      <trkpt lat="46.61699" lon="5.58014">
        <ele>519.4</ele>
        <time>2021-08-28T12:41:06Z</time>
      </trkpt>
      <trkpt lat="46.6169" lon="5.58023">
        <ele>520.2</ele>
        <time>2021-08-28T12:41:09Z</time>
      </trkpt>
      <trkpt lat="46.61678" lon="5.58034">
        <ele>521.2</ele>
        <time>2021-08-28T12:41:13Z</time>
      </trkpt>
      <trkpt lat="46.61669" lon="5.58039">
        <ele>521.6</ele>
        <time>2021-08-28T12:41:16Z</time>
      </trkpt>
      <trkpt lat="46.61659" lon="5.58044">
        <ele>522.4</ele>
        <time>2021-08-28T12:41:19Z</time>
      </trkpt>
      <trkpt lat="46.61646" lon="5.58047">
        <ele>523</ele>
        <time>2021-08-28T12:41:23Z</time>
      </trkpt>
      <trkpt lat="46.61642" lon="5.58047">
        <ele>523.4</ele>
        <time>2021-08-28T12:41:24Z</time>
      </trkpt>
      <trkpt lat="46.61622" lon="5.58052">
        <ele>524.6</ele>
        <time>2021-08-28T12:41:30Z</time>
      </trkpt>
      <trkpt lat="46.61616" lon="5.58054">
        <ele>525.2</ele>
        <time>2021-08-28T12:41:32Z</time>
      </trkpt>
      <trkpt lat="46.61612" lon="5.58055">
        <ele>525.6</ele>
        <time>2021-08-28T12:41:33Z</time>
      </trkpt>
      <trkpt lat="46.61596" lon="5.58065">
        <ele>526.6</ele>
        <time>2021-08-28T12:41:38Z</time>
      </trkpt>
      <trkpt lat="46.61591" lon="5.5807">
        <ele>527.2</ele>
        <time>2021-08-28T12:41:40Z</time>
      </trkpt>
      <trkpt lat="46.61579" lon="5.58081">
        <ele>527.6</ele>
        <time>2021-08-28T12:41:44Z</time>
      </trkpt>
      <trkpt lat="46.61574" lon="5.58087">
        <ele>528</ele>
        <time>2021-08-28T12:41:46Z</time>
      </trkpt>
      <trkpt lat="46.61568" lon="5.58093">
        <ele>528.8</ele>
        <time>2021-08-28T12:41:48Z</time>
      </trkpt>
      <trkpt lat="46.61557" lon="5.58104">
        <ele>529.8</ele>
        <time>2021-08-28T12:41:52Z</time>
      </trkpt>
      <trkpt lat="46.61548" lon="5.58114">
        <ele>530.8</ele>
        <time>2021-08-28T12:41:55Z</time>
      </trkpt>
      <trkpt lat="46.61545" lon="5.58117">
        <ele>531</ele>
        <time>2021-08-28T12:41:56Z</time>
      </trkpt>
      <trkpt lat="46.61537" lon="5.58125">
        <ele>531.8</ele>
        <time>2021-08-28T12:41:59Z</time>
      </trkpt>
      <trkpt lat="46.61516" lon="5.58148">
        <ele>533</ele>
        <time>2021-08-28T12:42:07Z</time>
      </trkpt>
      <trkpt lat="46.61505" lon="5.5816">
        <ele>534.4</ele>
        <time>2021-08-28T12:42:11Z</time>
      </trkpt>
      <trkpt lat="46.61493" lon="5.58171">
        <ele>535.2</ele>
        <time>2021-08-28T12:42:15Z</time>
      </trkpt>
      <trkpt lat="46.6149" lon="5.58173">
        <ele>535.4</ele>
        <time>2021-08-28T12:42:16Z</time>
      </trkpt>
      <trkpt lat="46.61475" lon="5.58184">
        <ele>536.6</ele>
        <time>2021-08-28T12:42:21Z</time>
      </trkpt>
      <trkpt lat="46.61465" lon="5.58189">
        <ele>537.2</ele>
        <time>2021-08-28T12:42:24Z</time>
      </trkpt>
      <trkpt lat="46.6145" lon="5.58198">
        <ele>537.8</ele>
        <time>2021-08-28T12:42:29Z</time>
      </trkpt>
      <trkpt lat="46.6144" lon="5.58201">
        <ele>539</ele>
        <time>2021-08-28T12:42:32Z</time>
      </trkpt>
      <trkpt lat="46.61437" lon="5.58203">
        <ele>538.8</ele>
        <time>2021-08-28T12:42:33Z</time>
      </trkpt>
      <trkpt lat="46.61417" lon="5.58209">
        <ele>539.8</ele>
        <time>2021-08-28T12:42:39Z</time>
      </trkpt>
      <trkpt lat="46.61407" lon="5.58211">
        <ele>540.2</ele>
        <time>2021-08-28T12:42:42Z</time>
      </trkpt>
      <trkpt lat="46.61391" lon="5.58215">
        <ele>540.8</ele>
        <time>2021-08-28T12:42:47Z</time>
      </trkpt>
      <trkpt lat="46.61374" lon="5.58219">
        <ele>542</ele>
        <time>2021-08-28T12:42:52Z</time>
      </trkpt>
      <trkpt lat="46.61367" lon="5.58222">
        <ele>542.2</ele>
        <time>2021-08-28T12:42:54Z</time>
      </trkpt>
      <trkpt lat="46.61353" lon="5.58227">
        <ele>542.8</ele>
        <time>2021-08-28T12:42:58Z</time>
      </trkpt>
      <trkpt lat="46.61336" lon="5.58235">
        <ele>544</ele>
        <time>2021-08-28T12:43:03Z</time>
      </trkpt>
      <trkpt lat="46.6133" lon="5.58251">
        <ele>544.8</ele>
        <time>2021-08-28T12:43:07Z</time>
      </trkpt>
      <trkpt lat="46.6133" lon="5.58255">
        <ele>545.2</ele>
        <time>2021-08-28T12:43:08Z</time>
      </trkpt>
      <trkpt lat="46.61334" lon="5.58264">
        <ele>545.4</ele>
        <time>2021-08-28T12:43:10Z</time>
      </trkpt>
      <trkpt lat="46.6135" lon="5.58275">
        <ele>546.6</ele>
        <time>2021-08-28T12:43:15Z</time>
      </trkpt>
      <trkpt lat="46.61367" lon="5.58274">
        <ele>547.8</ele>
        <time>2021-08-28T12:43:20Z</time>
      </trkpt>
      <trkpt lat="46.6137" lon="5.58273">
        <ele>547.8</ele>
        <time>2021-08-28T12:43:21Z</time>
      </trkpt>
      <trkpt lat="46.61391" lon="5.5827">
        <ele>549</ele>
        <time>2021-08-28T12:43:27Z</time>
      </trkpt>
      <trkpt lat="46.61394" lon="5.58269">
        <ele>549.2</ele>
        <time>2021-08-28T12:43:28Z</time>
      </trkpt>
      <trkpt lat="46.61408" lon="5.58269">
        <ele>550.2</ele>
        <time>2021-08-28T12:43:32Z</time>
      </trkpt>
      <trkpt lat="46.61422" lon="5.5827">
        <ele>551.4</ele>
        <time>2021-08-28T12:43:36Z</time>
      </trkpt>
      <trkpt lat="46.61433" lon="5.58273">
        <ele>552.4</ele>
        <time>2021-08-28T12:43:39Z</time>
      </trkpt>
      <trkpt lat="46.61444" lon="5.58274">
        <ele>553</ele>
        <time>2021-08-28T12:43:42Z</time>
      </trkpt>
      <trkpt lat="46.61447" lon="5.58274">
        <ele>553.6</ele>
        <time>2021-08-28T12:43:43Z</time>
      </trkpt>
      <trkpt lat="46.61461" lon="5.58279">
        <ele>554.8</ele>
        <time>2021-08-28T12:43:47Z</time>
      </trkpt>
      <trkpt lat="46.61465" lon="5.58282">
        <ele>555</ele>
        <time>2021-08-28T12:43:48Z</time>
      </trkpt>
      <trkpt lat="46.61473" lon="5.58297">
        <ele>555.8</ele>
        <time>2021-08-28T12:43:52Z</time>
      </trkpt>
      <trkpt lat="46.61474" lon="5.58306">
        <ele>556.4</ele>
        <time>2021-08-28T12:43:54Z</time>
      </trkpt>
      <trkpt lat="46.61474" lon="5.5831">
        <ele>557</ele>
        <time>2021-08-28T12:43:55Z</time>
      </trkpt>
      <trkpt lat="46.61475" lon="5.58324">
        <ele>558.2</ele>
        <time>2021-08-28T12:43:58Z</time>
      </trkpt>
      <trkpt lat="46.61477" lon="5.58337">
        <ele>559.4</ele>
        <time>2021-08-28T12:44:01Z</time>
      </trkpt>
      <trkpt lat="46.61481" lon="5.58358">
        <ele>560.4</ele>
        <time>2021-08-28T12:44:06Z</time>
      </trkpt>
      <trkpt lat="46.61484" lon="5.58375">
        <ele>561.4</ele>
        <time>2021-08-28T12:44:10Z</time>
      </trkpt>
      <trkpt lat="46.61485" lon="5.5838">
        <ele>561.8</ele>
        <time>2021-08-28T12:44:11Z</time>
      </trkpt>
      <trkpt lat="46.61485" lon="5.58397">
        <ele>562.6</ele>
        <time>2021-08-28T12:44:15Z</time>
      </trkpt>
      <trkpt lat="46.61483" lon="5.58406">
        <ele>563.2</ele>
        <time>2021-08-28T12:44:17Z</time>
      </trkpt>
      <trkpt lat="46.61483" lon="5.58409">
        <ele>563.6</ele>
        <time>2021-08-28T12:44:18Z</time>
      </trkpt>
      <trkpt lat="46.61477" lon="5.58431">
        <ele>565</ele>
        <time>2021-08-28T12:44:23Z</time>
      </trkpt>
      <trkpt lat="46.61475" lon="5.58436">
        <ele>565.2</ele>
        <time>2021-08-28T12:44:24Z</time>
      </trkpt>
      <trkpt lat="46.61472" lon="5.58451">
        <ele>566</ele>
        <time>2021-08-28T12:44:27Z</time>
      </trkpt>
      <trkpt lat="46.61467" lon="5.58472">
        <ele>567</ele>
        <time>2021-08-28T12:44:32Z</time>
      </trkpt>
      <trkpt lat="46.61466" lon="5.58476">
        <ele>567.2</ele>
        <time>2021-08-28T12:44:33Z</time>
      </trkpt>
      <trkpt lat="46.61464" lon="5.58495">
        <ele>568.2</ele>
        <time>2021-08-28T12:44:37Z</time>
      </trkpt>
      <trkpt lat="46.61462" lon="5.58504">
        <ele>568.4</ele>
        <time>2021-08-28T12:44:39Z</time>
      </trkpt>
      <trkpt lat="46.61461" lon="5.58522">
        <ele>569.2</ele>
        <time>2021-08-28T12:44:43Z</time>
      </trkpt>
      <trkpt lat="46.6146" lon="5.58542">
        <ele>570</ele>
        <time>2021-08-28T12:44:47Z</time>
      </trkpt>
      <trkpt lat="46.61462" lon="5.58565">
        <ele>570.4</ele>
        <time>2021-08-28T12:44:52Z</time>
      </trkpt>
      <trkpt lat="46.61464" lon="5.58582">
        <ele>570.8</ele>
        <time>2021-08-28T12:44:56Z</time>
      </trkpt>
      <trkpt lat="46.61467" lon="5.58594">
        <ele>571.4</ele>
        <time>2021-08-28T12:44:59Z</time>
      </trkpt>
      <trkpt lat="46.61474" lon="5.58609">
        <ele>572</ele>
        <time>2021-08-28T12:45:03Z</time>
      </trkpt>
      <trkpt lat="46.61479" lon="5.58615">
        <ele>572.4</ele>
        <time>2021-08-28T12:45:05Z</time>
      </trkpt>
      <trkpt lat="46.61488" lon="5.5862">
        <ele>573</ele>
        <time>2021-08-28T12:45:08Z</time>
      </trkpt>
      <trkpt lat="46.61494" lon="5.58621">
        <ele>573.4</ele>
        <time>2021-08-28T12:45:10Z</time>
      </trkpt>
      <trkpt lat="46.61505" lon="5.58622">
        <ele>574.6</ele>
        <time>2021-08-28T12:45:14Z</time>
      </trkpt>
      <trkpt lat="46.61517" lon="5.58623">
        <ele>575.4</ele>
        <time>2021-08-28T12:45:18Z</time>
      </trkpt>
      <trkpt lat="46.61523" lon="5.58624">
        <ele>575.8</ele>
        <time>2021-08-28T12:45:20Z</time>
      </trkpt>
      <trkpt lat="46.61534" lon="5.58632">
        <ele>576.8</ele>
        <time>2021-08-28T12:45:24Z</time>
      </trkpt>
      <trkpt lat="46.61538" lon="5.58647">
        <ele>578.2</ele>
        <time>2021-08-28T12:45:28Z</time>
      </trkpt>
      <trkpt lat="46.61539" lon="5.58652">
        <ele>578.2</ele>
        <time>2021-08-28T12:45:29Z</time>
      </trkpt>
      <trkpt lat="46.61542" lon="5.58678">
        <ele>579.4</ele>
        <time>2021-08-28T12:45:35Z</time>
      </trkpt>
      <trkpt lat="46.61545" lon="5.58687">
        <ele>579.6</ele>
        <time>2021-08-28T12:45:37Z</time>
      </trkpt>
      <trkpt lat="46.61553" lon="5.58711">
        <ele>580.4</ele>
        <time>2021-08-28T12:45:42Z</time>
      </trkpt>
      <trkpt lat="46.61558" lon="5.58721">
        <ele>580.8</ele>
        <time>2021-08-28T12:45:44Z</time>
      </trkpt>
      <trkpt lat="46.61562" lon="5.58731">
        <ele>581</ele>
        <time>2021-08-28T12:45:46Z</time>
      </trkpt>
      <trkpt lat="46.61573" lon="5.58757">
        <ele>581.8</ele>
        <time>2021-08-28T12:45:51Z</time>
      </trkpt>
      <trkpt lat="46.61591" lon="5.58799">
        <ele>582.8</ele>
        <time>2021-08-28T12:45:58Z</time>
      </trkpt>
      <trkpt lat="46.61593" lon="5.58805">
        <ele>582.8</ele>
        <time>2021-08-28T12:45:59Z</time>
      </trkpt>
      <trkpt lat="46.61611" lon="5.58855">
        <ele>583.6</ele>
        <time>2021-08-28T12:46:07Z</time>
      </trkpt>
      <trkpt lat="46.61615" lon="5.58866">
        <ele>583.8</ele>
        <time>2021-08-28T12:46:09Z</time>
      </trkpt>
      <trkpt lat="46.61626" lon="5.58893">
        <ele>584.8</ele>
        <time>2021-08-28T12:46:14Z</time>
      </trkpt>
      <trkpt lat="46.61636" lon="5.5892">
        <ele>586</ele>
        <time>2021-08-28T12:46:19Z</time>
      </trkpt>
      <trkpt lat="46.61642" lon="5.58947">
        <ele>587.2</ele>
        <time>2021-08-28T12:46:23Z</time>
      </trkpt>
      <trkpt lat="46.61644" lon="5.58991">
        <ele>587.8</ele>
        <time>2021-08-28T12:46:29Z</time>
      </trkpt>
      <trkpt lat="46.61643" lon="5.58997">
        <ele>588</ele>
        <time>2021-08-28T12:46:30Z</time>
      </trkpt>
      <trkpt lat="46.6164" lon="5.5901">
        <ele>588.2</ele>
        <time>2021-08-28T12:46:32Z</time>
      </trkpt>
      <trkpt lat="46.61637" lon="5.59021">
        <ele>588.6</ele>
        <time>2021-08-28T12:46:34Z</time>
      </trkpt>
      <trkpt lat="46.61631" lon="5.59029">
        <ele>588.8</ele>
        <time>2021-08-28T12:46:36Z</time>
      </trkpt>
      <trkpt lat="46.61627" lon="5.5903">
        <ele>589</ele>
        <time>2021-08-28T12:46:37Z</time>
      </trkpt>
      <trkpt lat="46.61623" lon="5.59029">
        <ele>589.2</ele>
        <time>2021-08-28T12:46:38Z</time>
      </trkpt>
      <trkpt lat="46.6162" lon="5.59027">
        <ele>589.4</ele>
        <time>2021-08-28T12:46:39Z</time>
      </trkpt>
      <trkpt lat="46.61617" lon="5.59023">
        <ele>589.8</ele>
        <time>2021-08-28T12:46:40Z</time>
      </trkpt>
      <trkpt lat="46.61612" lon="5.59012">
        <ele>591</ele>
        <time>2021-08-28T12:46:42Z</time>
      </trkpt>
      <trkpt lat="46.61607" lon="5.58996">
        <ele>591.6</ele>
        <time>2021-08-28T12:46:45Z</time>
      </trkpt>
      <trkpt lat="46.61605" lon="5.58991">
        <ele>592.2</ele>
        <time>2021-08-28T12:46:46Z</time>
      </trkpt>
      <trkpt lat="46.616" lon="5.58981">
        <ele>593</ele>
        <time>2021-08-28T12:46:48Z</time>
      </trkpt>
      <trkpt lat="46.61597" lon="5.58978">
        <ele>593.2</ele>
        <time>2021-08-28T12:46:49Z</time>
      </trkpt>
      <trkpt lat="46.61594" lon="5.58975">
        <ele>593.4</ele>
        <time>2021-08-28T12:46:50Z</time>
      </trkpt>
      <trkpt lat="46.61575" lon="5.58967">
        <ele>594.4</ele>
        <time>2021-08-28T12:46:55Z</time>
      </trkpt>
      <trkpt lat="46.61571" lon="5.58967">
        <ele>594.6</ele>
        <time>2021-08-28T12:46:56Z</time>
      </trkpt>
      <trkpt lat="46.61556" lon="5.58969">
        <ele>595.4</ele>
        <time>2021-08-28T12:47:00Z</time>
      </trkpt>
      <trkpt lat="46.61544" lon="5.58974">
        <ele>596</ele>
        <time>2021-08-28T12:47:03Z</time>
      </trkpt>
      <trkpt lat="46.61529" lon="5.58991">
        <ele>596.6</ele>
        <time>2021-08-28T12:47:08Z</time>
      </trkpt>
      <trkpt lat="46.61526" lon="5.58995">
        <ele>596.8</ele>
        <time>2021-08-28T12:47:09Z</time>
      </trkpt>
      <trkpt lat="46.61519" lon="5.59009">
        <ele>597.6</ele>
        <time>2021-08-28T12:47:12Z</time>
      </trkpt>
      <trkpt lat="46.61501" lon="5.59038">
        <ele>598.6</ele>
        <time>2021-08-28T12:47:18Z</time>
      </trkpt>
      <trkpt lat="46.61497" lon="5.59043">
        <ele>598.8</ele>
        <time>2021-08-28T12:47:19Z</time>
      </trkpt>
      <trkpt lat="46.61485" lon="5.59059">
        <ele>599</ele>
        <time>2021-08-28T12:47:22Z</time>
      </trkpt>
      <trkpt lat="46.6148" lon="5.59064">
        <ele>599</ele>
        <time>2021-08-28T12:47:23Z</time>
      </trkpt>
      <trkpt lat="46.61473" lon="5.59068">
        <ele>599</ele>
        <time>2021-08-28T12:47:24Z</time>
      </trkpt>
      <trkpt lat="46.61459" lon="5.59071">
        <ele>599</ele>
        <time>2021-08-28T12:47:26Z</time>
      </trkpt>
      <trkpt lat="46.61445" lon="5.59073">
        <ele>598.6</ele>
        <time>2021-08-28T12:47:28Z</time>
      </trkpt>
      <trkpt lat="46.6143" lon="5.59077">
        <ele>597.2</ele>
        <time>2021-08-28T12:47:30Z</time>
      </trkpt>
      <trkpt lat="46.61422" lon="5.5908">
        <ele>596.8</ele>
        <time>2021-08-28T12:47:31Z</time>
      </trkpt>
      <trkpt lat="46.61408" lon="5.5909">
        <ele>595.8</ele>
        <time>2021-08-28T12:47:33Z</time>
      </trkpt>
      <trkpt lat="46.614" lon="5.59096">
        <ele>595.6</ele>
        <time>2021-08-28T12:47:34Z</time>
      </trkpt>
      <trkpt lat="46.61394" lon="5.59103">
        <ele>594.8</ele>
        <time>2021-08-28T12:47:35Z</time>
      </trkpt>
      <trkpt lat="46.61373" lon="5.59128">
        <ele>593.6</ele>
        <time>2021-08-28T12:47:38Z</time>
      </trkpt>
      <trkpt lat="46.61351" lon="5.59155">
        <ele>592.6</ele>
        <time>2021-08-28T12:47:41Z</time>
      </trkpt>
      <trkpt lat="46.6133" lon="5.59182">
        <ele>591</ele>
        <time>2021-08-28T12:47:44Z</time>
      </trkpt>
      <trkpt lat="46.61306" lon="5.59207">
        <ele>589.8</ele>
        <time>2021-08-28T12:47:47Z</time>
      </trkpt>
      <trkpt lat="46.61277" lon="5.59227">
        <ele>588.8</ele>
        <time>2021-08-28T12:47:50Z</time>
      </trkpt>
      <trkpt lat="46.61258" lon="5.59242">
        <ele>588.2</ele>
        <time>2021-08-28T12:47:52Z</time>
      </trkpt>
      <trkpt lat="46.61248" lon="5.59249">
        <ele>587.8</ele>
        <time>2021-08-28T12:47:53Z</time>
      </trkpt>
      <trkpt lat="46.61228" lon="5.59263">
        <ele>586.2</ele>
        <time>2021-08-28T12:47:55Z</time>
      </trkpt>
      <trkpt lat="46.61217" lon="5.59269">
        <ele>584.4</ele>
        <time>2021-08-28T12:47:56Z</time>
      </trkpt>
      <trkpt lat="46.61206" lon="5.59275">
        <ele>583.6</ele>
        <time>2021-08-28T12:47:57Z</time>
      </trkpt>
      <trkpt lat="46.61195" lon="5.59281">
        <ele>582.4</ele>
        <time>2021-08-28T12:47:58Z</time>
      </trkpt>
      <trkpt lat="46.6116" lon="5.59296">
        <ele>581.2</ele>
        <time>2021-08-28T12:48:01Z</time>
      </trkpt>
      <trkpt lat="46.61137" lon="5.59306">
        <ele>579.8</ele>
        <time>2021-08-28T12:48:03Z</time>
      </trkpt>
      <trkpt lat="46.61125" lon="5.59313">
        <ele>579.4</ele>
        <time>2021-08-28T12:48:04Z</time>
      </trkpt>
      <trkpt lat="46.61115" lon="5.59321">
        <ele>577.4</ele>
        <time>2021-08-28T12:48:05Z</time>
      </trkpt>
      <trkpt lat="46.61104" lon="5.59331">
        <ele>577</ele>
        <time>2021-08-28T12:48:06Z</time>
      </trkpt>
      <trkpt lat="46.61095" lon="5.59341">
        <ele>576.2</ele>
        <time>2021-08-28T12:48:07Z</time>
      </trkpt>
      <trkpt lat="46.61084" lon="5.5935">
        <ele>575.8</ele>
        <time>2021-08-28T12:48:08Z</time>
      </trkpt>
      <trkpt lat="46.61073" lon="5.59357">
        <ele>575.2</ele>
        <time>2021-08-28T12:48:09Z</time>
      </trkpt>
      <trkpt lat="46.61061" lon="5.59363">
        <ele>574.4</ele>
        <time>2021-08-28T12:48:10Z</time>
      </trkpt>
      <trkpt lat="46.61049" lon="5.59368">
        <ele>573.8</ele>
        <time>2021-08-28T12:48:11Z</time>
      </trkpt>
      <trkpt lat="46.61037" lon="5.59373">
        <ele>572.6</ele>
        <time>2021-08-28T12:48:12Z</time>
      </trkpt>
      <trkpt lat="46.61013" lon="5.59385">
        <ele>571.2</ele>
        <time>2021-08-28T12:48:14Z</time>
      </trkpt>
      <trkpt lat="46.60992" lon="5.59405">
        <ele>569.2</ele>
        <time>2021-08-28T12:48:16Z</time>
      </trkpt>
      <trkpt lat="46.60969" lon="5.59448">
        <ele>567.8</ele>
        <time>2021-08-28T12:48:19Z</time>
      </trkpt>
      <trkpt lat="46.60949" lon="5.59494">
        <ele>566.8</ele>
        <time>2021-08-28T12:48:22Z</time>
      </trkpt>
      <trkpt lat="46.60944" lon="5.5951">
        <ele>566.6</ele>
        <time>2021-08-28T12:48:23Z</time>
      </trkpt>
      <trkpt lat="46.60936" lon="5.59555">
        <ele>565.6</ele>
        <time>2021-08-28T12:48:26Z</time>
      </trkpt>
      <trkpt lat="46.60934" lon="5.59568">
        <ele>565.4</ele>
        <time>2021-08-28T12:48:27Z</time>
      </trkpt>
      <trkpt lat="46.60932" lon="5.5959">
        <ele>565</ele>
        <time>2021-08-28T12:48:29Z</time>
      </trkpt>
      <trkpt lat="46.60933" lon="5.59601">
        <ele>564.8</ele>
        <time>2021-08-28T12:48:30Z</time>
      </trkpt>
      <trkpt lat="46.60933" lon="5.59611">
        <ele>564.4</ele>
        <time>2021-08-28T12:48:31Z</time>
      </trkpt>
      <trkpt lat="46.60934" lon="5.59633">
        <ele>563.2</ele>
        <time>2021-08-28T12:48:33Z</time>
      </trkpt>
      <trkpt lat="46.60933" lon="5.59644">
        <ele>563</ele>
        <time>2021-08-28T12:48:34Z</time>
      </trkpt>
      <trkpt lat="46.60931" lon="5.59654">
        <ele>562.8</ele>
        <time>2021-08-28T12:48:35Z</time>
      </trkpt>
      <trkpt lat="46.60927" lon="5.59663">
        <ele>562.6</ele>
        <time>2021-08-28T12:48:36Z</time>
      </trkpt>
      <trkpt lat="46.6092" lon="5.59669">
        <ele>562.6</ele>
        <time>2021-08-28T12:48:37Z</time>
      </trkpt>
      <trkpt lat="46.60913" lon="5.59675">
        <ele>562.6</ele>
        <time>2021-08-28T12:48:38Z</time>
      </trkpt>
      <trkpt lat="46.60897" lon="5.59686">
        <ele>561.8</ele>
        <time>2021-08-28T12:48:40Z</time>
      </trkpt>
      <trkpt lat="46.60889" lon="5.59693">
        <ele>561.6</ele>
        <time>2021-08-28T12:48:41Z</time>
      </trkpt>
      <trkpt lat="46.60875" lon="5.59711">
        <ele>561.2</ele>
        <time>2021-08-28T12:48:43Z</time>
      </trkpt>
      <trkpt lat="46.60869" lon="5.59723">
        <ele>560.8</ele>
        <time>2021-08-28T12:48:44Z</time>
      </trkpt>
      <trkpt lat="46.60851" lon="5.59762">
        <ele>559.4</ele>
        <time>2021-08-28T12:48:47Z</time>
      </trkpt>
      <trkpt lat="46.6084" lon="5.59787">
        <ele>558.2</ele>
        <time>2021-08-28T12:48:49Z</time>
      </trkpt>
      <trkpt lat="46.60835" lon="5.59798">
        <ele>557.8</ele>
        <time>2021-08-28T12:48:50Z</time>
      </trkpt>
      <trkpt lat="46.60825" lon="5.59812">
        <ele>557</ele>
        <time>2021-08-28T12:48:52Z</time>
      </trkpt>
      <trkpt lat="46.60821" lon="5.59818">
        <ele>556.4</ele>
        <time>2021-08-28T12:48:53Z</time>
      </trkpt>
      <trkpt lat="46.60818" lon="5.59824">
        <ele>556</ele>
        <time>2021-08-28T12:48:54Z</time>
      </trkpt>
      <trkpt lat="46.60816" lon="5.59834">
        <ele>555.4</ele>
        <time>2021-08-28T12:48:56Z</time>
      </trkpt>
      <trkpt lat="46.60822" lon="5.59847">
        <ele>555.2</ele>
        <time>2021-08-28T12:48:58Z</time>
      </trkpt>
      <trkpt lat="46.60826" lon="5.59853">
        <ele>555.2</ele>
        <time>2021-08-28T12:48:59Z</time>
      </trkpt>
      <trkpt lat="46.60836" lon="5.59866">
        <ele>554.8</ele>
        <time>2021-08-28T12:49:01Z</time>
      </trkpt>
      <trkpt lat="46.60852" lon="5.59888">
        <ele>554.6</ele>
        <time>2021-08-28T12:49:04Z</time>
      </trkpt>
      <trkpt lat="46.60868" lon="5.5991">
        <ele>553.8</ele>
        <time>2021-08-28T12:49:07Z</time>
      </trkpt>
      <trkpt lat="46.60893" lon="5.59943">
        <ele>553.6</ele>
        <time>2021-08-28T12:49:12Z</time>
      </trkpt>
      <trkpt lat="46.60934" lon="5.6">
        <ele>554.2</ele>
        <time>2021-08-28T12:49:20Z</time>
      </trkpt>
      <trkpt lat="46.60972" lon="5.60051">
        <ele>552.6</ele>
        <time>2021-08-28T12:49:26Z</time>
      </trkpt>
      <trkpt lat="46.60985" lon="5.6007">
        <ele>551.6</ele>
        <time>2021-08-28T12:49:28Z</time>
      </trkpt>
      <trkpt lat="46.61006" lon="5.60098">
        <ele>549.8</ele>
        <time>2021-08-28T12:49:31Z</time>
      </trkpt>
      <trkpt lat="46.6102" lon="5.60119">
        <ele>549</ele>
        <time>2021-08-28T12:49:33Z</time>
      </trkpt>
      <trkpt lat="46.61028" lon="5.60129">
        <ele>548.8</ele>
        <time>2021-08-28T12:49:34Z</time>
      </trkpt>
      <trkpt lat="46.61051" lon="5.6016">
        <ele>547</ele>
        <time>2021-08-28T12:49:37Z</time>
      </trkpt>
      <trkpt lat="46.61058" lon="5.6017">
        <ele>545.8</ele>
        <time>2021-08-28T12:49:38Z</time>
      </trkpt>
      <trkpt lat="46.61073" lon="5.6019">
        <ele>544.6</ele>
        <time>2021-08-28T12:49:40Z</time>
      </trkpt>
      <trkpt lat="46.6108" lon="5.602">
        <ele>544.4</ele>
        <time>2021-08-28T12:49:41Z</time>
      </trkpt>
      <trkpt lat="46.61101" lon="5.6023">
        <ele>543</ele>
        <time>2021-08-28T12:49:44Z</time>
      </trkpt>
      <trkpt lat="46.61135" lon="5.60276">
        <ele>542</ele>
        <time>2021-08-28T12:49:49Z</time>
      </trkpt>
      <trkpt lat="46.61142" lon="5.60286">
        <ele>541.8</ele>
        <time>2021-08-28T12:49:50Z</time>
      </trkpt>
      <trkpt lat="46.6118" lon="5.60338">
        <ele>540.8</ele>
        <time>2021-08-28T12:49:56Z</time>
      </trkpt>
      <trkpt lat="46.61201" lon="5.60367">
        <ele>539.8</ele>
        <time>2021-08-28T12:49:59Z</time>
      </trkpt>
      <trkpt lat="46.61241" lon="5.60422">
        <ele>538.4</ele>
        <time>2021-08-28T12:50:05Z</time>
      </trkpt>
      <trkpt lat="46.61261" lon="5.60449">
        <ele>538</ele>
        <time>2021-08-28T12:50:08Z</time>
      </trkpt>
      <trkpt lat="46.61292" lon="5.60491">
        <ele>537.4</ele>
        <time>2021-08-28T12:50:13Z</time>
      </trkpt>
      <trkpt lat="46.61309" lon="5.60515">
        <ele>537.4</ele>
        <time>2021-08-28T12:50:16Z</time>
      </trkpt>
      <trkpt lat="46.61346" lon="5.60566">
        <ele>537.2</ele>
        <time>2021-08-28T12:50:23Z</time>
      </trkpt>
      <trkpt lat="46.61385" lon="5.6062">
        <ele>536.8</ele>
        <time>2021-08-28T12:50:30Z</time>
      </trkpt>
      <trkpt lat="46.61404" lon="5.60645">
        <ele>536.2</ele>
        <time>2021-08-28T12:50:33Z</time>
      </trkpt>
      <trkpt lat="46.61431" lon="5.60683">
        <ele>535.6</ele>
        <time>2021-08-28T12:50:37Z</time>
      </trkpt>
      <trkpt lat="46.61438" lon="5.60692">
        <ele>535.2</ele>
        <time>2021-08-28T12:50:38Z</time>
      </trkpt>
      <trkpt lat="46.61472" lon="5.60739">
        <ele>534.2</ele>
        <time>2021-08-28T12:50:43Z</time>
      </trkpt>
      <trkpt lat="46.61484" lon="5.60756">
        <ele>533.4</ele>
        <time>2021-08-28T12:50:45Z</time>
      </trkpt>
      <trkpt lat="46.61496" lon="5.60773">
        <ele>533</ele>
        <time>2021-08-28T12:50:47Z</time>
      </trkpt>
      <trkpt lat="46.61513" lon="5.60794">
        <ele>532.8</ele>
        <time>2021-08-28T12:50:50Z</time>
      </trkpt>
      <trkpt lat="46.61519" lon="5.608">
        <ele>532.4</ele>
        <time>2021-08-28T12:50:51Z</time>
      </trkpt>
      <trkpt lat="46.61525" lon="5.60806">
        <ele>532.2</ele>
        <time>2021-08-28T12:50:52Z</time>
      </trkpt>
      <trkpt lat="46.61541" lon="5.60828">
        <ele>532.2</ele>
        <time>2021-08-28T12:50:55Z</time>
      </trkpt>
      <trkpt lat="46.61584" lon="5.60887">
        <ele>532.8</ele>
        <time>2021-08-28T12:51:03Z</time>
      </trkpt>
      <trkpt lat="46.61593" lon="5.60903">
        <ele>533</ele>
        <time>2021-08-28T12:51:05Z</time>
      </trkpt>
      <trkpt lat="46.61615" lon="5.60948">
        <ele>532.8</ele>
        <time>2021-08-28T12:51:11Z</time>
      </trkpt>
      <trkpt lat="46.61617" lon="5.60963">
        <ele>532.8</ele>
        <time>2021-08-28T12:51:14Z</time>
      </trkpt>
      <trkpt lat="46.61617" lon="5.60967">
        <ele>532.6</ele>
        <time>2021-08-28T12:51:18Z</time>
      </trkpt>
      <trkpt lat="46.61615" lon="5.60975">
        <ele>532.6</ele>
        <time>2021-08-28T12:51:24Z</time>
      </trkpt>
      <trkpt lat="46.6161" lon="5.60985">
        <ele>532.6</ele>
        <time>2021-08-28T12:51:26Z</time>
      </trkpt>
      <trkpt lat="46.61594" lon="5.61015">
        <ele>532</ele>
        <time>2021-08-28T12:51:30Z</time>
      </trkpt>
      <trkpt lat="46.6159" lon="5.61024">
        <ele>531.8</ele>
        <time>2021-08-28T12:51:31Z</time>
      </trkpt>
      <trkpt lat="46.61564" lon="5.6107">
        <ele>531</ele>
        <time>2021-08-28T12:51:36Z</time>
      </trkpt>
      <trkpt lat="46.61559" lon="5.6108">
        <ele>530.8</ele>
        <time>2021-08-28T12:51:37Z</time>
      </trkpt>
      <trkpt lat="46.61522" lon="5.61147">
        <ele>529.6</ele>
        <time>2021-08-28T12:51:44Z</time>
      </trkpt>
      <trkpt lat="46.61517" lon="5.61157">
        <ele>529.6</ele>
        <time>2021-08-28T12:51:45Z</time>
      </trkpt>
      <trkpt lat="46.61481" lon="5.61224">
        <ele>529.4</ele>
        <time>2021-08-28T12:51:52Z</time>
      </trkpt>
      <trkpt lat="46.61466" lon="5.61251">
        <ele>529.4</ele>
        <time>2021-08-28T12:51:55Z</time>
      </trkpt>
      <trkpt lat="46.61428" lon="5.61322">
        <ele>530.4</ele>
        <time>2021-08-28T12:52:03Z</time>
      </trkpt>
      <trkpt lat="46.61404" lon="5.61366">
        <ele>530.6</ele>
        <time>2021-08-28T12:52:08Z</time>
      </trkpt>
      <trkpt lat="46.61375" lon="5.61421">
        <ele>530.6</ele>
        <time>2021-08-28T12:52:14Z</time>
      </trkpt>
      <trkpt lat="46.61341" lon="5.61485">
        <ele>531</ele>
        <time>2021-08-28T12:52:21Z</time>
      </trkpt>
      <trkpt lat="46.61322" lon="5.61521">
        <ele>531.4</ele>
        <time>2021-08-28T12:52:25Z</time>
      </trkpt>
      <trkpt lat="46.61312" lon="5.6154">
        <ele>531.6</ele>
        <time>2021-08-28T12:52:27Z</time>
      </trkpt>
      <trkpt lat="46.61275" lon="5.61612">
        <ele>531.8</ele>
        <time>2021-08-28T12:52:34Z</time>
      </trkpt>
      <trkpt lat="46.61238" lon="5.61678">
        <ele>531.4</ele>
        <time>2021-08-28T12:52:41Z</time>
      </trkpt>
      <trkpt lat="46.61233" lon="5.61687">
        <ele>531.2</ele>
        <time>2021-08-28T12:52:42Z</time>
      </trkpt>
      <trkpt lat="46.612" lon="5.61749">
        <ele>532</ele>
        <time>2021-08-28T12:52:49Z</time>
      </trkpt>
      <trkpt lat="46.61191" lon="5.61766">
        <ele>532.6</ele>
        <time>2021-08-28T12:52:51Z</time>
      </trkpt>
      <trkpt lat="46.61182" lon="5.61782">
        <ele>533</ele>
        <time>2021-08-28T12:52:53Z</time>
      </trkpt>
      <trkpt lat="46.61161" lon="5.61823">
        <ele>534</ele>
        <time>2021-08-28T12:52:58Z</time>
      </trkpt>
      <trkpt lat="46.61152" lon="5.6184">
        <ele>534.4</ele>
        <time>2021-08-28T12:53:00Z</time>
      </trkpt>
      <trkpt lat="46.61142" lon="5.61858">
        <ele>534.6</ele>
        <time>2021-08-28T12:53:02Z</time>
      </trkpt>
      <trkpt lat="46.61108" lon="5.61922">
        <ele>535.2</ele>
        <time>2021-08-28T12:53:10Z</time>
      </trkpt>
      <trkpt lat="46.611" lon="5.61939">
        <ele>535.4</ele>
        <time>2021-08-28T12:53:12Z</time>
      </trkpt>
      <trkpt lat="46.61078" lon="5.6198">
        <ele>536.2</ele>
        <time>2021-08-28T12:53:17Z</time>
      </trkpt>
      <trkpt lat="46.6106" lon="5.62012">
        <ele>537</ele>
        <time>2021-08-28T12:53:21Z</time>
      </trkpt>
      <trkpt lat="46.61048" lon="5.62037">
        <ele>537.4</ele>
        <time>2021-08-28T12:53:24Z</time>
      </trkpt>
      <trkpt lat="46.61013" lon="5.62102">
        <ele>537.8</ele>
        <time>2021-08-28T12:53:32Z</time>
      </trkpt>
      <trkpt lat="46.61009" lon="5.6211">
        <ele>538</ele>
        <time>2021-08-28T12:53:33Z</time>
      </trkpt>
      <trkpt lat="46.60987" lon="5.62152">
        <ele>538.4</ele>
        <time>2021-08-28T12:53:38Z</time>
      </trkpt>
      <trkpt lat="46.60964" lon="5.62194">
        <ele>538.8</ele>
        <time>2021-08-28T12:53:43Z</time>
      </trkpt>
      <trkpt lat="46.60926" lon="5.62265">
        <ele>539</ele>
        <time>2021-08-28T12:53:51Z</time>
      </trkpt>
      <trkpt lat="46.60916" lon="5.62285">
        <ele>539</ele>
        <time>2021-08-28T12:53:53Z</time>
      </trkpt>
      <trkpt lat="46.60882" lon="5.62347">
        <ele>538.6</ele>
        <time>2021-08-28T12:53:59Z</time>
      </trkpt>
      <trkpt lat="46.60877" lon="5.62358">
        <ele>538.4</ele>
        <time>2021-08-28T12:54:00Z</time>
      </trkpt>
      <trkpt lat="46.60853" lon="5.62402">
        <ele>537</ele>
        <time>2021-08-28T12:54:04Z</time>
      </trkpt>
      <trkpt lat="46.60828" lon="5.62448">
        <ele>536</ele>
        <time>2021-08-28T12:54:08Z</time>
      </trkpt>
      <trkpt lat="46.60822" lon="5.6246">
        <ele>535.8</ele>
        <time>2021-08-28T12:54:09Z</time>
      </trkpt>
      <trkpt lat="46.60797" lon="5.62507">
        <ele>535</ele>
        <time>2021-08-28T12:54:13Z</time>
      </trkpt>
      <trkpt lat="46.6076" lon="5.62573">
        <ele>533.8</ele>
        <time>2021-08-28T12:54:19Z</time>
      </trkpt>
      <trkpt lat="46.60731" lon="5.62625">
        <ele>534.2</ele>
        <time>2021-08-28T12:54:24Z</time>
      </trkpt>
      <trkpt lat="46.60713" lon="5.62634">
        <ele>534.6</ele>
        <time>2021-08-28T12:54:26Z</time>
      </trkpt>
      <trkpt lat="46.60684" lon="5.6263">
        <ele>534.6</ele>
        <time>2021-08-28T12:54:29Z</time>
      </trkpt>
      <trkpt lat="46.60674" lon="5.6263">
        <ele>534.4</ele>
        <time>2021-08-28T12:54:30Z</time>
      </trkpt>
      <trkpt lat="46.60655" lon="5.62634">
        <ele>534.4</ele>
        <time>2021-08-28T12:54:32Z</time>
      </trkpt>
      <trkpt lat="46.60598" lon="5.62653">
        <ele>533.4</ele>
        <time>2021-08-28T12:54:38Z</time>
      </trkpt>
      <trkpt lat="46.60578" lon="5.62659">
        <ele>533.2</ele>
        <time>2021-08-28T12:54:40Z</time>
      </trkpt>
      <trkpt lat="46.60571" lon="5.62662">
        <ele>533</ele>
        <time>2021-08-28T12:54:41Z</time>
      </trkpt>
      <trkpt lat="46.60511" lon="5.62681">
        <ele>533.2</ele>
        <time>2021-08-28T12:54:48Z</time>
      </trkpt>
      <trkpt lat="46.60477" lon="5.62692">
        <ele>533.4</ele>
        <time>2021-08-28T12:54:52Z</time>
      </trkpt>
      <trkpt lat="46.60436" lon="5.62706">
        <ele>534</ele>
        <time>2021-08-28T12:54:57Z</time>
      </trkpt>
      <trkpt lat="46.60427" lon="5.62709">
        <ele>534</ele>
        <time>2021-08-28T12:54:58Z</time>
      </trkpt>
      <trkpt lat="46.60395" lon="5.62719">
        <ele>535.2</ele>
        <time>2021-08-28T12:55:02Z</time>
      </trkpt>
      <trkpt lat="46.60348" lon="5.62734">
        <ele>536</ele>
        <time>2021-08-28T12:55:08Z</time>
      </trkpt>
      <trkpt lat="46.60294" lon="5.62752">
        <ele>536</ele>
        <time>2021-08-28T12:55:15Z</time>
      </trkpt>
      <trkpt lat="46.60269" lon="5.6276">
        <ele>536.2</ele>
        <time>2021-08-28T12:55:18Z</time>
      </trkpt>
      <trkpt lat="46.60253" lon="5.62765">
        <ele>536.4</ele>
        <time>2021-08-28T12:55:20Z</time>
      </trkpt>
      <trkpt lat="46.60235" lon="5.62771">
        <ele>536.4</ele>
        <time>2021-08-28T12:55:22Z</time>
      </trkpt>
      <trkpt lat="46.60183" lon="5.62788">
        <ele>536.8</ele>
        <time>2021-08-28T12:55:28Z</time>
      </trkpt>
      <trkpt lat="46.6013" lon="5.62806">
        <ele>537</ele>
        <time>2021-08-28T12:55:34Z</time>
      </trkpt>
      <trkpt lat="46.60095" lon="5.62818">
        <ele>536.2</ele>
        <time>2021-08-28T12:55:38Z</time>
      </trkpt>
      <trkpt lat="46.60043" lon="5.62835">
        <ele>535.4</ele>
        <time>2021-08-28T12:55:44Z</time>
      </trkpt>
      <trkpt lat="46.60034" lon="5.62838">
        <ele>535.4</ele>
        <time>2021-08-28T12:55:45Z</time>
      </trkpt>
      <trkpt lat="46.60025" lon="5.62841">
        <ele>535.2</ele>
        <time>2021-08-28T12:55:46Z</time>
      </trkpt>
      <trkpt lat="46.59972" lon="5.62858">
        <ele>534.6</ele>
        <time>2021-08-28T12:55:52Z</time>
      </trkpt>
      <trkpt lat="46.59955" lon="5.62864">
        <ele>534.2</ele>
        <time>2021-08-28T12:55:54Z</time>
      </trkpt>
      <trkpt lat="46.59946" lon="5.62867">
        <ele>533.8</ele>
        <time>2021-08-28T12:55:55Z</time>
      </trkpt>
      <trkpt lat="46.59905" lon="5.6288">
        <ele>534.2</ele>
        <time>2021-08-28T12:56:00Z</time>
      </trkpt>
      <trkpt lat="46.59873" lon="5.62891">
        <ele>534.4</ele>
        <time>2021-08-28T12:56:04Z</time>
      </trkpt>
      <trkpt lat="46.59842" lon="5.62897">
        <ele>535</ele>
        <time>2021-08-28T12:56:08Z</time>
      </trkpt>
      <trkpt lat="46.59826" lon="5.629">
        <ele>535.6</ele>
        <time>2021-08-28T12:56:10Z</time>
      </trkpt>
      <trkpt lat="46.59801" lon="5.62904">
        <ele>536</ele>
        <time>2021-08-28T12:56:13Z</time>
      </trkpt>
      <trkpt lat="46.59762" lon="5.62911">
        <ele>537</ele>
        <time>2021-08-28T12:56:18Z</time>
      </trkpt>
      <trkpt lat="46.59746" lon="5.62914">
        <ele>537.2</ele>
        <time>2021-08-28T12:56:20Z</time>
      </trkpt>
      <trkpt lat="46.59703" lon="5.62921">
        <ele>537.6</ele>
        <time>2021-08-28T12:56:26Z</time>
      </trkpt>
      <trkpt lat="46.59682" lon="5.62925">
        <ele>538.2</ele>
        <time>2021-08-28T12:56:29Z</time>
      </trkpt>
      <trkpt lat="46.59654" lon="5.62931">
        <ele>539.2</ele>
        <time>2021-08-28T12:56:33Z</time>
      </trkpt>
      <trkpt lat="46.59647" lon="5.62932">
        <ele>539.6</ele>
        <time>2021-08-28T12:56:34Z</time>
      </trkpt>
      <trkpt lat="46.5962" lon="5.62935">
        <ele>540.4</ele>
        <time>2021-08-28T12:56:38Z</time>
      </trkpt>
      <trkpt lat="46.59592" lon="5.6294">
        <ele>540.6</ele>
        <time>2021-08-28T12:56:42Z</time>
      </trkpt>
      <trkpt lat="46.59537" lon="5.6295">
        <ele>541.2</ele>
        <time>2021-08-28T12:56:50Z</time>
      </trkpt>
      <trkpt lat="46.59523" lon="5.62953">
        <ele>541.4</ele>
        <time>2021-08-28T12:56:52Z</time>
      </trkpt>
      <trkpt lat="46.59496" lon="5.62958">
        <ele>542</ele>
        <time>2021-08-28T12:56:56Z</time>
      </trkpt>
      <trkpt lat="46.59483" lon="5.6296">
        <ele>542</ele>
        <time>2021-08-28T12:56:58Z</time>
      </trkpt>
      <trkpt lat="46.59449" lon="5.62966">
        <ele>542.4</ele>
        <time>2021-08-28T12:57:03Z</time>
      </trkpt>
      <trkpt lat="46.59428" lon="5.62968">
        <ele>543</ele>
        <time>2021-08-28T12:57:06Z</time>
      </trkpt>
      <trkpt lat="46.59407" lon="5.62972">
        <ele>543.6</ele>
        <time>2021-08-28T12:57:09Z</time>
      </trkpt>
      <trkpt lat="46.59364" lon="5.6298">
        <ele>544.2</ele>
        <time>2021-08-28T12:57:15Z</time>
      </trkpt>
      <trkpt lat="46.5931" lon="5.62989">
        <ele>544.2</ele>
        <time>2021-08-28T12:57:22Z</time>
      </trkpt>
      <trkpt lat="46.59302" lon="5.6299">
        <ele>544</ele>
        <time>2021-08-28T12:57:23Z</time>
      </trkpt>
      <trkpt lat="46.59244" lon="5.62994">
        <ele>543.4</ele>
        <time>2021-08-28T12:57:30Z</time>
      </trkpt>
      <trkpt lat="46.59236" lon="5.62994">
        <ele>543.4</ele>
        <time>2021-08-28T12:57:31Z</time>
      </trkpt>
      <trkpt lat="46.59182" lon="5.62987">
        <ele>542.6</ele>
        <time>2021-08-28T12:57:37Z</time>
      </trkpt>
      <trkpt lat="46.59163" lon="5.62984">
        <ele>542.4</ele>
        <time>2021-08-28T12:57:39Z</time>
      </trkpt>
      <trkpt lat="46.59106" lon="5.62976">
        <ele>542.4</ele>
        <time>2021-08-28T12:57:45Z</time>
      </trkpt>
      <trkpt lat="46.59097" lon="5.62975">
        <ele>542.4</ele>
        <time>2021-08-28T12:57:46Z</time>
      </trkpt>
      <trkpt lat="46.5904" lon="5.62967">
        <ele>542</ele>
        <time>2021-08-28T12:57:52Z</time>
      </trkpt>
      <trkpt lat="46.59001" lon="5.62961">
        <ele>541.8</ele>
        <time>2021-08-28T12:57:56Z</time>
      </trkpt>
      <trkpt lat="46.58944" lon="5.62953">
        <ele>541.6</ele>
        <time>2021-08-28T12:58:02Z</time>
      </trkpt>
      <trkpt lat="46.58935" lon="5.62952">
        <ele>541.4</ele>
        <time>2021-08-28T12:58:03Z</time>
      </trkpt>
      <trkpt lat="46.58928" lon="5.62951">
        <ele>541.4</ele>
        <time>2021-08-28T12:58:04Z</time>
      </trkpt>
      <trkpt lat="46.58871" lon="5.62944">
        <ele>541</ele>
        <time>2021-08-28T12:58:10Z</time>
      </trkpt>
      <trkpt lat="46.5884" lon="5.62939">
        <ele>540.8</ele>
        <time>2021-08-28T12:58:13Z</time>
      </trkpt>
      <trkpt lat="46.58784" lon="5.62932">
        <ele>540.8</ele>
        <time>2021-08-28T12:58:19Z</time>
      </trkpt>
      <trkpt lat="46.58756" lon="5.62927">
        <ele>541</ele>
        <time>2021-08-28T12:58:22Z</time>
      </trkpt>
      <trkpt lat="46.58698" lon="5.62913">
        <ele>540.8</ele>
        <time>2021-08-28T12:58:28Z</time>
      </trkpt>
      <trkpt lat="46.5868" lon="5.62907">
        <ele>540.6</ele>
        <time>2021-08-28T12:58:30Z</time>
      </trkpt>
      <trkpt lat="46.58639" lon="5.62895">
        <ele>539.4</ele>
        <time>2021-08-28T12:58:34Z</time>
      </trkpt>
      <trkpt lat="46.58611" lon="5.62887">
        <ele>538.6</ele>
        <time>2021-08-28T12:58:37Z</time>
      </trkpt>
      <trkpt lat="46.58601" lon="5.62884">
        <ele>538.4</ele>
        <time>2021-08-28T12:58:38Z</time>
      </trkpt>
      <trkpt lat="46.58559" lon="5.62879">
        <ele>537.6</ele>
        <time>2021-08-28T12:58:42Z</time>
      </trkpt>
      <trkpt lat="46.58547" lon="5.6288">
        <ele>537.6</ele>
        <time>2021-08-28T12:58:43Z</time>
      </trkpt>
      <trkpt lat="46.58526" lon="5.62887">
        <ele>537.4</ele>
        <time>2021-08-28T12:58:45Z</time>
      </trkpt>
      <trkpt lat="46.58515" lon="5.62892">
        <ele>537.2</ele>
        <time>2021-08-28T12:58:46Z</time>
      </trkpt>
      <trkpt lat="46.58462" lon="5.62917">
        <ele>536.6</ele>
        <time>2021-08-28T12:58:51Z</time>
      </trkpt>
      <trkpt lat="46.58441" lon="5.62928">
        <ele>536.2</ele>
        <time>2021-08-28T12:58:53Z</time>
      </trkpt>
      <trkpt lat="46.5843" lon="5.62934">
        <ele>536.2</ele>
        <time>2021-08-28T12:58:54Z</time>
      </trkpt>
      <trkpt lat="46.58399" lon="5.62949">
        <ele>535.2</ele>
        <time>2021-08-28T12:58:57Z</time>
      </trkpt>
      <trkpt lat="46.58346" lon="5.62974">
        <ele>534</ele>
        <time>2021-08-28T12:59:02Z</time>
      </trkpt>
      <trkpt lat="46.58326" lon="5.62984">
        <ele>533.6</ele>
        <time>2021-08-28T12:59:04Z</time>
      </trkpt>
      <trkpt lat="46.58295" lon="5.62998">
        <ele>533</ele>
        <time>2021-08-28T12:59:07Z</time>
      </trkpt>
      <trkpt lat="46.58244" lon="5.63024">
        <ele>532.4</ele>
        <time>2021-08-28T12:59:12Z</time>
      </trkpt>
      <trkpt lat="46.58192" lon="5.63044">
        <ele>532</ele>
        <time>2021-08-28T12:59:17Z</time>
      </trkpt>
      <trkpt lat="46.58181" lon="5.63044">
        <ele>532</ele>
        <time>2021-08-28T12:59:18Z</time>
      </trkpt>
      <trkpt lat="46.5817" lon="5.63043">
        <ele>531.8</ele>
        <time>2021-08-28T12:59:19Z</time>
      </trkpt>
      <trkpt lat="46.58148" lon="5.63035">
        <ele>531.6</ele>
        <time>2021-08-28T12:59:21Z</time>
      </trkpt>
      <trkpt lat="46.58137" lon="5.63028">
        <ele>531.4</ele>
        <time>2021-08-28T12:59:22Z</time>
      </trkpt>
      <trkpt lat="46.58119" lon="5.63011">
        <ele>530.4</ele>
        <time>2021-08-28T12:59:24Z</time>
      </trkpt>
      <trkpt lat="46.58084" lon="5.62968">
        <ele>528.8</ele>
        <time>2021-08-28T12:59:28Z</time>
      </trkpt>
      <trkpt lat="46.58067" lon="5.62947">
        <ele>528.2</ele>
        <time>2021-08-28T12:59:30Z</time>
      </trkpt>
      <trkpt lat="46.5805" lon="5.62927">
        <ele>527.6</ele>
        <time>2021-08-28T12:59:32Z</time>
      </trkpt>
      <trkpt lat="46.58022" lon="5.62901">
        <ele>526.8</ele>
        <time>2021-08-28T12:59:35Z</time>
      </trkpt>
      <trkpt lat="46.58003" lon="5.62886">
        <ele>526.2</ele>
        <time>2021-08-28T12:59:37Z</time>
      </trkpt>
      <trkpt lat="46.57965" lon="5.62862">
        <ele>525.4</ele>
        <time>2021-08-28T12:59:41Z</time>
      </trkpt>
      <trkpt lat="46.57955" lon="5.62856">
        <ele>525</ele>
        <time>2021-08-28T12:59:42Z</time>
      </trkpt>
      <trkpt lat="46.57915" lon="5.62841">
        <ele>524.4</ele>
        <time>2021-08-28T12:59:46Z</time>
      </trkpt>
      <trkpt lat="46.57895" lon="5.62836">
        <ele>524</ele>
        <time>2021-08-28T12:59:48Z</time>
      </trkpt>
      <trkpt lat="46.57832" lon="5.6282">
        <ele>522.8</ele>
        <time>2021-08-28T12:59:54Z</time>
      </trkpt>
      <trkpt lat="46.57779" lon="5.62802">
        <ele>522</ele>
        <time>2021-08-28T12:59:59Z</time>
      </trkpt>
      <trkpt lat="46.57769" lon="5.62797">
        <ele>521.6</ele>
        <time>2021-08-28T13:00:00Z</time>
      </trkpt>
      <trkpt lat="46.57748" lon="5.62788">
        <ele>521.4</ele>
        <time>2021-08-28T13:00:02Z</time>
      </trkpt>
      <trkpt lat="46.57716" lon="5.62772">
        <ele>520.6</ele>
        <time>2021-08-28T13:00:05Z</time>
      </trkpt>
      <trkpt lat="46.57684" lon="5.62756">
        <ele>519.4</ele>
        <time>2021-08-28T13:00:08Z</time>
      </trkpt>
      <trkpt lat="46.57662" lon="5.62745">
        <ele>519</ele>
        <time>2021-08-28T13:00:10Z</time>
      </trkpt>
      <trkpt lat="46.5763" lon="5.62729">
        <ele>518.4</ele>
        <time>2021-08-28T13:00:13Z</time>
      </trkpt>
      <trkpt lat="46.57608" lon="5.62718">
        <ele>517</ele>
        <time>2021-08-28T13:00:15Z</time>
      </trkpt>
      <trkpt lat="46.57577" lon="5.627">
        <ele>516.4</ele>
        <time>2021-08-28T13:00:18Z</time>
      </trkpt>
      <trkpt lat="46.57567" lon="5.62693">
        <ele>516</ele>
        <time>2021-08-28T13:00:19Z</time>
      </trkpt>
      <trkpt lat="46.57518" lon="5.62652">
        <ele>514.8</ele>
        <time>2021-08-28T13:00:24Z</time>
      </trkpt>
      <trkpt lat="46.57491" lon="5.62627">
        <ele>513.6</ele>
        <time>2021-08-28T13:00:27Z</time>
      </trkpt>
      <trkpt lat="46.57465" lon="5.62602">
        <ele>512.4</ele>
        <time>2021-08-28T13:00:30Z</time>
      </trkpt>
      <trkpt lat="46.57431" lon="5.62571">
        <ele>512</ele>
        <time>2021-08-28T13:00:34Z</time>
      </trkpt>
      <trkpt lat="46.57379" lon="5.62532">
        <ele>511.8</ele>
        <time>2021-08-28T13:00:40Z</time>
      </trkpt>
      <trkpt lat="46.57323" lon="5.62513">
        <ele>512</ele>
        <time>2021-08-28T13:00:46Z</time>
      </trkpt>
      <trkpt lat="46.57269" lon="5.62496">
        <ele>512</ele>
        <time>2021-08-28T13:00:52Z</time>
      </trkpt>
      <trkpt lat="46.57234" lon="5.62488">
        <ele>512.4</ele>
        <time>2021-08-28T13:00:56Z</time>
      </trkpt>
      <trkpt lat="46.57192" lon="5.62491">
        <ele>513.2</ele>
        <time>2021-08-28T13:01:01Z</time>
      </trkpt>
      <trkpt lat="46.57166" lon="5.62496">
        <ele>513.4</ele>
        <time>2021-08-28T13:01:04Z</time>
      </trkpt>
      <trkpt lat="46.57149" lon="5.62496">
        <ele>513.6</ele>
        <time>2021-08-28T13:01:06Z</time>
      </trkpt>
      <trkpt lat="46.57141" lon="5.62494">
        <ele>513.6</ele>
        <time>2021-08-28T13:01:07Z</time>
      </trkpt>
      <trkpt lat="46.57125" lon="5.62488">
        <ele>513.8</ele>
        <time>2021-08-28T13:01:09Z</time>
      </trkpt>
      <trkpt lat="46.57109" lon="5.62478">
        <ele>514</ele>
        <time>2021-08-28T13:01:11Z</time>
      </trkpt>
      <trkpt lat="46.57058" lon="5.62432">
        <ele>514</ele>
        <time>2021-08-28T13:01:18Z</time>
      </trkpt>
      <trkpt lat="46.57009" lon="5.62385">
        <ele>514</ele>
        <time>2021-08-28T13:01:25Z</time>
      </trkpt>
      <trkpt lat="46.56981" lon="5.62362">
        <ele>514.4</ele>
        <time>2021-08-28T13:01:29Z</time>
      </trkpt>
      <trkpt lat="46.56974" lon="5.62356">
        <ele>514.6</ele>
        <time>2021-08-28T13:01:30Z</time>
      </trkpt>
      <trkpt lat="46.56961" lon="5.62342">
        <ele>514.8</ele>
        <time>2021-08-28T13:01:32Z</time>
      </trkpt>
      <trkpt lat="46.56913" lon="5.62295">
        <ele>514.8</ele>
        <time>2021-08-28T13:01:39Z</time>
      </trkpt>
      <trkpt lat="46.56883" lon="5.62267">
        <ele>514.4</ele>
        <time>2021-08-28T13:01:43Z</time>
      </trkpt>
      <trkpt lat="46.56831" lon="5.62218">
        <ele>514</ele>
        <time>2021-08-28T13:01:50Z</time>
      </trkpt>
      <trkpt lat="46.56808" lon="5.62197">
        <ele>513.8</ele>
        <time>2021-08-28T13:01:53Z</time>
      </trkpt>
      <trkpt lat="46.56777" lon="5.62167">
        <ele>513.6</ele>
        <time>2021-08-28T13:01:57Z</time>
      </trkpt>
      <trkpt lat="46.56744" lon="5.62137">
        <ele>512.4</ele>
        <time>2021-08-28T13:02:01Z</time>
      </trkpt>
      <trkpt lat="46.56728" lon="5.62121">
        <ele>511.8</ele>
        <time>2021-08-28T13:02:03Z</time>
      </trkpt>
      <trkpt lat="46.56711" lon="5.62105">
        <ele>511.4</ele>
        <time>2021-08-28T13:02:05Z</time>
      </trkpt>
      <trkpt lat="46.56685" lon="5.62081">
        <ele>510.2</ele>
        <time>2021-08-28T13:02:08Z</time>
      </trkpt>
      <trkpt lat="46.56652" lon="5.62051">
        <ele>509.6</ele>
        <time>2021-08-28T13:02:12Z</time>
      </trkpt>
      <trkpt lat="46.56643" lon="5.62043">
        <ele>509.6</ele>
        <time>2021-08-28T13:02:13Z</time>
      </trkpt>
      <trkpt lat="46.56595" lon="5.61998">
        <ele>509.2</ele>
        <time>2021-08-28T13:02:19Z</time>
      </trkpt>
      <trkpt lat="46.56588" lon="5.6199">
        <ele>509.4</ele>
        <time>2021-08-28T13:02:20Z</time>
      </trkpt>
      <trkpt lat="46.56536" lon="5.61942">
        <ele>510.4</ele>
        <time>2021-08-28T13:02:27Z</time>
      </trkpt>
      <trkpt lat="46.56529" lon="5.61936">
        <ele>510.4</ele>
        <time>2021-08-28T13:02:28Z</time>
      </trkpt>
      <trkpt lat="46.56479" lon="5.61888">
        <ele>511</ele>
        <time>2021-08-28T13:02:35Z</time>
      </trkpt>
      <trkpt lat="46.56471" lon="5.61881">
        <ele>511.2</ele>
        <time>2021-08-28T13:02:36Z</time>
      </trkpt>
      <trkpt lat="46.56464" lon="5.61874">
        <ele>511.2</ele>
        <time>2021-08-28T13:02:37Z</time>
      </trkpt>
      <trkpt lat="46.56413" lon="5.61824">
        <ele>511.4</ele>
        <time>2021-08-28T13:02:44Z</time>
      </trkpt>
      <trkpt lat="46.564" lon="5.61809">
        <ele>511.6</ele>
        <time>2021-08-28T13:02:46Z</time>
      </trkpt>
      <trkpt lat="46.56357" lon="5.61754">
        <ele>512</ele>
        <time>2021-08-28T13:02:53Z</time>
      </trkpt>
      <trkpt lat="46.5634" lon="5.61733">
        <ele>512.4</ele>
        <time>2021-08-28T13:02:56Z</time>
      </trkpt>
      <trkpt lat="46.56297" lon="5.61678">
        <ele>513.2</ele>
        <time>2021-08-28T13:03:03Z</time>
      </trkpt>
      <trkpt lat="46.56274" lon="5.61649">
        <ele>513.4</ele>
        <time>2021-08-28T13:03:07Z</time>
      </trkpt>
      <trkpt lat="46.56238" lon="5.61594">
        <ele>513.2</ele>
        <time>2021-08-28T13:03:14Z</time>
      </trkpt>
      <trkpt lat="46.56218" lon="5.6156">
        <ele>513</ele>
        <time>2021-08-28T13:03:18Z</time>
      </trkpt>
      <trkpt lat="46.562" lon="5.61524">
        <ele>513.2</ele>
        <time>2021-08-28T13:03:22Z</time>
      </trkpt>
      <trkpt lat="46.56169" lon="5.61459">
        <ele>513.6</ele>
        <time>2021-08-28T13:03:29Z</time>
      </trkpt>
      <trkpt lat="46.56164" lon="5.61449">
        <ele>513.6</ele>
        <time>2021-08-28T13:03:30Z</time>
      </trkpt>
      <trkpt lat="46.56132" lon="5.61383">
        <ele>513.8</ele>
        <time>2021-08-28T13:03:37Z</time>
      </trkpt>
      <trkpt lat="46.56127" lon="5.61373">
        <ele>513.8</ele>
        <time>2021-08-28T13:03:38Z</time>
      </trkpt>
      <trkpt lat="46.56095" lon="5.61307">
        <ele>512.8</ele>
        <time>2021-08-28T13:03:45Z</time>
      </trkpt>
      <trkpt lat="46.56086" lon="5.61289">
        <ele>512.6</ele>
        <time>2021-08-28T13:03:47Z</time>
      </trkpt>
      <trkpt lat="46.56058" lon="5.6123">
        <ele>512.8</ele>
        <time>2021-08-28T13:03:54Z</time>
      </trkpt>
      <trkpt lat="46.56024" lon="5.61164">
        <ele>514.4</ele>
        <time>2021-08-28T13:04:02Z</time>
      </trkpt>
      <trkpt lat="46.5602" lon="5.61156">
        <ele>514.4</ele>
        <time>2021-08-28T13:04:03Z</time>
      </trkpt>
      <trkpt lat="46.56" lon="5.61116">
        <ele>514.6</ele>
        <time>2021-08-28T13:04:08Z</time>
      </trkpt>
      <trkpt lat="46.55986" lon="5.61083">
        <ele>515.8</ele>
        <time>2021-08-28T13:04:12Z</time>
      </trkpt>
      <trkpt lat="46.5597" lon="5.61029">
        <ele>516.4</ele>
        <time>2021-08-28T13:04:18Z</time>
      </trkpt>
      <trkpt lat="46.55961" lon="5.60993">
        <ele>516.8</ele>
        <time>2021-08-28T13:04:22Z</time>
      </trkpt>
      <trkpt lat="46.55952" lon="5.60956">
        <ele>517.2</ele>
        <time>2021-08-28T13:04:26Z</time>
      </trkpt>
      <trkpt lat="46.55936" lon="5.60885">
        <ele>517.8</ele>
        <time>2021-08-28T13:04:34Z</time>
      </trkpt>
      <trkpt lat="46.55935" lon="5.60876">
        <ele>518</ele>
        <time>2021-08-28T13:04:35Z</time>
      </trkpt>
      <trkpt lat="46.55931" lon="5.6083">
        <ele>518.4</ele>
        <time>2021-08-28T13:04:40Z</time>
      </trkpt>
      <trkpt lat="46.55924" lon="5.60744">
        <ele>518.2</ele>
        <time>2021-08-28T13:04:49Z</time>
      </trkpt>
      <trkpt lat="46.55906" lon="5.60663">
        <ele>517.4</ele>
        <time>2021-08-28T13:04:57Z</time>
      </trkpt>
      <trkpt lat="46.55898" lon="5.60631">
        <ele>517</ele>
        <time>2021-08-28T13:05:00Z</time>
      </trkpt>
      <trkpt lat="46.55886" lon="5.60589">
        <ele>516.4</ele>
        <time>2021-08-28T13:05:04Z</time>
      </trkpt>
      <trkpt lat="46.55876" lon="5.6057">
        <ele>516</ele>
        <time>2021-08-28T13:05:06Z</time>
      </trkpt>
      <trkpt lat="46.55871" lon="5.60562">
        <ele>515.8</ele>
        <time>2021-08-28T13:05:07Z</time>
      </trkpt>
      <trkpt lat="46.55864" lon="5.60555">
        <ele>515.8</ele>
        <time>2021-08-28T13:05:08Z</time>
      </trkpt>
      <trkpt lat="46.5585" lon="5.60543">
        <ele>515.6</ele>
        <time>2021-08-28T13:05:10Z</time>
      </trkpt>
      <trkpt lat="46.55834" lon="5.60536">
        <ele>515</ele>
        <time>2021-08-28T13:05:12Z</time>
      </trkpt>
      <trkpt lat="46.55828" lon="5.60534">
        <ele>514.8</ele>
        <time>2021-08-28T13:05:13Z</time>
      </trkpt>
      <trkpt lat="46.55774" lon="5.60521">
        <ele>514.4</ele>
        <time>2021-08-28T13:05:19Z</time>
      </trkpt>
      <trkpt lat="46.55758" lon="5.60513">
        <ele>513.6</ele>
        <time>2021-08-28T13:05:21Z</time>
      </trkpt>
      <trkpt lat="46.55748" lon="5.60505">
        <ele>513.4</ele>
        <time>2021-08-28T13:05:22Z</time>
      </trkpt>
      <trkpt lat="46.55741" lon="5.60499">
        <ele>512.6</ele>
        <time>2021-08-28T13:05:23Z</time>
      </trkpt>
      <trkpt lat="46.55733" lon="5.60489">
        <ele>512.4</ele>
        <time>2021-08-28T13:05:24Z</time>
      </trkpt>
      <trkpt lat="46.55721" lon="5.60468">
        <ele>511.8</ele>
        <time>2021-08-28T13:05:26Z</time>
      </trkpt>
      <trkpt lat="46.55716" lon="5.60457">
        <ele>511.4</ele>
        <time>2021-08-28T13:05:27Z</time>
      </trkpt>
      <trkpt lat="46.55695" lon="5.60408">
        <ele>510.8</ele>
        <time>2021-08-28T13:05:31Z</time>
      </trkpt>
      <trkpt lat="46.5569" lon="5.604">
        <ele>509.8</ele>
        <time>2021-08-28T13:05:32Z</time>
      </trkpt>
      <trkpt lat="46.5567" lon="5.60372">
        <ele>509</ele>
        <time>2021-08-28T13:05:35Z</time>
      </trkpt>
      <trkpt lat="46.55663" lon="5.60364">
        <ele>508.8</ele>
        <time>2021-08-28T13:05:36Z</time>
      </trkpt>
      <trkpt lat="46.55656" lon="5.6036">
        <ele>508.4</ele>
        <time>2021-08-28T13:05:37Z</time>
      </trkpt>
      <trkpt lat="46.55636" lon="5.60351">
        <ele>508.2</ele>
        <time>2021-08-28T13:05:39Z</time>
      </trkpt>
      <trkpt lat="46.55627" lon="5.60349">
        <ele>508</ele>
        <time>2021-08-28T13:05:40Z</time>
      </trkpt>
      <trkpt lat="46.55587" lon="5.60346">
        <ele>507.6</ele>
        <time>2021-08-28T13:05:44Z</time>
      </trkpt>
      <trkpt lat="46.55566" lon="5.60345">
        <ele>507.2</ele>
        <time>2021-08-28T13:05:46Z</time>
      </trkpt>
      <trkpt lat="46.55525" lon="5.60342">
        <ele>506.2</ele>
        <time>2021-08-28T13:05:50Z</time>
      </trkpt>
      <trkpt lat="46.55504" lon="5.60337">
        <ele>505.6</ele>
        <time>2021-08-28T13:05:52Z</time>
      </trkpt>
      <trkpt lat="46.55494" lon="5.60333">
        <ele>505</ele>
        <time>2021-08-28T13:05:53Z</time>
      </trkpt>
      <trkpt lat="46.55453" lon="5.60319">
        <ele>504</ele>
        <time>2021-08-28T13:05:57Z</time>
      </trkpt>
      <trkpt lat="46.55443" lon="5.60316">
        <ele>503.8</ele>
        <time>2021-08-28T13:05:58Z</time>
      </trkpt>
      <trkpt lat="46.55401" lon="5.60301">
        <ele>502.6</ele>
        <time>2021-08-28T13:06:02Z</time>
      </trkpt>
      <trkpt lat="46.55391" lon="5.60297">
        <ele>502.4</ele>
        <time>2021-08-28T13:06:03Z</time>
      </trkpt>
      <trkpt lat="46.55333" lon="5.60279">
        <ele>501.4</ele>
        <time>2021-08-28T13:06:09Z</time>
      </trkpt>
      <trkpt lat="46.55321" lon="5.60277">
        <ele>501.4</ele>
        <time>2021-08-28T13:06:10Z</time>
      </trkpt>
      <trkpt lat="46.55311" lon="5.60278">
        <ele>501.2</ele>
        <time>2021-08-28T13:06:11Z</time>
      </trkpt>
      <trkpt lat="46.55301" lon="5.60279">
        <ele>501.2</ele>
        <time>2021-08-28T13:06:12Z</time>
      </trkpt>
      <trkpt lat="46.5527" lon="5.6029">
        <ele>501.2</ele>
        <time>2021-08-28T13:06:15Z</time>
      </trkpt>
      <trkpt lat="46.55213" lon="5.60316">
        <ele>500.6</ele>
        <time>2021-08-28T13:06:21Z</time>
      </trkpt>
      <trkpt lat="46.55191" lon="5.60322">
        <ele>500.4</ele>
        <time>2021-08-28T13:06:23Z</time>
      </trkpt>
      <trkpt lat="46.55172" lon="5.60322">
        <ele>500</ele>
        <time>2021-08-28T13:06:25Z</time>
      </trkpt>
      <trkpt lat="46.55152" lon="5.60315">
        <ele>499.8</ele>
        <time>2021-08-28T13:06:27Z</time>
      </trkpt>
      <trkpt lat="46.55131" lon="5.60301">
        <ele>499.6</ele>
        <time>2021-08-28T13:06:29Z</time>
      </trkpt>
      <trkpt lat="46.55122" lon="5.60292">
        <ele>499.2</ele>
        <time>2021-08-28T13:06:30Z</time>
      </trkpt>
      <trkpt lat="46.55116" lon="5.60284">
        <ele>499.2</ele>
        <time>2021-08-28T13:06:31Z</time>
      </trkpt>
      <trkpt lat="46.55094" lon="5.60248">
        <ele>498.6</ele>
        <time>2021-08-28T13:06:34Z</time>
      </trkpt>
      <trkpt lat="46.55054" lon="5.60184">
        <ele>498.4</ele>
        <time>2021-08-28T13:06:40Z</time>
      </trkpt>
      <trkpt lat="46.55038" lon="5.60169">
        <ele>498.6</ele>
        <time>2021-08-28T13:06:42Z</time>
      </trkpt>
      <trkpt lat="46.55019" lon="5.60156">
        <ele>498.4</ele>
        <time>2021-08-28T13:06:44Z</time>
      </trkpt>
      <trkpt lat="46.55002" lon="5.60146">
        <ele>498.2</ele>
        <time>2021-08-28T13:06:46Z</time>
      </trkpt>
      <trkpt lat="46.54954" lon="5.60111">
        <ele>497</ele>
        <time>2021-08-28T13:06:51Z</time>
      </trkpt>
      <trkpt lat="46.54914" lon="5.60066">
        <ele>496.2</ele>
        <time>2021-08-28T13:06:56Z</time>
      </trkpt>
      <trkpt lat="46.54908" lon="5.6006">
        <ele>496.2</ele>
        <time>2021-08-28T13:06:57Z</time>
      </trkpt>
      <trkpt lat="46.54887" lon="5.60048">
        <ele>496</ele>
        <time>2021-08-28T13:06:59Z</time>
      </trkpt>
      <trkpt lat="46.54878" lon="5.60044">
        <ele>496</ele>
        <time>2021-08-28T13:07:00Z</time>
      </trkpt>
      <trkpt lat="46.54819" lon="5.60024">
        <ele>495.6</ele>
        <time>2021-08-28T13:07:06Z</time>
      </trkpt>
      <trkpt lat="46.5481" lon="5.60019">
        <ele>495.4</ele>
        <time>2021-08-28T13:07:07Z</time>
      </trkpt>
      <trkpt lat="46.54794" lon="5.60002">
        <ele>495.4</ele>
        <time>2021-08-28T13:07:09Z</time>
      </trkpt>
      <trkpt lat="46.54766" lon="5.5996">
        <ele>495</ele>
        <time>2021-08-28T13:07:13Z</time>
      </trkpt>
      <trkpt lat="46.54758" lon="5.5995">
        <ele>494.8</ele>
        <time>2021-08-28T13:07:14Z</time>
      </trkpt>
      <trkpt lat="46.5475" lon="5.59941">
        <ele>494.8</ele>
        <time>2021-08-28T13:07:15Z</time>
      </trkpt>
      <trkpt lat="46.54741" lon="5.59934">
        <ele>494.8</ele>
        <time>2021-08-28T13:07:16Z</time>
      </trkpt>
      <trkpt lat="46.54731" lon="5.5993">
        <ele>494.6</ele>
        <time>2021-08-28T13:07:17Z</time>
      </trkpt>
      <trkpt lat="46.54711" lon="5.59929">
        <ele>494.4</ele>
        <time>2021-08-28T13:07:19Z</time>
      </trkpt>
      <trkpt lat="46.54676" lon="5.59944">
        <ele>494.2</ele>
        <time>2021-08-28T13:07:23Z</time>
      </trkpt>
      <trkpt lat="46.54657" lon="5.59956">
        <ele>493.6</ele>
        <time>2021-08-28T13:07:25Z</time>
      </trkpt>
      <trkpt lat="46.54622" lon="5.59972">
        <ele>493.4</ele>
        <time>2021-08-28T13:07:29Z</time>
      </trkpt>
      <trkpt lat="46.54578" lon="5.5998">
        <ele>493.2</ele>
        <time>2021-08-28T13:07:34Z</time>
      </trkpt>
      <trkpt lat="46.54536" lon="5.59973">
        <ele>492.6</ele>
        <time>2021-08-28T13:07:39Z</time>
      </trkpt>
      <trkpt lat="46.54525" lon="5.59968">
        <ele>492.4</ele>
        <time>2021-08-28T13:07:40Z</time>
      </trkpt>
      <trkpt lat="46.54465" lon="5.59948">
        <ele>491.4</ele>
        <time>2021-08-28T13:07:47Z</time>
      </trkpt>
      <trkpt lat="46.54431" lon="5.59935">
        <ele>490</ele>
        <time>2021-08-28T13:07:51Z</time>
      </trkpt>
      <trkpt lat="46.54418" lon="5.59929">
        <ele>489.4</ele>
        <time>2021-08-28T13:07:53Z</time>
      </trkpt>
      <trkpt lat="46.54414" lon="5.59926">
        <ele>489.4</ele>
        <time>2021-08-28T13:07:54Z</time>
      </trkpt>
      <trkpt lat="46.5441" lon="5.59921">
        <ele>489.2</ele>
        <time>2021-08-28T13:07:56Z</time>
      </trkpt>
      <trkpt lat="46.54409" lon="5.59919">
        <ele>489.2</ele>
        <time>2021-08-28T13:07:57Z</time>
      </trkpt>
      <trkpt lat="46.54408" lon="5.59919">
        <ele>489.2</ele>
        <time>2021-08-28T13:07:59Z</time>
      </trkpt>
      <trkpt lat="46.54408" lon="5.59919">
        <ele>489.4</ele>
        <time>2021-08-28T13:08:00Z</time>
      </trkpt>
      <trkpt lat="46.54407" lon="5.59916">
        <ele>489.4</ele>
        <time>2021-08-28T13:08:18Z</time>
      </trkpt>
      <trkpt lat="46.54402" lon="5.5991">
        <ele>489.2</ele>
        <time>2021-08-28T13:08:20Z</time>
      </trkpt>
      <trkpt lat="46.54394" lon="5.59903">
        <ele>489</ele>
        <time>2021-08-28T13:08:22Z</time>
      </trkpt>
      <trkpt lat="46.54391" lon="5.59897">
        <ele>488.8</ele>
        <time>2021-08-28T13:08:23Z</time>
      </trkpt>
      <trkpt lat="46.5439" lon="5.59889">
        <ele>488.8</ele>
        <time>2021-08-28T13:08:24Z</time>
      </trkpt>
      <trkpt lat="46.54391" lon="5.59872">
        <ele>488.4</ele>
        <time>2021-08-28T13:08:26Z</time>
      </trkpt>
      <trkpt lat="46.54394" lon="5.59854">
        <ele>488</ele>
        <time>2021-08-28T13:08:28Z</time>
      </trkpt>
      <trkpt lat="46.54401" lon="5.59799">
        <ele>487.6</ele>
        <time>2021-08-28T13:08:34Z</time>
      </trkpt>
      <trkpt lat="46.54402" lon="5.5979">
        <ele>487.6</ele>
        <time>2021-08-28T13:08:35Z</time>
      </trkpt>
      <trkpt lat="46.54409" lon="5.59745">
        <ele>488.4</ele>
        <time>2021-08-28T13:08:40Z</time>
      </trkpt>
      <trkpt lat="46.54412" lon="5.59719">
        <ele>489</ele>
        <time>2021-08-28T13:08:43Z</time>
      </trkpt>
      <trkpt lat="46.54418" lon="5.5966">
        <ele>490</ele>
        <time>2021-08-28T13:08:50Z</time>
      </trkpt>
      <trkpt lat="46.54425" lon="5.59598">
        <ele>491</ele>
        <time>2021-08-28T13:08:58Z</time>
      </trkpt>
      <trkpt lat="46.54427" lon="5.59584">
        <ele>491.4</ele>
        <time>2021-08-28T13:09:00Z</time>
      </trkpt>
      <trkpt lat="46.5443" lon="5.59562">
        <ele>491.8</ele>
        <time>2021-08-28T13:09:03Z</time>
      </trkpt>
      <trkpt lat="46.54432" lon="5.59542">
        <ele>492.4</ele>
        <time>2021-08-28T13:09:06Z</time>
      </trkpt>
      <trkpt lat="46.54433" lon="5.59535">
        <ele>492.6</ele>
        <time>2021-08-28T13:09:07Z</time>
      </trkpt>
      <trkpt lat="46.54437" lon="5.59504">
        <ele>493.4</ele>
        <time>2021-08-28T13:09:12Z</time>
      </trkpt>
      <trkpt lat="46.54439" lon="5.59489">
        <ele>493.6</ele>
        <time>2021-08-28T13:09:14Z</time>
      </trkpt>
      <trkpt lat="46.54445" lon="5.59441">
        <ele>494.8</ele>
        <time>2021-08-28T13:09:21Z</time>
      </trkpt>
      <trkpt lat="46.54449" lon="5.59408">
        <ele>495.6</ele>
        <time>2021-08-28T13:09:26Z</time>
      </trkpt>
      <trkpt lat="46.54453" lon="5.59375">
        <ele>496</ele>
        <time>2021-08-28T13:09:31Z</time>
      </trkpt>
      <trkpt lat="46.54457" lon="5.59343">
        <ele>497</ele>
        <time>2021-08-28T13:09:36Z</time>
      </trkpt>
      <trkpt lat="46.5446" lon="5.59331">
        <ele>497.4</ele>
        <time>2021-08-28T13:09:38Z</time>
      </trkpt>
      <trkpt lat="46.54468" lon="5.59308">
        <ele>498.2</ele>
        <time>2021-08-28T13:09:42Z</time>
      </trkpt>
      <trkpt lat="46.54476" lon="5.59291">
        <ele>498.6</ele>
        <time>2021-08-28T13:09:45Z</time>
      </trkpt>
      <trkpt lat="46.54487" lon="5.59269">
        <ele>499</ele>
        <time>2021-08-28T13:09:49Z</time>
      </trkpt>
      <trkpt lat="46.54491" lon="5.59256">
        <ele>499.2</ele>
        <time>2021-08-28T13:09:51Z</time>
      </trkpt>
      <trkpt lat="46.54492" lon="5.59249">
        <ele>499.4</ele>
        <time>2021-08-28T13:09:52Z</time>
      </trkpt>
      <trkpt lat="46.54494" lon="5.59233">
        <ele>499.4</ele>
        <time>2021-08-28T13:09:54Z</time>
      </trkpt>
      <trkpt lat="46.54495" lon="5.59208">
        <ele>499.6</ele>
        <time>2021-08-28T13:09:57Z</time>
      </trkpt>
      <trkpt lat="46.54501" lon="5.5914">
        <ele>499.6</ele>
        <time>2021-08-28T13:10:05Z</time>
      </trkpt>
      <trkpt lat="46.54508" lon="5.59079">
        <ele>500.2</ele>
        <time>2021-08-28T13:10:13Z</time>
      </trkpt>
      <trkpt lat="46.54509" lon="5.59072">
        <ele>500.4</ele>
        <time>2021-08-28T13:10:14Z</time>
      </trkpt>
      <trkpt lat="46.54511" lon="5.59037">
        <ele>501.4</ele>
        <time>2021-08-28T13:10:19Z</time>
      </trkpt>
      <trkpt lat="46.54511" lon="5.5903">
        <ele>501.6</ele>
        <time>2021-08-28T13:10:20Z</time>
      </trkpt>
      <trkpt lat="46.54512" lon="5.59016">
        <ele>502</ele>
        <time>2021-08-28T13:10:22Z</time>
      </trkpt>
      <trkpt lat="46.54512" lon="5.58983">
        <ele>502.6</ele>
        <time>2021-08-28T13:10:26Z</time>
      </trkpt>
      <trkpt lat="46.54513" lon="5.58955">
        <ele>502.8</ele>
        <time>2021-08-28T13:10:29Z</time>
      </trkpt>
      <trkpt lat="46.54514" lon="5.58879">
        <ele>502.6</ele>
        <time>2021-08-28T13:10:37Z</time>
      </trkpt>
      <trkpt lat="46.54516" lon="5.58794">
        <ele>502.4</ele>
        <time>2021-08-28T13:10:46Z</time>
      </trkpt>
      <trkpt lat="46.54516" lon="5.58786">
        <ele>502.2</ele>
        <time>2021-08-28T13:10:47Z</time>
      </trkpt>
      <trkpt lat="46.54519" lon="5.58716">
        <ele>502.6</ele>
        <time>2021-08-28T13:10:55Z</time>
      </trkpt>
      <trkpt lat="46.54526" lon="5.58645">
        <ele>503.8</ele>
        <time>2021-08-28T13:11:03Z</time>
      </trkpt>
      <trkpt lat="46.54528" lon="5.58635">
        <ele>503.8</ele>
        <time>2021-08-28T13:11:04Z</time>
      </trkpt>
      <trkpt lat="46.54534" lon="5.58577">
        <ele>504.4</ele>
        <time>2021-08-28T13:11:10Z</time>
      </trkpt>
      <trkpt lat="46.54541" lon="5.58511">
        <ele>504.6</ele>
        <time>2021-08-28T13:11:17Z</time>
      </trkpt>
      <trkpt lat="46.54542" lon="5.58495">
        <ele>504.8</ele>
        <time>2021-08-28T13:11:19Z</time>
      </trkpt>
      <trkpt lat="46.54542" lon="5.58451">
        <ele>505.4</ele>
        <time>2021-08-28T13:11:24Z</time>
      </trkpt>
      <trkpt lat="46.54542" lon="5.58446">
        <ele>505.4</ele>
        <time>2021-08-28T13:11:25Z</time>
      </trkpt>
      <trkpt lat="46.54541" lon="5.58437">
        <ele>505.6</ele>
        <time>2021-08-28T13:11:26Z</time>
      </trkpt>
      <trkpt lat="46.54535" lon="5.58429">
        <ele>505.6</ele>
        <time>2021-08-28T13:11:28Z</time>
      </trkpt>
      <trkpt lat="46.54522" lon="5.58425">
        <ele>506</ele>
        <time>2021-08-28T13:11:30Z</time>
      </trkpt>
      <trkpt lat="46.54515" lon="5.58423">
        <ele>506.2</ele>
        <time>2021-08-28T13:11:31Z</time>
      </trkpt>
      <trkpt lat="46.54467" lon="5.58411">
        <ele>506</ele>
        <time>2021-08-28T13:11:37Z</time>
      </trkpt>
      <trkpt lat="46.54434" lon="5.58399">
        <ele>505.2</ele>
        <time>2021-08-28T13:11:41Z</time>
      </trkpt>
      <trkpt lat="46.54406" lon="5.58386">
        <ele>504.2</ele>
        <time>2021-08-28T13:11:44Z</time>
      </trkpt>
      <trkpt lat="46.54398" lon="5.58382">
        <ele>503.6</ele>
        <time>2021-08-28T13:11:45Z</time>
      </trkpt>
      <trkpt lat="46.5437" lon="5.58368">
        <ele>502.6</ele>
        <time>2021-08-28T13:11:48Z</time>
      </trkpt>
      <trkpt lat="46.54332" lon="5.58349">
        <ele>501.6</ele>
        <time>2021-08-28T13:11:52Z</time>
      </trkpt>
      <trkpt lat="46.54323" lon="5.58344">
        <ele>501.2</ele>
        <time>2021-08-28T13:11:53Z</time>
      </trkpt>
      <trkpt lat="46.54274" lon="5.58319">
        <ele>500.2</ele>
        <time>2021-08-28T13:11:58Z</time>
      </trkpt>
      <trkpt lat="46.54254" lon="5.58309">
        <ele>499.8</ele>
        <time>2021-08-28T13:12:00Z</time>
      </trkpt>
      <trkpt lat="46.54226" lon="5.58294">
        <ele>499.2</ele>
        <time>2021-08-28T13:12:03Z</time>
      </trkpt>
      <trkpt lat="46.54199" lon="5.58277">
        <ele>498.8</ele>
        <time>2021-08-28T13:12:06Z</time>
      </trkpt>
      <trkpt lat="46.54191" lon="5.58268">
        <ele>498.8</ele>
        <time>2021-08-28T13:12:07Z</time>
      </trkpt>
      <trkpt lat="46.54186" lon="5.58257">
        <ele>498.8</ele>
        <time>2021-08-28T13:12:08Z</time>
      </trkpt>
      <trkpt lat="46.54178" lon="5.58233">
        <ele>499.2</ele>
        <time>2021-08-28T13:12:10Z</time>
      </trkpt>
      <trkpt lat="46.54164" lon="5.58176">
        <ele>500</ele>
        <time>2021-08-28T13:12:15Z</time>
      </trkpt>
      <trkpt lat="46.5416" lon="5.58167">
        <ele>500.2</ele>
        <time>2021-08-28T13:12:16Z</time>
      </trkpt>
      <trkpt lat="46.54156" lon="5.58159">
        <ele>500.6</ele>
        <time>2021-08-28T13:12:17Z</time>
      </trkpt>
      <trkpt lat="46.5415" lon="5.5815">
        <ele>501</ele>
        <time>2021-08-28T13:12:18Z</time>
      </trkpt>
      <trkpt lat="46.54134" lon="5.58129">
        <ele>501.6</ele>
        <time>2021-08-28T13:12:21Z</time>
      </trkpt>
      <trkpt lat="46.54115" lon="5.5811">
        <ele>502.6</ele>
        <time>2021-08-28T13:12:24Z</time>
      </trkpt>
      <trkpt lat="46.54109" lon="5.58105">
        <ele>503.2</ele>
        <time>2021-08-28T13:12:25Z</time>
      </trkpt>
      <trkpt lat="46.54098" lon="5.58093">
        <ele>504.4</ele>
        <time>2021-08-28T13:12:27Z</time>
      </trkpt>
      <trkpt lat="46.54083" lon="5.58076">
        <ele>505.2</ele>
        <time>2021-08-28T13:12:30Z</time>
      </trkpt>
      <trkpt lat="46.54078" lon="5.5807">
        <ele>505.6</ele>
        <time>2021-08-28T13:12:31Z</time>
      </trkpt>
      <trkpt lat="46.54062" lon="5.58047">
        <ele>506.6</ele>
        <time>2021-08-28T13:12:35Z</time>
      </trkpt>
      <trkpt lat="46.54057" lon="5.58042">
        <ele>507</ele>
        <time>2021-08-28T13:12:36Z</time>
      </trkpt>
      <trkpt lat="46.54046" lon="5.58032">
        <ele>507.8</ele>
        <time>2021-08-28T13:12:38Z</time>
      </trkpt>
      <trkpt lat="46.54023" lon="5.58015">
        <ele>508.4</ele>
        <time>2021-08-28T13:12:42Z</time>
      </trkpt>
      <trkpt lat="46.5401" lon="5.58006">
        <ele>508.4</ele>
        <time>2021-08-28T13:12:44Z</time>
      </trkpt>
      <trkpt lat="46.53983" lon="5.57993">
        <ele>508</ele>
        <time>2021-08-28T13:12:48Z</time>
      </trkpt>
      <trkpt lat="46.53939" lon="5.57982">
        <ele>506.6</ele>
        <time>2021-08-28T13:12:53Z</time>
      </trkpt>
      <trkpt lat="46.53905" lon="5.57978">
        <ele>505.6</ele>
        <time>2021-08-28T13:12:56Z</time>
      </trkpt>
      <trkpt lat="46.53893" lon="5.57975">
        <ele>504.8</ele>
        <time>2021-08-28T13:12:57Z</time>
      </trkpt>
      <trkpt lat="46.53883" lon="5.57973">
        <ele>504.4</ele>
        <time>2021-08-28T13:12:58Z</time>
      </trkpt>
      <trkpt lat="46.53858" lon="5.57965">
        <ele>501.6</ele>
        <time>2021-08-28T13:13:00Z</time>
      </trkpt>
      <trkpt lat="46.53831" lon="5.57957">
        <ele>499.6</ele>
        <time>2021-08-28T13:13:02Z</time>
      </trkpt>
      <trkpt lat="46.53821" lon="5.57954">
        <ele>498.8</ele>
        <time>2021-08-28T13:13:03Z</time>
      </trkpt>
      <trkpt lat="46.53808" lon="5.5795">
        <ele>497.8</ele>
        <time>2021-08-28T13:13:04Z</time>
      </trkpt>
      <trkpt lat="46.53781" lon="5.57943">
        <ele>496.2</ele>
        <time>2021-08-28T13:13:06Z</time>
      </trkpt>
      <trkpt lat="46.53768" lon="5.57939">
        <ele>494.8</ele>
        <time>2021-08-28T13:13:07Z</time>
      </trkpt>
      <trkpt lat="46.53745" lon="5.57933">
        <ele>493.6</ele>
        <time>2021-08-28T13:13:10Z</time>
      </trkpt>
      <trkpt lat="46.53718" lon="5.57924">
        <ele>493.2</ele>
        <time>2021-08-28T13:13:11Z</time>
      </trkpt>
      <trkpt lat="46.53693" lon="5.57918">
        <ele>492.2</ele>
        <time>2021-08-28T13:13:13Z</time>
      </trkpt>
      <trkpt lat="46.5367" lon="5.5791">
        <ele>490.8</ele>
        <time>2021-08-28T13:13:15Z</time>
      </trkpt>
      <trkpt lat="46.53643" lon="5.57901">
        <ele>489.6</ele>
        <time>2021-08-28T13:13:17Z</time>
      </trkpt>
      <trkpt lat="46.5362" lon="5.57893">
        <ele>488.6</ele>
        <time>2021-08-28T13:13:19Z</time>
      </trkpt>
      <trkpt lat="46.53586" lon="5.57878">
        <ele>487.8</ele>
        <time>2021-08-28T13:13:22Z</time>
      </trkpt>
      <trkpt lat="46.53534" lon="5.57851">
        <ele>487.8</ele>
        <time>2021-08-28T13:13:27Z</time>
      </trkpt>
      <trkpt lat="46.53495" lon="5.57818">
        <ele>488</ele>
        <time>2021-08-28T13:13:31Z</time>
      </trkpt>
      <trkpt lat="46.53466" lon="5.57786">
        <ele>489</ele>
        <time>2021-08-28T13:13:35Z</time>
      </trkpt>
      <trkpt lat="46.53459" lon="5.5778">
        <ele>489.8</ele>
        <time>2021-08-28T13:13:36Z</time>
      </trkpt>
      <trkpt lat="46.53444" lon="5.57769">
        <ele>491</ele>
        <time>2021-08-28T13:13:38Z</time>
      </trkpt>
      <trkpt lat="46.53436" lon="5.57765">
        <ele>491.8</ele>
        <time>2021-08-28T13:13:39Z</time>
      </trkpt>
      <trkpt lat="46.53421" lon="5.57759">
        <ele>492.8</ele>
        <time>2021-08-28T13:13:41Z</time>
      </trkpt>
      <trkpt lat="46.53396" lon="5.57751">
        <ele>493.6</ele>
        <time>2021-08-28T13:13:44Z</time>
      </trkpt>
      <trkpt lat="46.53349" lon="5.57735">
        <ele>493.6</ele>
        <time>2021-08-28T13:13:50Z</time>
      </trkpt>
      <trkpt lat="46.53323" lon="5.57721">
        <ele>493.8</ele>
        <time>2021-08-28T13:13:54Z</time>
      </trkpt>
      <trkpt lat="46.53317" lon="5.57717">
        <ele>494.2</ele>
        <time>2021-08-28T13:13:55Z</time>
      </trkpt>
      <trkpt lat="46.53311" lon="5.57711">
        <ele>494.4</ele>
        <time>2021-08-28T13:13:56Z</time>
      </trkpt>
      <trkpt lat="46.53303" lon="5.577">
        <ele>495</ele>
        <time>2021-08-28T13:13:58Z</time>
      </trkpt>
      <trkpt lat="46.53295" lon="5.57688">
        <ele>495.4</ele>
        <time>2021-08-28T13:14:00Z</time>
      </trkpt>
      <trkpt lat="46.5329" lon="5.57674">
        <ele>495.6</ele>
        <time>2021-08-28T13:14:02Z</time>
      </trkpt>
      <trkpt lat="46.53288" lon="5.57657">
        <ele>495.6</ele>
        <time>2021-08-28T13:14:04Z</time>
      </trkpt>
      <trkpt lat="46.53288" lon="5.57637">
        <ele>495.6</ele>
        <time>2021-08-28T13:14:06Z</time>
      </trkpt>
      <trkpt lat="46.53289" lon="5.57615">
        <ele>495.8</ele>
        <time>2021-08-28T13:14:08Z</time>
      </trkpt>
      <trkpt lat="46.53287" lon="5.57579">
        <ele>495.8</ele>
        <time>2021-08-28T13:14:11Z</time>
      </trkpt>
      <trkpt lat="46.53285" lon="5.57568">
        <ele>495.8</ele>
        <time>2021-08-28T13:14:12Z</time>
      </trkpt>
      <trkpt lat="46.53275" lon="5.57522">
        <ele>495.8</ele>
        <time>2021-08-28T13:14:16Z</time>
      </trkpt>
      <trkpt lat="46.53269" lon="5.57504">
        <ele>495.8</ele>
        <time>2021-08-28T13:14:18Z</time>
      </trkpt>
      <trkpt lat="46.53261" lon="5.57484">
        <ele>495.8</ele>
        <time>2021-08-28T13:14:20Z</time>
      </trkpt>
      <trkpt lat="46.53248" lon="5.57459">
        <ele>496</ele>
        <time>2021-08-28T13:14:23Z</time>
      </trkpt>
      <trkpt lat="46.53215" lon="5.57416">
        <ele>495.4</ele>
        <time>2021-08-28T13:14:29Z</time>
      </trkpt>
      <trkpt lat="46.53181" lon="5.57384">
        <ele>495.4</ele>
        <time>2021-08-28T13:14:34Z</time>
      </trkpt>
      <trkpt lat="46.53127" lon="5.57341">
        <ele>494.4</ele>
        <time>2021-08-28T13:14:41Z</time>
      </trkpt>
      <trkpt lat="46.5311" lon="5.57329">
        <ele>493.8</ele>
        <time>2021-08-28T13:14:43Z</time>
      </trkpt>
      <trkpt lat="46.53103" lon="5.57321">
        <ele>493.2</ele>
        <time>2021-08-28T13:14:44Z</time>
      </trkpt>
      <trkpt lat="46.53096" lon="5.57312">
        <ele>492.8</ele>
        <time>2021-08-28T13:14:45Z</time>
      </trkpt>
      <trkpt lat="46.5309" lon="5.57302">
        <ele>492.6</ele>
        <time>2021-08-28T13:14:46Z</time>
      </trkpt>
      <trkpt lat="46.53074" lon="5.57268">
        <ele>492.2</ele>
        <time>2021-08-28T13:14:49Z</time>
      </trkpt>
      <trkpt lat="46.53065" lon="5.57246">
        <ele>491.4</ele>
        <time>2021-08-28T13:14:51Z</time>
      </trkpt>
      <trkpt lat="46.53038" lon="5.57176">
        <ele>490.6</ele>
        <time>2021-08-28T13:14:57Z</time>
      </trkpt>
      <trkpt lat="46.53028" lon="5.57152">
        <ele>490.4</ele>
        <time>2021-08-28T13:14:59Z</time>
      </trkpt>
      <trkpt lat="46.53" lon="5.57083">
        <ele>489.6</ele>
        <time>2021-08-28T13:15:05Z</time>
      </trkpt>
      <trkpt lat="46.52991" lon="5.57062">
        <ele>489.4</ele>
        <time>2021-08-28T13:15:07Z</time>
      </trkpt>
      <trkpt lat="46.52986" lon="5.5705">
        <ele>489.4</ele>
        <time>2021-08-28T13:15:08Z</time>
      </trkpt>
      <trkpt lat="46.52964" lon="5.57018">
        <ele>489.6</ele>
        <time>2021-08-28T13:15:12Z</time>
      </trkpt>
      <trkpt lat="46.52941" lon="5.56975">
        <ele>490.8</ele>
        <time>2021-08-28T13:15:17Z</time>
      </trkpt>
      <trkpt lat="46.52923" lon="5.56915">
        <ele>491.2</ele>
        <time>2021-08-28T13:15:23Z</time>
      </trkpt>
      <trkpt lat="46.52916" lon="5.56887">
        <ele>491.2</ele>
        <time>2021-08-28T13:15:26Z</time>
      </trkpt>
      <trkpt lat="46.52906" lon="5.56843">
        <ele>491.2</ele>
        <time>2021-08-28T13:15:30Z</time>
      </trkpt>
      <trkpt lat="46.52889" lon="5.56763">
        <ele>491.2</ele>
        <time>2021-08-28T13:15:38Z</time>
      </trkpt>
      <trkpt lat="46.52886" lon="5.5675">
        <ele>491.2</ele>
        <time>2021-08-28T13:15:39Z</time>
      </trkpt>
      <trkpt lat="46.52869" lon="5.56674">
        <ele>490.2</ele>
        <time>2021-08-28T13:15:46Z</time>
      </trkpt>
      <trkpt lat="46.52867" lon="5.56665">
        <ele>489.8</ele>
        <time>2021-08-28T13:15:47Z</time>
      </trkpt>
      <trkpt lat="46.52864" lon="5.56654">
        <ele>489.6</ele>
        <time>2021-08-28T13:15:48Z</time>
      </trkpt>
      <trkpt lat="46.52847" lon="5.56576">
        <ele>489.2</ele>
        <time>2021-08-28T13:15:55Z</time>
      </trkpt>
      <trkpt lat="46.52839" lon="5.56543">
        <ele>489.2</ele>
        <time>2021-08-28T13:15:58Z</time>
      </trkpt>
      <trkpt lat="46.52831" lon="5.56508">
        <ele>488.6</ele>
        <time>2021-08-28T13:16:01Z</time>
      </trkpt>
      <trkpt lat="46.52819" lon="5.56462">
        <ele>487.4</ele>
        <time>2021-08-28T13:16:05Z</time>
      </trkpt>
      <trkpt lat="46.52816" lon="5.5645">
        <ele>487.2</ele>
        <time>2021-08-28T13:16:06Z</time>
      </trkpt>
      <trkpt lat="46.52799" lon="5.56382">
        <ele>486.4</ele>
        <time>2021-08-28T13:16:12Z</time>
      </trkpt>
      <trkpt lat="46.52786" lon="5.56327">
        <ele>486</ele>
        <time>2021-08-28T13:16:17Z</time>
      </trkpt>
      <trkpt lat="46.52767" lon="5.56252">
        <ele>486</ele>
        <time>2021-08-28T13:16:24Z</time>
      </trkpt>
      <trkpt lat="46.52747" lon="5.5617">
        <ele>485.6</ele>
        <time>2021-08-28T13:16:32Z</time>
      </trkpt>
      <trkpt lat="46.52739" lon="5.5614">
        <ele>485.6</ele>
        <time>2021-08-28T13:16:35Z</time>
      </trkpt>
      <trkpt lat="46.52724" lon="5.56089">
        <ele>486</ele>
        <time>2021-08-28T13:16:41Z</time>
      </trkpt>
      <trkpt lat="46.52719" lon="5.56081">
        <ele>486</ele>
        <time>2021-08-28T13:16:42Z</time>
      </trkpt>
      <trkpt lat="46.52714" lon="5.56077">
        <ele>486.2</ele>
        <time>2021-08-28T13:16:43Z</time>
      </trkpt>
      <trkpt lat="46.52708" lon="5.56077">
        <ele>486.2</ele>
        <time>2021-08-28T13:16:44Z</time>
      </trkpt>
      <trkpt lat="46.52701" lon="5.56078">
        <ele>486.2</ele>
        <time>2021-08-28T13:16:45Z</time>
      </trkpt>
      <trkpt lat="46.52676" lon="5.5609">
        <ele>486.4</ele>
        <time>2021-08-28T13:16:49Z</time>
      </trkpt>
      <trkpt lat="46.52623" lon="5.56111">
        <ele>485.8</ele>
        <time>2021-08-28T13:16:58Z</time>
      </trkpt>
      <trkpt lat="46.52617" lon="5.5611">
        <ele>485.8</ele>
        <time>2021-08-28T13:17:00Z</time>
      </trkpt>
      <trkpt lat="46.52616" lon="5.56108">
        <ele>485.8</ele>
        <time>2021-08-28T13:17:01Z</time>
      </trkpt>
      <trkpt lat="46.52615" lon="5.56107">
        <ele>486</ele>
        <time>2021-08-28T13:17:04Z</time>
      </trkpt>
      <trkpt lat="46.52615" lon="5.56104">
        <ele>485.6</ele>
        <time>2021-08-28T13:17:33Z</time>
      </trkpt>
      <trkpt lat="46.52617" lon="5.5608">
        <ele>485.6</ele>
        <time>2021-08-28T13:17:38Z</time>
      </trkpt>
      <trkpt lat="46.52618" lon="5.56064">
        <ele>485.4</ele>
        <time>2021-08-28T13:17:40Z</time>
      </trkpt>
      <trkpt lat="46.5262" lon="5.56045">
        <ele>485.4</ele>
        <time>2021-08-28T13:17:42Z</time>
      </trkpt>
      <trkpt lat="46.52626" lon="5.55975">
        <ele>484.8</ele>
        <time>2021-08-28T13:17:49Z</time>
      </trkpt>
      <trkpt lat="46.52631" lon="5.55907">
        <ele>484.4</ele>
        <time>2021-08-28T13:17:56Z</time>
      </trkpt>
      <trkpt lat="46.52632" lon="5.55896">
        <ele>484.2</ele>
        <time>2021-08-28T13:17:57Z</time>
      </trkpt>
      <trkpt lat="46.52639" lon="5.55812">
        <ele>484</ele>
        <time>2021-08-28T13:18:06Z</time>
      </trkpt>
      <trkpt lat="46.5264" lon="5.55794">
        <ele>484.2</ele>
        <time>2021-08-28T13:18:08Z</time>
      </trkpt>
      <trkpt lat="46.52647" lon="5.5571">
        <ele>485</ele>
        <time>2021-08-28T13:18:17Z</time>
      </trkpt>
      <trkpt lat="46.52648" lon="5.557">
        <ele>485.4</ele>
        <time>2021-08-28T13:18:18Z</time>
      </trkpt>
      <trkpt lat="46.52654" lon="5.55622">
        <ele>485</ele>
        <time>2021-08-28T13:18:26Z</time>
      </trkpt>
      <trkpt lat="46.52655" lon="5.55613">
        <ele>485</ele>
        <time>2021-08-28T13:18:27Z</time>
      </trkpt>
      <trkpt lat="46.52661" lon="5.55528">
        <ele>485.4</ele>
        <time>2021-08-28T13:18:36Z</time>
      </trkpt>
      <trkpt lat="46.52662" lon="5.55519">
        <ele>485.2</ele>
        <time>2021-08-28T13:18:37Z</time>
      </trkpt>
      <trkpt lat="46.52669" lon="5.55435">
        <ele>485.2</ele>
        <time>2021-08-28T13:18:46Z</time>
      </trkpt>
      <trkpt lat="46.52672" lon="5.55389">
        <ele>485.6</ele>
        <time>2021-08-28T13:18:51Z</time>
      </trkpt>
      <trkpt lat="46.52674" lon="5.55363">
        <ele>486</ele>
        <time>2021-08-28T13:18:54Z</time>
      </trkpt>
      <trkpt lat="46.52679" lon="5.55296">
        <ele>486.8</ele>
        <time>2021-08-28T13:19:02Z</time>
      </trkpt>
      <trkpt lat="46.52686" lon="5.5521">
        <ele>487.2</ele>
        <time>2021-08-28T13:19:12Z</time>
      </trkpt>
      <trkpt lat="46.52692" lon="5.55135">
        <ele>487.8</ele>
        <time>2021-08-28T13:19:20Z</time>
      </trkpt>
      <trkpt lat="46.52693" lon="5.55126">
        <ele>488</ele>
        <time>2021-08-28T13:19:21Z</time>
      </trkpt>
      <trkpt lat="46.52698" lon="5.55059">
        <ele>488.6</ele>
        <time>2021-08-28T13:19:28Z</time>
      </trkpt>
      <trkpt lat="46.52702" lon="5.55004">
        <ele>489.2</ele>
        <time>2021-08-28T13:19:34Z</time>
      </trkpt>
      <trkpt lat="46.52705" lon="5.54968">
        <ele>490</ele>
        <time>2021-08-28T13:19:38Z</time>
      </trkpt>
      <trkpt lat="46.52707" lon="5.54951">
        <ele>490.4</ele>
        <time>2021-08-28T13:19:40Z</time>
      </trkpt>
      <trkpt lat="46.52709" lon="5.54913">
        <ele>491</ele>
        <time>2021-08-28T13:19:45Z</time>
      </trkpt>
      <trkpt lat="46.5271" lon="5.54906">
        <ele>491.4</ele>
        <time>2021-08-28T13:19:46Z</time>
      </trkpt>
      <trkpt lat="46.52712" lon="5.5487">
        <ele>492.6</ele>
        <time>2021-08-28T13:19:51Z</time>
      </trkpt>
      <trkpt lat="46.52714" lon="5.54848">
        <ele>493</ele>
        <time>2021-08-28T13:19:54Z</time>
      </trkpt>
      <trkpt lat="46.52716" lon="5.54819">
        <ele>493.6</ele>
        <time>2021-08-28T13:19:58Z</time>
      </trkpt>
      <trkpt lat="46.52718" lon="5.54783">
        <ele>494.4</ele>
        <time>2021-08-28T13:20:03Z</time>
      </trkpt>
      <trkpt lat="46.5272" lon="5.54768">
        <ele>494.6</ele>
        <time>2021-08-28T13:20:05Z</time>
      </trkpt>
      <trkpt lat="46.52725" lon="5.54697">
        <ele>495.6</ele>
        <time>2021-08-28T13:20:14Z</time>
      </trkpt>
      <trkpt lat="46.52725" lon="5.54689">
        <ele>495.8</ele>
        <time>2021-08-28T13:20:15Z</time>
      </trkpt>
      <trkpt lat="46.52729" lon="5.54646">
        <ele>496.8</ele>
        <time>2021-08-28T13:20:21Z</time>
      </trkpt>
      <trkpt lat="46.52732" lon="5.54632">
        <ele>497.4</ele>
        <time>2021-08-28T13:20:23Z</time>
      </trkpt>
      <trkpt lat="46.52734" lon="5.54626">
        <ele>497.4</ele>
        <time>2021-08-28T13:20:24Z</time>
      </trkpt>
      <trkpt lat="46.52736" lon="5.54622">
        <ele>497.6</ele>
        <time>2021-08-28T13:20:25Z</time>
      </trkpt>
      <trkpt lat="46.52744" lon="5.54613">
        <ele>497.8</ele>
        <time>2021-08-28T13:20:27Z</time>
      </trkpt>
      <trkpt lat="46.52747" lon="5.54612">
        <ele>497.8</ele>
        <time>2021-08-28T13:20:28Z</time>
      </trkpt>
      <trkpt lat="46.52752" lon="5.5461">
        <ele>497.8</ele>
        <time>2021-08-28T13:20:29Z</time>
      </trkpt>
      <trkpt lat="46.5276" lon="5.5461">
        <ele>498.2</ele>
        <time>2021-08-28T13:20:31Z</time>
      </trkpt>
      <trkpt lat="46.52768" lon="5.54611">
        <ele>499</ele>
        <time>2021-08-28T13:20:33Z</time>
      </trkpt>
      <trkpt lat="46.52786" lon="5.54612">
        <ele>500.2</ele>
        <time>2021-08-28T13:20:37Z</time>
      </trkpt>
      <trkpt lat="46.52803" lon="5.54612">
        <ele>501</ele>
        <time>2021-08-28T13:20:41Z</time>
      </trkpt>
      <trkpt lat="46.52807" lon="5.54612">
        <ele>501.2</ele>
        <time>2021-08-28T13:20:42Z</time>
      </trkpt>
      <trkpt lat="46.52829" lon="5.54612">
        <ele>502.8</ele>
        <time>2021-08-28T13:20:48Z</time>
      </trkpt>
      <trkpt lat="46.52836" lon="5.54613">
        <ele>503.4</ele>
        <time>2021-08-28T13:20:50Z</time>
      </trkpt>
      <trkpt lat="46.52849" lon="5.54614">
        <ele>504</ele>
        <time>2021-08-28T13:20:54Z</time>
      </trkpt>
      <trkpt lat="46.52857" lon="5.54614">
        <ele>504.4</ele>
        <time>2021-08-28T13:20:56Z</time>
      </trkpt>
      <trkpt lat="46.52869" lon="5.54615">
        <ele>505</ele>
        <time>2021-08-28T13:20:59Z</time>
      </trkpt>
      <trkpt lat="46.52884" lon="5.54617">
        <ele>505.4</ele>
        <time>2021-08-28T13:21:02Z</time>
      </trkpt>
      <trkpt lat="46.52906" lon="5.54617">
        <ele>506.2</ele>
        <time>2021-08-28T13:21:07Z</time>
      </trkpt>
      <trkpt lat="46.5291" lon="5.54617">
        <ele>506.2</ele>
        <time>2021-08-28T13:21:08Z</time>
      </trkpt>
      <trkpt lat="46.52914" lon="5.54618">
        <ele>506.4</ele>
        <time>2021-08-28T13:21:09Z</time>
      </trkpt>
      <trkpt lat="46.5294" lon="5.5462">
        <ele>507.2</ele>
        <time>2021-08-28T13:21:15Z</time>
      </trkpt>
      <trkpt lat="46.52968" lon="5.54622">
        <ele>508.2</ele>
        <time>2021-08-28T13:21:21Z</time>
      </trkpt>
      <trkpt lat="46.52987" lon="5.54623">
        <ele>508.4</ele>
        <time>2021-08-28T13:21:25Z</time>
      </trkpt>
      <trkpt lat="46.53024" lon="5.54626">
        <ele>509.2</ele>
        <time>2021-08-28T13:21:33Z</time>
      </trkpt>
      <trkpt lat="46.53049" lon="5.54627">
        <ele>510.4</ele>
        <time>2021-08-28T13:21:39Z</time>
      </trkpt>
      <trkpt lat="46.53058" lon="5.54627">
        <ele>510.6</ele>
        <time>2021-08-28T13:21:41Z</time>
      </trkpt>
      <trkpt lat="46.53081" lon="5.54628">
        <ele>511.4</ele>
        <time>2021-08-28T13:21:46Z</time>
      </trkpt>
      <trkpt lat="46.53099" lon="5.54629">
        <ele>512</ele>
        <time>2021-08-28T13:21:50Z</time>
      </trkpt>
      <trkpt lat="46.53108" lon="5.54629">
        <ele>512.2</ele>
        <time>2021-08-28T13:21:52Z</time>
      </trkpt>
      <trkpt lat="46.53113" lon="5.5463">
        <ele>512.4</ele>
        <time>2021-08-28T13:21:53Z</time>
      </trkpt>
      <trkpt lat="46.53136" lon="5.54634">
        <ele>513.4</ele>
        <time>2021-08-28T13:21:58Z</time>
      </trkpt>
      <trkpt lat="46.5314" lon="5.54636">
        <ele>513.6</ele>
        <time>2021-08-28T13:21:59Z</time>
      </trkpt>
      <trkpt lat="46.53169" lon="5.54644">
        <ele>514.6</ele>
        <time>2021-08-28T13:22:06Z</time>
      </trkpt>
      <trkpt lat="46.53178" lon="5.54646">
        <ele>515</ele>
        <time>2021-08-28T13:22:08Z</time>
      </trkpt>
      <trkpt lat="46.53191" lon="5.54649">
        <ele>515.8</ele>
        <time>2021-08-28T13:22:11Z</time>
      </trkpt>
      <trkpt lat="46.53195" lon="5.5465">
        <ele>516</ele>
        <time>2021-08-28T13:22:12Z</time>
      </trkpt>
      <trkpt lat="46.53213" lon="5.54652">
        <ele>516.8</ele>
        <time>2021-08-28T13:22:16Z</time>
      </trkpt>
      <trkpt lat="46.53217" lon="5.54653">
        <ele>517</ele>
        <time>2021-08-28T13:22:17Z</time>
      </trkpt>
      <trkpt lat="46.53253" lon="5.54659">
        <ele>518</ele>
        <time>2021-08-28T13:22:25Z</time>
      </trkpt>
      <trkpt lat="46.53279" lon="5.54664">
        <ele>518.8</ele>
        <time>2021-08-28T13:22:31Z</time>
      </trkpt>
      <trkpt lat="46.53293" lon="5.54668">
        <ele>519.8</ele>
        <time>2021-08-28T13:22:34Z</time>
      </trkpt>
      <trkpt lat="46.53298" lon="5.5467">
        <ele>520.2</ele>
        <time>2021-08-28T13:22:35Z</time>
      </trkpt>
      <trkpt lat="46.53329" lon="5.54679">
        <ele>521</ele>
        <time>2021-08-28T13:22:42Z</time>
      </trkpt>
      <trkpt lat="46.53342" lon="5.54684">
        <ele>521.2</ele>
        <time>2021-08-28T13:22:45Z</time>
      </trkpt>
      <trkpt lat="46.53373" lon="5.54694">
        <ele>522</ele>
        <time>2021-08-28T13:22:52Z</time>
      </trkpt>
      <trkpt lat="46.53392" lon="5.547">
        <ele>522.6</ele>
        <time>2021-08-28T13:22:56Z</time>
      </trkpt>
      <trkpt lat="46.53424" lon="5.54711">
        <ele>523</ele>
        <time>2021-08-28T13:23:03Z</time>
      </trkpt>
      <trkpt lat="46.53448" lon="5.54719">
        <ele>524.2</ele>
        <time>2021-08-28T13:23:08Z</time>
      </trkpt>
      <trkpt lat="46.53487" lon="5.54732">
        <ele>525.4</ele>
        <time>2021-08-28T13:23:17Z</time>
      </trkpt>
      <trkpt lat="46.53501" lon="5.54736">
        <ele>525.8</ele>
        <time>2021-08-28T13:23:20Z</time>
      </trkpt>
      <trkpt lat="46.53522" lon="5.54743">
        <ele>526.6</ele>
        <time>2021-08-28T13:23:25Z</time>
      </trkpt>
      <trkpt lat="46.53544" lon="5.54751">
        <ele>527.2</ele>
        <time>2021-08-28T13:23:30Z</time>
      </trkpt>
      <trkpt lat="46.53565" lon="5.54758">
        <ele>527.6</ele>
        <time>2021-08-28T13:23:35Z</time>
      </trkpt>
      <trkpt lat="46.53591" lon="5.54767">
        <ele>528.8</ele>
        <time>2021-08-28T13:23:41Z</time>
      </trkpt>
      <trkpt lat="46.53613" lon="5.54774">
        <ele>529.8</ele>
        <time>2021-08-28T13:23:46Z</time>
      </trkpt>
      <trkpt lat="46.53638" lon="5.54782">
        <ele>530.4</ele>
        <time>2021-08-28T13:23:52Z</time>
      </trkpt>
      <trkpt lat="46.53651" lon="5.54786">
        <ele>531</ele>
        <time>2021-08-28T13:23:55Z</time>
      </trkpt>
      <trkpt lat="46.53676" lon="5.54795">
        <ele>531.6</ele>
        <time>2021-08-28T13:24:01Z</time>
      </trkpt>
      <trkpt lat="46.53684" lon="5.54798">
        <ele>532</ele>
        <time>2021-08-28T13:24:03Z</time>
      </trkpt>
      <trkpt lat="46.53711" lon="5.54807">
        <ele>533.4</ele>
        <time>2021-08-28T13:24:09Z</time>
      </trkpt>
      <trkpt lat="46.53724" lon="5.54812">
        <ele>534</ele>
        <time>2021-08-28T13:24:12Z</time>
      </trkpt>
      <trkpt lat="46.53733" lon="5.54815">
        <ele>534.6</ele>
        <time>2021-08-28T13:24:14Z</time>
      </trkpt>
      <trkpt lat="46.53751" lon="5.54821">
        <ele>535</ele>
        <time>2021-08-28T13:24:18Z</time>
      </trkpt>
      <trkpt lat="46.53761" lon="5.54822">
        <ele>535.2</ele>
        <time>2021-08-28T13:24:20Z</time>
      </trkpt>
      <trkpt lat="46.53794" lon="5.54822">
        <ele>535.6</ele>
        <time>2021-08-28T13:24:27Z</time>
      </trkpt>
      <trkpt lat="46.53842" lon="5.54811">
        <ele>536</ele>
        <time>2021-08-28T13:24:37Z</time>
      </trkpt>
      <trkpt lat="46.53847" lon="5.5481">
        <ele>536.2</ele>
        <time>2021-08-28T13:24:38Z</time>
      </trkpt>
      <trkpt lat="46.53867" lon="5.54805">
        <ele>537</ele>
        <time>2021-08-28T13:24:42Z</time>
      </trkpt>
      <trkpt lat="46.53881" lon="5.54802">
        <ele>537.2</ele>
        <time>2021-08-28T13:24:45Z</time>
      </trkpt>
      <trkpt lat="46.539" lon="5.54796">
        <ele>537.6</ele>
        <time>2021-08-28T13:24:49Z</time>
      </trkpt>
      <trkpt lat="46.53919" lon="5.54788">
        <ele>537.6</ele>
        <time>2021-08-28T13:24:53Z</time>
      </trkpt>
      <trkpt lat="46.53932" lon="5.54778">
        <ele>537.8</ele>
        <time>2021-08-28T13:24:56Z</time>
      </trkpt>
      <trkpt lat="46.53944" lon="5.54767">
        <ele>538.2</ele>
        <time>2021-08-28T13:24:59Z</time>
      </trkpt>
      <trkpt lat="46.5397" lon="5.54742">
        <ele>539</ele>
        <time>2021-08-28T13:25:05Z</time>
      </trkpt>
      <trkpt lat="46.53977" lon="5.54731">
        <ele>539.2</ele>
        <time>2021-08-28T13:25:07Z</time>
      </trkpt>
      <trkpt lat="46.53985" lon="5.5472">
        <ele>539.2</ele>
        <time>2021-08-28T13:25:09Z</time>
      </trkpt>
      <trkpt lat="46.53998" lon="5.54691">
        <ele>539.4</ele>
        <time>2021-08-28T13:25:13Z</time>
      </trkpt>
      <trkpt lat="46.54008" lon="5.54656">
        <ele>538.6</ele>
        <time>2021-08-28T13:25:17Z</time>
      </trkpt>
      <trkpt lat="46.5401" lon="5.54646">
        <ele>538.6</ele>
        <time>2021-08-28T13:25:18Z</time>
      </trkpt>
      <trkpt lat="46.5402" lon="5.54607">
        <ele>537.8</ele>
        <time>2021-08-28T13:25:22Z</time>
      </trkpt>
      <trkpt lat="46.54027" lon="5.54575">
        <ele>537.4</ele>
        <time>2021-08-28T13:25:25Z</time>
      </trkpt>
      <trkpt lat="46.54045" lon="5.54513">
        <ele>536.8</ele>
        <time>2021-08-28T13:25:31Z</time>
      </trkpt>
      <trkpt lat="46.5405" lon="5.54492">
        <ele>536.4</ele>
        <time>2021-08-28T13:25:33Z</time>
      </trkpt>
      <trkpt lat="46.54065" lon="5.5444">
        <ele>535.6</ele>
        <time>2021-08-28T13:25:38Z</time>
      </trkpt>
      <trkpt lat="46.54076" lon="5.54399">
        <ele>535</ele>
        <time>2021-08-28T13:25:42Z</time>
      </trkpt>
      <trkpt lat="46.54084" lon="5.54364">
        <ele>534.2</ele>
        <time>2021-08-28T13:25:45Z</time>
      </trkpt>
      <trkpt lat="46.54093" lon="5.54332">
        <ele>533.2</ele>
        <time>2021-08-28T13:25:48Z</time>
      </trkpt>
      <trkpt lat="46.54099" lon="5.54309">
        <ele>532.6</ele>
        <time>2021-08-28T13:25:50Z</time>
      </trkpt>
      <trkpt lat="46.54103" lon="5.54297">
        <ele>532</ele>
        <time>2021-08-28T13:25:51Z</time>
      </trkpt>
      <trkpt lat="46.54117" lon="5.54245">
        <ele>531.2</ele>
        <time>2021-08-28T13:25:55Z</time>
      </trkpt>
      <trkpt lat="46.5412" lon="5.54232">
        <ele>530.6</ele>
        <time>2021-08-28T13:25:56Z</time>
      </trkpt>
      <trkpt lat="46.54126" lon="5.54205">
        <ele>529.4</ele>
        <time>2021-08-28T13:25:58Z</time>
      </trkpt>
      <trkpt lat="46.54133" lon="5.54176">
        <ele>528.2</ele>
        <time>2021-08-28T13:26:00Z</time>
      </trkpt>
      <trkpt lat="46.54136" lon="5.54163">
        <ele>527.6</ele>
        <time>2021-08-28T13:26:01Z</time>
      </trkpt>
      <trkpt lat="46.5414" lon="5.5415">
        <ele>527.2</ele>
        <time>2021-08-28T13:26:02Z</time>
      </trkpt>
      <trkpt lat="46.54147" lon="5.54126">
        <ele>525.8</ele>
        <time>2021-08-28T13:26:04Z</time>
      </trkpt>
      <trkpt lat="46.54153" lon="5.54101">
        <ele>524.8</ele>
        <time>2021-08-28T13:26:06Z</time>
      </trkpt>
      <trkpt lat="46.54157" lon="5.54089">
        <ele>524.4</ele>
        <time>2021-08-28T13:26:07Z</time>
      </trkpt>
      <trkpt lat="46.54175" lon="5.54028">
        <ele>523.6</ele>
        <time>2021-08-28T13:26:12Z</time>
      </trkpt>
      <trkpt lat="46.54182" lon="5.54003">
        <ele>523.4</ele>
        <time>2021-08-28T13:26:14Z</time>
      </trkpt>
      <trkpt lat="46.54197" lon="5.53927">
        <ele>523</ele>
        <time>2021-08-28T13:26:20Z</time>
      </trkpt>
      <trkpt lat="46.542" lon="5.53851">
        <ele>522.4</ele>
        <time>2021-08-28T13:26:26Z</time>
      </trkpt>
      <trkpt lat="46.54204" lon="5.53763">
        <ele>521.8</ele>
        <time>2021-08-28T13:26:33Z</time>
      </trkpt>
      <trkpt lat="46.54205" lon="5.53725">
        <ele>521.2</ele>
        <time>2021-08-28T13:26:36Z</time>
      </trkpt>
      <trkpt lat="46.54207" lon="5.53698">
        <ele>521</ele>
        <time>2021-08-28T13:26:38Z</time>
      </trkpt>
      <trkpt lat="46.54213" lon="5.53674">
        <ele>521</ele>
        <time>2021-08-28T13:26:40Z</time>
      </trkpt>
      <trkpt lat="46.54217" lon="5.53663">
        <ele>521</ele>
        <time>2021-08-28T13:26:41Z</time>
      </trkpt>
      <trkpt lat="46.54227" lon="5.53642">
        <ele>521.2</ele>
        <time>2021-08-28T13:26:43Z</time>
      </trkpt>
      <trkpt lat="46.54262" lon="5.53569">
        <ele>520</ele>
        <time>2021-08-28T13:26:50Z</time>
      </trkpt>
      <trkpt lat="46.54274" lon="5.53537">
        <ele>519.6</ele>
        <time>2021-08-28T13:26:53Z</time>
      </trkpt>
      <trkpt lat="46.54285" lon="5.53503">
        <ele>519.2</ele>
        <time>2021-08-28T13:26:56Z</time>
      </trkpt>
      <trkpt lat="46.54292" lon="5.53484">
        <ele>519</ele>
        <time>2021-08-28T13:26:58Z</time>
      </trkpt>
      <trkpt lat="46.54302" lon="5.53467">
        <ele>518.8</ele>
        <time>2021-08-28T13:27:00Z</time>
      </trkpt>
      <trkpt lat="46.54327" lon="5.53435">
        <ele>518.6</ele>
        <time>2021-08-28T13:27:04Z</time>
      </trkpt>
      <trkpt lat="46.5434" lon="5.53418">
        <ele>518.6</ele>
        <time>2021-08-28T13:27:06Z</time>
      </trkpt>
      <trkpt lat="46.5435" lon="5.53397">
        <ele>518.6</ele>
        <time>2021-08-28T13:27:08Z</time>
      </trkpt>
      <trkpt lat="46.54358" lon="5.53361">
        <ele>518</ele>
        <time>2021-08-28T13:27:11Z</time>
      </trkpt>
      <trkpt lat="46.54362" lon="5.53338">
        <ele>517.2</ele>
        <time>2021-08-28T13:27:13Z</time>
      </trkpt>
      <trkpt lat="46.54369" lon="5.53316">
        <ele>516.6</ele>
        <time>2021-08-28T13:27:15Z</time>
      </trkpt>
      <trkpt lat="46.5438" lon="5.53296">
        <ele>515.8</ele>
        <time>2021-08-28T13:27:18Z</time>
      </trkpt>
      <trkpt lat="46.54387" lon="5.53287">
        <ele>515.4</ele>
        <time>2021-08-28T13:27:19Z</time>
      </trkpt>
      <trkpt lat="46.54394" lon="5.5328">
        <ele>515</ele>
        <time>2021-08-28T13:27:20Z</time>
      </trkpt>
      <trkpt lat="46.54401" lon="5.53274">
        <ele>513.8</ele>
        <time>2021-08-28T13:27:21Z</time>
      </trkpt>
      <trkpt lat="46.5441" lon="5.53269">
        <ele>513.4</ele>
        <time>2021-08-28T13:27:22Z</time>
      </trkpt>
      <trkpt lat="46.54418" lon="5.53266">
        <ele>512.8</ele>
        <time>2021-08-28T13:27:23Z</time>
      </trkpt>
      <trkpt lat="46.54434" lon="5.53262">
        <ele>511.6</ele>
        <time>2021-08-28T13:27:25Z</time>
      </trkpt>
      <trkpt lat="46.54442" lon="5.5326">
        <ele>511.2</ele>
        <time>2021-08-28T13:27:26Z</time>
      </trkpt>
      <trkpt lat="46.54458" lon="5.53256">
        <ele>510.6</ele>
        <time>2021-08-28T13:27:28Z</time>
      </trkpt>
      <trkpt lat="46.54467" lon="5.53256">
        <ele>510.2</ele>
        <time>2021-08-28T13:27:29Z</time>
      </trkpt>
      <trkpt lat="46.54472" lon="5.53259">
        <ele>509.8</ele>
        <time>2021-08-28T13:27:30Z</time>
      </trkpt>
      <trkpt lat="46.54478" lon="5.53266">
        <ele>509.2</ele>
        <time>2021-08-28T13:27:31Z</time>
      </trkpt>
      <trkpt lat="46.54481" lon="5.53275">
        <ele>508.8</ele>
        <time>2021-08-28T13:27:32Z</time>
      </trkpt>
      <trkpt lat="46.54492" lon="5.53308">
        <ele>508.6</ele>
        <time>2021-08-28T13:27:36Z</time>
      </trkpt>
      <trkpt lat="46.54496" lon="5.53316">
        <ele>508.8</ele>
        <time>2021-08-28T13:27:37Z</time>
      </trkpt>
      <trkpt lat="46.545" lon="5.5332">
        <ele>508.8</ele>
        <time>2021-08-28T13:27:38Z</time>
      </trkpt>
      <trkpt lat="46.5451" lon="5.53327">
        <ele>509.2</ele>
        <time>2021-08-28T13:27:40Z</time>
      </trkpt>
      <trkpt lat="46.54516" lon="5.53329">
        <ele>509.4</ele>
        <time>2021-08-28T13:27:41Z</time>
      </trkpt>
      <trkpt lat="46.54521" lon="5.5333">
        <ele>509.4</ele>
        <time>2021-08-28T13:27:42Z</time>
      </trkpt>
      <trkpt lat="46.54531" lon="5.53329">
        <ele>509.6</ele>
        <time>2021-08-28T13:27:44Z</time>
      </trkpt>
      <trkpt lat="46.54536" lon="5.53327">
        <ele>509.8</ele>
        <time>2021-08-28T13:27:45Z</time>
      </trkpt>
      <trkpt lat="46.54551" lon="5.53322">
        <ele>510.4</ele>
        <time>2021-08-28T13:27:48Z</time>
      </trkpt>
      <trkpt lat="46.54569" lon="5.53317">
        <ele>510.8</ele>
        <time>2021-08-28T13:27:52Z</time>
      </trkpt>
      <trkpt lat="46.54583" lon="5.53319">
        <ele>511.6</ele>
        <time>2021-08-28T13:27:55Z</time>
      </trkpt>
      <trkpt lat="46.54591" lon="5.53322">
        <ele>512.4</ele>
        <time>2021-08-28T13:27:57Z</time>
      </trkpt>
      <trkpt lat="46.54596" lon="5.53324">
        <ele>512.6</ele>
        <time>2021-08-28T13:27:58Z</time>
      </trkpt>
      <trkpt lat="46.54619" lon="5.53339">
        <ele>514.2</ele>
        <time>2021-08-28T13:28:04Z</time>
      </trkpt>
      <trkpt lat="46.5463" lon="5.53346">
        <ele>515.4</ele>
        <time>2021-08-28T13:28:07Z</time>
      </trkpt>
      <trkpt lat="46.54651" lon="5.53361">
        <ele>516.4</ele>
        <time>2021-08-28T13:28:13Z</time>
      </trkpt>
      <trkpt lat="46.54655" lon="5.53364">
        <ele>516.6</ele>
        <time>2021-08-28T13:28:14Z</time>
      </trkpt>
      <trkpt lat="46.54678" lon="5.53388">
        <ele>517.2</ele>
        <time>2021-08-28T13:28:21Z</time>
      </trkpt>
      <trkpt lat="46.54684" lon="5.53396">
        <ele>517.6</ele>
        <time>2021-08-28T13:28:23Z</time>
      </trkpt>
      <trkpt lat="46.54692" lon="5.5341">
        <ele>518.2</ele>
        <time>2021-08-28T13:28:26Z</time>
      </trkpt>
      <trkpt lat="46.54696" lon="5.53418">
        <ele>518.6</ele>
        <time>2021-08-28T13:28:28Z</time>
      </trkpt>
      <trkpt lat="46.54698" lon="5.53423">
        <ele>519</ele>
        <time>2021-08-28T13:28:29Z</time>
      </trkpt>
      <trkpt lat="46.54714" lon="5.53455">
        <ele>519.6</ele>
        <time>2021-08-28T13:28:36Z</time>
      </trkpt>
      <trkpt lat="46.54716" lon="5.53459">
        <ele>520</ele>
        <time>2021-08-28T13:28:37Z</time>
      </trkpt>
      <trkpt lat="46.54727" lon="5.53472">
        <ele>521</ele>
        <time>2021-08-28T13:28:41Z</time>
      </trkpt>
      <trkpt lat="46.5473" lon="5.53475">
        <ele>521.2</ele>
        <time>2021-08-28T13:28:42Z</time>
      </trkpt>
      <trkpt lat="46.54747" lon="5.53481">
        <ele>522.2</ele>
        <time>2021-08-28T13:28:46Z</time>
      </trkpt>
      <trkpt lat="46.54761" lon="5.53484">
        <ele>522.8</ele>
        <time>2021-08-28T13:28:49Z</time>
      </trkpt>
      <trkpt lat="46.5477" lon="5.53486">
        <ele>523.2</ele>
        <time>2021-08-28T13:28:51Z</time>
      </trkpt>
      <trkpt lat="46.54801" lon="5.53493">
        <ele>524.2</ele>
        <time>2021-08-28T13:28:58Z</time>
      </trkpt>
      <trkpt lat="46.54805" lon="5.53494">
        <ele>524.4</ele>
        <time>2021-08-28T13:28:59Z</time>
      </trkpt>
      <trkpt lat="46.54809" lon="5.53495">
        <ele>524.6</ele>
        <time>2021-08-28T13:29:00Z</time>
      </trkpt>
      <trkpt lat="46.54823" lon="5.53497">
        <ele>525.6</ele>
        <time>2021-08-28T13:29:04Z</time>
      </trkpt>
      <trkpt lat="46.54846" lon="5.53501">
        <ele>526.6</ele>
        <time>2021-08-28T13:29:10Z</time>
      </trkpt>
      <trkpt lat="46.54857" lon="5.53504">
        <ele>526.8</ele>
        <time>2021-08-28T13:29:13Z</time>
      </trkpt>
      <trkpt lat="46.5488" lon="5.53509">
        <ele>527.2</ele>
        <time>2021-08-28T13:29:18Z</time>
      </trkpt>
      <trkpt lat="46.54896" lon="5.5351">
        <ele>527.4</ele>
        <time>2021-08-28T13:29:21Z</time>
      </trkpt>
      <trkpt lat="46.54921" lon="5.53509">
        <ele>527.4</ele>
        <time>2021-08-28T13:29:25Z</time>
      </trkpt>
      <trkpt lat="46.54965" lon="5.53508">
        <ele>527.4</ele>
        <time>2021-08-28T13:29:32Z</time>
      </trkpt>
      <trkpt lat="46.54976" lon="5.53512">
        <ele>527.6</ele>
        <time>2021-08-28T13:29:34Z</time>
      </trkpt>
      <trkpt lat="46.54986" lon="5.53518">
        <ele>527.8</ele>
        <time>2021-08-28T13:29:36Z</time>
      </trkpt>
      <trkpt lat="46.54991" lon="5.53524">
        <ele>527.8</ele>
        <time>2021-08-28T13:29:37Z</time>
      </trkpt>
      <trkpt lat="46.55006" lon="5.53543">
        <ele>528.4</ele>
        <time>2021-08-28T13:29:41Z</time>
      </trkpt>
      <trkpt lat="46.55013" lon="5.5355">
        <ele>528.8</ele>
        <time>2021-08-28T13:29:43Z</time>
      </trkpt>
      <trkpt lat="46.55023" lon="5.53559">
        <ele>529.6</ele>
        <time>2021-08-28T13:29:46Z</time>
      </trkpt>
      <trkpt lat="46.55033" lon="5.53573">
        <ele>530.8</ele>
        <time>2021-08-28T13:29:50Z</time>
      </trkpt>
      <trkpt lat="46.55035" lon="5.53577">
        <ele>531.2</ele>
        <time>2021-08-28T13:29:51Z</time>
      </trkpt>
      <trkpt lat="46.55042" lon="5.53587">
        <ele>531.8</ele>
        <time>2021-08-28T13:29:54Z</time>
      </trkpt>
      <trkpt lat="46.5505" lon="5.53599">
        <ele>532.6</ele>
        <time>2021-08-28T13:29:58Z</time>
      </trkpt>
      <trkpt lat="46.55054" lon="5.53605">
        <ele>533.2</ele>
        <time>2021-08-28T13:30:00Z</time>
      </trkpt>
      <trkpt lat="46.5506" lon="5.53613">
        <ele>534</ele>
        <time>2021-08-28T13:30:03Z</time>
      </trkpt>
      <trkpt lat="46.55062" lon="5.53616">
        <ele>534.4</ele>
        <time>2021-08-28T13:30:04Z</time>
      </trkpt>
      <trkpt lat="46.55069" lon="5.53629">
        <ele>535.4</ele>
        <time>2021-08-28T13:30:08Z</time>
      </trkpt>
      <trkpt lat="46.55071" lon="5.53632">
        <ele>536</ele>
        <time>2021-08-28T13:30:09Z</time>
      </trkpt>
      <trkpt lat="46.55075" lon="5.53637">
        <ele>536.6</ele>
        <time>2021-08-28T13:30:11Z</time>
      </trkpt>
      <trkpt lat="46.55081" lon="5.53644">
        <ele>537</ele>
        <time>2021-08-28T13:30:13Z</time>
      </trkpt>
      <trkpt lat="46.55093" lon="5.53657">
        <ele>538</ele>
        <time>2021-08-28T13:30:17Z</time>
      </trkpt>
      <trkpt lat="46.55096" lon="5.5366">
        <ele>538.6</ele>
        <time>2021-08-28T13:30:18Z</time>
      </trkpt>
      <trkpt lat="46.55103" lon="5.53666">
        <ele>539.4</ele>
        <time>2021-08-28T13:30:20Z</time>
      </trkpt>
      <trkpt lat="46.55121" lon="5.53675">
        <ele>540.2</ele>
        <time>2021-08-28T13:30:25Z</time>
      </trkpt>
      <trkpt lat="46.55131" lon="5.53679">
        <ele>540.8</ele>
        <time>2021-08-28T13:30:28Z</time>
      </trkpt>
      <trkpt lat="46.55144" lon="5.53682">
        <ele>542</ele>
        <time>2021-08-28T13:30:32Z</time>
      </trkpt>
      <trkpt lat="46.55151" lon="5.53685">
        <ele>542.6</ele>
        <time>2021-08-28T13:30:34Z</time>
      </trkpt>
      <trkpt lat="46.55158" lon="5.53689">
        <ele>543</ele>
        <time>2021-08-28T13:30:36Z</time>
      </trkpt>
      <trkpt lat="46.55171" lon="5.53699">
        <ele>544</ele>
        <time>2021-08-28T13:30:41Z</time>
      </trkpt>
      <trkpt lat="46.55174" lon="5.53701">
        <ele>544.4</ele>
        <time>2021-08-28T13:30:42Z</time>
      </trkpt>
      <trkpt lat="46.55186" lon="5.53709">
        <ele>545</ele>
        <time>2021-08-28T13:30:47Z</time>
      </trkpt>
      <trkpt lat="46.55193" lon="5.53712">
        <ele>545.6</ele>
        <time>2021-08-28T13:30:50Z</time>
      </trkpt>
      <trkpt lat="46.55204" lon="5.53718">
        <ele>546.4</ele>
        <time>2021-08-28T13:30:54Z</time>
      </trkpt>
      <trkpt lat="46.55207" lon="5.5372">
        <ele>546.6</ele>
        <time>2021-08-28T13:30:55Z</time>
      </trkpt>
      <trkpt lat="46.55223" lon="5.53728">
        <ele>548</ele>
        <time>2021-08-28T13:31:00Z</time>
      </trkpt>
      <trkpt lat="46.55242" lon="5.53738">
        <ele>549</ele>
        <time>2021-08-28T13:31:06Z</time>
      </trkpt>
      <trkpt lat="46.55249" lon="5.53741">
        <ele>549.4</ele>
        <time>2021-08-28T13:31:08Z</time>
      </trkpt>
      <trkpt lat="46.55257" lon="5.53746">
        <ele>550</ele>
        <time>2021-08-28T13:31:11Z</time>
      </trkpt>
      <trkpt lat="46.55266" lon="5.53751">
        <ele>551.2</ele>
        <time>2021-08-28T13:31:14Z</time>
      </trkpt>
      <trkpt lat="46.55277" lon="5.53759">
        <ele>552.2</ele>
        <time>2021-08-28T13:31:18Z</time>
      </trkpt>
      <trkpt lat="46.55292" lon="5.53769">
        <ele>553.6</ele>
        <time>2021-08-28T13:31:24Z</time>
      </trkpt>
      <trkpt lat="46.55298" lon="5.53774">
        <ele>554.6</ele>
        <time>2021-08-28T13:31:27Z</time>
      </trkpt>
      <trkpt lat="46.55303" lon="5.53777">
        <ele>555</ele>
        <time>2021-08-28T13:31:29Z</time>
      </trkpt>
      <trkpt lat="46.55312" lon="5.53785">
        <ele>555.6</ele>
        <time>2021-08-28T13:31:33Z</time>
      </trkpt>
      <trkpt lat="46.55319" lon="5.53791">
        <ele>556.8</ele>
        <time>2021-08-28T13:31:36Z</time>
      </trkpt>
      <trkpt lat="46.55329" lon="5.538">
        <ele>558</ele>
        <time>2021-08-28T13:31:41Z</time>
      </trkpt>
      <trkpt lat="46.55334" lon="5.53804">
        <ele>558.4</ele>
        <time>2021-08-28T13:31:43Z</time>
      </trkpt>
      <trkpt lat="46.55338" lon="5.53807">
        <ele>559.2</ele>
        <time>2021-08-28T13:31:45Z</time>
      </trkpt>
      <trkpt lat="46.55348" lon="5.53813">
        <ele>560.2</ele>
        <time>2021-08-28T13:31:49Z</time>
      </trkpt>
      <trkpt lat="46.55353" lon="5.53816">
        <ele>560.8</ele>
        <time>2021-08-28T13:31:51Z</time>
      </trkpt>
      <trkpt lat="46.5536" lon="5.53818">
        <ele>561.4</ele>
        <time>2021-08-28T13:31:54Z</time>
      </trkpt>
      <trkpt lat="46.5537" lon="5.53823">
        <ele>562.6</ele>
        <time>2021-08-28T13:31:58Z</time>
      </trkpt>
      <trkpt lat="46.55379" lon="5.53829">
        <ele>564</ele>
        <time>2021-08-28T13:32:03Z</time>
      </trkpt>
      <trkpt lat="46.55381" lon="5.53831">
        <ele>564.6</ele>
        <time>2021-08-28T13:32:04Z</time>
      </trkpt>
      <trkpt lat="46.55384" lon="5.53834">
        <ele>565</ele>
        <time>2021-08-28T13:32:06Z</time>
      </trkpt>
      <trkpt lat="46.55393" lon="5.53839">
        <ele>566</ele>
        <time>2021-08-28T13:32:10Z</time>
      </trkpt>
      <trkpt lat="46.55395" lon="5.53841">
        <ele>566.6</ele>
        <time>2021-08-28T13:32:11Z</time>
      </trkpt>
      <trkpt lat="46.554" lon="5.53843">
        <ele>567.2</ele>
        <time>2021-08-28T13:32:13Z</time>
      </trkpt>
      <trkpt lat="46.55413" lon="5.53851">
        <ele>568.2</ele>
        <time>2021-08-28T13:32:18Z</time>
      </trkpt>
      <trkpt lat="46.55422" lon="5.53859">
        <ele>569.2</ele>
        <time>2021-08-28T13:32:22Z</time>
      </trkpt>
      <trkpt lat="46.5543" lon="5.53864">
        <ele>570</ele>
        <time>2021-08-28T13:32:25Z</time>
      </trkpt>
      <trkpt lat="46.55434" lon="5.53866">
        <ele>570.4</ele>
        <time>2021-08-28T13:32:27Z</time>
      </trkpt>
      <trkpt lat="46.55445" lon="5.53871">
        <ele>571.4</ele>
        <time>2021-08-28T13:32:32Z</time>
      </trkpt>
      <trkpt lat="46.55447" lon="5.53872">
        <ele>571.8</ele>
        <time>2021-08-28T13:32:33Z</time>
      </trkpt>
      <trkpt lat="46.55456" lon="5.53877">
        <ele>572.6</ele>
        <time>2021-08-28T13:32:37Z</time>
      </trkpt>
      <trkpt lat="46.55464" lon="5.53879">
        <ele>572.8</ele>
        <time>2021-08-28T13:32:40Z</time>
      </trkpt>
      <trkpt lat="46.55469" lon="5.53879">
        <ele>573.6</ele>
        <time>2021-08-28T13:32:42Z</time>
      </trkpt>
      <trkpt lat="46.55478" lon="5.53878">
        <ele>574.6</ele>
        <time>2021-08-28T13:32:46Z</time>
      </trkpt>
      <trkpt lat="46.55481" lon="5.53877">
        <ele>574.8</ele>
        <time>2021-08-28T13:32:47Z</time>
      </trkpt>
      <trkpt lat="46.55489" lon="5.53876">
        <ele>575.8</ele>
        <time>2021-08-28T13:32:50Z</time>
      </trkpt>
      <trkpt lat="46.55502" lon="5.53873">
        <ele>577</ele>
        <time>2021-08-28T13:32:55Z</time>
      </trkpt>
      <trkpt lat="46.55507" lon="5.53872">
        <ele>577.2</ele>
        <time>2021-08-28T13:32:57Z</time>
      </trkpt>
      <trkpt lat="46.5552" lon="5.53869">
        <ele>578</ele>
        <time>2021-08-28T13:33:02Z</time>
      </trkpt>
      <trkpt lat="46.55525" lon="5.53868">
        <ele>578.2</ele>
        <time>2021-08-28T13:33:04Z</time>
      </trkpt>
      <trkpt lat="46.55534" lon="5.53866">
        <ele>579.2</ele>
        <time>2021-08-28T13:33:08Z</time>
      </trkpt>
      <trkpt lat="46.55547" lon="5.53863">
        <ele>580.6</ele>
        <time>2021-08-28T13:33:13Z</time>
      </trkpt>
      <trkpt lat="46.55555" lon="5.53862">
        <ele>581.4</ele>
        <time>2021-08-28T13:33:16Z</time>
      </trkpt>
      <trkpt lat="46.5556" lon="5.53861">
        <ele>581.6</ele>
        <time>2021-08-28T13:33:18Z</time>
      </trkpt>
      <trkpt lat="46.55577" lon="5.53859">
        <ele>582.6</ele>
        <time>2021-08-28T13:33:24Z</time>
      </trkpt>
      <trkpt lat="46.55589" lon="5.53859">
        <ele>583.2</ele>
        <time>2021-08-28T13:33:28Z</time>
      </trkpt>
      <trkpt lat="46.55602" lon="5.53861">
        <ele>583.8</ele>
        <time>2021-08-28T13:33:32Z</time>
      </trkpt>
      <trkpt lat="46.55623" lon="5.53865">
        <ele>585</ele>
        <time>2021-08-28T13:33:39Z</time>
      </trkpt>
      <trkpt lat="46.55636" lon="5.53867">
        <ele>586.4</ele>
        <time>2021-08-28T13:33:43Z</time>
      </trkpt>
      <trkpt lat="46.55651" lon="5.53869">
        <ele>587.6</ele>
        <time>2021-08-28T13:33:48Z</time>
      </trkpt>
      <trkpt lat="46.55664" lon="5.53872">
        <ele>588.4</ele>
        <time>2021-08-28T13:33:52Z</time>
      </trkpt>
      <trkpt lat="46.55668" lon="5.53872">
        <ele>589</ele>
        <time>2021-08-28T13:33:53Z</time>
      </trkpt>
      <trkpt lat="46.55693" lon="5.53879">
        <ele>589.8</ele>
        <time>2021-08-28T13:34:00Z</time>
      </trkpt>
      <trkpt lat="46.55697" lon="5.5388">
        <ele>590</ele>
        <time>2021-08-28T13:34:01Z</time>
      </trkpt>
      <trkpt lat="46.55706" lon="5.53882">
        <ele>590.4</ele>
        <time>2021-08-28T13:34:03Z</time>
      </trkpt>
      <trkpt lat="46.55733" lon="5.53888">
        <ele>590.8</ele>
        <time>2021-08-28T13:34:10Z</time>
      </trkpt>
      <trkpt lat="46.55748" lon="5.53892">
        <ele>591.2</ele>
        <time>2021-08-28T13:34:14Z</time>
      </trkpt>
      <trkpt lat="46.55775" lon="5.53898">
        <ele>592.4</ele>
        <time>2021-08-28T13:34:21Z</time>
      </trkpt>
      <trkpt lat="46.55811" lon="5.53904">
        <ele>593.6</ele>
        <time>2021-08-28T13:34:30Z</time>
      </trkpt>
      <trkpt lat="46.5582" lon="5.53907">
        <ele>594.4</ele>
        <time>2021-08-28T13:34:32Z</time>
      </trkpt>
      <trkpt lat="46.55829" lon="5.53909">
        <ele>595</ele>
        <time>2021-08-28T13:34:34Z</time>
      </trkpt>
      <trkpt lat="46.55855" lon="5.53916">
        <ele>595.6</ele>
        <time>2021-08-28T13:34:40Z</time>
      </trkpt>
      <trkpt lat="46.55872" lon="5.53922">
        <ele>596</ele>
        <time>2021-08-28T13:34:44Z</time>
      </trkpt>
      <trkpt lat="46.55894" lon="5.53928">
        <ele>596.4</ele>
        <time>2021-08-28T13:34:49Z</time>
      </trkpt>
      <trkpt lat="46.55908" lon="5.53931">
        <ele>596.8</ele>
        <time>2021-08-28T13:34:52Z</time>
      </trkpt>
      <trkpt lat="46.55919" lon="5.53936">
        <ele>596.8</ele>
        <time>2021-08-28T13:34:55Z</time>
      </trkpt>
      <trkpt lat="46.55929" lon="5.53946">
        <ele>596.8</ele>
        <time>2021-08-28T13:34:59Z</time>
      </trkpt>
      <trkpt lat="46.55938" lon="5.53959">
        <ele>596.6</ele>
        <time>2021-08-28T13:35:03Z</time>
      </trkpt>
      <trkpt lat="46.55953" lon="5.53979">
        <ele>595.8</ele>
        <time>2021-08-28T13:35:08Z</time>
      </trkpt>
      <trkpt lat="46.55957" lon="5.53983">
        <ele>594.6</ele>
        <time>2021-08-28T13:35:11Z</time>
      </trkpt>
      <trkpt lat="46.55957" lon="5.53983">
        <ele>593.8</ele>
        <time>2021-08-28T13:35:12Z</time>
      </trkpt>
      <trkpt lat="46.55957" lon="5.53983">
        <ele>593.6</ele>
        <time>2021-08-28T13:35:13Z</time>
      </trkpt>
      <trkpt lat="46.5596" lon="5.53987">
        <ele>593.2</ele>
        <time>2021-08-28T13:35:39Z</time>
      </trkpt>
      <trkpt lat="46.55967" lon="5.53992">
        <ele>593</ele>
        <time>2021-08-28T13:35:41Z</time>
      </trkpt>
      <trkpt lat="46.55971" lon="5.53995">
        <ele>593</ele>
        <time>2021-08-28T13:35:42Z</time>
      </trkpt>
      <trkpt lat="46.55982" lon="5.54002">
        <ele>592.6</ele>
        <time>2021-08-28T13:35:44Z</time>
      </trkpt>
      <trkpt lat="46.55995" lon="5.54009">
        <ele>592</ele>
        <time>2021-08-28T13:35:46Z</time>
      </trkpt>
      <trkpt lat="46.56009" lon="5.54018">
        <ele>591.4</ele>
        <time>2021-08-28T13:35:48Z</time>
      </trkpt>
      <trkpt lat="46.56016" lon="5.54022">
        <ele>590.6</ele>
        <time>2021-08-28T13:35:49Z</time>
      </trkpt>
      <trkpt lat="46.5603" lon="5.54032">
        <ele>589</ele>
        <time>2021-08-28T13:35:51Z</time>
      </trkpt>
      <trkpt lat="46.56036" lon="5.54038">
        <ele>588.6</ele>
        <time>2021-08-28T13:35:52Z</time>
      </trkpt>
      <trkpt lat="46.56042" lon="5.54044">
        <ele>588.2</ele>
        <time>2021-08-28T13:35:53Z</time>
      </trkpt>
      <trkpt lat="46.56047" lon="5.54051">
        <ele>588</ele>
        <time>2021-08-28T13:35:54Z</time>
      </trkpt>
      <trkpt lat="46.56061" lon="5.54074">
        <ele>587</ele>
        <time>2021-08-28T13:35:57Z</time>
      </trkpt>
      <trkpt lat="46.56069" lon="5.54084">
        <ele>586.6</ele>
        <time>2021-08-28T13:35:58Z</time>
      </trkpt>
      <trkpt lat="46.56091" lon="5.54107">
        <ele>585.6</ele>
        <time>2021-08-28T13:36:01Z</time>
      </trkpt>
      <trkpt lat="46.56097" lon="5.54114">
        <ele>584.2</ele>
        <time>2021-08-28T13:36:02Z</time>
      </trkpt>
      <trkpt lat="46.56103" lon="5.54118">
        <ele>583.2</ele>
        <time>2021-08-28T13:36:03Z</time>
      </trkpt>
      <trkpt lat="46.56107" lon="5.54122">
        <ele>582.8</ele>
        <time>2021-08-28T13:36:04Z</time>
      </trkpt>
      <trkpt lat="46.56116" lon="5.54128">
        <ele>581.6</ele>
        <time>2021-08-28T13:36:06Z</time>
      </trkpt>
      <trkpt lat="46.56123" lon="5.54132">
        <ele>580.8</ele>
        <time>2021-08-28T13:36:08Z</time>
      </trkpt>
      <trkpt lat="46.56126" lon="5.54134">
        <ele>580.4</ele>
        <time>2021-08-28T13:36:09Z</time>
      </trkpt>
      <trkpt lat="46.56128" lon="5.54135">
        <ele>580.2</ele>
        <time>2021-08-28T13:36:10Z</time>
      </trkpt>
      <trkpt lat="46.56129" lon="5.54134">
        <ele>580</ele>
        <time>2021-08-28T13:36:11Z</time>
      </trkpt>
      <trkpt lat="46.56128" lon="5.5413">
        <ele>579.6</ele>
        <time>2021-08-28T13:36:13Z</time>
      </trkpt>
      <trkpt lat="46.56127" lon="5.5413">
        <ele>579</ele>
        <time>2021-08-28T13:36:14Z</time>
      </trkpt>
      <trkpt lat="46.56115" lon="5.54124">
        <ele>578.2</ele>
        <time>2021-08-28T13:36:21Z</time>
      </trkpt>
      <trkpt lat="46.56101" lon="5.54113">
        <ele>578.2</ele>
        <time>2021-08-28T13:36:25Z</time>
      </trkpt>
      <trkpt lat="46.5608" lon="5.54094">
        <ele>579.2</ele>
        <time>2021-08-28T13:36:30Z</time>
      </trkpt>
      <trkpt lat="46.56069" lon="5.54081">
        <ele>580.4</ele>
        <time>2021-08-28T13:36:33Z</time>
      </trkpt>
      <trkpt lat="46.56059" lon="5.54068">
        <ele>581.2</ele>
        <time>2021-08-28T13:36:36Z</time>
      </trkpt>
      <trkpt lat="46.56057" lon="5.54063">
        <ele>582</ele>
        <time>2021-08-28T13:36:37Z</time>
      </trkpt>
      <trkpt lat="46.56046" lon="5.54047">
        <ele>582.8</ele>
        <time>2021-08-28T13:36:41Z</time>
      </trkpt>
      <trkpt lat="46.56043" lon="5.54044">
        <ele>583.2</ele>
        <time>2021-08-28T13:36:42Z</time>
      </trkpt>
      <trkpt lat="46.5603" lon="5.54031">
        <ele>584.8</ele>
        <time>2021-08-28T13:36:46Z</time>
      </trkpt>
      <trkpt lat="46.56026" lon="5.54029">
        <ele>585</ele>
        <time>2021-08-28T13:36:47Z</time>
      </trkpt>
      <trkpt lat="46.56013" lon="5.5402">
        <ele>585.8</ele>
        <time>2021-08-28T13:36:50Z</time>
      </trkpt>
      <trkpt lat="46.55993" lon="5.54009">
        <ele>586.6</ele>
        <time>2021-08-28T13:36:55Z</time>
      </trkpt>
      <trkpt lat="46.55989" lon="5.54007">
        <ele>586.8</ele>
        <time>2021-08-28T13:36:56Z</time>
      </trkpt>
      <trkpt lat="46.55976" lon="5.53997">
        <ele>588</ele>
        <time>2021-08-28T13:37:00Z</time>
      </trkpt>
      <trkpt lat="46.55963" lon="5.53988">
        <ele>589.4</ele>
        <time>2021-08-28T13:37:05Z</time>
      </trkpt>
      <trkpt lat="46.55961" lon="5.53986">
        <ele>589.6</ele>
        <time>2021-08-28T13:37:06Z</time>
      </trkpt>
      <trkpt lat="46.55959" lon="5.53985">
        <ele>590.4</ele>
        <time>2021-08-28T13:37:08Z</time>
      </trkpt>
      <trkpt lat="46.55959" lon="5.53985">
        <ele>591</ele>
        <time>2021-08-28T13:37:10Z</time>
      </trkpt>
      <trkpt lat="46.55964" lon="5.5399">
        <ele>592.8</ele>
        <time>2021-08-28T13:41:06Z</time>
      </trkpt>
      <trkpt lat="46.55969" lon="5.53994">
        <ele>592.8</ele>
        <time>2021-08-28T13:41:08Z</time>
      </trkpt>
      <trkpt lat="46.55982" lon="5.54004">
        <ele>592.6</ele>
        <time>2021-08-28T13:41:11Z</time>
      </trkpt>
      <trkpt lat="46.55987" lon="5.54007">
        <ele>592.6</ele>
        <time>2021-08-28T13:41:12Z</time>
      </trkpt>
      <trkpt lat="46.56007" lon="5.54018">
        <ele>591.8</ele>
        <time>2021-08-28T13:41:15Z</time>
      </trkpt>
      <trkpt lat="46.56022" lon="5.54027">
        <ele>590.6</ele>
        <time>2021-08-28T13:41:17Z</time>
      </trkpt>
      <trkpt lat="46.56036" lon="5.54037">
        <ele>589.2</ele>
        <time>2021-08-28T13:41:19Z</time>
      </trkpt>
      <trkpt lat="46.56049" lon="5.54052">
        <ele>588.4</ele>
        <time>2021-08-28T13:41:21Z</time>
      </trkpt>
      <trkpt lat="46.56054" lon="5.54061">
        <ele>588</ele>
        <time>2021-08-28T13:41:22Z</time>
      </trkpt>
      <trkpt lat="46.56066" lon="5.5408">
        <ele>587.2</ele>
        <time>2021-08-28T13:41:24Z</time>
      </trkpt>
      <trkpt lat="46.56073" lon="5.54089">
        <ele>586.8</ele>
        <time>2021-08-28T13:41:25Z</time>
      </trkpt>
      <trkpt lat="46.56083" lon="5.54099">
        <ele>586.4</ele>
        <time>2021-08-28T13:41:26Z</time>
      </trkpt>
      <trkpt lat="46.56098" lon="5.54114">
        <ele>585.8</ele>
        <time>2021-08-28T13:41:28Z</time>
      </trkpt>
      <trkpt lat="46.56117" lon="5.54129">
        <ele>584.4</ele>
        <time>2021-08-28T13:41:30Z</time>
      </trkpt>
      <trkpt lat="46.56128" lon="5.54138">
        <ele>582.6</ele>
        <time>2021-08-28T13:41:31Z</time>
      </trkpt>
      <trkpt lat="46.56136" lon="5.54145">
        <ele>582</ele>
        <time>2021-08-28T13:41:32Z</time>
      </trkpt>
      <trkpt lat="46.56143" lon="5.54157">
        <ele>580.8</ele>
        <time>2021-08-28T13:41:33Z</time>
      </trkpt>
      <trkpt lat="46.56149" lon="5.5417">
        <ele>579.4</ele>
        <time>2021-08-28T13:41:34Z</time>
      </trkpt>
      <trkpt lat="46.56159" lon="5.54198">
        <ele>578.4</ele>
        <time>2021-08-28T13:41:36Z</time>
      </trkpt>
      <trkpt lat="46.56171" lon="5.54216">
        <ele>578</ele>
        <time>2021-08-28T13:41:38Z</time>
      </trkpt>
      <trkpt lat="46.56186" lon="5.54227">
        <ele>578</ele>
        <time>2021-08-28T13:41:40Z</time>
      </trkpt>
      <trkpt lat="46.56194" lon="5.54229">
        <ele>578</ele>
        <time>2021-08-28T13:41:41Z</time>
      </trkpt>
      <trkpt lat="46.56238" lon="5.5424">
        <ele>579</ele>
        <time>2021-08-28T13:41:47Z</time>
      </trkpt>
      <trkpt lat="46.56245" lon="5.5424">
        <ele>579.2</ele>
        <time>2021-08-28T13:41:48Z</time>
      </trkpt>
      <trkpt lat="46.5626" lon="5.54238">
        <ele>579.6</ele>
        <time>2021-08-28T13:41:50Z</time>
      </trkpt>
      <trkpt lat="46.56267" lon="5.54238">
        <ele>579.6</ele>
        <time>2021-08-28T13:41:51Z</time>
      </trkpt>
      <trkpt lat="46.56281" lon="5.54239">
        <ele>579.8</ele>
        <time>2021-08-28T13:41:53Z</time>
      </trkpt>
      <trkpt lat="46.56294" lon="5.54243">
        <ele>580</ele>
        <time>2021-08-28T13:41:55Z</time>
      </trkpt>
      <trkpt lat="46.56307" lon="5.5425">
        <ele>580.2</ele>
        <time>2021-08-28T13:41:57Z</time>
      </trkpt>
      <trkpt lat="46.56336" lon="5.54269">
        <ele>580.6</ele>
        <time>2021-08-28T13:42:02Z</time>
      </trkpt>
      <trkpt lat="46.56352" lon="5.5428">
        <ele>580.8</ele>
        <time>2021-08-28T13:42:05Z</time>
      </trkpt>
      <trkpt lat="46.56363" lon="5.54286">
        <ele>581</ele>
        <time>2021-08-28T13:42:07Z</time>
      </trkpt>
      <trkpt lat="46.56384" lon="5.54292">
        <ele>581.6</ele>
        <time>2021-08-28T13:42:11Z</time>
      </trkpt>
      <trkpt lat="46.56394" lon="5.54295">
        <ele>581.8</ele>
        <time>2021-08-28T13:42:13Z</time>
      </trkpt>
      <trkpt lat="46.56407" lon="5.54301">
        <ele>582.4</ele>
        <time>2021-08-28T13:42:16Z</time>
      </trkpt>
      <trkpt lat="46.56412" lon="5.54303">
        <ele>582.8</ele>
        <time>2021-08-28T13:42:17Z</time>
      </trkpt>
      <trkpt lat="46.5642" lon="5.54308">
        <ele>583.4</ele>
        <time>2021-08-28T13:42:19Z</time>
      </trkpt>
      <trkpt lat="46.56431" lon="5.54315">
        <ele>584</ele>
        <time>2021-08-28T13:42:22Z</time>
      </trkpt>
      <trkpt lat="46.56455" lon="5.5434">
        <ele>584.8</ele>
        <time>2021-08-28T13:42:29Z</time>
      </trkpt>
      <trkpt lat="46.5646" lon="5.54348">
        <ele>585.2</ele>
        <time>2021-08-28T13:42:31Z</time>
      </trkpt>
      <trkpt lat="46.56473" lon="5.54371">
        <ele>586.2</ele>
        <time>2021-08-28T13:42:36Z</time>
      </trkpt>
      <trkpt lat="46.56483" lon="5.54399">
        <ele>587</ele>
        <time>2021-08-28T13:42:41Z</time>
      </trkpt>
      <trkpt lat="46.56489" lon="5.5441">
        <ele>587.2</ele>
        <time>2021-08-28T13:42:43Z</time>
      </trkpt>
      <trkpt lat="46.56511" lon="5.54432">
        <ele>587.2</ele>
        <time>2021-08-28T13:42:48Z</time>
      </trkpt>
      <trkpt lat="46.56544" lon="5.54462">
        <ele>587.2</ele>
        <time>2021-08-28T13:42:55Z</time>
      </trkpt>
      <trkpt lat="46.56553" lon="5.54469">
        <ele>587.2</ele>
        <time>2021-08-28T13:42:57Z</time>
      </trkpt>
      <trkpt lat="46.56568" lon="5.5448">
        <ele>587.2</ele>
        <time>2021-08-28T13:43:01Z</time>
      </trkpt>
      <trkpt lat="46.56573" lon="5.54484">
        <ele>587</ele>
        <time>2021-08-28T13:43:04Z</time>
      </trkpt>
      <trkpt lat="46.56573" lon="5.54484">
        <ele>587</ele>
        <time>2021-08-28T13:43:06Z</time>
      </trkpt>
      <trkpt lat="46.56575" lon="5.54485">
        <ele>586.4</ele>
        <time>2021-08-28T13:43:26Z</time>
      </trkpt>
      <trkpt lat="46.56578" lon="5.54486">
        <ele>586.4</ele>
        <time>2021-08-28T13:43:27Z</time>
      </trkpt>
      <trkpt lat="46.56595" lon="5.54494">
        <ele>586.2</ele>
        <time>2021-08-28T13:43:31Z</time>
      </trkpt>
      <trkpt lat="46.56599" lon="5.54496">
        <ele>586.2</ele>
        <time>2021-08-28T13:43:32Z</time>
      </trkpt>
      <trkpt lat="46.56611" lon="5.54499">
        <ele>586</ele>
        <time>2021-08-28T13:43:34Z</time>
      </trkpt>
      <trkpt lat="46.56624" lon="5.54503">
        <ele>585.6</ele>
        <time>2021-08-28T13:43:36Z</time>
      </trkpt>
      <trkpt lat="46.56643" lon="5.54508">
        <ele>585</ele>
        <time>2021-08-28T13:43:39Z</time>
      </trkpt>
      <trkpt lat="46.56664" lon="5.54517">
        <ele>584.2</ele>
        <time>2021-08-28T13:43:42Z</time>
      </trkpt>
      <trkpt lat="46.56673" lon="5.54521">
        <ele>583.4</ele>
        <time>2021-08-28T13:43:43Z</time>
      </trkpt>
      <trkpt lat="46.56702" lon="5.54539">
        <ele>582.4</ele>
        <time>2021-08-28T13:43:47Z</time>
      </trkpt>
      <trkpt lat="46.5671" lon="5.54544">
        <ele>581.8</ele>
        <time>2021-08-28T13:43:48Z</time>
      </trkpt>
      <trkpt lat="46.56727" lon="5.54553">
        <ele>580.6</ele>
        <time>2021-08-28T13:43:50Z</time>
      </trkpt>
      <trkpt lat="46.56758" lon="5.54564">
        <ele>578.8</ele>
        <time>2021-08-28T13:43:53Z</time>
      </trkpt>
      <trkpt lat="46.56779" lon="5.5457">
        <ele>577.2</ele>
        <time>2021-08-28T13:43:55Z</time>
      </trkpt>
      <trkpt lat="46.56799" lon="5.54577">
        <ele>576.2</ele>
        <time>2021-08-28T13:43:57Z</time>
      </trkpt>
      <trkpt lat="46.56813" lon="5.54581">
        <ele>575.6</ele>
        <time>2021-08-28T13:43:58Z</time>
      </trkpt>
      <trkpt lat="46.56824" lon="5.54585">
        <ele>575.2</ele>
        <time>2021-08-28T13:43:59Z</time>
      </trkpt>
      <trkpt lat="46.56835" lon="5.54589">
        <ele>574.4</ele>
        <time>2021-08-28T13:44:00Z</time>
      </trkpt>
      <trkpt lat="46.56854" lon="5.546">
        <ele>572.6</ele>
        <time>2021-08-28T13:44:02Z</time>
      </trkpt>
      <trkpt lat="46.56865" lon="5.54609">
        <ele>572.2</ele>
        <time>2021-08-28T13:44:03Z</time>
      </trkpt>
      <trkpt lat="46.56877" lon="5.54619">
        <ele>571</ele>
        <time>2021-08-28T13:44:04Z</time>
      </trkpt>
      <trkpt lat="46.56884" lon="5.54626">
        <ele>569.6</ele>
        <time>2021-08-28T13:44:05Z</time>
      </trkpt>
      <trkpt lat="46.56905" lon="5.54643">
        <ele>567</ele>
        <time>2021-08-28T13:44:07Z</time>
      </trkpt>
      <trkpt lat="46.56916" lon="5.5465">
        <ele>566.4</ele>
        <time>2021-08-28T13:44:08Z</time>
      </trkpt>
      <trkpt lat="46.56928" lon="5.54658">
        <ele>565.2</ele>
        <time>2021-08-28T13:44:09Z</time>
      </trkpt>
      <trkpt lat="46.56952" lon="5.54671">
        <ele>563.8</ele>
        <time>2021-08-28T13:44:11Z</time>
      </trkpt>
      <trkpt lat="46.56965" lon="5.54677">
        <ele>563.4</ele>
        <time>2021-08-28T13:44:12Z</time>
      </trkpt>
      <trkpt lat="46.56977" lon="5.54683">
        <ele>562.2</ele>
        <time>2021-08-28T13:44:13Z</time>
      </trkpt>
      <trkpt lat="46.56991" lon="5.54688">
        <ele>561</ele>
        <time>2021-08-28T13:44:14Z</time>
      </trkpt>
      <trkpt lat="46.57004" lon="5.54693">
        <ele>559.8</ele>
        <time>2021-08-28T13:44:15Z</time>
      </trkpt>
      <trkpt lat="46.57017" lon="5.54699">
        <ele>558</ele>
        <time>2021-08-28T13:44:16Z</time>
      </trkpt>
      <trkpt lat="46.57045" lon="5.54711">
        <ele>555.4</ele>
        <time>2021-08-28T13:44:18Z</time>
      </trkpt>
      <trkpt lat="46.57074" lon="5.54724">
        <ele>552.8</ele>
        <time>2021-08-28T13:44:20Z</time>
      </trkpt>
      <trkpt lat="46.57088" lon="5.54731">
        <ele>551</ele>
        <time>2021-08-28T13:44:21Z</time>
      </trkpt>
      <trkpt lat="46.57101" lon="5.54736">
        <ele>550.2</ele>
        <time>2021-08-28T13:44:22Z</time>
      </trkpt>
      <trkpt lat="46.57115" lon="5.54741">
        <ele>547.6</ele>
        <time>2021-08-28T13:44:23Z</time>
      </trkpt>
      <trkpt lat="46.57144" lon="5.54747">
        <ele>543.8</ele>
        <time>2021-08-28T13:44:25Z</time>
      </trkpt>
      <trkpt lat="46.57155" lon="5.54748">
        <ele>542.8</ele>
        <time>2021-08-28T13:44:26Z</time>
      </trkpt>
      <trkpt lat="46.57168" lon="5.54747">
        <ele>541.2</ele>
        <time>2021-08-28T13:44:27Z</time>
      </trkpt>
      <trkpt lat="46.57181" lon="5.54746">
        <ele>540.2</ele>
        <time>2021-08-28T13:44:28Z</time>
      </trkpt>
      <trkpt lat="46.57207" lon="5.54742">
        <ele>539</ele>
        <time>2021-08-28T13:44:30Z</time>
      </trkpt>
      <trkpt lat="46.57219" lon="5.5474">
        <ele>538.6</ele>
        <time>2021-08-28T13:44:31Z</time>
      </trkpt>
      <trkpt lat="46.57232" lon="5.54739">
        <ele>537.6</ele>
        <time>2021-08-28T13:44:32Z</time>
      </trkpt>
      <trkpt lat="46.57272" lon="5.54741">
        <ele>535.8</ele>
        <time>2021-08-28T13:44:35Z</time>
      </trkpt>
      <trkpt lat="46.57295" lon="5.54745">
        <ele>534</ele>
        <time>2021-08-28T13:44:37Z</time>
      </trkpt>
      <trkpt lat="46.57319" lon="5.54753">
        <ele>532.2</ele>
        <time>2021-08-28T13:44:39Z</time>
      </trkpt>
      <trkpt lat="46.57332" lon="5.54761">
        <ele>532</ele>
        <time>2021-08-28T13:44:40Z</time>
      </trkpt>
      <trkpt lat="46.57352" lon="5.54775">
        <ele>530</ele>
        <time>2021-08-28T13:44:42Z</time>
      </trkpt>
      <trkpt lat="46.57373" lon="5.5479">
        <ele>528.4</ele>
        <time>2021-08-28T13:44:44Z</time>
      </trkpt>
      <trkpt lat="46.57384" lon="5.54797">
        <ele>527.8</ele>
        <time>2021-08-28T13:44:45Z</time>
      </trkpt>
      <trkpt lat="46.57395" lon="5.54802">
        <ele>527</ele>
        <time>2021-08-28T13:44:46Z</time>
      </trkpt>
      <trkpt lat="46.5742" lon="5.54811">
        <ele>526</ele>
        <time>2021-08-28T13:44:48Z</time>
      </trkpt>
      <trkpt lat="46.57429" lon="5.54814">
        <ele>525.6</ele>
        <time>2021-08-28T13:44:49Z</time>
      </trkpt>
      <trkpt lat="46.57451" lon="5.54822">
        <ele>524</ele>
        <time>2021-08-28T13:44:51Z</time>
      </trkpt>
      <trkpt lat="46.57484" lon="5.5484">
        <ele>522.6</ele>
        <time>2021-08-28T13:44:54Z</time>
      </trkpt>
      <trkpt lat="46.575" lon="5.54855">
        <ele>521.4</ele>
        <time>2021-08-28T13:44:56Z</time>
      </trkpt>
      <trkpt lat="46.57508" lon="5.54865">
        <ele>520.8</ele>
        <time>2021-08-28T13:44:57Z</time>
      </trkpt>
      <trkpt lat="46.57515" lon="5.54875">
        <ele>520</ele>
        <time>2021-08-28T13:44:58Z</time>
      </trkpt>
      <trkpt lat="46.57531" lon="5.54896">
        <ele>519.4</ele>
        <time>2021-08-28T13:45:00Z</time>
      </trkpt>
      <trkpt lat="46.5754" lon="5.54904">
        <ele>519.2</ele>
        <time>2021-08-28T13:45:01Z</time>
      </trkpt>
      <trkpt lat="46.5755" lon="5.54909">
        <ele>518.2</ele>
        <time>2021-08-28T13:45:02Z</time>
      </trkpt>
      <trkpt lat="46.57561" lon="5.5491">
        <ele>518</ele>
        <time>2021-08-28T13:45:03Z</time>
      </trkpt>
      <trkpt lat="46.57573" lon="5.5491">
        <ele>517.4</ele>
        <time>2021-08-28T13:45:04Z</time>
      </trkpt>
      <trkpt lat="46.57583" lon="5.54908">
        <ele>517</ele>
        <time>2021-08-28T13:45:05Z</time>
      </trkpt>
      <trkpt lat="46.57591" lon="5.54905">
        <ele>516.8</ele>
        <time>2021-08-28T13:45:06Z</time>
      </trkpt>
      <trkpt lat="46.57612" lon="5.54895">
        <ele>516.4</ele>
        <time>2021-08-28T13:45:08Z</time>
      </trkpt>
      <trkpt lat="46.57629" lon="5.54894">
        <ele>515.6</ele>
        <time>2021-08-28T13:45:10Z</time>
      </trkpt>
      <trkpt lat="46.57647" lon="5.54898">
        <ele>514.4</ele>
        <time>2021-08-28T13:45:12Z</time>
      </trkpt>
      <trkpt lat="46.57665" lon="5.54902">
        <ele>513.4</ele>
        <time>2021-08-28T13:45:14Z</time>
      </trkpt>
      <trkpt lat="46.57674" lon="5.54905">
        <ele>513</ele>
        <time>2021-08-28T13:45:15Z</time>
      </trkpt>
      <trkpt lat="46.57701" lon="5.54912">
        <ele>512</ele>
        <time>2021-08-28T13:45:18Z</time>
      </trkpt>
      <trkpt lat="46.57736" lon="5.54924">
        <ele>511.4</ele>
        <time>2021-08-28T13:45:22Z</time>
      </trkpt>
      <trkpt lat="46.5779" lon="5.54939">
        <ele>511</ele>
        <time>2021-08-28T13:45:28Z</time>
      </trkpt>
      <trkpt lat="46.57815" lon="5.54944">
        <ele>511</ele>
        <time>2021-08-28T13:45:31Z</time>
      </trkpt>
      <trkpt lat="46.57833" lon="5.54949">
        <ele>510.8</ele>
        <time>2021-08-28T13:45:33Z</time>
      </trkpt>
      <trkpt lat="46.57884" lon="5.5496">
        <ele>510.2</ele>
        <time>2021-08-28T13:45:39Z</time>
      </trkpt>
      <trkpt lat="46.579" lon="5.54964">
        <ele>509</ele>
        <time>2021-08-28T13:45:41Z</time>
      </trkpt>
      <trkpt lat="46.5793" lon="5.54974">
        <ele>507.6</ele>
        <time>2021-08-28T13:45:44Z</time>
      </trkpt>
      <trkpt lat="46.57939" lon="5.54978">
        <ele>507.4</ele>
        <time>2021-08-28T13:45:45Z</time>
      </trkpt>
      <trkpt lat="46.57949" lon="5.54983">
        <ele>506.4</ele>
        <time>2021-08-28T13:45:46Z</time>
      </trkpt>
      <trkpt lat="46.57975" lon="5.54997">
        <ele>504.8</ele>
        <time>2021-08-28T13:45:49Z</time>
      </trkpt>
      <trkpt lat="46.58004" lon="5.55014">
        <ele>503.4</ele>
        <time>2021-08-28T13:45:52Z</time>
      </trkpt>
      <trkpt lat="46.58023" lon="5.55027">
        <ele>502</ele>
        <time>2021-08-28T13:45:54Z</time>
      </trkpt>
      <trkpt lat="46.5805" lon="5.55041">
        <ele>501</ele>
        <time>2021-08-28T13:45:57Z</time>
      </trkpt>
      <trkpt lat="46.58062" lon="5.55044">
        <ele>500.4</ele>
        <time>2021-08-28T13:45:58Z</time>
      </trkpt>
      <trkpt lat="46.58071" lon="5.55045">
        <ele>500.2</ele>
        <time>2021-08-28T13:45:59Z</time>
      </trkpt>
      <trkpt lat="46.58079" lon="5.55046">
        <ele>499.8</ele>
        <time>2021-08-28T13:46:00Z</time>
      </trkpt>
      <trkpt lat="46.58111" lon="5.5505">
        <ele>498.6</ele>
        <time>2021-08-28T13:46:03Z</time>
      </trkpt>
      <trkpt lat="46.58121" lon="5.55051">
        <ele>498.2</ele>
        <time>2021-08-28T13:46:04Z</time>
      </trkpt>
      <trkpt lat="46.58129" lon="5.55053">
        <ele>497.6</ele>
        <time>2021-08-28T13:46:05Z</time>
      </trkpt>
      <trkpt lat="46.58159" lon="5.55056">
        <ele>496.2</ele>
        <time>2021-08-28T13:46:08Z</time>
      </trkpt>
      <trkpt lat="46.58178" lon="5.55055">
        <ele>494.6</ele>
        <time>2021-08-28T13:46:10Z</time>
      </trkpt>
      <trkpt lat="46.58217" lon="5.55061">
        <ele>493.6</ele>
        <time>2021-08-28T13:46:14Z</time>
      </trkpt>
      <trkpt lat="46.58227" lon="5.55063">
        <ele>493.2</ele>
        <time>2021-08-28T13:46:15Z</time>
      </trkpt>
      <trkpt lat="46.58256" lon="5.55068">
        <ele>492.4</ele>
        <time>2021-08-28T13:46:18Z</time>
      </trkpt>
      <trkpt lat="46.58285" lon="5.5507">
        <ele>491.6</ele>
        <time>2021-08-28T13:46:21Z</time>
      </trkpt>
      <trkpt lat="46.58296" lon="5.55071">
        <ele>491.4</ele>
        <time>2021-08-28T13:46:22Z</time>
      </trkpt>
      <trkpt lat="46.58344" lon="5.55074">
        <ele>490.2</ele>
        <time>2021-08-28T13:46:27Z</time>
      </trkpt>
      <trkpt lat="46.58352" lon="5.55074">
        <ele>489.8</ele>
        <time>2021-08-28T13:46:28Z</time>
      </trkpt>
      <trkpt lat="46.58371" lon="5.55075">
        <ele>489</ele>
        <time>2021-08-28T13:46:30Z</time>
      </trkpt>
      <trkpt lat="46.58407" lon="5.55075">
        <ele>488</ele>
        <time>2021-08-28T13:46:34Z</time>
      </trkpt>
      <trkpt lat="46.58416" lon="5.55075">
        <ele>487.8</ele>
        <time>2021-08-28T13:46:35Z</time>
      </trkpt>
      <trkpt lat="46.58443" lon="5.55068">
        <ele>487.2</ele>
        <time>2021-08-28T13:46:38Z</time>
      </trkpt>
      <trkpt lat="46.5849" lon="5.55047">
        <ele>486.4</ele>
        <time>2021-08-28T13:46:44Z</time>
      </trkpt>
      <trkpt lat="46.58522" lon="5.55025">
        <ele>486</ele>
        <time>2021-08-28T13:46:49Z</time>
      </trkpt>
      <trkpt lat="46.58548" lon="5.54994">
        <ele>485.6</ele>
        <time>2021-08-28T13:46:54Z</time>
      </trkpt>
      <trkpt lat="46.58553" lon="5.54985">
        <ele>485.6</ele>
        <time>2021-08-28T13:46:55Z</time>
      </trkpt>
      <trkpt lat="46.58563" lon="5.54963">
        <ele>485.6</ele>
        <time>2021-08-28T13:46:59Z</time>
      </trkpt>
      <trkpt lat="46.58567" lon="5.54949">
        <ele>485.6</ele>
        <time>2021-08-28T13:47:01Z</time>
      </trkpt>
      <trkpt lat="46.58569" lon="5.54941">
        <ele>485.4</ele>
        <time>2021-08-28T13:47:02Z</time>
      </trkpt>
      <trkpt lat="46.58571" lon="5.54933">
        <ele>485.2</ele>
        <time>2021-08-28T13:47:03Z</time>
      </trkpt>
      <trkpt lat="46.58572" lon="5.54924">
        <ele>485</ele>
        <time>2021-08-28T13:47:04Z</time>
      </trkpt>
      <trkpt lat="46.58576" lon="5.54887">
        <ele>484.4</ele>
        <time>2021-08-28T13:47:08Z</time>
      </trkpt>
      <trkpt lat="46.58578" lon="5.54877">
        <ele>484</ele>
        <time>2021-08-28T13:47:09Z</time>
      </trkpt>
      <trkpt lat="46.58588" lon="5.5485">
        <ele>483.2</ele>
        <time>2021-08-28T13:47:12Z</time>
      </trkpt>
      <trkpt lat="46.58596" lon="5.54831">
        <ele>482</ele>
        <time>2021-08-28T13:47:14Z</time>
      </trkpt>
      <trkpt lat="46.58607" lon="5.54802">
        <ele>481</ele>
        <time>2021-08-28T13:47:17Z</time>
      </trkpt>
      <trkpt lat="46.58615" lon="5.54782">
        <ele>480</ele>
        <time>2021-08-28T13:47:19Z</time>
      </trkpt>
      <trkpt lat="46.5862" lon="5.54773">
        <ele>479.6</ele>
        <time>2021-08-28T13:47:20Z</time>
      </trkpt>
      <trkpt lat="46.58629" lon="5.54755">
        <ele>478.6</ele>
        <time>2021-08-28T13:47:22Z</time>
      </trkpt>
      <trkpt lat="46.5864" lon="5.54726">
        <ele>477.6</ele>
        <time>2021-08-28T13:47:25Z</time>
      </trkpt>
      <trkpt lat="46.58663" lon="5.54659">
        <ele>476.4</ele>
        <time>2021-08-28T13:47:31Z</time>
      </trkpt>
      <trkpt lat="46.58671" lon="5.54637">
        <ele>475.8</ele>
        <time>2021-08-28T13:47:33Z</time>
      </trkpt>
      <trkpt lat="46.58684" lon="5.54604">
        <ele>475.4</ele>
        <time>2021-08-28T13:47:36Z</time>
      </trkpt>
      <trkpt lat="46.587" lon="5.54571">
        <ele>475.2</ele>
        <time>2021-08-28T13:47:39Z</time>
      </trkpt>
      <trkpt lat="46.58708" lon="5.54548">
        <ele>474.2</ele>
        <time>2021-08-28T13:47:41Z</time>
      </trkpt>
      <trkpt lat="46.58718" lon="5.54511">
        <ele>472.8</ele>
        <time>2021-08-28T13:47:44Z</time>
      </trkpt>
      <trkpt lat="46.58731" lon="5.5446">
        <ele>471.6</ele>
        <time>2021-08-28T13:47:48Z</time>
      </trkpt>
      <trkpt lat="46.58738" lon="5.54434">
        <ele>470.4</ele>
        <time>2021-08-28T13:47:50Z</time>
      </trkpt>
      <trkpt lat="46.58746" lon="5.54407">
        <ele>469.2</ele>
        <time>2021-08-28T13:47:52Z</time>
      </trkpt>
      <trkpt lat="46.58761" lon="5.54355">
        <ele>468</ele>
        <time>2021-08-28T13:47:56Z</time>
      </trkpt>
      <trkpt lat="46.58772" lon="5.54316">
        <ele>466.8</ele>
        <time>2021-08-28T13:47:59Z</time>
      </trkpt>
      <trkpt lat="46.58776" lon="5.54303">
        <ele>465.8</ele>
        <time>2021-08-28T13:48:00Z</time>
      </trkpt>
      <trkpt lat="46.58787" lon="5.54264">
        <ele>464.4</ele>
        <time>2021-08-28T13:48:03Z</time>
      </trkpt>
      <trkpt lat="46.58796" lon="5.54225">
        <ele>464</ele>
        <time>2021-08-28T13:48:06Z</time>
      </trkpt>
      <trkpt lat="46.58809" lon="5.54144">
        <ele>463.6</ele>
        <time>2021-08-28T13:48:12Z</time>
      </trkpt>
      <trkpt lat="46.58813" lon="5.5412">
        <ele>463.6</ele>
        <time>2021-08-28T13:48:14Z</time>
      </trkpt>
      <trkpt lat="46.58825" lon="5.54055">
        <ele>464</ele>
        <time>2021-08-28T13:48:20Z</time>
      </trkpt>
      <trkpt lat="46.58837" lon="5.54007">
        <ele>465.6</ele>
        <time>2021-08-28T13:48:25Z</time>
      </trkpt>
      <trkpt lat="46.58853" lon="5.53956">
        <ele>466.6</ele>
        <time>2021-08-28T13:48:30Z</time>
      </trkpt>
      <trkpt lat="46.5887" lon="5.539">
        <ele>467.4</ele>
        <time>2021-08-28T13:48:36Z</time>
      </trkpt>
      <trkpt lat="46.58875" lon="5.53882">
        <ele>467.6</ele>
        <time>2021-08-28T13:48:38Z</time>
      </trkpt>
      <trkpt lat="46.58885" lon="5.53849">
        <ele>468.2</ele>
        <time>2021-08-28T13:48:42Z</time>
      </trkpt>
      <trkpt lat="46.58895" lon="5.53818">
        <ele>469</ele>
        <time>2021-08-28T13:48:46Z</time>
      </trkpt>
      <trkpt lat="46.58902" lon="5.53796">
        <ele>470.2</ele>
        <time>2021-08-28T13:48:49Z</time>
      </trkpt>
      <trkpt lat="46.58915" lon="5.5375">
        <ele>471.4</ele>
        <time>2021-08-28T13:48:56Z</time>
      </trkpt>
      <trkpt lat="46.58917" lon="5.53744">
        <ele>471.4</ele>
        <time>2021-08-28T13:48:57Z</time>
      </trkpt>
      <trkpt lat="46.5892" lon="5.53733">
        <ele>472.4</ele>
        <time>2021-08-28T13:48:59Z</time>
      </trkpt>
      <trkpt lat="46.58927" lon="5.53711">
        <ele>473.4</ele>
        <time>2021-08-28T13:49:03Z</time>
      </trkpt>
      <trkpt lat="46.58931" lon="5.537">
        <ele>474.2</ele>
        <time>2021-08-28T13:49:05Z</time>
      </trkpt>
      <trkpt lat="46.58934" lon="5.5369">
        <ele>474.6</ele>
        <time>2021-08-28T13:49:07Z</time>
      </trkpt>
      <trkpt lat="46.58941" lon="5.5367">
        <ele>475.8</ele>
        <time>2021-08-28T13:49:11Z</time>
      </trkpt>
      <trkpt lat="46.58942" lon="5.53665">
        <ele>476.2</ele>
        <time>2021-08-28T13:49:12Z</time>
      </trkpt>
      <trkpt lat="46.58945" lon="5.53654">
        <ele>477</ele>
        <time>2021-08-28T13:49:14Z</time>
      </trkpt>
      <trkpt lat="46.58948" lon="5.53639">
        <ele>478</ele>
        <time>2021-08-28T13:49:17Z</time>
      </trkpt>
      <trkpt lat="46.58953" lon="5.53619">
        <ele>479.2</ele>
        <time>2021-08-28T13:49:21Z</time>
      </trkpt>
      <trkpt lat="46.58957" lon="5.53604">
        <ele>480.2</ele>
        <time>2021-08-28T13:49:24Z</time>
      </trkpt>
      <trkpt lat="46.58961" lon="5.53581">
        <ele>481.2</ele>
        <time>2021-08-28T13:49:28Z</time>
      </trkpt>
      <trkpt lat="46.58962" lon="5.53576">
        <ele>481.4</ele>
        <time>2021-08-28T13:49:29Z</time>
      </trkpt>
      <trkpt lat="46.58966" lon="5.53559">
        <ele>482.4</ele>
        <time>2021-08-28T13:49:32Z</time>
      </trkpt>
      <trkpt lat="46.58973" lon="5.53531">
        <ele>483.2</ele>
        <time>2021-08-28T13:49:37Z</time>
      </trkpt>
      <trkpt lat="46.58978" lon="5.53516">
        <ele>483.4</ele>
        <time>2021-08-28T13:49:40Z</time>
      </trkpt>
      <trkpt lat="46.58993" lon="5.53487">
        <ele>484.2</ele>
        <time>2021-08-28T13:49:46Z</time>
      </trkpt>
      <trkpt lat="46.58998" lon="5.53477">
        <ele>484.6</ele>
        <time>2021-08-28T13:49:48Z</time>
      </trkpt>
      <trkpt lat="46.59015" lon="5.53457">
        <ele>485.6</ele>
        <time>2021-08-28T13:49:53Z</time>
      </trkpt>
      <trkpt lat="46.59018" lon="5.53453">
        <ele>485.8</ele>
        <time>2021-08-28T13:49:54Z</time>
      </trkpt>
      <trkpt lat="46.59044" lon="5.53427">
        <ele>486.6</ele>
        <time>2021-08-28T13:50:01Z</time>
      </trkpt>
      <trkpt lat="46.59065" lon="5.53402">
        <ele>486.6</ele>
        <time>2021-08-28T13:50:07Z</time>
      </trkpt>
      <trkpt lat="46.59075" lon="5.53389">
        <ele>486.8</ele>
        <time>2021-08-28T13:50:10Z</time>
      </trkpt>
      <trkpt lat="46.59091" lon="5.53375">
        <ele>487</ele>
        <time>2021-08-28T13:50:14Z</time>
      </trkpt>
      <trkpt lat="46.59099" lon="5.53372">
        <ele>487.2</ele>
        <time>2021-08-28T13:50:16Z</time>
      </trkpt>
      <trkpt lat="46.59108" lon="5.53376">
        <ele>487.4</ele>
        <time>2021-08-28T13:50:18Z</time>
      </trkpt>
      <trkpt lat="46.59115" lon="5.53382">
        <ele>487.6</ele>
        <time>2021-08-28T13:50:20Z</time>
      </trkpt>
      <trkpt lat="46.59119" lon="5.53385">
        <ele>488.4</ele>
        <time>2021-08-28T13:50:21Z</time>
      </trkpt>
      <trkpt lat="46.59134" lon="5.53397">
        <ele>489.8</ele>
        <time>2021-08-28T13:50:25Z</time>
      </trkpt>
      <trkpt lat="46.59154" lon="5.53413">
        <ele>490.4</ele>
        <time>2021-08-28T13:50:30Z</time>
      </trkpt>
      <trkpt lat="46.59176" lon="5.53425">
        <ele>491</ele>
        <time>2021-08-28T13:50:35Z</time>
      </trkpt>
      <trkpt lat="46.59191" lon="5.53429">
        <ele>491.6</ele>
        <time>2021-08-28T13:50:38Z</time>
      </trkpt>
      <trkpt lat="46.59208" lon="5.53428">
        <ele>492</ele>
        <time>2021-08-28T13:50:41Z</time>
      </trkpt>
      <trkpt lat="46.59224" lon="5.53422">
        <ele>492.2</ele>
        <time>2021-08-28T13:50:44Z</time>
      </trkpt>
      <trkpt lat="46.59229" lon="5.53419">
        <ele>492.2</ele>
        <time>2021-08-28T13:50:45Z</time>
      </trkpt>
      <trkpt lat="46.59253" lon="5.53397">
        <ele>491.8</ele>
        <time>2021-08-28T13:50:50Z</time>
      </trkpt>
      <trkpt lat="46.59297" lon="5.53356">
        <ele>492.2</ele>
        <time>2021-08-28T13:51:00Z</time>
      </trkpt>
      <trkpt lat="46.5933" lon="5.53315">
        <ele>493.2</ele>
        <time>2021-08-28T13:51:08Z</time>
      </trkpt>
      <trkpt lat="46.59354" lon="5.53272">
        <ele>493.8</ele>
        <time>2021-08-28T13:51:15Z</time>
      </trkpt>
      <trkpt lat="46.5937" lon="5.53253">
        <ele>494.2</ele>
        <time>2021-08-28T13:51:19Z</time>
      </trkpt>
      <trkpt lat="46.59375" lon="5.5325">
        <ele>494.4</ele>
        <time>2021-08-28T13:51:20Z</time>
      </trkpt>
      <trkpt lat="46.59393" lon="5.5324">
        <ele>495.4</ele>
        <time>2021-08-28T13:51:24Z</time>
      </trkpt>
      <trkpt lat="46.59402" lon="5.53237">
        <ele>495.8</ele>
        <time>2021-08-28T13:51:26Z</time>
      </trkpt>
      <trkpt lat="46.59416" lon="5.53233">
        <ele>496.8</ele>
        <time>2021-08-28T13:51:29Z</time>
      </trkpt>
      <trkpt lat="46.59435" lon="5.53229">
        <ele>498</ele>
        <time>2021-08-28T13:51:33Z</time>
      </trkpt>
      <trkpt lat="46.59445" lon="5.53228">
        <ele>498.4</ele>
        <time>2021-08-28T13:51:35Z</time>
      </trkpt>
      <trkpt lat="46.59474" lon="5.53224">
        <ele>499</ele>
        <time>2021-08-28T13:51:40Z</time>
      </trkpt>
      <trkpt lat="46.59516" lon="5.53217">
        <ele>498</ele>
        <time>2021-08-28T13:51:46Z</time>
      </trkpt>
      <trkpt lat="46.5956" lon="5.53196">
        <ele>497.2</ele>
        <time>2021-08-28T13:51:53Z</time>
      </trkpt>
      <trkpt lat="46.59586" lon="5.53184">
        <ele>499.2</ele>
        <time>2021-08-28T13:51:58Z</time>
      </trkpt>
      <trkpt lat="46.59597" lon="5.53179">
        <ele>499.6</ele>
        <time>2021-08-28T13:52:00Z</time>
      </trkpt>
      <trkpt lat="46.59613" lon="5.5317">
        <ele>500.2</ele>
        <time>2021-08-28T13:52:03Z</time>
      </trkpt>
      <trkpt lat="46.59638" lon="5.53158">
        <ele>500.6</ele>
        <time>2021-08-28T13:52:07Z</time>
      </trkpt>
      <trkpt lat="46.59696" lon="5.53133">
        <ele>500.8</ele>
        <time>2021-08-28T13:52:16Z</time>
      </trkpt>
      <trkpt lat="46.59744" lon="5.53113">
        <ele>499.2</ele>
        <time>2021-08-28T13:52:22Z</time>
      </trkpt>
      <trkpt lat="46.59779" lon="5.53085">
        <ele>498</ele>
        <time>2021-08-28T13:52:27Z</time>
      </trkpt>
      <trkpt lat="46.59818" lon="5.53055">
        <ele>497.2</ele>
        <time>2021-08-28T13:52:33Z</time>
      </trkpt>
      <trkpt lat="46.59863" lon="5.53033">
        <ele>498.2</ele>
        <time>2021-08-28T13:52:40Z</time>
      </trkpt>
      <trkpt lat="46.59868" lon="5.53028">
        <ele>498.4</ele>
        <time>2021-08-28T13:52:41Z</time>
      </trkpt>
      <trkpt lat="46.59873" lon="5.53022">
        <ele>498.6</ele>
        <time>2021-08-28T13:52:42Z</time>
      </trkpt>
      <trkpt lat="46.5988" lon="5.53008">
        <ele>499</ele>
        <time>2021-08-28T13:52:44Z</time>
      </trkpt>
      <trkpt lat="46.59882" lon="5.53001">
        <ele>499.2</ele>
        <time>2021-08-28T13:52:45Z</time>
      </trkpt>
      <trkpt lat="46.59884" lon="5.52989">
        <ele>499.6</ele>
        <time>2021-08-28T13:52:47Z</time>
      </trkpt>
      <trkpt lat="46.59885" lon="5.52984">
        <ele>499.8</ele>
        <time>2021-08-28T13:52:48Z</time>
      </trkpt>
      <trkpt lat="46.59886" lon="5.52974">
        <ele>500.4</ele>
        <time>2021-08-28T13:52:51Z</time>
      </trkpt>
      <trkpt lat="46.59886" lon="5.52972">
        <ele>500.6</ele>
        <time>2021-08-28T13:52:52Z</time>
      </trkpt>
      <trkpt lat="46.59886" lon="5.52971">
        <ele>500.8</ele>
        <time>2021-08-28T13:52:55Z</time>
      </trkpt>
      <trkpt lat="46.59885" lon="5.52964">
        <ele>500.4</ele>
        <time>2021-08-28T13:53:58Z</time>
      </trkpt>
      <trkpt lat="46.59886" lon="5.52945">
        <ele>500.4</ele>
        <time>2021-08-28T13:54:01Z</time>
      </trkpt>
      <trkpt lat="46.59888" lon="5.52937">
        <ele>500.2</ele>
        <time>2021-08-28T13:54:02Z</time>
      </trkpt>
      <trkpt lat="46.5989" lon="5.52928">
        <ele>500</ele>
        <time>2021-08-28T13:54:03Z</time>
      </trkpt>
      <trkpt lat="46.59897" lon="5.52909">
        <ele>499.6</ele>
        <time>2021-08-28T13:54:05Z</time>
      </trkpt>
      <trkpt lat="46.59902" lon="5.529">
        <ele>499.4</ele>
        <time>2021-08-28T13:54:06Z</time>
      </trkpt>
      <trkpt lat="46.59908" lon="5.52892">
        <ele>499.2</ele>
        <time>2021-08-28T13:54:07Z</time>
      </trkpt>
      <trkpt lat="46.59914" lon="5.52884">
        <ele>498.6</ele>
        <time>2021-08-28T13:54:08Z</time>
      </trkpt>
      <trkpt lat="46.5993" lon="5.52871">
        <ele>497.8</ele>
        <time>2021-08-28T13:54:10Z</time>
      </trkpt>
      <trkpt lat="46.59938" lon="5.52866">
        <ele>497.6</ele>
        <time>2021-08-28T13:54:11Z</time>
      </trkpt>
      <trkpt lat="46.59948" lon="5.52862">
        <ele>497.6</ele>
        <time>2021-08-28T13:54:12Z</time>
      </trkpt>
      <trkpt lat="46.59965" lon="5.52857">
        <ele>496</ele>
        <time>2021-08-28T13:54:14Z</time>
      </trkpt>
      <trkpt lat="46.59988" lon="5.52851">
        <ele>494.2</ele>
        <time>2021-08-28T13:54:16Z</time>
      </trkpt>
      <trkpt lat="46.60008" lon="5.52843">
        <ele>492.8</ele>
        <time>2021-08-28T13:54:18Z</time>
      </trkpt>
      <trkpt lat="46.60028" lon="5.52834">
        <ele>491</ele>
        <time>2021-08-28T13:54:20Z</time>
      </trkpt>
      <trkpt lat="46.60048" lon="5.52824">
        <ele>489.4</ele>
        <time>2021-08-28T13:54:22Z</time>
      </trkpt>
      <trkpt lat="46.60058" lon="5.52819">
        <ele>488.8</ele>
        <time>2021-08-28T13:54:23Z</time>
      </trkpt>
      <trkpt lat="46.60067" lon="5.52814">
        <ele>488.2</ele>
        <time>2021-08-28T13:54:24Z</time>
      </trkpt>
      <trkpt lat="46.60087" lon="5.52805">
        <ele>486.8</ele>
        <time>2021-08-28T13:54:26Z</time>
      </trkpt>
      <trkpt lat="46.60107" lon="5.52793">
        <ele>485.8</ele>
        <time>2021-08-28T13:54:28Z</time>
      </trkpt>
      <trkpt lat="46.60136" lon="5.5277">
        <ele>484.4</ele>
        <time>2021-08-28T13:54:31Z</time>
      </trkpt>
      <trkpt lat="46.60145" lon="5.5276">
        <ele>484</ele>
        <time>2021-08-28T13:54:32Z</time>
      </trkpt>
      <trkpt lat="46.60153" lon="5.52749">
        <ele>483.6</ele>
        <time>2021-08-28T13:54:33Z</time>
      </trkpt>
      <trkpt lat="46.60159" lon="5.52736">
        <ele>482.4</ele>
        <time>2021-08-28T13:54:34Z</time>
      </trkpt>
      <trkpt lat="46.60163" lon="5.52721">
        <ele>481.8</ele>
        <time>2021-08-28T13:54:35Z</time>
      </trkpt>
      <trkpt lat="46.60165" lon="5.52708">
        <ele>480.8</ele>
        <time>2021-08-28T13:54:36Z</time>
      </trkpt>
      <trkpt lat="46.60168" lon="5.52675">
        <ele>480.2</ele>
        <time>2021-08-28T13:54:38Z</time>
      </trkpt>
      <trkpt lat="46.60169" lon="5.5266">
        <ele>479.4</ele>
        <time>2021-08-28T13:54:39Z</time>
      </trkpt>
      <trkpt lat="46.60173" lon="5.52629">
        <ele>478.2</ele>
        <time>2021-08-28T13:54:41Z</time>
      </trkpt>
      <trkpt lat="46.60177" lon="5.52614">
        <ele>478</ele>
        <time>2021-08-28T13:54:42Z</time>
      </trkpt>
      <trkpt lat="46.60181" lon="5.52598">
        <ele>476.6</ele>
        <time>2021-08-28T13:54:43Z</time>
      </trkpt>
      <trkpt lat="46.6019" lon="5.52565">
        <ele>475.4</ele>
        <time>2021-08-28T13:54:45Z</time>
      </trkpt>
      <trkpt lat="46.60195" lon="5.52549">
        <ele>474.2</ele>
        <time>2021-08-28T13:54:46Z</time>
      </trkpt>
      <trkpt lat="46.60205" lon="5.52516">
        <ele>473</ele>
        <time>2021-08-28T13:54:48Z</time>
      </trkpt>
      <trkpt lat="46.60214" lon="5.52482">
        <ele>470.8</ele>
        <time>2021-08-28T13:54:50Z</time>
      </trkpt>
      <trkpt lat="46.60218" lon="5.52464">
        <ele>470.2</ele>
        <time>2021-08-28T13:54:51Z</time>
      </trkpt>
      <trkpt lat="46.60221" lon="5.52447">
        <ele>468.4</ele>
        <time>2021-08-28T13:54:52Z</time>
      </trkpt>
      <trkpt lat="46.60224" lon="5.52413">
        <ele>467.2</ele>
        <time>2021-08-28T13:54:54Z</time>
      </trkpt>
      <trkpt lat="46.60226" lon="5.5238">
        <ele>466.6</ele>
        <time>2021-08-28T13:54:56Z</time>
      </trkpt>
      <trkpt lat="46.60228" lon="5.52301">
        <ele>466.2</ele>
        <time>2021-08-28T13:55:01Z</time>
      </trkpt>
      <trkpt lat="46.60228" lon="5.52271">
        <ele>466.2</ele>
        <time>2021-08-28T13:55:03Z</time>
      </trkpt>
      <trkpt lat="46.60229" lon="5.52242">
        <ele>466</ele>
        <time>2021-08-28T13:55:05Z</time>
      </trkpt>
      <trkpt lat="46.60232" lon="5.52218">
        <ele>465.8</ele>
        <time>2021-08-28T13:55:07Z</time>
      </trkpt>
      <trkpt lat="46.60242" lon="5.52193">
        <ele>465.6</ele>
        <time>2021-08-28T13:55:09Z</time>
      </trkpt>
      <trkpt lat="46.60248" lon="5.52185">
        <ele>465.6</ele>
        <time>2021-08-28T13:55:10Z</time>
      </trkpt>
      <trkpt lat="46.60254" lon="5.52178">
        <ele>465.6</ele>
        <time>2021-08-28T13:55:11Z</time>
      </trkpt>
      <trkpt lat="46.60265" lon="5.5217">
        <ele>465.8</ele>
        <time>2021-08-28T13:55:13Z</time>
      </trkpt>
      <trkpt lat="46.60295" lon="5.52162">
        <ele>468</ele>
        <time>2021-08-28T13:55:18Z</time>
      </trkpt>
      <trkpt lat="46.60307" lon="5.5216">
        <ele>469.4</ele>
        <time>2021-08-28T13:55:20Z</time>
      </trkpt>
      <trkpt lat="46.60316" lon="5.52159">
        <ele>471</ele>
        <time>2021-08-28T13:55:22Z</time>
      </trkpt>
      <trkpt lat="46.60321" lon="5.52158">
        <ele>471.4</ele>
        <time>2021-08-28T13:55:23Z</time>
      </trkpt>
      <trkpt lat="46.60332" lon="5.52155">
        <ele>472.4</ele>
        <time>2021-08-28T13:55:25Z</time>
      </trkpt>
      <trkpt lat="46.60349" lon="5.5215">
        <ele>473.4</ele>
        <time>2021-08-28T13:55:29Z</time>
      </trkpt>
      <trkpt lat="46.60354" lon="5.52148">
        <ele>474</ele>
        <time>2021-08-28T13:55:30Z</time>
      </trkpt>
      <trkpt lat="46.60361" lon="5.52143">
        <ele>475.2</ele>
        <time>2021-08-28T13:55:32Z</time>
      </trkpt>
      <trkpt lat="46.60375" lon="5.52134">
        <ele>476.4</ele>
        <time>2021-08-28T13:55:36Z</time>
      </trkpt>
      <trkpt lat="46.60378" lon="5.52131">
        <ele>476.6</ele>
        <time>2021-08-28T13:55:37Z</time>
      </trkpt>
      <trkpt lat="46.60387" lon="5.52122">
        <ele>477.6</ele>
        <time>2021-08-28T13:55:40Z</time>
      </trkpt>
      <trkpt lat="46.60394" lon="5.52115">
        <ele>478</ele>
        <time>2021-08-28T13:55:42Z</time>
      </trkpt>
      <trkpt lat="46.60399" lon="5.521">
        <ele>478.8</ele>
        <time>2021-08-28T13:55:45Z</time>
      </trkpt>
      <trkpt lat="46.60398" lon="5.52094">
        <ele>479.2</ele>
        <time>2021-08-28T13:55:46Z</time>
      </trkpt>
      <trkpt lat="46.60396" lon="5.52089">
        <ele>479.2</ele>
        <time>2021-08-28T13:55:47Z</time>
      </trkpt>
      <trkpt lat="46.60388" lon="5.52085">
        <ele>479.6</ele>
        <time>2021-08-28T13:55:49Z</time>
      </trkpt>
      <trkpt lat="46.60383" lon="5.52083">
        <ele>480.2</ele>
        <time>2021-08-28T13:55:50Z</time>
      </trkpt>
      <trkpt lat="46.60355" lon="5.52068">
        <ele>480.8</ele>
        <time>2021-08-28T13:55:56Z</time>
      </trkpt>
      <trkpt lat="46.60336" lon="5.52057">
        <ele>481.2</ele>
        <time>2021-08-28T13:56:00Z</time>
      </trkpt>
      <trkpt lat="46.60312" lon="5.52044">
        <ele>481.4</ele>
        <time>2021-08-28T13:56:05Z</time>
      </trkpt>
      <trkpt lat="46.60275" lon="5.52026">
        <ele>482</ele>
        <time>2021-08-28T13:56:12Z</time>
      </trkpt>
      <trkpt lat="46.60264" lon="5.52021">
        <ele>482.2</ele>
        <time>2021-08-28T13:56:14Z</time>
      </trkpt>
      <trkpt lat="46.60228" lon="5.52011">
        <ele>482.2</ele>
        <time>2021-08-28T13:56:20Z</time>
      </trkpt>
      <trkpt lat="46.60186" lon="5.52008">
        <ele>482.8</ele>
        <time>2021-08-28T13:56:27Z</time>
      </trkpt>
      <trkpt lat="46.6018" lon="5.52008">
        <ele>483</ele>
        <time>2021-08-28T13:56:28Z</time>
      </trkpt>
      <trkpt lat="46.60168" lon="5.52009">
        <ele>483.2</ele>
        <time>2021-08-28T13:56:30Z</time>
      </trkpt>
      <trkpt lat="46.60142" lon="5.52008">
        <ele>484.2</ele>
        <time>2021-08-28T13:56:35Z</time>
      </trkpt>
      <trkpt lat="46.60136" lon="5.52007">
        <ele>484.8</ele>
        <time>2021-08-28T13:56:36Z</time>
      </trkpt>
      <trkpt lat="46.60113" lon="5.52004">
        <ele>485.8</ele>
        <time>2021-08-28T13:56:40Z</time>
      </trkpt>
      <trkpt lat="46.60092" lon="5.52001">
        <ele>487.2</ele>
        <time>2021-08-28T13:56:44Z</time>
      </trkpt>
      <trkpt lat="46.60077" lon="5.51998">
        <ele>487.8</ele>
        <time>2021-08-28T13:56:47Z</time>
      </trkpt>
      <trkpt lat="46.6007" lon="5.51996">
        <ele>488.2</ele>
        <time>2021-08-28T13:56:48Z</time>
      </trkpt>
      <trkpt lat="46.60038" lon="5.51988">
        <ele>489.2</ele>
        <time>2021-08-28T13:56:54Z</time>
      </trkpt>
      <trkpt lat="46.60021" lon="5.51983">
        <ele>490</ele>
        <time>2021-08-28T13:56:57Z</time>
      </trkpt>
      <trkpt lat="46.60005" lon="5.51978">
        <ele>490.4</ele>
        <time>2021-08-28T13:57:00Z</time>
      </trkpt>
      <trkpt lat="46.59956" lon="5.51963">
        <ele>491</ele>
        <time>2021-08-28T13:57:08Z</time>
      </trkpt>
      <trkpt lat="46.59933" lon="5.51956">
        <ele>491</ele>
        <time>2021-08-28T13:57:12Z</time>
      </trkpt>
      <trkpt lat="46.59926" lon="5.51954">
        <ele>491</ele>
        <time>2021-08-28T13:57:13Z</time>
      </trkpt>
      <trkpt lat="46.59921" lon="5.5195">
        <ele>491</ele>
        <time>2021-08-28T13:57:14Z</time>
      </trkpt>
      <trkpt lat="46.59914" lon="5.51939">
        <ele>490.8</ele>
        <time>2021-08-28T13:57:16Z</time>
      </trkpt>
      <trkpt lat="46.59901" lon="5.51931">
        <ele>490.8</ele>
        <time>2021-08-28T13:57:18Z</time>
      </trkpt>
      <trkpt lat="46.59894" lon="5.51931">
        <ele>490.8</ele>
        <time>2021-08-28T13:57:19Z</time>
      </trkpt>
      <trkpt lat="46.59886" lon="5.51932">
        <ele>490.6</ele>
        <time>2021-08-28T13:57:20Z</time>
      </trkpt>
      <trkpt lat="46.59872" lon="5.51927">
        <ele>490.2</ele>
        <time>2021-08-28T13:57:22Z</time>
      </trkpt>
      <trkpt lat="46.59863" lon="5.51905">
        <ele>489.6</ele>
        <time>2021-08-28T13:57:24Z</time>
      </trkpt>
      <trkpt lat="46.59865" lon="5.51891">
        <ele>489</ele>
        <time>2021-08-28T13:57:25Z</time>
      </trkpt>
      <trkpt lat="46.5987" lon="5.51877">
        <ele>488.6</ele>
        <time>2021-08-28T13:57:26Z</time>
      </trkpt>
      <trkpt lat="46.59874" lon="5.51866">
        <ele>487.2</ele>
        <time>2021-08-28T13:57:27Z</time>
      </trkpt>
      <trkpt lat="46.5988" lon="5.51851">
        <ele>485.8</ele>
        <time>2021-08-28T13:57:28Z</time>
      </trkpt>
      <trkpt lat="46.59886" lon="5.51833">
        <ele>484.2</ele>
        <time>2021-08-28T13:57:29Z</time>
      </trkpt>
      <trkpt lat="46.59892" lon="5.51817">
        <ele>482.4</ele>
        <time>2021-08-28T13:57:30Z</time>
      </trkpt>
      <trkpt lat="46.59896" lon="5.51804">
        <ele>481.4</ele>
        <time>2021-08-28T13:57:31Z</time>
      </trkpt>
      <trkpt lat="46.59902" lon="5.51787">
        <ele>479.8</ele>
        <time>2021-08-28T13:57:32Z</time>
      </trkpt>
      <trkpt lat="46.59908" lon="5.51766">
        <ele>479.4</ele>
        <time>2021-08-28T13:57:33Z</time>
      </trkpt>
      <trkpt lat="46.59912" lon="5.51748">
        <ele>477.6</ele>
        <time>2021-08-28T13:57:34Z</time>
      </trkpt>
      <trkpt lat="46.59916" lon="5.5173">
        <ele>475.2</ele>
        <time>2021-08-28T13:57:35Z</time>
      </trkpt>
      <trkpt lat="46.59925" lon="5.51701">
        <ele>473</ele>
        <time>2021-08-28T13:57:37Z</time>
      </trkpt>
      <trkpt lat="46.59932" lon="5.51686">
        <ele>472.4</ele>
        <time>2021-08-28T13:57:38Z</time>
      </trkpt>
      <trkpt lat="46.59941" lon="5.51669">
        <ele>471.6</ele>
        <time>2021-08-28T13:57:39Z</time>
      </trkpt>
      <trkpt lat="46.59956" lon="5.51645">
        <ele>469.8</ele>
        <time>2021-08-28T13:57:41Z</time>
      </trkpt>
      <trkpt lat="46.59964" lon="5.51632">
        <ele>468.8</ele>
        <time>2021-08-28T13:57:42Z</time>
      </trkpt>
      <trkpt lat="46.59972" lon="5.51615">
        <ele>468.2</ele>
        <time>2021-08-28T13:57:43Z</time>
      </trkpt>
      <trkpt lat="46.59977" lon="5.51598">
        <ele>467.4</ele>
        <time>2021-08-28T13:57:44Z</time>
      </trkpt>
      <trkpt lat="46.5998" lon="5.51582">
        <ele>466.8</ele>
        <time>2021-08-28T13:57:45Z</time>
      </trkpt>
      <trkpt lat="46.59981" lon="5.51564">
        <ele>465.8</ele>
        <time>2021-08-28T13:57:46Z</time>
      </trkpt>
      <trkpt lat="46.5998" lon="5.51527">
        <ele>464</ele>
        <time>2021-08-28T13:57:48Z</time>
      </trkpt>
      <trkpt lat="46.59976" lon="5.51493">
        <ele>462.8</ele>
        <time>2021-08-28T13:57:50Z</time>
      </trkpt>
      <trkpt lat="46.59971" lon="5.51464">
        <ele>461.2</ele>
        <time>2021-08-28T13:57:52Z</time>
      </trkpt>
      <trkpt lat="46.59966" lon="5.51446">
        <ele>460.6</ele>
        <time>2021-08-28T13:57:53Z</time>
      </trkpt>
      <trkpt lat="46.59952" lon="5.5142">
        <ele>460</ele>
        <time>2021-08-28T13:57:55Z</time>
      </trkpt>
      <trkpt lat="46.59943" lon="5.5141">
        <ele>459.8</ele>
        <time>2021-08-28T13:57:56Z</time>
      </trkpt>
      <trkpt lat="46.59934" lon="5.51404">
        <ele>459.8</ele>
        <time>2021-08-28T13:57:57Z</time>
      </trkpt>
      <trkpt lat="46.59924" lon="5.51402">
        <ele>460</ele>
        <time>2021-08-28T13:57:58Z</time>
      </trkpt>
      <trkpt lat="46.59889" lon="5.51407">
        <ele>460.6</ele>
        <time>2021-08-28T13:58:02Z</time>
      </trkpt>
      <trkpt lat="46.59837" lon="5.51432">
        <ele>460.8</ele>
        <time>2021-08-28T13:58:07Z</time>
      </trkpt>
      <trkpt lat="46.59806" lon="5.51449">
        <ele>460.4</ele>
        <time>2021-08-28T13:58:10Z</time>
      </trkpt>
      <trkpt lat="46.59787" lon="5.51467">
        <ele>459.6</ele>
        <time>2021-08-28T13:58:12Z</time>
      </trkpt>
      <trkpt lat="46.59777" lon="5.51475">
        <ele>459.4</ele>
        <time>2021-08-28T13:58:13Z</time>
      </trkpt>
      <trkpt lat="46.59756" lon="5.51483">
        <ele>458.4</ele>
        <time>2021-08-28T13:58:15Z</time>
      </trkpt>
      <trkpt lat="46.59736" lon="5.51479">
        <ele>457.4</ele>
        <time>2021-08-28T13:58:17Z</time>
      </trkpt>
      <trkpt lat="46.59681" lon="5.51452">
        <ele>456.4</ele>
        <time>2021-08-28T13:58:23Z</time>
      </trkpt>
      <trkpt lat="46.59671" lon="5.51447">
        <ele>456.2</ele>
        <time>2021-08-28T13:58:24Z</time>
      </trkpt>
      <trkpt lat="46.59633" lon="5.51422">
        <ele>455.4</ele>
        <time>2021-08-28T13:58:28Z</time>
      </trkpt>
      <trkpt lat="46.59624" lon="5.51413">
        <ele>454.6</ele>
        <time>2021-08-28T13:58:29Z</time>
      </trkpt>
      <trkpt lat="46.59603" lon="5.51399">
        <ele>453.2</ele>
        <time>2021-08-28T13:58:31Z</time>
      </trkpt>
      <trkpt lat="46.59592" lon="5.51394">
        <ele>452.6</ele>
        <time>2021-08-28T13:58:32Z</time>
      </trkpt>
      <trkpt lat="46.59581" lon="5.51392">
        <ele>452.2</ele>
        <time>2021-08-28T13:58:33Z</time>
      </trkpt>
      <trkpt lat="46.59548" lon="5.51388">
        <ele>451.2</ele>
        <time>2021-08-28T13:58:36Z</time>
      </trkpt>
      <trkpt lat="46.59501" lon="5.51371">
        <ele>451.4</ele>
        <time>2021-08-28T13:58:41Z</time>
      </trkpt>
      <trkpt lat="46.59493" lon="5.51365">
        <ele>451.6</ele>
        <time>2021-08-28T13:58:42Z</time>
      </trkpt>
      <trkpt lat="46.59477" lon="5.5135">
        <ele>452</ele>
        <time>2021-08-28T13:58:44Z</time>
      </trkpt>
      <trkpt lat="46.59464" lon="5.5133">
        <ele>452.4</ele>
        <time>2021-08-28T13:58:46Z</time>
      </trkpt>
      <trkpt lat="46.59436" lon="5.5129">
        <ele>452.6</ele>
        <time>2021-08-28T13:58:50Z</time>
      </trkpt>
      <trkpt lat="46.59429" lon="5.51279">
        <ele>452.8</ele>
        <time>2021-08-28T13:58:51Z</time>
      </trkpt>
      <trkpt lat="46.59422" lon="5.51254">
        <ele>452.8</ele>
        <time>2021-08-28T13:58:53Z</time>
      </trkpt>
      <trkpt lat="46.59425" lon="5.51223">
        <ele>452.6</ele>
        <time>2021-08-28T13:58:55Z</time>
      </trkpt>
      <trkpt lat="46.59426" lon="5.51208">
        <ele>451.8</ele>
        <time>2021-08-28T13:58:56Z</time>
      </trkpt>
      <trkpt lat="46.59426" lon="5.51192">
        <ele>451.2</ele>
        <time>2021-08-28T13:58:57Z</time>
      </trkpt>
      <trkpt lat="46.59424" lon="5.51177">
        <ele>450.2</ele>
        <time>2021-08-28T13:58:58Z</time>
      </trkpt>
      <trkpt lat="46.59421" lon="5.51162">
        <ele>449.8</ele>
        <time>2021-08-28T13:58:59Z</time>
      </trkpt>
      <trkpt lat="46.59419" lon="5.5115">
        <ele>449.4</ele>
        <time>2021-08-28T13:59:00Z</time>
      </trkpt>
      <trkpt lat="46.59418" lon="5.51134">
        <ele>449</ele>
        <time>2021-08-28T13:59:01Z</time>
      </trkpt>
      <trkpt lat="46.59419" lon="5.51114">
        <ele>448.2</ele>
        <time>2021-08-28T13:59:02Z</time>
      </trkpt>
      <trkpt lat="46.59422" lon="5.51098">
        <ele>447.4</ele>
        <time>2021-08-28T13:59:03Z</time>
      </trkpt>
      <trkpt lat="46.59429" lon="5.51065">
        <ele>446</ele>
        <time>2021-08-28T13:59:05Z</time>
      </trkpt>
      <trkpt lat="46.59433" lon="5.51049">
        <ele>445.6</ele>
        <time>2021-08-28T13:59:06Z</time>
      </trkpt>
      <trkpt lat="46.59439" lon="5.51035">
        <ele>444.6</ele>
        <time>2021-08-28T13:59:07Z</time>
      </trkpt>
      <trkpt lat="46.59448" lon="5.51023">
        <ele>444</ele>
        <time>2021-08-28T13:59:08Z</time>
      </trkpt>
      <trkpt lat="46.59458" lon="5.51013">
        <ele>443</ele>
        <time>2021-08-28T13:59:09Z</time>
      </trkpt>
      <trkpt lat="46.59469" lon="5.51005">
        <ele>442.4</ele>
        <time>2021-08-28T13:59:10Z</time>
      </trkpt>
      <trkpt lat="46.5948" lon="5.50999">
        <ele>442.2</ele>
        <time>2021-08-28T13:59:11Z</time>
      </trkpt>
      <trkpt lat="46.59491" lon="5.50994">
        <ele>441</ele>
        <time>2021-08-28T13:59:12Z</time>
      </trkpt>
      <trkpt lat="46.59503" lon="5.50992">
        <ele>440.4</ele>
        <time>2021-08-28T13:59:13Z</time>
      </trkpt>
      <trkpt lat="46.59515" lon="5.50991">
        <ele>439.6</ele>
        <time>2021-08-28T13:59:14Z</time>
      </trkpt>
      <trkpt lat="46.59539" lon="5.50991">
        <ele>437.8</ele>
        <time>2021-08-28T13:59:16Z</time>
      </trkpt>
      <trkpt lat="46.59564" lon="5.50993">
        <ele>436.4</ele>
        <time>2021-08-28T13:59:18Z</time>
      </trkpt>
      <trkpt lat="46.59576" lon="5.50996">
        <ele>435.8</ele>
        <time>2021-08-28T13:59:19Z</time>
      </trkpt>
      <trkpt lat="46.596" lon="5.51005">
        <ele>435</ele>
        <time>2021-08-28T13:59:21Z</time>
      </trkpt>
      <trkpt lat="46.59624" lon="5.51015">
        <ele>433.6</ele>
        <time>2021-08-28T13:59:23Z</time>
      </trkpt>
      <trkpt lat="46.59648" lon="5.51024">
        <ele>432.4</ele>
        <time>2021-08-28T13:59:25Z</time>
      </trkpt>
      <trkpt lat="46.59661" lon="5.51027">
        <ele>430.8</ele>
        <time>2021-08-28T13:59:26Z</time>
      </trkpt>
      <trkpt lat="46.59689" lon="5.51035">
        <ele>429.2</ele>
        <time>2021-08-28T13:59:28Z</time>
      </trkpt>
      <trkpt lat="46.59713" lon="5.51039">
        <ele>427.6</ele>
        <time>2021-08-28T13:59:30Z</time>
      </trkpt>
      <trkpt lat="46.59722" lon="5.51043">
        <ele>427.4</ele>
        <time>2021-08-28T13:59:31Z</time>
      </trkpt>
      <trkpt lat="46.59733" lon="5.51049">
        <ele>426.4</ele>
        <time>2021-08-28T13:59:32Z</time>
      </trkpt>
      <trkpt lat="46.59773" lon="5.51068">
        <ele>424.6</ele>
        <time>2021-08-28T13:59:35Z</time>
      </trkpt>
      <trkpt lat="46.59786" lon="5.51071">
        <ele>424.4</ele>
        <time>2021-08-28T13:59:36Z</time>
      </trkpt>
      <trkpt lat="46.59796" lon="5.5107">
        <ele>423.2</ele>
        <time>2021-08-28T13:59:37Z</time>
      </trkpt>
      <trkpt lat="46.59811" lon="5.51067">
        <ele>423</ele>
        <time>2021-08-28T13:59:38Z</time>
      </trkpt>
      <trkpt lat="46.59824" lon="5.51063">
        <ele>422.2</ele>
        <time>2021-08-28T13:59:39Z</time>
      </trkpt>
      <trkpt lat="46.59836" lon="5.5106">
        <ele>421.2</ele>
        <time>2021-08-28T13:59:40Z</time>
      </trkpt>
      <trkpt lat="46.59859" lon="5.51053">
        <ele>419.4</ele>
        <time>2021-08-28T13:59:42Z</time>
      </trkpt>
      <trkpt lat="46.59887" lon="5.51042">
        <ele>418</ele>
        <time>2021-08-28T13:59:44Z</time>
      </trkpt>
      <trkpt lat="46.59898" lon="5.51033">
        <ele>417.6</ele>
        <time>2021-08-28T13:59:45Z</time>
      </trkpt>
      <trkpt lat="46.59909" lon="5.51022">
        <ele>416.6</ele>
        <time>2021-08-28T13:59:46Z</time>
      </trkpt>
      <trkpt lat="46.59915" lon="5.5101">
        <ele>415.4</ele>
        <time>2021-08-28T13:59:47Z</time>
      </trkpt>
      <trkpt lat="46.59922" lon="5.50991">
        <ele>414.8</ele>
        <time>2021-08-28T13:59:48Z</time>
      </trkpt>
      <trkpt lat="46.59926" lon="5.50973">
        <ele>414</ele>
        <time>2021-08-28T13:59:49Z</time>
      </trkpt>
      <trkpt lat="46.59928" lon="5.50954">
        <ele>413.4</ele>
        <time>2021-08-28T13:59:50Z</time>
      </trkpt>
      <trkpt lat="46.59927" lon="5.50938">
        <ele>412.6</ele>
        <time>2021-08-28T13:59:51Z</time>
      </trkpt>
      <trkpt lat="46.59924" lon="5.50919">
        <ele>412.4</ele>
        <time>2021-08-28T13:59:52Z</time>
      </trkpt>
      <trkpt lat="46.59914" lon="5.50903">
        <ele>411.6</ele>
        <time>2021-08-28T13:59:53Z</time>
      </trkpt>
      <trkpt lat="46.59904" lon="5.50891">
        <ele>410.2</ele>
        <time>2021-08-28T13:59:54Z</time>
      </trkpt>
      <trkpt lat="46.59892" lon="5.50858">
        <ele>408.2</ele>
        <time>2021-08-28T13:59:56Z</time>
      </trkpt>
      <trkpt lat="46.59894" lon="5.50827">
        <ele>406.6</ele>
        <time>2021-08-28T13:59:58Z</time>
      </trkpt>
      <trkpt lat="46.59907" lon="5.50793">
        <ele>405.2</ele>
        <time>2021-08-28T14:00:00Z</time>
      </trkpt>
      <trkpt lat="46.59914" lon="5.50778">
        <ele>404.2</ele>
        <time>2021-08-28T14:00:01Z</time>
      </trkpt>
      <trkpt lat="46.59921" lon="5.50763">
        <ele>404</ele>
        <time>2021-08-28T14:00:02Z</time>
      </trkpt>
      <trkpt lat="46.59926" lon="5.50751">
        <ele>402.6</ele>
        <time>2021-08-28T14:00:03Z</time>
      </trkpt>
      <trkpt lat="46.5994" lon="5.50717">
        <ele>401.4</ele>
        <time>2021-08-28T14:00:05Z</time>
      </trkpt>
      <trkpt lat="46.59943" lon="5.50704">
        <ele>400.8</ele>
        <time>2021-08-28T14:00:06Z</time>
      </trkpt>
      <trkpt lat="46.59947" lon="5.50687">
        <ele>400</ele>
        <time>2021-08-28T14:00:07Z</time>
      </trkpt>
      <trkpt lat="46.59952" lon="5.50649">
        <ele>398.2</ele>
        <time>2021-08-28T14:00:09Z</time>
      </trkpt>
      <trkpt lat="46.59955" lon="5.50634">
        <ele>397.6</ele>
        <time>2021-08-28T14:00:10Z</time>
      </trkpt>
      <trkpt lat="46.59959" lon="5.50617">
        <ele>397.2</ele>
        <time>2021-08-28T14:00:11Z</time>
      </trkpt>
      <trkpt lat="46.59965" lon="5.50607">
        <ele>396.4</ele>
        <time>2021-08-28T14:00:12Z</time>
      </trkpt>
      <trkpt lat="46.59974" lon="5.50604">
        <ele>396</ele>
        <time>2021-08-28T14:00:13Z</time>
      </trkpt>
      <trkpt lat="46.59984" lon="5.50608">
        <ele>395.2</ele>
        <time>2021-08-28T14:00:14Z</time>
      </trkpt>
      <trkpt lat="46.59993" lon="5.50615">
        <ele>394.8</ele>
        <time>2021-08-28T14:00:15Z</time>
      </trkpt>
      <trkpt lat="46.60008" lon="5.50631">
        <ele>394.2</ele>
        <time>2021-08-28T14:00:17Z</time>
      </trkpt>
      <trkpt lat="46.60021" lon="5.5065">
        <ele>393.8</ele>
        <time>2021-08-28T14:00:19Z</time>
      </trkpt>
      <trkpt lat="46.60028" lon="5.50655">
        <ele>393.8</ele>
        <time>2021-08-28T14:00:20Z</time>
      </trkpt>
      <trkpt lat="46.60034" lon="5.50657">
        <ele>393.6</ele>
        <time>2021-08-28T14:00:21Z</time>
      </trkpt>
      <trkpt lat="46.6004" lon="5.50653">
        <ele>393.4</ele>
        <time>2021-08-28T14:00:22Z</time>
      </trkpt>
      <trkpt lat="46.60038" lon="5.50634">
        <ele>392.4</ele>
        <time>2021-08-28T14:00:24Z</time>
      </trkpt>
      <trkpt lat="46.60032" lon="5.50626">
        <ele>392.2</ele>
        <time>2021-08-28T14:00:25Z</time>
      </trkpt>
      <trkpt lat="46.60016" lon="5.50612">
        <ele>391.4</ele>
        <time>2021-08-28T14:00:27Z</time>
      </trkpt>
      <trkpt lat="46.59993" lon="5.50587">
        <ele>389.8</ele>
        <time>2021-08-28T14:00:30Z</time>
      </trkpt>
      <trkpt lat="46.59983" lon="5.50582">
        <ele>389.2</ele>
        <time>2021-08-28T14:00:31Z</time>
      </trkpt>
      <trkpt lat="46.59974" lon="5.50581">
        <ele>389</ele>
        <time>2021-08-28T14:00:32Z</time>
      </trkpt>
      <trkpt lat="46.59964" lon="5.50584">
        <ele>388.2</ele>
        <time>2021-08-28T14:00:33Z</time>
      </trkpt>
      <trkpt lat="46.59955" lon="5.50588">
        <ele>388</ele>
        <time>2021-08-28T14:00:34Z</time>
      </trkpt>
      <trkpt lat="46.59947" lon="5.5059">
        <ele>387.2</ele>
        <time>2021-08-28T14:00:35Z</time>
      </trkpt>
      <trkpt lat="46.59939" lon="5.50586">
        <ele>387</ele>
        <time>2021-08-28T14:00:36Z</time>
      </trkpt>
      <trkpt lat="46.59934" lon="5.50566">
        <ele>386</ele>
        <time>2021-08-28T14:00:38Z</time>
      </trkpt>
      <trkpt lat="46.59937" lon="5.50555">
        <ele>385.6</ele>
        <time>2021-08-28T14:00:39Z</time>
      </trkpt>
      <trkpt lat="46.59943" lon="5.50547">
        <ele>384.6</ele>
        <time>2021-08-28T14:00:40Z</time>
      </trkpt>
      <trkpt lat="46.59951" lon="5.50543">
        <ele>384.2</ele>
        <time>2021-08-28T14:00:41Z</time>
      </trkpt>
      <trkpt lat="46.5996" lon="5.50543">
        <ele>383.6</ele>
        <time>2021-08-28T14:00:42Z</time>
      </trkpt>
      <trkpt lat="46.5997" lon="5.50545">
        <ele>383.4</ele>
        <time>2021-08-28T14:00:43Z</time>
      </trkpt>
      <trkpt lat="46.59989" lon="5.50553">
        <ele>382</ele>
        <time>2021-08-28T14:00:45Z</time>
      </trkpt>
      <trkpt lat="46.60007" lon="5.50567">
        <ele>380.6</ele>
        <time>2021-08-28T14:00:47Z</time>
      </trkpt>
      <trkpt lat="46.60024" lon="5.50584">
        <ele>379</ele>
        <time>2021-08-28T14:00:49Z</time>
      </trkpt>
      <trkpt lat="46.60042" lon="5.50601">
        <ele>378</ele>
        <time>2021-08-28T14:00:51Z</time>
      </trkpt>
      <trkpt lat="46.60078" lon="5.50637">
        <ele>376.8</ele>
        <time>2021-08-28T14:00:55Z</time>
      </trkpt>
      <trkpt lat="46.60087" lon="5.50646">
        <ele>376.4</ele>
        <time>2021-08-28T14:00:56Z</time>
      </trkpt>
      <trkpt lat="46.60104" lon="5.50663">
        <ele>375.6</ele>
        <time>2021-08-28T14:00:58Z</time>
      </trkpt>
      <trkpt lat="46.60133" lon="5.50686">
        <ele>374.4</ele>
        <time>2021-08-28T14:01:01Z</time>
      </trkpt>
      <trkpt lat="46.60142" lon="5.50693">
        <ele>374</ele>
        <time>2021-08-28T14:01:02Z</time>
      </trkpt>
      <trkpt lat="46.60162" lon="5.50703">
        <ele>373</ele>
        <time>2021-08-28T14:01:04Z</time>
      </trkpt>
      <trkpt lat="46.60183" lon="5.50713">
        <ele>371.6</ele>
        <time>2021-08-28T14:01:06Z</time>
      </trkpt>
      <trkpt lat="46.60215" lon="5.50727">
        <ele>370.4</ele>
        <time>2021-08-28T14:01:09Z</time>
      </trkpt>
      <trkpt lat="46.60238" lon="5.50733">
        <ele>369.4</ele>
        <time>2021-08-28T14:01:11Z</time>
      </trkpt>
      <trkpt lat="46.60261" lon="5.50734">
        <ele>368.6</ele>
        <time>2021-08-28T14:01:13Z</time>
      </trkpt>
      <trkpt lat="46.60272" lon="5.50733">
        <ele>367.8</ele>
        <time>2021-08-28T14:01:14Z</time>
      </trkpt>
      <trkpt lat="46.60295" lon="5.50732">
        <ele>366.4</ele>
        <time>2021-08-28T14:01:16Z</time>
      </trkpt>
      <trkpt lat="46.60329" lon="5.50733">
        <ele>364.6</ele>
        <time>2021-08-28T14:01:19Z</time>
      </trkpt>
      <trkpt lat="46.60341" lon="5.50735">
        <ele>364.2</ele>
        <time>2021-08-28T14:01:20Z</time>
      </trkpt>
      <trkpt lat="46.60352" lon="5.50738">
        <ele>363</ele>
        <time>2021-08-28T14:01:21Z</time>
      </trkpt>
      <trkpt lat="46.60362" lon="5.50742">
        <ele>362</ele>
        <time>2021-08-28T14:01:22Z</time>
      </trkpt>
      <trkpt lat="46.60395" lon="5.50755">
        <ele>360.8</ele>
        <time>2021-08-28T14:01:25Z</time>
      </trkpt>
      <trkpt lat="46.60426" lon="5.50765">
        <ele>359</ele>
        <time>2021-08-28T14:01:28Z</time>
      </trkpt>
      <trkpt lat="46.60447" lon="5.50769">
        <ele>357.8</ele>
        <time>2021-08-28T14:01:30Z</time>
      </trkpt>
      <trkpt lat="46.60479" lon="5.50775">
        <ele>356.4</ele>
        <time>2021-08-28T14:01:33Z</time>
      </trkpt>
      <trkpt lat="46.60511" lon="5.50779">
        <ele>355.4</ele>
        <time>2021-08-28T14:01:36Z</time>
      </trkpt>
      <trkpt lat="46.60532" lon="5.50779">
        <ele>354.4</ele>
        <time>2021-08-28T14:01:38Z</time>
      </trkpt>
      <trkpt lat="46.60554" lon="5.50778">
        <ele>353.2</ele>
        <time>2021-08-28T14:01:40Z</time>
      </trkpt>
      <trkpt lat="46.60575" lon="5.50776">
        <ele>351.4</ele>
        <time>2021-08-28T14:01:42Z</time>
      </trkpt>
      <trkpt lat="46.60594" lon="5.50774">
        <ele>350.4</ele>
        <time>2021-08-28T14:01:44Z</time>
      </trkpt>
      <trkpt lat="46.60605" lon="5.50773">
        <ele>350</ele>
        <time>2021-08-28T14:01:45Z</time>
      </trkpt>
      <trkpt lat="46.60627" lon="5.50771">
        <ele>349</ele>
        <time>2021-08-28T14:01:47Z</time>
      </trkpt>
      <trkpt lat="46.60648" lon="5.50765">
        <ele>348.4</ele>
        <time>2021-08-28T14:01:49Z</time>
      </trkpt>
      <trkpt lat="46.6066" lon="5.50759">
        <ele>348.2</ele>
        <time>2021-08-28T14:01:50Z</time>
      </trkpt>
      <trkpt lat="46.6067" lon="5.50754">
        <ele>347.8</ele>
        <time>2021-08-28T14:01:51Z</time>
      </trkpt>
      <trkpt lat="46.6069" lon="5.50743">
        <ele>346.6</ele>
        <time>2021-08-28T14:01:53Z</time>
      </trkpt>
      <trkpt lat="46.60709" lon="5.50731">
        <ele>345.6</ele>
        <time>2021-08-28T14:01:55Z</time>
      </trkpt>
      <trkpt lat="46.60737" lon="5.50719">
        <ele>344.4</ele>
        <time>2021-08-28T14:01:58Z</time>
      </trkpt>
      <trkpt lat="46.6075" lon="5.50717">
        <ele>344</ele>
        <time>2021-08-28T14:01:59Z</time>
      </trkpt>
      <trkpt lat="46.6076" lon="5.50716">
        <ele>343.4</ele>
        <time>2021-08-28T14:02:00Z</time>
      </trkpt>
      <trkpt lat="46.6077" lon="5.50716">
        <ele>342.6</ele>
        <time>2021-08-28T14:02:01Z</time>
      </trkpt>
      <trkpt lat="46.6078" lon="5.50716">
        <ele>342.4</ele>
        <time>2021-08-28T14:02:02Z</time>
      </trkpt>
      <trkpt lat="46.608" lon="5.50718">
        <ele>342</ele>
        <time>2021-08-28T14:02:04Z</time>
      </trkpt>
      <trkpt lat="46.60808" lon="5.50719">
        <ele>341.2</ele>
        <time>2021-08-28T14:02:05Z</time>
      </trkpt>
      <trkpt lat="46.60816" lon="5.50718">
        <ele>340.4</ele>
        <time>2021-08-28T14:02:06Z</time>
      </trkpt>
      <trkpt lat="46.60823" lon="5.50715">
        <ele>340</ele>
        <time>2021-08-28T14:02:07Z</time>
      </trkpt>
      <trkpt lat="46.60827" lon="5.50708">
        <ele>339.4</ele>
        <time>2021-08-28T14:02:08Z</time>
      </trkpt>
      <trkpt lat="46.60828" lon="5.50699">
        <ele>338.8</ele>
        <time>2021-08-28T14:02:09Z</time>
      </trkpt>
      <trkpt lat="46.60824" lon="5.50692">
        <ele>338.4</ele>
        <time>2021-08-28T14:02:10Z</time>
      </trkpt>
      <trkpt lat="46.60816" lon="5.50682">
        <ele>338.2</ele>
        <time>2021-08-28T14:02:11Z</time>
      </trkpt>
      <trkpt lat="46.60807" lon="5.50674">
        <ele>337.8</ele>
        <time>2021-08-28T14:02:12Z</time>
      </trkpt>
      <trkpt lat="46.6079" lon="5.50661">
        <ele>337.4</ele>
        <time>2021-08-28T14:02:14Z</time>
      </trkpt>
      <trkpt lat="46.60779" lon="5.50655">
        <ele>336.8</ele>
        <time>2021-08-28T14:02:15Z</time>
      </trkpt>
      <trkpt lat="46.60765" lon="5.50651">
        <ele>336.4</ele>
        <time>2021-08-28T14:02:16Z</time>
      </trkpt>
      <trkpt lat="46.60753" lon="5.50651">
        <ele>335.2</ele>
        <time>2021-08-28T14:02:17Z</time>
      </trkpt>
      <trkpt lat="46.6073" lon="5.50653">
        <ele>334</ele>
        <time>2021-08-28T14:02:19Z</time>
      </trkpt>
      <trkpt lat="46.60702" lon="5.50653">
        <ele>332.6</ele>
        <time>2021-08-28T14:02:21Z</time>
      </trkpt>
      <trkpt lat="46.60689" lon="5.50652">
        <ele>332</ele>
        <time>2021-08-28T14:02:22Z</time>
      </trkpt>
      <trkpt lat="46.60676" lon="5.5065">
        <ele>331.4</ele>
        <time>2021-08-28T14:02:23Z</time>
      </trkpt>
      <trkpt lat="46.60653" lon="5.50646">
        <ele>330.6</ele>
        <time>2021-08-28T14:02:25Z</time>
      </trkpt>
      <trkpt lat="46.60623" lon="5.50641">
        <ele>329.2</ele>
        <time>2021-08-28T14:02:27Z</time>
      </trkpt>
      <trkpt lat="46.60611" lon="5.50642">
        <ele>328.6</ele>
        <time>2021-08-28T14:02:28Z</time>
      </trkpt>
      <trkpt lat="46.606" lon="5.50644">
        <ele>327.4</ele>
        <time>2021-08-28T14:02:29Z</time>
      </trkpt>
      <trkpt lat="46.60571" lon="5.50651">
        <ele>326</ele>
        <time>2021-08-28T14:02:31Z</time>
      </trkpt>
      <trkpt lat="46.60558" lon="5.50653">
        <ele>325.6</ele>
        <time>2021-08-28T14:02:32Z</time>
      </trkpt>
      <trkpt lat="46.60545" lon="5.50654">
        <ele>324.4</ele>
        <time>2021-08-28T14:02:33Z</time>
      </trkpt>
      <trkpt lat="46.60534" lon="5.50652">
        <ele>324</ele>
        <time>2021-08-28T14:02:34Z</time>
      </trkpt>
      <trkpt lat="46.60518" lon="5.50648">
        <ele>323</ele>
        <time>2021-08-28T14:02:35Z</time>
      </trkpt>
      <trkpt lat="46.60505" lon="5.50643">
        <ele>321.4</ele>
        <time>2021-08-28T14:02:36Z</time>
      </trkpt>
      <trkpt lat="46.60492" lon="5.50637">
        <ele>320.8</ele>
        <time>2021-08-28T14:02:37Z</time>
      </trkpt>
      <trkpt lat="46.60479" lon="5.50629">
        <ele>320</ele>
        <time>2021-08-28T14:02:38Z</time>
      </trkpt>
      <trkpt lat="46.60466" lon="5.5062">
        <ele>319.8</ele>
        <time>2021-08-28T14:02:39Z</time>
      </trkpt>
      <trkpt lat="46.60454" lon="5.5061">
        <ele>319</ele>
        <time>2021-08-28T14:02:40Z</time>
      </trkpt>
      <trkpt lat="46.60428" lon="5.5059">
        <ele>317.6</ele>
        <time>2021-08-28T14:02:42Z</time>
      </trkpt>
      <trkpt lat="46.60416" lon="5.50578">
        <ele>316</ele>
        <time>2021-08-28T14:02:43Z</time>
      </trkpt>
      <trkpt lat="46.60404" lon="5.50566">
        <ele>315.4</ele>
        <time>2021-08-28T14:02:44Z</time>
      </trkpt>
      <trkpt lat="46.60392" lon="5.50552">
        <ele>313.2</ele>
        <time>2021-08-28T14:02:45Z</time>
      </trkpt>
      <trkpt lat="46.60382" lon="5.50537">
        <ele>312.4</ele>
        <time>2021-08-28T14:02:46Z</time>
      </trkpt>
      <trkpt lat="46.60373" lon="5.50521">
        <ele>311.2</ele>
        <time>2021-08-28T14:02:47Z</time>
      </trkpt>
      <trkpt lat="46.60364" lon="5.50503">
        <ele>310.6</ele>
        <time>2021-08-28T14:02:48Z</time>
      </trkpt>
      <trkpt lat="46.60358" lon="5.50484">
        <ele>309.6</ele>
        <time>2021-08-28T14:02:49Z</time>
      </trkpt>
      <trkpt lat="46.60352" lon="5.50466">
        <ele>309.2</ele>
        <time>2021-08-28T14:02:50Z</time>
      </trkpt>
      <trkpt lat="46.60346" lon="5.50448">
        <ele>307.6</ele>
        <time>2021-08-28T14:02:51Z</time>
      </trkpt>
      <trkpt lat="46.60338" lon="5.50433">
        <ele>306.6</ele>
        <time>2021-08-28T14:02:52Z</time>
      </trkpt>
      <trkpt lat="46.60329" lon="5.5042">
        <ele>306.2</ele>
        <time>2021-08-28T14:02:53Z</time>
      </trkpt>
      <trkpt lat="46.60318" lon="5.50409">
        <ele>305</ele>
        <time>2021-08-28T14:02:54Z</time>
      </trkpt>
      <trkpt lat="46.60308" lon="5.50398">
        <ele>304.8</ele>
        <time>2021-08-28T14:02:55Z</time>
      </trkpt>
      <trkpt lat="46.60298" lon="5.50385">
        <ele>303.6</ele>
        <time>2021-08-28T14:02:56Z</time>
      </trkpt>
      <trkpt lat="46.60288" lon="5.50374">
        <ele>303.4</ele>
        <time>2021-08-28T14:02:57Z</time>
      </trkpt>
      <trkpt lat="46.60276" lon="5.50365">
        <ele>302.4</ele>
        <time>2021-08-28T14:02:58Z</time>
      </trkpt>
      <trkpt lat="46.60264" lon="5.5036">
        <ele>301.2</ele>
        <time>2021-08-28T14:02:59Z</time>
      </trkpt>
      <trkpt lat="46.60253" lon="5.50358">
        <ele>300.6</ele>
        <time>2021-08-28T14:03:00Z</time>
      </trkpt>
      <trkpt lat="46.60237" lon="5.50357">
        <ele>300</ele>
        <time>2021-08-28T14:03:01Z</time>
      </trkpt>
      <trkpt lat="46.60196" lon="5.5035">
        <ele>298.4</ele>
        <time>2021-08-28T14:03:04Z</time>
      </trkpt>
      <trkpt lat="46.60183" lon="5.50345">
        <ele>297.2</ele>
        <time>2021-08-28T14:03:05Z</time>
      </trkpt>
      <trkpt lat="46.60158" lon="5.50329">
        <ele>295.4</ele>
        <time>2021-08-28T14:03:07Z</time>
      </trkpt>
      <trkpt lat="46.60133" lon="5.50313">
        <ele>294</ele>
        <time>2021-08-28T14:03:09Z</time>
      </trkpt>
      <trkpt lat="46.60108" lon="5.50297">
        <ele>292.4</ele>
        <time>2021-08-28T14:03:11Z</time>
      </trkpt>
      <trkpt lat="46.60095" lon="5.50291">
        <ele>291.2</ele>
        <time>2021-08-28T14:03:12Z</time>
      </trkpt>
      <trkpt lat="46.60082" lon="5.50289">
        <ele>290</ele>
        <time>2021-08-28T14:03:13Z</time>
      </trkpt>
      <trkpt lat="46.60054" lon="5.50289">
        <ele>288.4</ele>
        <time>2021-08-28T14:03:15Z</time>
      </trkpt>
      <trkpt lat="46.6004" lon="5.50288">
        <ele>288</ele>
        <time>2021-08-28T14:03:16Z</time>
      </trkpt>
      <trkpt lat="46.60026" lon="5.50284">
        <ele>287.2</ele>
        <time>2021-08-28T14:03:17Z</time>
      </trkpt>
      <trkpt lat="46.60013" lon="5.50278">
        <ele>286.6</ele>
        <time>2021-08-28T14:03:18Z</time>
      </trkpt>
      <trkpt lat="46.6" lon="5.50269">
        <ele>285.8</ele>
        <time>2021-08-28T14:03:19Z</time>
      </trkpt>
      <trkpt lat="46.5999" lon="5.50258">
        <ele>285.2</ele>
        <time>2021-08-28T14:03:20Z</time>
      </trkpt>
      <trkpt lat="46.59981" lon="5.50244">
        <ele>284</ele>
        <time>2021-08-28T14:03:21Z</time>
      </trkpt>
      <trkpt lat="46.59976" lon="5.50228">
        <ele>283</ele>
        <time>2021-08-28T14:03:22Z</time>
      </trkpt>
      <trkpt lat="46.59971" lon="5.50213">
        <ele>282.4</ele>
        <time>2021-08-28T14:03:23Z</time>
      </trkpt>
      <trkpt lat="46.59965" lon="5.502">
        <ele>281.2</ele>
        <time>2021-08-28T14:03:24Z</time>
      </trkpt>
      <trkpt lat="46.59946" lon="5.50187">
        <ele>279.2</ele>
        <time>2021-08-28T14:03:26Z</time>
      </trkpt>
      <trkpt lat="46.59911" lon="5.50189">
        <ele>277.8</ele>
        <time>2021-08-28T14:03:29Z</time>
      </trkpt>
      <trkpt lat="46.59896" lon="5.5019">
        <ele>277.6</ele>
        <time>2021-08-28T14:03:30Z</time>
      </trkpt>
      <trkpt lat="46.59884" lon="5.50193">
        <ele>277</ele>
        <time>2021-08-28T14:03:31Z</time>
      </trkpt>
      <trkpt lat="46.59874" lon="5.50196">
        <ele>276.6</ele>
        <time>2021-08-28T14:03:32Z</time>
      </trkpt>
      <trkpt lat="46.59862" lon="5.502">
        <ele>275.4</ele>
        <time>2021-08-28T14:03:33Z</time>
      </trkpt>
      <trkpt lat="46.59848" lon="5.50207">
        <ele>275</ele>
        <time>2021-08-28T14:03:34Z</time>
      </trkpt>
      <trkpt lat="46.59839" lon="5.50212">
        <ele>274.2</ele>
        <time>2021-08-28T14:03:35Z</time>
      </trkpt>
      <trkpt lat="46.59827" lon="5.50219">
        <ele>273</ele>
        <time>2021-08-28T14:03:36Z</time>
      </trkpt>
      <trkpt lat="46.59804" lon="5.50235">
        <ele>270.8</ele>
        <time>2021-08-28T14:03:38Z</time>
      </trkpt>
      <trkpt lat="46.59781" lon="5.5025">
        <ele>269.2</ele>
        <time>2021-08-28T14:03:40Z</time>
      </trkpt>
      <trkpt lat="46.59758" lon="5.50268">
        <ele>267.8</ele>
        <time>2021-08-28T14:03:42Z</time>
      </trkpt>
      <trkpt lat="46.59735" lon="5.50284">
        <ele>266.6</ele>
        <time>2021-08-28T14:03:44Z</time>
      </trkpt>
      <trkpt lat="46.59714" lon="5.50298">
        <ele>265.2</ele>
        <time>2021-08-28T14:03:46Z</time>
      </trkpt>
      <trkpt lat="46.59699" lon="5.50302">
        <ele>264</ele>
        <time>2021-08-28T14:03:48Z</time>
      </trkpt>
      <trkpt lat="46.5969" lon="5.50301">
        <ele>262.8</ele>
        <time>2021-08-28T14:03:49Z</time>
      </trkpt>
      <trkpt lat="46.59685" lon="5.50296">
        <ele>262.6</ele>
        <time>2021-08-28T14:03:50Z</time>
      </trkpt>
      <trkpt lat="46.59682" lon="5.50286">
        <ele>262</ele>
        <time>2021-08-28T14:03:51Z</time>
      </trkpt>
      <trkpt lat="46.59682" lon="5.50275">
        <ele>261.4</ele>
        <time>2021-08-28T14:03:52Z</time>
      </trkpt>
      <trkpt lat="46.59684" lon="5.50264">
        <ele>260.8</ele>
        <time>2021-08-28T14:03:53Z</time>
      </trkpt>
      <trkpt lat="46.59688" lon="5.50255">
        <ele>260.2</ele>
        <time>2021-08-28T14:03:54Z</time>
      </trkpt>
      <trkpt lat="46.59702" lon="5.50242">
        <ele>259.4</ele>
        <time>2021-08-28T14:03:56Z</time>
      </trkpt>
      <trkpt lat="46.5971" lon="5.50237">
        <ele>258.8</ele>
        <time>2021-08-28T14:03:57Z</time>
      </trkpt>
      <trkpt lat="46.59727" lon="5.50228">
        <ele>257.2</ele>
        <time>2021-08-28T14:03:59Z</time>
      </trkpt>
      <trkpt lat="46.59735" lon="5.50225">
        <ele>257</ele>
        <time>2021-08-28T14:04:00Z</time>
      </trkpt>
      <trkpt lat="46.59752" lon="5.5022">
        <ele>256.2</ele>
        <time>2021-08-28T14:04:02Z</time>
      </trkpt>
      <trkpt lat="46.59769" lon="5.50217">
        <ele>256.2</ele>
        <time>2021-08-28T14:04:04Z</time>
      </trkpt>
      <trkpt lat="46.59776" lon="5.50215">
        <ele>256</ele>
        <time>2021-08-28T14:04:05Z</time>
      </trkpt>
      <trkpt lat="46.59784" lon="5.50211">
        <ele>255.8</ele>
        <time>2021-08-28T14:04:06Z</time>
      </trkpt>
      <trkpt lat="46.59797" lon="5.50198">
        <ele>255.8</ele>
        <time>2021-08-28T14:04:08Z</time>
      </trkpt>
      <trkpt lat="46.59825" lon="5.50169">
        <ele>255.2</ele>
        <time>2021-08-28T14:04:12Z</time>
      </trkpt>
      <trkpt lat="46.59831" lon="5.50161">
        <ele>254.4</ele>
        <time>2021-08-28T14:04:13Z</time>
      </trkpt>
      <trkpt lat="46.59837" lon="5.50153">
        <ele>254.2</ele>
        <time>2021-08-28T14:04:14Z</time>
      </trkpt>
      <trkpt lat="46.59864" lon="5.50118">
        <ele>253.2</ele>
        <time>2021-08-28T14:04:18Z</time>
      </trkpt>
      <trkpt lat="46.59871" lon="5.50108">
        <ele>253</ele>
        <time>2021-08-28T14:04:19Z</time>
      </trkpt>
      <trkpt lat="46.59887" lon="5.50071">
        <ele>252.2</ele>
        <time>2021-08-28T14:04:22Z</time>
      </trkpt>
      <trkpt lat="46.59893" lon="5.50059">
        <ele>251.6</ele>
        <time>2021-08-28T14:04:23Z</time>
      </trkpt>
      <trkpt lat="46.59899" lon="5.50047">
        <ele>249.8</ele>
        <time>2021-08-28T14:04:24Z</time>
      </trkpt>
      <trkpt lat="46.59911" lon="5.50025">
        <ele>248</ele>
        <time>2021-08-28T14:04:26Z</time>
      </trkpt>
      <trkpt lat="46.59916" lon="5.50014">
        <ele>247.6</ele>
        <time>2021-08-28T14:04:27Z</time>
      </trkpt>
      <trkpt lat="46.59921" lon="5.49988">
        <ele>247.2</ele>
        <time>2021-08-28T14:04:29Z</time>
      </trkpt>
      <trkpt lat="46.59922" lon="5.4996">
        <ele>246.8</ele>
        <time>2021-08-28T14:04:31Z</time>
      </trkpt>
      <trkpt lat="46.59921" lon="5.49934">
        <ele>246</ele>
        <time>2021-08-28T14:04:33Z</time>
      </trkpt>
      <trkpt lat="46.59922" lon="5.49917">
        <ele>245.8</ele>
        <time>2021-08-28T14:04:34Z</time>
      </trkpt>
      <trkpt lat="46.59924" lon="5.4989">
        <ele>244.6</ele>
        <time>2021-08-28T14:04:36Z</time>
      </trkpt>
      <trkpt lat="46.59929" lon="5.49863">
        <ele>244.2</ele>
        <time>2021-08-28T14:04:38Z</time>
      </trkpt>
      <trkpt lat="46.59933" lon="5.49836">
        <ele>243.6</ele>
        <time>2021-08-28T14:04:40Z</time>
      </trkpt>
      <trkpt lat="46.59943" lon="5.49784">
        <ele>242.2</ele>
        <time>2021-08-28T14:04:44Z</time>
      </trkpt>
      <trkpt lat="46.59945" lon="5.49771">
        <ele>241.8</ele>
        <time>2021-08-28T14:04:45Z</time>
      </trkpt>
      <trkpt lat="46.59949" lon="5.4973">
        <ele>241.2</ele>
        <time>2021-08-28T14:04:48Z</time>
      </trkpt>
      <trkpt lat="46.5995" lon="5.49703">
        <ele>240.4</ele>
        <time>2021-08-28T14:04:50Z</time>
      </trkpt>
      <trkpt lat="46.5995" lon="5.49676">
        <ele>240</ele>
        <time>2021-08-28T14:04:52Z</time>
      </trkpt>
      <trkpt lat="46.59947" lon="5.49609">
        <ele>239.2</ele>
        <time>2021-08-28T14:04:57Z</time>
      </trkpt>
      <trkpt lat="46.59947" lon="5.49599">
        <ele>239</ele>
        <time>2021-08-28T14:04:58Z</time>
      </trkpt>
      <trkpt lat="46.59941" lon="5.49559">
        <ele>239</ele>
        <time>2021-08-28T14:05:01Z</time>
      </trkpt>
      <trkpt lat="46.59937" lon="5.49548">
        <ele>239</ele>
        <time>2021-08-28T14:05:02Z</time>
      </trkpt>
      <trkpt lat="46.59927" lon="5.49509">
        <ele>238.8</ele>
        <time>2021-08-28T14:05:05Z</time>
      </trkpt>
      <trkpt lat="46.59924" lon="5.49482">
        <ele>238.6</ele>
        <time>2021-08-28T14:05:07Z</time>
      </trkpt>
      <trkpt lat="46.59924" lon="5.49454">
        <ele>237.8</ele>
        <time>2021-08-28T14:05:09Z</time>
      </trkpt>
      <trkpt lat="46.59924" lon="5.49426">
        <ele>236.8</ele>
        <time>2021-08-28T14:05:11Z</time>
      </trkpt>
      <trkpt lat="46.59923" lon="5.49412">
        <ele>236.6</ele>
        <time>2021-08-28T14:05:12Z</time>
      </trkpt>
      <trkpt lat="46.5992" lon="5.49398">
        <ele>236</ele>
        <time>2021-08-28T14:05:13Z</time>
      </trkpt>
      <trkpt lat="46.59914" lon="5.49373">
        <ele>235.6</ele>
        <time>2021-08-28T14:05:15Z</time>
      </trkpt>
      <trkpt lat="46.5991" lon="5.4936">
        <ele>235.4</ele>
        <time>2021-08-28T14:05:16Z</time>
      </trkpt>
      <trkpt lat="46.59904" lon="5.49336">
        <ele>235.2</ele>
        <time>2021-08-28T14:05:18Z</time>
      </trkpt>
      <trkpt lat="46.599" lon="5.49311">
        <ele>235</ele>
        <time>2021-08-28T14:05:20Z</time>
      </trkpt>
      <trkpt lat="46.59902" lon="5.49258">
        <ele>235</ele>
        <time>2021-08-28T14:05:24Z</time>
      </trkpt>
      <trkpt lat="46.59901" lon="5.49232">
        <ele>235</ele>
        <time>2021-08-28T14:05:26Z</time>
      </trkpt>
      <trkpt lat="46.59899" lon="5.49221">
        <ele>235</ele>
        <time>2021-08-28T14:05:27Z</time>
      </trkpt>
      <trkpt lat="46.59891" lon="5.49183">
        <ele>234.4</ele>
        <time>2021-08-28T14:05:30Z</time>
      </trkpt>
      <trkpt lat="46.59884" lon="5.49136">
        <ele>234.2</ele>
        <time>2021-08-28T14:05:34Z</time>
      </trkpt>
      <trkpt lat="46.59872" lon="5.49057">
        <ele>234.6</ele>
        <time>2021-08-28T14:05:41Z</time>
      </trkpt>
      <trkpt lat="46.5987" lon="5.49023">
        <ele>234.8</ele>
        <time>2021-08-28T14:05:44Z</time>
      </trkpt>
      <trkpt lat="46.59871" lon="5.4901">
        <ele>235</ele>
        <time>2021-08-28T14:05:45Z</time>
      </trkpt>
      <trkpt lat="46.59872" lon="5.48998">
        <ele>235</ele>
        <time>2021-08-28T14:05:46Z</time>
      </trkpt>
      <trkpt lat="46.59881" lon="5.48935">
        <ele>234</ele>
        <time>2021-08-28T14:05:51Z</time>
      </trkpt>
      <trkpt lat="46.59883" lon="5.48921">
        <ele>233.4</ele>
        <time>2021-08-28T14:05:52Z</time>
      </trkpt>
      <trkpt lat="46.59895" lon="5.48871">
        <ele>232.4</ele>
        <time>2021-08-28T14:05:56Z</time>
      </trkpt>
      <trkpt lat="46.5991" lon="5.48827">
        <ele>231.2</ele>
        <time>2021-08-28T14:06:00Z</time>
      </trkpt>
      <trkpt lat="46.59921" lon="5.48793">
        <ele>231</ele>
        <time>2021-08-28T14:06:03Z</time>
      </trkpt>
      <trkpt lat="46.59924" lon="5.48782">
        <ele>231</ele>
        <time>2021-08-28T14:06:04Z</time>
      </trkpt>
      <trkpt lat="46.59926" lon="5.48759">
        <ele>231</ele>
        <time>2021-08-28T14:06:06Z</time>
      </trkpt>
      <trkpt lat="46.59926" lon="5.48747">
        <ele>231</ele>
        <time>2021-08-28T14:06:07Z</time>
      </trkpt>
      <trkpt lat="46.5993" lon="5.48675">
        <ele>231</ele>
        <time>2021-08-28T14:06:13Z</time>
      </trkpt>
      <trkpt lat="46.59933" lon="5.48589">
        <ele>230.6</ele>
        <time>2021-08-28T14:06:20Z</time>
      </trkpt>
      <trkpt lat="46.59937" lon="5.48565">
        <ele>230.2</ele>
        <time>2021-08-28T14:06:22Z</time>
      </trkpt>
      <trkpt lat="46.5995" lon="5.48508">
        <ele>229.6</ele>
        <time>2021-08-28T14:06:27Z</time>
      </trkpt>
      <trkpt lat="46.59964" lon="5.48457">
        <ele>229.2</ele>
        <time>2021-08-28T14:06:32Z</time>
      </trkpt>
      <trkpt lat="46.59967" lon="5.48447">
        <ele>229.2</ele>
        <time>2021-08-28T14:06:33Z</time>
      </trkpt>
      <trkpt lat="46.59985" lon="5.48391">
        <ele>229.2</ele>
        <time>2021-08-28T14:06:39Z</time>
      </trkpt>
      <trkpt lat="46.59991" lon="5.48373">
        <ele>229.2</ele>
        <time>2021-08-28T14:06:41Z</time>
      </trkpt>
      <trkpt lat="46.60001" lon="5.48337">
        <ele>229.2</ele>
        <time>2021-08-28T14:06:45Z</time>
      </trkpt>
      <trkpt lat="46.60021" lon="5.48269">
        <ele>229.4</ele>
        <time>2021-08-28T14:06:53Z</time>
      </trkpt>
      <trkpt lat="46.60034" lon="5.48221">
        <ele>230.4</ele>
        <time>2021-08-28T14:06:59Z</time>
      </trkpt>
      <trkpt lat="46.60035" lon="5.48214">
        <ele>230.4</ele>
        <time>2021-08-28T14:07:00Z</time>
      </trkpt>
      <trkpt lat="46.60037" lon="5.48191">
        <ele>230.8</ele>
        <time>2021-08-28T14:07:03Z</time>
      </trkpt>
      <trkpt lat="46.60036" lon="5.48178">
        <ele>231.4</ele>
        <time>2021-08-28T14:07:05Z</time>
      </trkpt>
      <trkpt lat="46.60034" lon="5.4816">
        <ele>232.8</ele>
        <time>2021-08-28T14:07:08Z</time>
      </trkpt>
      <trkpt lat="46.6003" lon="5.48142">
        <ele>234</ele>
        <time>2021-08-28T14:07:11Z</time>
      </trkpt>
      <trkpt lat="46.60029" lon="5.48136">
        <ele>234.2</ele>
        <time>2021-08-28T14:07:12Z</time>
      </trkpt>
      <trkpt lat="46.60028" lon="5.48112">
        <ele>235</ele>
        <time>2021-08-28T14:07:17Z</time>
      </trkpt>
      <trkpt lat="46.60029" lon="5.48097">
        <ele>236.2</ele>
        <time>2021-08-28T14:07:20Z</time>
      </trkpt>
      <trkpt lat="46.6003" lon="5.48088">
        <ele>237.4</ele>
        <time>2021-08-28T14:07:22Z</time>
      </trkpt>
      <trkpt lat="46.6003" lon="5.48083">
        <ele>237.6</ele>
        <time>2021-08-28T14:07:23Z</time>
      </trkpt>
      <trkpt lat="46.60029" lon="5.48063">
        <ele>238.8</ele>
        <time>2021-08-28T14:07:27Z</time>
      </trkpt>
      <trkpt lat="46.60024" lon="5.48042">
        <ele>239.6</ele>
        <time>2021-08-28T14:07:31Z</time>
      </trkpt>
      <trkpt lat="46.60012" lon="5.48015">
        <ele>239.6</ele>
        <time>2021-08-28T14:07:35Z</time>
      </trkpt>
      <trkpt lat="46.60005" lon="5.4797">
        <ele>238.6</ele>
        <time>2021-08-28T14:07:40Z</time>
      </trkpt>
      <trkpt lat="46.60007" lon="5.47949">
        <ele>238.4</ele>
        <time>2021-08-28T14:07:42Z</time>
      </trkpt>
      <trkpt lat="46.6001" lon="5.47939">
        <ele>238</ele>
        <time>2021-08-28T14:07:43Z</time>
      </trkpt>
      <trkpt lat="46.60014" lon="5.4793">
        <ele>237.8</ele>
        <time>2021-08-28T14:07:44Z</time>
      </trkpt>
      <trkpt lat="46.6002" lon="5.47922">
        <ele>237.6</ele>
        <time>2021-08-28T14:07:45Z</time>
      </trkpt>
      <trkpt lat="46.60026" lon="5.47915">
        <ele>237.2</ele>
        <time>2021-08-28T14:07:46Z</time>
      </trkpt>
      <trkpt lat="46.60051" lon="5.47885">
        <ele>237</ele>
        <time>2021-08-28T14:07:51Z</time>
      </trkpt>
      <trkpt lat="46.60055" lon="5.47878">
        <ele>237</ele>
        <time>2021-08-28T14:07:52Z</time>
      </trkpt>
      <trkpt lat="46.60061" lon="5.47865">
        <ele>237.4</ele>
        <time>2021-08-28T14:07:54Z</time>
      </trkpt>
      <trkpt lat="46.60063" lon="5.47848">
        <ele>237.8</ele>
        <time>2021-08-28T14:07:56Z</time>
      </trkpt>
      <trkpt lat="46.60066" lon="5.47805">
        <ele>237.8</ele>
        <time>2021-08-28T14:08:00Z</time>
      </trkpt>
      <trkpt lat="46.60068" lon="5.47793">
        <ele>237.8</ele>
        <time>2021-08-28T14:08:01Z</time>
      </trkpt>
      <trkpt lat="46.60075" lon="5.47771">
        <ele>237.4</ele>
        <time>2021-08-28T14:08:03Z</time>
      </trkpt>
      <trkpt lat="46.60079" lon="5.47761">
        <ele>236.8</ele>
        <time>2021-08-28T14:08:04Z</time>
      </trkpt>
      <trkpt lat="46.60085" lon="5.47752">
        <ele>236.6</ele>
        <time>2021-08-28T14:08:05Z</time>
      </trkpt>
      <trkpt lat="46.6009" lon="5.47743">
        <ele>236.2</ele>
        <time>2021-08-28T14:08:06Z</time>
      </trkpt>
      <trkpt lat="46.60101" lon="5.47726">
        <ele>235.2</ele>
        <time>2021-08-28T14:08:08Z</time>
      </trkpt>
      <trkpt lat="46.60115" lon="5.47705">
        <ele>234.6</ele>
        <time>2021-08-28T14:08:10Z</time>
      </trkpt>
      <trkpt lat="46.60123" lon="5.47697">
        <ele>233.8</ele>
        <time>2021-08-28T14:08:11Z</time>
      </trkpt>
      <trkpt lat="46.60138" lon="5.47683">
        <ele>232.8</ele>
        <time>2021-08-28T14:08:13Z</time>
      </trkpt>
      <trkpt lat="46.60146" lon="5.47676">
        <ele>232.6</ele>
        <time>2021-08-28T14:08:14Z</time>
      </trkpt>
      <trkpt lat="46.60168" lon="5.47655">
        <ele>231.2</ele>
        <time>2021-08-28T14:08:17Z</time>
      </trkpt>
      <trkpt lat="46.60175" lon="5.47649">
        <ele>230.8</ele>
        <time>2021-08-28T14:08:18Z</time>
      </trkpt>
      <trkpt lat="46.60183" lon="5.47644">
        <ele>230.6</ele>
        <time>2021-08-28T14:08:19Z</time>
      </trkpt>
      <trkpt lat="46.6019" lon="5.4764">
        <ele>230.4</ele>
        <time>2021-08-28T14:08:20Z</time>
      </trkpt>
      <trkpt lat="46.60198" lon="5.47636">
        <ele>230.2</ele>
        <time>2021-08-28T14:08:21Z</time>
      </trkpt>
      <trkpt lat="46.60213" lon="5.47632">
        <ele>230</ele>
        <time>2021-08-28T14:08:23Z</time>
      </trkpt>
      <trkpt lat="46.60252" lon="5.47623">
        <ele>230.2</ele>
        <time>2021-08-28T14:08:28Z</time>
      </trkpt>
      <trkpt lat="46.60265" lon="5.47614">
        <ele>230.6</ele>
        <time>2021-08-28T14:08:30Z</time>
      </trkpt>
      <trkpt lat="46.6027" lon="5.47608">
        <ele>230.6</ele>
        <time>2021-08-28T14:08:31Z</time>
      </trkpt>
      <trkpt lat="46.60275" lon="5.476">
        <ele>230.8</ele>
        <time>2021-08-28T14:08:32Z</time>
      </trkpt>
      <trkpt lat="46.60282" lon="5.47581">
        <ele>231</ele>
        <time>2021-08-28T14:08:34Z</time>
      </trkpt>
      <trkpt lat="46.60286" lon="5.47561">
        <ele>231.4</ele>
        <time>2021-08-28T14:08:36Z</time>
      </trkpt>
      <trkpt lat="46.6029" lon="5.47529">
        <ele>231.6</ele>
        <time>2021-08-28T14:08:39Z</time>
      </trkpt>
      <trkpt lat="46.60291" lon="5.47458">
        <ele>230.8</ele>
        <time>2021-08-28T14:08:45Z</time>
      </trkpt>
      <trkpt lat="46.60291" lon="5.47419">
        <ele>230.2</ele>
        <time>2021-08-28T14:08:48Z</time>
      </trkpt>
      <trkpt lat="46.60291" lon="5.47381">
        <ele>229</ele>
        <time>2021-08-28T14:08:51Z</time>
      </trkpt>
      <trkpt lat="46.60291" lon="5.47369">
        <ele>228.8</ele>
        <time>2021-08-28T14:08:52Z</time>
      </trkpt>
      <trkpt lat="46.60293" lon="5.47357">
        <ele>228.6</ele>
        <time>2021-08-28T14:08:53Z</time>
      </trkpt>
      <trkpt lat="46.60301" lon="5.47322">
        <ele>228.2</ele>
        <time>2021-08-28T14:08:56Z</time>
      </trkpt>
      <trkpt lat="46.60307" lon="5.47298">
        <ele>227.8</ele>
        <time>2021-08-28T14:08:58Z</time>
      </trkpt>
      <trkpt lat="46.60326" lon="5.47228">
        <ele>226.6</ele>
        <time>2021-08-28T14:09:04Z</time>
      </trkpt>
      <trkpt lat="46.60328" lon="5.47217">
        <ele>226.2</ele>
        <time>2021-08-28T14:09:05Z</time>
      </trkpt>
      <trkpt lat="46.60333" lon="5.47181">
        <ele>225.6</ele>
        <time>2021-08-28T14:09:08Z</time>
      </trkpt>
      <trkpt lat="46.60344" lon="5.47112">
        <ele>224.2</ele>
        <time>2021-08-28T14:09:14Z</time>
      </trkpt>
      <trkpt lat="46.60354" lon="5.47056">
        <ele>223.2</ele>
        <time>2021-08-28T14:09:19Z</time>
      </trkpt>
      <trkpt lat="46.60359" lon="5.47034">
        <ele>222.6</ele>
        <time>2021-08-28T14:09:21Z</time>
      </trkpt>
      <trkpt lat="46.60367" lon="5.47001">
        <ele>222.2</ele>
        <time>2021-08-28T14:09:24Z</time>
      </trkpt>
      <trkpt lat="46.60377" lon="5.46968">
        <ele>221.2</ele>
        <time>2021-08-28T14:09:27Z</time>
      </trkpt>
      <trkpt lat="46.60386" lon="5.46936">
        <ele>220</ele>
        <time>2021-08-28T14:09:30Z</time>
      </trkpt>
      <trkpt lat="46.60398" lon="5.46892">
        <ele>219.2</ele>
        <time>2021-08-28T14:09:34Z</time>
      </trkpt>
      <trkpt lat="46.60406" lon="5.4686">
        <ele>218.8</ele>
        <time>2021-08-28T14:09:37Z</time>
      </trkpt>
      <trkpt lat="46.60422" lon="5.46799">
        <ele>218.4</ele>
        <time>2021-08-28T14:09:43Z</time>
      </trkpt>
      <trkpt lat="46.60423" lon="5.46789">
        <ele>218.2</ele>
        <time>2021-08-28T14:09:44Z</time>
      </trkpt>
      <trkpt lat="46.60425" lon="5.46756">
        <ele>218</ele>
        <time>2021-08-28T14:09:47Z</time>
      </trkpt>
      <trkpt lat="46.60425" lon="5.46745">
        <ele>217.8</ele>
        <time>2021-08-28T14:09:48Z</time>
      </trkpt>
      <trkpt lat="46.60426" lon="5.46715">
        <ele>217.4</ele>
        <time>2021-08-28T14:09:51Z</time>
      </trkpt>
      <trkpt lat="46.60429" lon="5.46697">
        <ele>217.2</ele>
        <time>2021-08-28T14:09:53Z</time>
      </trkpt>
      <trkpt lat="46.60431" lon="5.46688">
        <ele>217.2</ele>
        <time>2021-08-28T14:09:54Z</time>
      </trkpt>
      <trkpt lat="46.60436" lon="5.46678">
        <ele>217</ele>
        <time>2021-08-28T14:09:56Z</time>
      </trkpt>
      <trkpt lat="46.60437" lon="5.46674">
        <ele>217</ele>
        <time>2021-08-28T14:09:59Z</time>
      </trkpt>
      <trkpt lat="46.60443" lon="5.4667">
        <ele>217.6</ele>
        <time>2021-08-28T14:10:04Z</time>
      </trkpt>
      <trkpt lat="46.60448" lon="5.46661">
        <ele>217.6</ele>
        <time>2021-08-28T14:10:06Z</time>
      </trkpt>
      <trkpt lat="46.6046" lon="5.46632">
        <ele>217.2</ele>
        <time>2021-08-28T14:10:10Z</time>
      </trkpt>
      <trkpt lat="46.60468" lon="5.46615">
        <ele>216.8</ele>
        <time>2021-08-28T14:10:12Z</time>
      </trkpt>
      <trkpt lat="46.60485" lon="5.46582">
        <ele>216</ele>
        <time>2021-08-28T14:10:16Z</time>
      </trkpt>
      <trkpt lat="46.6051" lon="5.46533">
        <ele>215.8</ele>
        <time>2021-08-28T14:10:22Z</time>
      </trkpt>
      <trkpt lat="46.60538" lon="5.46502">
        <ele>215.8</ele>
        <time>2021-08-28T14:10:27Z</time>
      </trkpt>
      <trkpt lat="46.60551" lon="5.46496">
        <ele>215.8</ele>
        <time>2021-08-28T14:10:29Z</time>
      </trkpt>
      <trkpt lat="46.6057" lon="5.46487">
        <ele>215.8</ele>
        <time>2021-08-28T14:10:32Z</time>
      </trkpt>
      <trkpt lat="46.60593" lon="5.46471">
        <ele>215.8</ele>
        <time>2021-08-28T14:10:36Z</time>
      </trkpt>
      <trkpt lat="46.60598" lon="5.46465">
        <ele>215.8</ele>
        <time>2021-08-28T14:10:37Z</time>
      </trkpt>
      <trkpt lat="46.60608" lon="5.46452">
        <ele>215.6</ele>
        <time>2021-08-28T14:10:39Z</time>
      </trkpt>
      <trkpt lat="46.6062" lon="5.46429">
        <ele>215.8</ele>
        <time>2021-08-28T14:10:42Z</time>
      </trkpt>
      <trkpt lat="46.60642" lon="5.46384">
        <ele>216.2</ele>
        <time>2021-08-28T14:10:48Z</time>
      </trkpt>
      <trkpt lat="46.60669" lon="5.46349">
        <ele>216.4</ele>
        <time>2021-08-28T14:10:54Z</time>
      </trkpt>
      <trkpt lat="46.60696" lon="5.46324">
        <ele>217</ele>
        <time>2021-08-28T14:11:00Z</time>
      </trkpt>
      <trkpt lat="46.60705" lon="5.46317">
        <ele>217.4</ele>
        <time>2021-08-28T14:11:02Z</time>
      </trkpt>
      <trkpt lat="46.60724" lon="5.46296">
        <ele>218.4</ele>
        <time>2021-08-28T14:11:07Z</time>
      </trkpt>
      <trkpt lat="46.60731" lon="5.46287">
        <ele>218.8</ele>
        <time>2021-08-28T14:11:09Z</time>
      </trkpt>
      <trkpt lat="46.60741" lon="5.46274">
        <ele>219.4</ele>
        <time>2021-08-28T14:11:12Z</time>
      </trkpt>
      <trkpt lat="46.60756" lon="5.46253">
        <ele>220.4</ele>
        <time>2021-08-28T14:11:17Z</time>
      </trkpt>
      <trkpt lat="46.6076" lon="5.46248">
        <ele>220.6</ele>
        <time>2021-08-28T14:11:18Z</time>
      </trkpt>
      <trkpt lat="46.6077" lon="5.46237">
        <ele>221.6</ele>
        <time>2021-08-28T14:11:21Z</time>
      </trkpt>
      <trkpt lat="46.60788" lon="5.46217">
        <ele>223</ele>
        <time>2021-08-28T14:11:26Z</time>
      </trkpt>
      <trkpt lat="46.60792" lon="5.46213">
        <ele>223.2</ele>
        <time>2021-08-28T14:11:27Z</time>
      </trkpt>
      <trkpt lat="46.60814" lon="5.46192">
        <ele>224.2</ele>
        <time>2021-08-28T14:11:33Z</time>
      </trkpt>
      <trkpt lat="46.60825" lon="5.4618">
        <ele>224.8</ele>
        <time>2021-08-28T14:11:36Z</time>
      </trkpt>
      <trkpt lat="46.60835" lon="5.46167">
        <ele>225.6</ele>
        <time>2021-08-28T14:11:39Z</time>
      </trkpt>
      <trkpt lat="46.60845" lon="5.46154">
        <ele>226.8</ele>
        <time>2021-08-28T14:11:42Z</time>
      </trkpt>
      <trkpt lat="46.60862" lon="5.46133">
        <ele>228</ele>
        <time>2021-08-28T14:11:47Z</time>
      </trkpt>
      <trkpt lat="46.60884" lon="5.461">
        <ele>229.4</ele>
        <time>2021-08-28T14:11:54Z</time>
      </trkpt>
      <trkpt lat="46.60893" lon="5.46087">
        <ele>229.8</ele>
        <time>2021-08-28T14:11:57Z</time>
      </trkpt>
      <trkpt lat="46.60905" lon="5.46068">
        <ele>230.4</ele>
        <time>2021-08-28T14:12:01Z</time>
      </trkpt>
      <trkpt lat="46.60927" lon="5.46033">
        <ele>231.8</ele>
        <time>2021-08-28T14:12:08Z</time>
      </trkpt>
      <trkpt lat="46.6093" lon="5.46027">
        <ele>232</ele>
        <time>2021-08-28T14:12:09Z</time>
      </trkpt>
      <trkpt lat="46.60941" lon="5.45989">
        <ele>232.8</ele>
        <time>2021-08-28T14:12:15Z</time>
      </trkpt>
      <trkpt lat="46.60949" lon="5.45921">
        <ele>232.8</ele>
        <time>2021-08-28T14:12:24Z</time>
      </trkpt>
      <trkpt lat="46.6096" lon="5.45858">
        <ele>232.6</ele>
        <time>2021-08-28T14:12:32Z</time>
      </trkpt>
      <trkpt lat="46.6098" lon="5.45795">
        <ele>233</ele>
        <time>2021-08-28T14:12:40Z</time>
      </trkpt>
      <trkpt lat="46.61" lon="5.4572">
        <ele>233.2</ele>
        <time>2021-08-28T14:12:49Z</time>
      </trkpt>
      <trkpt lat="46.61019" lon="5.45636">
        <ele>232.6</ele>
        <time>2021-08-28T14:12:58Z</time>
      </trkpt>
      <trkpt lat="46.61036" lon="5.45552">
        <ele>232.6</ele>
        <time>2021-08-28T14:13:06Z</time>
      </trkpt>
      <trkpt lat="46.61038" lon="5.45541">
        <ele>232.6</ele>
        <time>2021-08-28T14:13:07Z</time>
      </trkpt>
      <trkpt lat="46.61039" lon="5.4553">
        <ele>232.4</ele>
        <time>2021-08-28T14:13:08Z</time>
      </trkpt>
      <trkpt lat="46.6104" lon="5.45476">
        <ele>231.8</ele>
        <time>2021-08-28T14:13:13Z</time>
      </trkpt>
      <trkpt lat="46.61044" lon="5.45421">
        <ele>231.2</ele>
        <time>2021-08-28T14:13:18Z</time>
      </trkpt>
      <trkpt lat="46.61053" lon="5.45335">
        <ele>230.8</ele>
        <time>2021-08-28T14:13:26Z</time>
      </trkpt>
      <trkpt lat="46.61069" lon="5.45263">
        <ele>230</ele>
        <time>2021-08-28T14:13:33Z</time>
      </trkpt>
      <trkpt lat="46.61072" lon="5.45252">
        <ele>230</ele>
        <time>2021-08-28T14:13:34Z</time>
      </trkpt>
      <trkpt lat="46.61088" lon="5.45191">
        <ele>229</ele>
        <time>2021-08-28T14:13:40Z</time>
      </trkpt>
      <trkpt lat="46.61094" lon="5.4516">
        <ele>228.4</ele>
        <time>2021-08-28T14:13:43Z</time>
      </trkpt>
      <trkpt lat="46.61104" lon="5.45074">
        <ele>228</ele>
        <time>2021-08-28T14:13:51Z</time>
      </trkpt>
      <trkpt lat="46.61106" lon="5.45041">
        <ele>227.8</ele>
        <time>2021-08-28T14:13:54Z</time>
      </trkpt>
      <trkpt lat="46.61111" lon="5.45005">
        <ele>227.6</ele>
        <time>2021-08-28T14:13:57Z</time>
      </trkpt>
      <trkpt lat="46.61116" lon="5.44982">
        <ele>227.2</ele>
        <time>2021-08-28T14:13:59Z</time>
      </trkpt>
      <trkpt lat="46.61124" lon="5.4496">
        <ele>227</ele>
        <time>2021-08-28T14:14:01Z</time>
      </trkpt>
      <trkpt lat="46.61136" lon="5.4494">
        <ele>226.6</ele>
        <time>2021-08-28T14:14:03Z</time>
      </trkpt>
      <trkpt lat="46.61142" lon="5.44934">
        <ele>226.4</ele>
        <time>2021-08-28T14:14:04Z</time>
      </trkpt>
      <trkpt lat="46.61192" lon="5.4489">
        <ele>225.8</ele>
        <time>2021-08-28T14:14:11Z</time>
      </trkpt>
      <trkpt lat="46.61205" lon="5.44873">
        <ele>226</ele>
        <time>2021-08-28T14:14:13Z</time>
      </trkpt>
      <trkpt lat="46.61215" lon="5.44854">
        <ele>225.6</ele>
        <time>2021-08-28T14:14:15Z</time>
      </trkpt>
      <trkpt lat="46.61232" lon="5.44801">
        <ele>224.8</ele>
        <time>2021-08-28T14:14:20Z</time>
      </trkpt>
      <trkpt lat="46.61235" lon="5.44789">
        <ele>224.8</ele>
        <time>2021-08-28T14:14:21Z</time>
      </trkpt>
      <trkpt lat="46.61237" lon="5.44776">
        <ele>224.6</ele>
        <time>2021-08-28T14:14:22Z</time>
      </trkpt>
      <trkpt lat="46.61241" lon="5.44736">
        <ele>224</ele>
        <time>2021-08-28T14:14:25Z</time>
      </trkpt>
      <trkpt lat="46.61244" lon="5.44708">
        <ele>223.2</ele>
        <time>2021-08-28T14:14:27Z</time>
      </trkpt>
      <trkpt lat="46.61253" lon="5.4465">
        <ele>221.6</ele>
        <time>2021-08-28T14:14:31Z</time>
      </trkpt>
      <trkpt lat="46.6126" lon="5.44621">
        <ele>220.4</ele>
        <time>2021-08-28T14:14:33Z</time>
      </trkpt>
      <trkpt lat="46.61271" lon="5.44577">
        <ele>218.6</ele>
        <time>2021-08-28T14:14:36Z</time>
      </trkpt>
      <trkpt lat="46.61274" lon="5.44564">
        <ele>218.2</ele>
        <time>2021-08-28T14:14:37Z</time>
      </trkpt>
      <trkpt lat="46.61278" lon="5.44547">
        <ele>217.2</ele>
        <time>2021-08-28T14:14:38Z</time>
      </trkpt>
      <trkpt lat="46.61287" lon="5.44503">
        <ele>216.2</ele>
        <time>2021-08-28T14:14:41Z</time>
      </trkpt>
      <trkpt lat="46.61297" lon="5.4446">
        <ele>215</ele>
        <time>2021-08-28T14:14:44Z</time>
      </trkpt>
      <trkpt lat="46.61303" lon="5.44432">
        <ele>213.8</ele>
        <time>2021-08-28T14:14:46Z</time>
      </trkpt>
      <trkpt lat="46.61306" lon="5.44419">
        <ele>213.6</ele>
        <time>2021-08-28T14:14:47Z</time>
      </trkpt>
      <trkpt lat="46.61313" lon="5.4438">
        <ele>212.6</ele>
        <time>2021-08-28T14:14:50Z</time>
      </trkpt>
      <trkpt lat="46.61322" lon="5.44329">
        <ele>211.8</ele>
        <time>2021-08-28T14:14:54Z</time>
      </trkpt>
      <trkpt lat="46.61329" lon="5.44252">
        <ele>211.8</ele>
        <time>2021-08-28T14:15:00Z</time>
      </trkpt>
      <trkpt lat="46.61337" lon="5.44215">
        <ele>212</ele>
        <time>2021-08-28T14:15:03Z</time>
      </trkpt>
      <trkpt lat="46.61341" lon="5.44204">
        <ele>212</ele>
        <time>2021-08-28T14:15:04Z</time>
      </trkpt>
      <trkpt lat="46.6136" lon="5.44166">
        <ele>212</ele>
        <time>2021-08-28T14:15:08Z</time>
      </trkpt>
      <trkpt lat="46.61383" lon="5.44107">
        <ele>212</ele>
        <time>2021-08-28T14:15:14Z</time>
      </trkpt>
      <trkpt lat="46.61388" lon="5.44085">
        <ele>212</ele>
        <time>2021-08-28T14:15:16Z</time>
      </trkpt>
      <trkpt lat="46.61391" lon="5.44054">
        <ele>211.8</ele>
        <time>2021-08-28T14:15:19Z</time>
      </trkpt>
      <trkpt lat="46.61392" lon="5.44019">
        <ele>211.6</ele>
        <time>2021-08-28T14:15:22Z</time>
      </trkpt>
      <trkpt lat="46.61391" lon="5.43998">
        <ele>211.4</ele>
        <time>2021-08-28T14:15:24Z</time>
      </trkpt>
      <trkpt lat="46.61384" lon="5.43944">
        <ele>212.8</ele>
        <time>2021-08-28T14:15:29Z</time>
      </trkpt>
      <trkpt lat="46.61382" lon="5.43933">
        <ele>213</ele>
        <time>2021-08-28T14:15:30Z</time>
      </trkpt>
      <trkpt lat="46.61371" lon="5.43864">
        <ele>213.2</ele>
        <time>2021-08-28T14:15:36Z</time>
      </trkpt>
      <trkpt lat="46.61357" lon="5.43791">
        <ele>211.8</ele>
        <time>2021-08-28T14:15:42Z</time>
      </trkpt>
      <trkpt lat="46.61356" lon="5.43778">
        <ele>211.6</ele>
        <time>2021-08-28T14:15:43Z</time>
      </trkpt>
      <trkpt lat="46.61354" lon="5.43751">
        <ele>210.6</ele>
        <time>2021-08-28T14:15:45Z</time>
      </trkpt>
      <trkpt lat="46.61352" lon="5.43697">
        <ele>209.2</ele>
        <time>2021-08-28T14:15:49Z</time>
      </trkpt>
      <trkpt lat="46.61352" lon="5.43685">
        <ele>208.4</ele>
        <time>2021-08-28T14:15:50Z</time>
      </trkpt>
      <trkpt lat="46.61352" lon="5.43598">
        <ele>208.2</ele>
        <time>2021-08-28T14:15:57Z</time>
      </trkpt>
      <trkpt lat="46.61358" lon="5.43515">
        <ele>208.6</ele>
        <time>2021-08-28T14:16:04Z</time>
      </trkpt>
      <trkpt lat="46.61359" lon="5.43501">
        <ele>208.6</ele>
        <time>2021-08-28T14:16:05Z</time>
      </trkpt>
      <trkpt lat="46.61359" lon="5.43443">
        <ele>208.8</ele>
        <time>2021-08-28T14:16:10Z</time>
      </trkpt>
      <trkpt lat="46.61355" lon="5.43384">
        <ele>208.6</ele>
        <time>2021-08-28T14:16:15Z</time>
      </trkpt>
      <trkpt lat="46.61356" lon="5.43371">
        <ele>208.4</ele>
        <time>2021-08-28T14:16:16Z</time>
      </trkpt>
      <trkpt lat="46.61357" lon="5.43362">
        <ele>208.2</ele>
        <time>2021-08-28T14:16:17Z</time>
      </trkpt>
      <trkpt lat="46.6136" lon="5.43348">
        <ele>208</ele>
        <time>2021-08-28T14:16:18Z</time>
      </trkpt>
      <trkpt lat="46.61367" lon="5.43326">
        <ele>207.8</ele>
        <time>2021-08-28T14:16:20Z</time>
      </trkpt>
      <trkpt lat="46.61371" lon="5.43315">
        <ele>207.8</ele>
        <time>2021-08-28T14:16:21Z</time>
      </trkpt>
      <trkpt lat="46.61403" lon="5.43251">
        <ele>207</ele>
        <time>2021-08-28T14:16:28Z</time>
      </trkpt>
      <trkpt lat="46.61424" lon="5.43218">
        <ele>207.2</ele>
        <time>2021-08-28T14:16:32Z</time>
      </trkpt>
      <trkpt lat="46.61426" lon="5.4321">
        <ele>207.2</ele>
        <time>2021-08-28T14:16:33Z</time>
      </trkpt>
      <trkpt lat="46.61428" lon="5.43198">
        <ele>207.2</ele>
        <time>2021-08-28T14:16:34Z</time>
      </trkpt>
      <trkpt lat="46.61427" lon="5.43187">
        <ele>207.2</ele>
        <time>2021-08-28T14:16:35Z</time>
      </trkpt>
      <trkpt lat="46.61425" lon="5.43177">
        <ele>207.2</ele>
        <time>2021-08-28T14:16:36Z</time>
      </trkpt>
      <trkpt lat="46.61414" lon="5.43148">
        <ele>207.8</ele>
        <time>2021-08-28T14:16:39Z</time>
      </trkpt>
      <trkpt lat="46.61391" lon="5.43104">
        <ele>208.2</ele>
        <time>2021-08-28T14:16:44Z</time>
      </trkpt>
      <trkpt lat="46.61386" lon="5.43096">
        <ele>208.2</ele>
        <time>2021-08-28T14:16:45Z</time>
      </trkpt>
      <trkpt lat="46.61381" lon="5.4309">
        <ele>208.6</ele>
        <time>2021-08-28T14:16:46Z</time>
      </trkpt>
      <trkpt lat="46.61362" lon="5.43073">
        <ele>209</ele>
        <time>2021-08-28T14:16:49Z</time>
      </trkpt>
      <trkpt lat="46.61352" lon="5.43061">
        <ele>209.4</ele>
        <time>2021-08-28T14:16:51Z</time>
      </trkpt>
      <trkpt lat="46.61347" lon="5.43054">
        <ele>209.4</ele>
        <time>2021-08-28T14:16:52Z</time>
      </trkpt>
      <trkpt lat="46.61339" lon="5.43035">
        <ele>209.6</ele>
        <time>2021-08-28T14:16:54Z</time>
      </trkpt>
      <trkpt lat="46.61338" lon="5.43014">
        <ele>209.6</ele>
        <time>2021-08-28T14:16:56Z</time>
      </trkpt>
      <trkpt lat="46.61341" lon="5.43004">
        <ele>209.4</ele>
        <time>2021-08-28T14:16:57Z</time>
      </trkpt>
      <trkpt lat="46.61345" lon="5.42994">
        <ele>209</ele>
        <time>2021-08-28T14:16:58Z</time>
      </trkpt>
      <trkpt lat="46.61358" lon="5.42978">
        <ele>207.8</ele>
        <time>2021-08-28T14:17:00Z</time>
      </trkpt>
      <trkpt lat="46.61386" lon="5.42943">
        <ele>206.6</ele>
        <time>2021-08-28T14:17:04Z</time>
      </trkpt>
      <trkpt lat="46.61393" lon="5.42933">
        <ele>206.4</ele>
        <time>2021-08-28T14:17:05Z</time>
      </trkpt>
      <trkpt lat="46.61421" lon="5.42894">
        <ele>205.8</ele>
        <time>2021-08-28T14:17:09Z</time>
      </trkpt>
      <trkpt lat="46.61428" lon="5.42886">
        <ele>205.4</ele>
        <time>2021-08-28T14:17:10Z</time>
      </trkpt>
      <trkpt lat="46.61435" lon="5.42877">
        <ele>205</ele>
        <time>2021-08-28T14:17:11Z</time>
      </trkpt>
      <trkpt lat="46.61463" lon="5.4285">
        <ele>204.2</ele>
        <time>2021-08-28T14:17:15Z</time>
      </trkpt>
      <trkpt lat="46.61479" lon="5.42836">
        <ele>203.6</ele>
        <time>2021-08-28T14:17:17Z</time>
      </trkpt>
      <trkpt lat="46.61521" lon="5.42804">
        <ele>203.4</ele>
        <time>2021-08-28T14:17:23Z</time>
      </trkpt>
      <trkpt lat="46.61566" lon="5.42769">
        <ele>204.4</ele>
        <time>2021-08-28T14:17:30Z</time>
      </trkpt>
      <trkpt lat="46.61616" lon="5.42725">
        <ele>204</ele>
        <time>2021-08-28T14:17:38Z</time>
      </trkpt>
      <trkpt lat="46.61628" lon="5.42716">
        <ele>204.2</ele>
        <time>2021-08-28T14:17:40Z</time>
      </trkpt>
      <trkpt lat="46.61655" lon="5.42693">
        <ele>204.6</ele>
        <time>2021-08-28T14:17:45Z</time>
      </trkpt>
      <trkpt lat="46.6166" lon="5.42688">
        <ele>204.8</ele>
        <time>2021-08-28T14:17:46Z</time>
      </trkpt>
      <trkpt lat="46.6167" lon="5.42679">
        <ele>205</ele>
        <time>2021-08-28T14:17:48Z</time>
      </trkpt>
      <trkpt lat="46.61674" lon="5.42674">
        <ele>205.2</ele>
        <time>2021-08-28T14:17:49Z</time>
      </trkpt>
      <trkpt lat="46.61684" lon="5.42667">
        <ele>205.8</ele>
        <time>2021-08-28T14:17:51Z</time>
      </trkpt>
      <trkpt lat="46.61694" lon="5.42661">
        <ele>206.2</ele>
        <time>2021-08-28T14:17:53Z</time>
      </trkpt>
      <trkpt lat="46.617" lon="5.4266">
        <ele>206.4</ele>
        <time>2021-08-28T14:17:54Z</time>
      </trkpt>
      <trkpt lat="46.6171" lon="5.42659">
        <ele>207</ele>
        <time>2021-08-28T14:17:56Z</time>
      </trkpt>
      <trkpt lat="46.6172" lon="5.42659">
        <ele>207.6</ele>
        <time>2021-08-28T14:17:58Z</time>
      </trkpt>
      <trkpt lat="46.61729" lon="5.4266">
        <ele>208.2</ele>
        <time>2021-08-28T14:18:00Z</time>
      </trkpt>
      <trkpt lat="46.61738" lon="5.4266">
        <ele>208.8</ele>
        <time>2021-08-28T14:18:02Z</time>
      </trkpt>
      <trkpt lat="46.61743" lon="5.42653">
        <ele>208.8</ele>
        <time>2021-08-28T14:18:04Z</time>
      </trkpt>
      <trkpt lat="46.61743" lon="5.42648">
        <ele>209.6</ele>
        <time>2021-08-28T14:18:05Z</time>
      </trkpt>
      <trkpt lat="46.61742" lon="5.42641">
        <ele>210</ele>
        <time>2021-08-28T14:18:06Z</time>
      </trkpt>
      <trkpt lat="46.6174" lon="5.42635">
        <ele>210.6</ele>
        <time>2021-08-28T14:18:07Z</time>
      </trkpt>
      <trkpt lat="46.61735" lon="5.42621">
        <ele>210.8</ele>
        <time>2021-08-28T14:18:09Z</time>
      </trkpt>
      <trkpt lat="46.61728" lon="5.42607">
        <ele>211</ele>
        <time>2021-08-28T14:18:11Z</time>
      </trkpt>
      <trkpt lat="46.61717" lon="5.42595">
        <ele>211</ele>
        <time>2021-08-28T14:18:13Z</time>
      </trkpt>
      <trkpt lat="46.61705" lon="5.42583">
        <ele>211</ele>
        <time>2021-08-28T14:18:15Z</time>
      </trkpt>
      <trkpt lat="46.61665" lon="5.42546">
        <ele>209.6</ele>
        <time>2021-08-28T14:18:21Z</time>
      </trkpt>
      <trkpt lat="46.61624" lon="5.42517">
        <ele>208</ele>
        <time>2021-08-28T14:18:26Z</time>
      </trkpt>
      <trkpt lat="46.61617" lon="5.4251">
        <ele>207.6</ele>
        <time>2021-08-28T14:18:27Z</time>
      </trkpt>
      <trkpt lat="46.61604" lon="5.4249">
        <ele>206.8</ele>
        <time>2021-08-28T14:18:29Z</time>
      </trkpt>
      <trkpt lat="46.61599" lon="5.42477">
        <ele>206.2</ele>
        <time>2021-08-28T14:18:30Z</time>
      </trkpt>
      <trkpt lat="46.61589" lon="5.42452">
        <ele>205.6</ele>
        <time>2021-08-28T14:18:32Z</time>
      </trkpt>
      <trkpt lat="46.61576" lon="5.42411">
        <ele>204.8</ele>
        <time>2021-08-28T14:18:35Z</time>
      </trkpt>
      <trkpt lat="46.61573" lon="5.42397">
        <ele>204.4</ele>
        <time>2021-08-28T14:18:36Z</time>
      </trkpt>
      <trkpt lat="46.61564" lon="5.4231">
        <ele>203.8</ele>
        <time>2021-08-28T14:18:42Z</time>
      </trkpt>
      <trkpt lat="46.61553" lon="5.42241">
        <ele>203.4</ele>
        <time>2021-08-28T14:18:47Z</time>
      </trkpt>
      <trkpt lat="46.61544" lon="5.42202">
        <ele>203.4</ele>
        <time>2021-08-28T14:18:50Z</time>
      </trkpt>
      <trkpt lat="46.61522" lon="5.42127">
        <ele>203.6</ele>
        <time>2021-08-28T14:18:56Z</time>
      </trkpt>
      <trkpt lat="46.61513" lon="5.42103">
        <ele>203.4</ele>
        <time>2021-08-28T14:18:58Z</time>
      </trkpt>
      <trkpt lat="46.61503" lon="5.4208">
        <ele>203.4</ele>
        <time>2021-08-28T14:19:00Z</time>
      </trkpt>
      <trkpt lat="46.61491" lon="5.42061">
        <ele>203.4</ele>
        <time>2021-08-28T14:19:02Z</time>
      </trkpt>
      <trkpt lat="46.61471" lon="5.42032">
        <ele>203</ele>
        <time>2021-08-28T14:19:05Z</time>
      </trkpt>
      <trkpt lat="46.61465" lon="5.42021">
        <ele>202.8</ele>
        <time>2021-08-28T14:19:06Z</time>
      </trkpt>
      <trkpt lat="46.61444" lon="5.41975">
        <ele>202.4</ele>
        <time>2021-08-28T14:19:10Z</time>
      </trkpt>
      <trkpt lat="46.61423" lon="5.41931">
        <ele>202.4</ele>
        <time>2021-08-28T14:19:14Z</time>
      </trkpt>
      <trkpt lat="46.61402" lon="5.41888">
        <ele>202.2</ele>
        <time>2021-08-28T14:19:18Z</time>
      </trkpt>
      <trkpt lat="46.61396" lon="5.41879">
        <ele>202.2</ele>
        <time>2021-08-28T14:19:19Z</time>
      </trkpt>
      <trkpt lat="46.61359" lon="5.41838">
        <ele>202</ele>
        <time>2021-08-28T14:19:24Z</time>
      </trkpt>
      <trkpt lat="46.61318" lon="5.41783">
        <ele>201.8</ele>
        <time>2021-08-28T14:19:30Z</time>
      </trkpt>
      <trkpt lat="46.61298" lon="5.41755">
        <ele>201.4</ele>
        <time>2021-08-28T14:19:33Z</time>
      </trkpt>
      <trkpt lat="46.6126" lon="5.417">
        <ele>200.8</ele>
        <time>2021-08-28T14:19:39Z</time>
      </trkpt>
      <trkpt lat="46.6123" lon="5.41639">
        <ele>200.4</ele>
        <time>2021-08-28T14:19:45Z</time>
      </trkpt>
      <trkpt lat="46.61199" lon="5.4158">
        <ele>200.6</ele>
        <time>2021-08-28T14:19:51Z</time>
      </trkpt>
      <trkpt lat="46.61161" lon="5.41522">
        <ele>200.6</ele>
        <time>2021-08-28T14:19:57Z</time>
      </trkpt>
      <trkpt lat="46.61135" lon="5.41468">
        <ele>200.8</ele>
        <time>2021-08-28T14:20:02Z</time>
      </trkpt>
      <trkpt lat="46.61121" lon="5.41407">
        <ele>200.8</ele>
        <time>2021-08-28T14:20:07Z</time>
      </trkpt>
      <trkpt lat="46.61114" lon="5.4133">
        <ele>200.4</ele>
        <time>2021-08-28T14:20:13Z</time>
      </trkpt>
      <trkpt lat="46.61111" lon="5.41318">
        <ele>200.4</ele>
        <time>2021-08-28T14:20:14Z</time>
      </trkpt>
      <trkpt lat="46.61103" lon="5.41297">
        <ele>200.2</ele>
        <time>2021-08-28T14:20:16Z</time>
      </trkpt>
      <trkpt lat="46.61077" lon="5.4125">
        <ele>200.2</ele>
        <time>2021-08-28T14:20:21Z</time>
      </trkpt>
      <trkpt lat="46.61073" lon="5.41241">
        <ele>200.6</ele>
        <time>2021-08-28T14:20:22Z</time>
      </trkpt>
      <trkpt lat="46.61062" lon="5.41212">
        <ele>201.2</ele>
        <time>2021-08-28T14:20:25Z</time>
      </trkpt>
      <trkpt lat="46.61049" lon="5.41163">
        <ele>201.6</ele>
        <time>2021-08-28T14:20:30Z</time>
      </trkpt>
      <trkpt lat="46.61039" lon="5.41152">
        <ele>201.6</ele>
        <time>2021-08-28T14:20:32Z</time>
      </trkpt>
      <trkpt lat="46.61034" lon="5.4115">
        <ele>201.6</ele>
        <time>2021-08-28T14:20:33Z</time>
      </trkpt>
      <trkpt lat="46.61027" lon="5.4115">
        <ele>201.4</ele>
        <time>2021-08-28T14:20:34Z</time>
      </trkpt>
      <trkpt lat="46.61013" lon="5.41155">
        <ele>201.4</ele>
        <time>2021-08-28T14:20:36Z</time>
      </trkpt>
      <trkpt lat="46.60998" lon="5.41166">
        <ele>201.6</ele>
        <time>2021-08-28T14:20:38Z</time>
      </trkpt>
      <trkpt lat="46.60984" lon="5.41179">
        <ele>201.6</ele>
        <time>2021-08-28T14:20:40Z</time>
      </trkpt>
      <trkpt lat="46.60944" lon="5.41219">
        <ele>201.6</ele>
        <time>2021-08-28T14:20:46Z</time>
      </trkpt>
      <trkpt lat="46.60925" lon="5.41239">
        <ele>201.6</ele>
        <time>2021-08-28T14:20:49Z</time>
      </trkpt>
      <trkpt lat="46.60902" lon="5.41266">
        <ele>201.6</ele>
        <time>2021-08-28T14:20:53Z</time>
      </trkpt>
      <trkpt lat="46.6087" lon="5.41307">
        <ele>202.8</ele>
        <time>2021-08-28T14:20:59Z</time>
      </trkpt>
      <trkpt lat="46.60854" lon="5.41325">
        <ele>202.8</ele>
        <time>2021-08-28T14:21:02Z</time>
      </trkpt>
      <trkpt lat="46.60841" lon="5.41331">
        <ele>203.2</ele>
        <time>2021-08-28T14:21:04Z</time>
      </trkpt>
      <trkpt lat="46.60827" lon="5.41331">
        <ele>203.4</ele>
        <time>2021-08-28T14:21:06Z</time>
      </trkpt>
      <trkpt lat="46.6082" lon="5.4133">
        <ele>203.4</ele>
        <time>2021-08-28T14:21:07Z</time>
      </trkpt>
      <trkpt lat="46.60814" lon="5.41326">
        <ele>203.4</ele>
        <time>2021-08-28T14:21:08Z</time>
      </trkpt>
      <trkpt lat="46.60803" lon="5.41316">
        <ele>204</ele>
        <time>2021-08-28T14:21:10Z</time>
      </trkpt>
      <trkpt lat="46.60797" lon="5.41311">
        <ele>204</ele>
        <time>2021-08-28T14:21:11Z</time>
      </trkpt>
      <trkpt lat="46.60777" lon="5.41289">
        <ele>205.2</ele>
        <time>2021-08-28T14:21:15Z</time>
      </trkpt>
      <trkpt lat="46.60768" lon="5.41279">
        <ele>206.2</ele>
        <time>2021-08-28T14:21:17Z</time>
      </trkpt>
      <trkpt lat="46.60741" lon="5.41252">
        <ele>207.4</ele>
        <time>2021-08-28T14:21:22Z</time>
      </trkpt>
      <trkpt lat="46.6073" lon="5.41239">
        <ele>207.6</ele>
        <time>2021-08-28T14:21:24Z</time>
      </trkpt>
      <trkpt lat="46.60694" lon="5.41193">
        <ele>207.6</ele>
        <time>2021-08-28T14:21:30Z</time>
      </trkpt>
      <trkpt lat="46.60687" lon="5.41187">
        <ele>207.6</ele>
        <time>2021-08-28T14:21:31Z</time>
      </trkpt>
      <trkpt lat="46.60663" lon="5.41174">
        <ele>207.4</ele>
        <time>2021-08-28T14:21:34Z</time>
      </trkpt>
      <trkpt lat="46.60615" lon="5.41159">
        <ele>207.6</ele>
        <time>2021-08-28T14:21:40Z</time>
      </trkpt>
      <trkpt lat="46.6056" lon="5.41145">
        <ele>208.4</ele>
        <time>2021-08-28T14:21:47Z</time>
      </trkpt>
      <trkpt lat="46.60553" lon="5.41143">
        <ele>208.6</ele>
        <time>2021-08-28T14:21:48Z</time>
      </trkpt>
      <trkpt lat="46.60545" lon="5.41142">
        <ele>208.8</ele>
        <time>2021-08-28T14:21:49Z</time>
      </trkpt>
      <trkpt lat="46.60521" lon="5.41139">
        <ele>209.6</ele>
        <time>2021-08-28T14:21:52Z</time>
      </trkpt>
      <trkpt lat="46.6049" lon="5.41137">
        <ele>210.8</ele>
        <time>2021-08-28T14:21:56Z</time>
      </trkpt>
      <trkpt lat="46.60475" lon="5.41136">
        <ele>211.6</ele>
        <time>2021-08-28T14:21:58Z</time>
      </trkpt>
      <trkpt lat="46.60461" lon="5.41132">
        <ele>212</ele>
        <time>2021-08-28T14:22:00Z</time>
      </trkpt>
      <trkpt lat="46.60454" lon="5.41129">
        <ele>212.4</ele>
        <time>2021-08-28T14:22:01Z</time>
      </trkpt>
      <trkpt lat="46.60447" lon="5.41125">
        <ele>212.4</ele>
        <time>2021-08-28T14:22:02Z</time>
      </trkpt>
      <trkpt lat="46.60441" lon="5.41119">
        <ele>212.8</ele>
        <time>2021-08-28T14:22:03Z</time>
      </trkpt>
      <trkpt lat="46.60429" lon="5.41105">
        <ele>213.2</ele>
        <time>2021-08-28T14:22:05Z</time>
      </trkpt>
      <trkpt lat="46.60425" lon="5.41096">
        <ele>213.8</ele>
        <time>2021-08-28T14:22:06Z</time>
      </trkpt>
      <trkpt lat="46.60415" lon="5.41068">
        <ele>214.4</ele>
        <time>2021-08-28T14:22:09Z</time>
      </trkpt>
      <trkpt lat="46.60408" lon="5.41051">
        <ele>214.6</ele>
        <time>2021-08-28T14:22:11Z</time>
      </trkpt>
      <trkpt lat="46.60404" lon="5.41043">
        <ele>214.6</ele>
        <time>2021-08-28T14:22:12Z</time>
      </trkpt>
      <trkpt lat="46.60394" lon="5.41029">
        <ele>214.8</ele>
        <time>2021-08-28T14:22:14Z</time>
      </trkpt>
      <trkpt lat="46.60388" lon="5.41023">
        <ele>214.8</ele>
        <time>2021-08-28T14:22:15Z</time>
      </trkpt>
      <trkpt lat="46.60381" lon="5.41017">
        <ele>214.8</ele>
        <time>2021-08-28T14:22:16Z</time>
      </trkpt>
      <trkpt lat="46.60359" lon="5.41003">
        <ele>214.8</ele>
        <time>2021-08-28T14:22:19Z</time>
      </trkpt>
      <trkpt lat="46.60351" lon="5.40998">
        <ele>214.6</ele>
        <time>2021-08-28T14:22:20Z</time>
      </trkpt>
      <trkpt lat="46.60335" lon="5.40982">
        <ele>213.6</ele>
        <time>2021-08-28T14:22:22Z</time>
      </trkpt>
      <trkpt lat="46.60328" lon="5.40972">
        <ele>213.2</ele>
        <time>2021-08-28T14:22:23Z</time>
      </trkpt>
      <trkpt lat="46.60316" lon="5.40948">
        <ele>212</ele>
        <time>2021-08-28T14:22:25Z</time>
      </trkpt>
      <trkpt lat="46.60309" lon="5.40936">
        <ele>211</ele>
        <time>2021-08-28T14:22:26Z</time>
      </trkpt>
      <trkpt lat="46.60303" lon="5.40923">
        <ele>209.8</ele>
        <time>2021-08-28T14:22:27Z</time>
      </trkpt>
      <trkpt lat="46.60296" lon="5.40911">
        <ele>209</ele>
        <time>2021-08-28T14:22:28Z</time>
      </trkpt>
      <trkpt lat="46.60288" lon="5.409">
        <ele>207.8</ele>
        <time>2021-08-28T14:22:29Z</time>
      </trkpt>
      <trkpt lat="46.60279" lon="5.40891">
        <ele>207.4</ele>
        <time>2021-08-28T14:22:30Z</time>
      </trkpt>
      <trkpt lat="46.60269" lon="5.40883">
        <ele>206.8</ele>
        <time>2021-08-28T14:22:31Z</time>
      </trkpt>
      <trkpt lat="46.6025" lon="5.40868">
        <ele>205</ele>
        <time>2021-08-28T14:22:33Z</time>
      </trkpt>
      <trkpt lat="46.60222" lon="5.40846">
        <ele>204</ele>
        <time>2021-08-28T14:22:36Z</time>
      </trkpt>
      <trkpt lat="46.60213" lon="5.40838">
        <ele>203.8</ele>
        <time>2021-08-28T14:22:37Z</time>
      </trkpt>
      <trkpt lat="46.60188" lon="5.40812">
        <ele>203</ele>
        <time>2021-08-28T14:22:40Z</time>
      </trkpt>
      <trkpt lat="46.60182" lon="5.40802">
        <ele>202.6</ele>
        <time>2021-08-28T14:22:41Z</time>
      </trkpt>
      <trkpt lat="46.60177" lon="5.4079">
        <ele>202.6</ele>
        <time>2021-08-28T14:22:42Z</time>
      </trkpt>
      <trkpt lat="46.60172" lon="5.40763">
        <ele>202.2</ele>
        <time>2021-08-28T14:22:44Z</time>
      </trkpt>
      <trkpt lat="46.60172" lon="5.40736">
        <ele>202</ele>
        <time>2021-08-28T14:22:46Z</time>
      </trkpt>
      <trkpt lat="46.60174" lon="5.40723">
        <ele>201.8</ele>
        <time>2021-08-28T14:22:47Z</time>
      </trkpt>
      <trkpt lat="46.60177" lon="5.40711">
        <ele>201.8</ele>
        <time>2021-08-28T14:22:48Z</time>
      </trkpt>
      <trkpt lat="46.60187" lon="5.40689">
        <ele>201.8</ele>
        <time>2021-08-28T14:22:50Z</time>
      </trkpt>
      <trkpt lat="46.60219" lon="5.40637">
        <ele>201.8</ele>
        <time>2021-08-28T14:22:55Z</time>
      </trkpt>
      <trkpt lat="46.60224" lon="5.40626">
        <ele>201.8</ele>
        <time>2021-08-28T14:22:56Z</time>
      </trkpt>
      <trkpt lat="46.60233" lon="5.40603">
        <ele>202</ele>
        <time>2021-08-28T14:22:58Z</time>
      </trkpt>
      <trkpt lat="46.60236" lon="5.40577">
        <ele>202.2</ele>
        <time>2021-08-28T14:23:00Z</time>
      </trkpt>
      <trkpt lat="46.60236" lon="5.40565">
        <ele>202.2</ele>
        <time>2021-08-28T14:23:01Z</time>
      </trkpt>
      <trkpt lat="46.60234" lon="5.40552">
        <ele>202.2</ele>
        <time>2021-08-28T14:23:02Z</time>
      </trkpt>
      <trkpt lat="46.60226" lon="5.40516">
        <ele>202.4</ele>
        <time>2021-08-28T14:23:05Z</time>
      </trkpt>
      <trkpt lat="46.60218" lon="5.40468">
        <ele>202.2</ele>
        <time>2021-08-28T14:23:09Z</time>
      </trkpt>
      <trkpt lat="46.60218" lon="5.40457">
        <ele>202.4</ele>
        <time>2021-08-28T14:23:10Z</time>
      </trkpt>
      <trkpt lat="46.60221" lon="5.40413">
        <ele>203</ele>
        <time>2021-08-28T14:23:14Z</time>
      </trkpt>
      <trkpt lat="46.60222" lon="5.40392">
        <ele>204</ele>
        <time>2021-08-28T14:23:16Z</time>
      </trkpt>
      <trkpt lat="46.6022" lon="5.40362">
        <ele>205</ele>
        <time>2021-08-28T14:23:19Z</time>
      </trkpt>
      <trkpt lat="46.60219" lon="5.40352">
        <ele>206</ele>
        <time>2021-08-28T14:23:20Z</time>
      </trkpt>
      <trkpt lat="46.60211" lon="5.40321">
        <ele>207</ele>
        <time>2021-08-28T14:23:23Z</time>
      </trkpt>
      <trkpt lat="46.60208" lon="5.4031">
        <ele>207.2</ele>
        <time>2021-08-28T14:23:24Z</time>
      </trkpt>
      <trkpt lat="46.60192" lon="5.40268">
        <ele>207.2</ele>
        <time>2021-08-28T14:23:28Z</time>
      </trkpt>
      <trkpt lat="46.60179" lon="5.40236">
        <ele>207.2</ele>
        <time>2021-08-28T14:23:31Z</time>
      </trkpt>
      <trkpt lat="46.60176" lon="5.40213">
        <ele>206.8</ele>
        <time>2021-08-28T14:23:33Z</time>
      </trkpt>
      <trkpt lat="46.60178" lon="5.40189">
        <ele>206.8</ele>
        <time>2021-08-28T14:23:35Z</time>
      </trkpt>
      <trkpt lat="46.6018" lon="5.40178">
        <ele>206.8</ele>
        <time>2021-08-28T14:23:36Z</time>
      </trkpt>
      <trkpt lat="46.60193" lon="5.40101">
        <ele>206.8</ele>
        <time>2021-08-28T14:23:43Z</time>
      </trkpt>
      <trkpt lat="46.60191" lon="5.40036">
        <ele>206.6</ele>
        <time>2021-08-28T14:23:48Z</time>
      </trkpt>
      <trkpt lat="46.60187" lon="5.3997">
        <ele>206</ele>
        <time>2021-08-28T14:23:53Z</time>
      </trkpt>
      <trkpt lat="46.60186" lon="5.39943">
        <ele>205.4</ele>
        <time>2021-08-28T14:23:55Z</time>
      </trkpt>
      <trkpt lat="46.60184" lon="5.39929">
        <ele>205</ele>
        <time>2021-08-28T14:23:56Z</time>
      </trkpt>
      <trkpt lat="46.60181" lon="5.39916">
        <ele>204.4</ele>
        <time>2021-08-28T14:23:57Z</time>
      </trkpt>
      <trkpt lat="46.60177" lon="5.39903">
        <ele>204.2</ele>
        <time>2021-08-28T14:23:58Z</time>
      </trkpt>
      <trkpt lat="46.60171" lon="5.39891">
        <ele>203.8</ele>
        <time>2021-08-28T14:23:59Z</time>
      </trkpt>
      <trkpt lat="46.60155" lon="5.39873">
        <ele>203.2</ele>
        <time>2021-08-28T14:24:01Z</time>
      </trkpt>
      <trkpt lat="46.6013" lon="5.39852">
        <ele>202.8</ele>
        <time>2021-08-28T14:24:04Z</time>
      </trkpt>
      <trkpt lat="46.60098" lon="5.39821">
        <ele>202.6</ele>
        <time>2021-08-28T14:24:08Z</time>
      </trkpt>
      <trkpt lat="46.60092" lon="5.39812">
        <ele>202.4</ele>
        <time>2021-08-28T14:24:09Z</time>
      </trkpt>
      <trkpt lat="46.60086" lon="5.39802">
        <ele>202.4</ele>
        <time>2021-08-28T14:24:10Z</time>
      </trkpt>
      <trkpt lat="46.60072" lon="5.39769">
        <ele>202.4</ele>
        <time>2021-08-28T14:24:13Z</time>
      </trkpt>
      <trkpt lat="46.60065" lon="5.39748">
        <ele>202.6</ele>
        <time>2021-08-28T14:24:15Z</time>
      </trkpt>
      <trkpt lat="46.60063" lon="5.39736">
        <ele>202.6</ele>
        <time>2021-08-28T14:24:16Z</time>
      </trkpt>
      <trkpt lat="46.60063" lon="5.39724">
        <ele>203</ele>
        <time>2021-08-28T14:24:17Z</time>
      </trkpt>
      <trkpt lat="46.60065" lon="5.39713">
        <ele>203</ele>
        <time>2021-08-28T14:24:18Z</time>
      </trkpt>
      <trkpt lat="46.60069" lon="5.39703">
        <ele>203</ele>
        <time>2021-08-28T14:24:19Z</time>
      </trkpt>
      <trkpt lat="46.60078" lon="5.39685">
        <ele>203.2</ele>
        <time>2021-08-28T14:24:21Z</time>
      </trkpt>
      <trkpt lat="46.60082" lon="5.39676">
        <ele>203.4</ele>
        <time>2021-08-28T14:24:22Z</time>
      </trkpt>
      <trkpt lat="46.60089" lon="5.39648">
        <ele>204</ele>
        <time>2021-08-28T14:24:25Z</time>
      </trkpt>
      <trkpt lat="46.6009" lon="5.39629">
        <ele>204.2</ele>
        <time>2021-08-28T14:24:27Z</time>
      </trkpt>
      <trkpt lat="46.60088" lon="5.39612">
        <ele>204.6</ele>
        <time>2021-08-28T14:24:29Z</time>
      </trkpt>
      <trkpt lat="46.60085" lon="5.39596">
        <ele>204.8</ele>
        <time>2021-08-28T14:24:31Z</time>
      </trkpt>
      <trkpt lat="46.60077" lon="5.39574">
        <ele>206.8</ele>
        <time>2021-08-28T14:24:34Z</time>
      </trkpt>
      <trkpt lat="46.60071" lon="5.3956">
        <ele>208</ele>
        <time>2021-08-28T14:24:36Z</time>
      </trkpt>
      <trkpt lat="46.60058" lon="5.39534">
        <ele>209.2</ele>
        <time>2021-08-28T14:24:40Z</time>
      </trkpt>
      <trkpt lat="46.60041" lon="5.39495">
        <ele>210.2</ele>
        <time>2021-08-28T14:24:46Z</time>
      </trkpt>
      <trkpt lat="46.6004" lon="5.39488">
        <ele>210.4</ele>
        <time>2021-08-28T14:24:47Z</time>
      </trkpt>
      <trkpt lat="46.60037" lon="5.39475">
        <ele>210.8</ele>
        <time>2021-08-28T14:24:49Z</time>
      </trkpt>
      <trkpt lat="46.60036" lon="5.39461">
        <ele>211.4</ele>
        <time>2021-08-28T14:24:51Z</time>
      </trkpt>
      <trkpt lat="46.60036" lon="5.39454">
        <ele>211.8</ele>
        <time>2021-08-28T14:24:52Z</time>
      </trkpt>
      <trkpt lat="46.60036" lon="5.39439">
        <ele>212</ele>
        <time>2021-08-28T14:24:54Z</time>
      </trkpt>
      <trkpt lat="46.60038" lon="5.39423">
        <ele>212.2</ele>
        <time>2021-08-28T14:24:56Z</time>
      </trkpt>
      <trkpt lat="46.60048" lon="5.39365">
        <ele>212</ele>
        <time>2021-08-28T14:25:02Z</time>
      </trkpt>
      <trkpt lat="46.60053" lon="5.39335">
        <ele>211.6</ele>
        <time>2021-08-28T14:25:05Z</time>
      </trkpt>
      <trkpt lat="46.60054" lon="5.39306">
        <ele>211.6</ele>
        <time>2021-08-28T14:25:08Z</time>
      </trkpt>
      <trkpt lat="46.6005" lon="5.39272">
        <ele>211.8</ele>
        <time>2021-08-28T14:25:12Z</time>
      </trkpt>
      <trkpt lat="46.60048" lon="5.39264">
        <ele>212.2</ele>
        <time>2021-08-28T14:25:13Z</time>
      </trkpt>
      <trkpt lat="46.60044" lon="5.39249">
        <ele>212.8</ele>
        <time>2021-08-28T14:25:15Z</time>
      </trkpt>
      <trkpt lat="46.60036" lon="5.39231">
        <ele>213.8</ele>
        <time>2021-08-28T14:25:18Z</time>
      </trkpt>
      <trkpt lat="46.60022" lon="5.39212">
        <ele>215</ele>
        <time>2021-08-28T14:25:22Z</time>
      </trkpt>
      <trkpt lat="46.60018" lon="5.39208">
        <ele>215</ele>
        <time>2021-08-28T14:25:23Z</time>
      </trkpt>
      <trkpt lat="46.60014" lon="5.39204">
        <ele>215.4</ele>
        <time>2021-08-28T14:25:24Z</time>
      </trkpt>
      <trkpt lat="46.60009" lon="5.39201">
        <ele>215.8</ele>
        <time>2021-08-28T14:25:25Z</time>
      </trkpt>
      <trkpt lat="46.60004" lon="5.39198">
        <ele>216.2</ele>
        <time>2021-08-28T14:25:26Z</time>
      </trkpt>
      <trkpt lat="46.59994" lon="5.39193">
        <ele>217</ele>
        <time>2021-08-28T14:25:28Z</time>
      </trkpt>
      <trkpt lat="46.59988" lon="5.39191">
        <ele>217.4</ele>
        <time>2021-08-28T14:25:29Z</time>
      </trkpt>
      <trkpt lat="46.5996" lon="5.39185">
        <ele>218</ele>
        <time>2021-08-28T14:25:34Z</time>
      </trkpt>
      <trkpt lat="46.59942" lon="5.39184">
        <ele>218.4</ele>
        <time>2021-08-28T14:25:37Z</time>
      </trkpt>
      <trkpt lat="46.59909" lon="5.39185">
        <ele>219.4</ele>
        <time>2021-08-28T14:25:43Z</time>
      </trkpt>
      <trkpt lat="46.59879" lon="5.39194">
        <ele>220.6</ele>
        <time>2021-08-28T14:25:48Z</time>
      </trkpt>
      <trkpt lat="46.59854" lon="5.39196">
        <ele>221</ele>
        <time>2021-08-28T14:25:52Z</time>
      </trkpt>
      <trkpt lat="46.59803" lon="5.39189">
        <ele>221.4</ele>
        <time>2021-08-28T14:26:00Z</time>
      </trkpt>
      <trkpt lat="46.59766" lon="5.39201">
        <ele>221.4</ele>
        <time>2021-08-28T14:26:06Z</time>
      </trkpt>
      <trkpt lat="46.59748" lon="5.3921">
        <ele>221.2</ele>
        <time>2021-08-28T14:26:09Z</time>
      </trkpt>
      <trkpt lat="46.59735" lon="5.39209">
        <ele>221.6</ele>
        <time>2021-08-28T14:26:11Z</time>
      </trkpt>
      <trkpt lat="46.59698" lon="5.39198">
        <ele>222.6</ele>
        <time>2021-08-28T14:26:17Z</time>
      </trkpt>
      <trkpt lat="46.59656" lon="5.39188">
        <ele>223</ele>
        <time>2021-08-28T14:26:23Z</time>
      </trkpt>
      <trkpt lat="46.59616" lon="5.39185">
        <ele>222.6</ele>
        <time>2021-08-28T14:26:28Z</time>
      </trkpt>
      <trkpt lat="46.59608" lon="5.39187">
        <ele>222.2</ele>
        <time>2021-08-28T14:26:29Z</time>
      </trkpt>
      <trkpt lat="46.59562" lon="5.39207">
        <ele>221.6</ele>
        <time>2021-08-28T14:26:35Z</time>
      </trkpt>
      <trkpt lat="46.59537" lon="5.39209">
        <ele>221.4</ele>
        <time>2021-08-28T14:26:38Z</time>
      </trkpt>
      <trkpt lat="46.59529" lon="5.39207">
        <ele>221.2</ele>
        <time>2021-08-28T14:26:39Z</time>
      </trkpt>
      <trkpt lat="46.59522" lon="5.39203">
        <ele>221.2</ele>
        <time>2021-08-28T14:26:40Z</time>
      </trkpt>
      <trkpt lat="46.59509" lon="5.39188">
        <ele>221.2</ele>
        <time>2021-08-28T14:26:42Z</time>
      </trkpt>
      <trkpt lat="46.59502" lon="5.39166">
        <ele>220.8</ele>
        <time>2021-08-28T14:26:44Z</time>
      </trkpt>
      <trkpt lat="46.595" lon="5.39154">
        <ele>220.8</ele>
        <time>2021-08-28T14:26:45Z</time>
      </trkpt>
      <trkpt lat="46.59497" lon="5.3913">
        <ele>220.8</ele>
        <time>2021-08-28T14:26:47Z</time>
      </trkpt>
      <trkpt lat="46.59488" lon="5.39058">
        <ele>220</ele>
        <time>2021-08-28T14:26:53Z</time>
      </trkpt>
      <trkpt lat="46.59479" lon="5.38976">
        <ele>219.8</ele>
        <time>2021-08-28T14:27:00Z</time>
      </trkpt>
      <trkpt lat="46.59474" lon="5.38954">
        <ele>219.8</ele>
        <time>2021-08-28T14:27:02Z</time>
      </trkpt>
      <trkpt lat="46.5947" lon="5.38943">
        <ele>219.8</ele>
        <time>2021-08-28T14:27:03Z</time>
      </trkpt>
      <trkpt lat="46.59455" lon="5.38902">
        <ele>220</ele>
        <time>2021-08-28T14:27:07Z</time>
      </trkpt>
      <trkpt lat="46.59452" lon="5.38891">
        <ele>220.2</ele>
        <time>2021-08-28T14:27:08Z</time>
      </trkpt>
      <trkpt lat="46.59449" lon="5.38857">
        <ele>220.4</ele>
        <time>2021-08-28T14:27:11Z</time>
      </trkpt>
      <trkpt lat="46.5944" lon="5.38804">
        <ele>220.8</ele>
        <time>2021-08-28T14:27:16Z</time>
      </trkpt>
      <trkpt lat="46.59432" lon="5.38784">
        <ele>221</ele>
        <time>2021-08-28T14:27:18Z</time>
      </trkpt>
      <trkpt lat="46.59426" lon="5.38776">
        <ele>221.2</ele>
        <time>2021-08-28T14:27:19Z</time>
      </trkpt>
      <trkpt lat="46.59393" lon="5.38741">
        <ele>220.8</ele>
        <time>2021-08-28T14:27:24Z</time>
      </trkpt>
      <trkpt lat="46.59348" lon="5.38692">
        <ele>220</ele>
        <time>2021-08-28T14:27:31Z</time>
      </trkpt>
      <trkpt lat="46.59335" lon="5.38677">
        <ele>220.4</ele>
        <time>2021-08-28T14:27:33Z</time>
      </trkpt>
      <trkpt lat="46.59298" lon="5.38636">
        <ele>220</ele>
        <time>2021-08-28T14:27:39Z</time>
      </trkpt>
      <trkpt lat="46.59256" lon="5.38589">
        <ele>220</ele>
        <time>2021-08-28T14:27:46Z</time>
      </trkpt>
      <trkpt lat="46.5921" lon="5.38541">
        <ele>221.2</ele>
        <time>2021-08-28T14:27:54Z</time>
      </trkpt>
      <trkpt lat="46.59176" lon="5.38502">
        <ele>221.4</ele>
        <time>2021-08-28T14:28:00Z</time>
      </trkpt>
      <trkpt lat="46.59149" lon="5.3846">
        <ele>219.8</ele>
        <time>2021-08-28T14:28:05Z</time>
      </trkpt>
      <trkpt lat="46.59144" lon="5.38451">
        <ele>219.6</ele>
        <time>2021-08-28T14:28:06Z</time>
      </trkpt>
      <trkpt lat="46.59127" lon="5.38424">
        <ele>218.4</ele>
        <time>2021-08-28T14:28:09Z</time>
      </trkpt>
      <trkpt lat="46.5912" lon="5.38416">
        <ele>218.4</ele>
        <time>2021-08-28T14:28:10Z</time>
      </trkpt>
      <trkpt lat="46.59097" lon="5.38393">
        <ele>217.6</ele>
        <time>2021-08-28T14:28:13Z</time>
      </trkpt>
      <trkpt lat="46.59089" lon="5.38386">
        <ele>217.2</ele>
        <time>2021-08-28T14:28:14Z</time>
      </trkpt>
      <trkpt lat="46.5908" lon="5.38379">
        <ele>216.6</ele>
        <time>2021-08-28T14:28:15Z</time>
      </trkpt>
      <trkpt lat="46.59063" lon="5.38365">
        <ele>216</ele>
        <time>2021-08-28T14:28:17Z</time>
      </trkpt>
      <trkpt lat="46.59036" lon="5.38343">
        <ele>214.8</ele>
        <time>2021-08-28T14:28:20Z</time>
      </trkpt>
      <trkpt lat="46.59019" lon="5.38328">
        <ele>214.4</ele>
        <time>2021-08-28T14:28:22Z</time>
      </trkpt>
      <trkpt lat="46.58992" lon="5.38306">
        <ele>213.8</ele>
        <time>2021-08-28T14:28:25Z</time>
      </trkpt>
      <trkpt lat="46.58959" lon="5.38279">
        <ele>213.4</ele>
        <time>2021-08-28T14:28:29Z</time>
      </trkpt>
      <trkpt lat="46.58924" lon="5.38244">
        <ele>213.2</ele>
        <time>2021-08-28T14:28:34Z</time>
      </trkpt>
      <trkpt lat="46.58881" lon="5.38191">
        <ele>215</ele>
        <time>2021-08-28T14:28:41Z</time>
      </trkpt>
      <trkpt lat="46.58862" lon="5.38168">
        <ele>216</ele>
        <time>2021-08-28T14:28:44Z</time>
      </trkpt>
      <trkpt lat="46.58832" lon="5.3813">
        <ele>216.8</ele>
        <time>2021-08-28T14:28:49Z</time>
      </trkpt>
      <trkpt lat="46.58809" lon="5.381">
        <ele>217</ele>
        <time>2021-08-28T14:28:53Z</time>
      </trkpt>
      <trkpt lat="46.58784" lon="5.38074">
        <ele>217.8</ele>
        <time>2021-08-28T14:28:57Z</time>
      </trkpt>
      <trkpt lat="46.58777" lon="5.38069">
        <ele>218</ele>
        <time>2021-08-28T14:28:58Z</time>
      </trkpt>
      <trkpt lat="46.58761" lon="5.38061">
        <ele>218.2</ele>
        <time>2021-08-28T14:29:00Z</time>
      </trkpt>
      <trkpt lat="46.58753" lon="5.3806">
        <ele>218.2</ele>
        <time>2021-08-28T14:29:01Z</time>
      </trkpt>
      <trkpt lat="46.587" lon="5.38054">
        <ele>218</ele>
        <time>2021-08-28T14:29:07Z</time>
      </trkpt>
      <trkpt lat="46.58638" lon="5.38048">
        <ele>217.2</ele>
        <time>2021-08-28T14:29:14Z</time>
      </trkpt>
      <trkpt lat="46.58629" lon="5.38045">
        <ele>217</ele>
        <time>2021-08-28T14:29:15Z</time>
      </trkpt>
      <trkpt lat="46.58621" lon="5.38041">
        <ele>216.8</ele>
        <time>2021-08-28T14:29:16Z</time>
      </trkpt>
      <trkpt lat="46.58605" lon="5.38031">
        <ele>216.4</ele>
        <time>2021-08-28T14:29:18Z</time>
      </trkpt>
      <trkpt lat="46.58599" lon="5.38025">
        <ele>216.2</ele>
        <time>2021-08-28T14:29:19Z</time>
      </trkpt>
      <trkpt lat="46.5859" lon="5.38017">
        <ele>215.8</ele>
        <time>2021-08-28T14:29:20Z</time>
      </trkpt>
      <trkpt lat="46.58575" lon="5.38004">
        <ele>215.6</ele>
        <time>2021-08-28T14:29:22Z</time>
      </trkpt>
      <trkpt lat="46.58559" lon="5.38">
        <ele>215.4</ele>
        <time>2021-08-28T14:29:24Z</time>
      </trkpt>
      <trkpt lat="46.58543" lon="5.38007">
        <ele>215</ele>
        <time>2021-08-28T14:29:26Z</time>
      </trkpt>
      <trkpt lat="46.58535" lon="5.38013">
        <ele>214.8</ele>
        <time>2021-08-28T14:29:27Z</time>
      </trkpt>
      <trkpt lat="46.58519" lon="5.38023">
        <ele>214.6</ele>
        <time>2021-08-28T14:29:29Z</time>
      </trkpt>
      <trkpt lat="46.58502" lon="5.38029">
        <ele>214.6</ele>
        <time>2021-08-28T14:29:31Z</time>
      </trkpt>
      <trkpt lat="46.58484" lon="5.38028">
        <ele>214.6</ele>
        <time>2021-08-28T14:29:33Z</time>
      </trkpt>
      <trkpt lat="46.58465" lon="5.38022">
        <ele>214.6</ele>
        <time>2021-08-28T14:29:35Z</time>
      </trkpt>
      <trkpt lat="46.58403" lon="5.37999">
        <ele>213.8</ele>
        <time>2021-08-28T14:29:41Z</time>
      </trkpt>
      <trkpt lat="46.58357" lon="5.37981">
        <ele>212.4</ele>
        <time>2021-08-28T14:29:45Z</time>
      </trkpt>
      <trkpt lat="46.58335" lon="5.37972">
        <ele>211</ele>
        <time>2021-08-28T14:29:47Z</time>
      </trkpt>
      <trkpt lat="46.58313" lon="5.3796">
        <ele>209.8</ele>
        <time>2021-08-28T14:29:49Z</time>
      </trkpt>
      <trkpt lat="46.58273" lon="5.37935">
        <ele>208.6</ele>
        <time>2021-08-28T14:29:53Z</time>
      </trkpt>
      <trkpt lat="46.58243" lon="5.37916">
        <ele>207.6</ele>
        <time>2021-08-28T14:29:56Z</time>
      </trkpt>
      <trkpt lat="46.58233" lon="5.3791">
        <ele>207.2</ele>
        <time>2021-08-28T14:29:57Z</time>
      </trkpt>
      <trkpt lat="46.58193" lon="5.37885">
        <ele>205.8</ele>
        <time>2021-08-28T14:30:01Z</time>
      </trkpt>
      <trkpt lat="46.58172" lon="5.37876">
        <ele>205.2</ele>
        <time>2021-08-28T14:30:02Z</time>
      </trkpt>
      <trkpt lat="46.58172" lon="5.37876">
        <ele>204.8</ele>
        <time>2021-08-28T14:30:03Z</time>
      </trkpt>
      <trkpt lat="46.58161" lon="5.37875">
        <ele>204.4</ele>
        <time>2021-08-28T14:30:04Z</time>
      </trkpt>
      <trkpt lat="46.58151" lon="5.37879">
        <ele>204</ele>
        <time>2021-08-28T14:30:05Z</time>
      </trkpt>
      <trkpt lat="46.58141" lon="5.37885">
        <ele>203.8</ele>
        <time>2021-08-28T14:30:06Z</time>
      </trkpt>
      <trkpt lat="46.58123" lon="5.37901">
        <ele>203.2</ele>
        <time>2021-08-28T14:30:08Z</time>
      </trkpt>
      <trkpt lat="46.58114" lon="5.37907">
        <ele>203</ele>
        <time>2021-08-28T14:30:09Z</time>
      </trkpt>
      <trkpt lat="46.58093" lon="5.37916">
        <ele>202.6</ele>
        <time>2021-08-28T14:30:11Z</time>
      </trkpt>
      <trkpt lat="46.58083" lon="5.3792">
        <ele>202.6</ele>
        <time>2021-08-28T14:30:12Z</time>
      </trkpt>
      <trkpt lat="46.58022" lon="5.37938">
        <ele>202.8</ele>
        <time>2021-08-28T14:30:18Z</time>
      </trkpt>
      <trkpt lat="46.58012" lon="5.37942">
        <ele>202.8</ele>
        <time>2021-08-28T14:30:19Z</time>
      </trkpt>
      <trkpt lat="46.58003" lon="5.37946">
        <ele>202.8</ele>
        <time>2021-08-28T14:30:20Z</time>
      </trkpt>
      <trkpt lat="46.57986" lon="5.37959">
        <ele>202.8</ele>
        <time>2021-08-28T14:30:22Z</time>
      </trkpt>
      <trkpt lat="46.57945" lon="5.37987">
        <ele>203.8</ele>
        <time>2021-08-28T14:30:27Z</time>
      </trkpt>
      <trkpt lat="46.57938" lon="5.37992">
        <ele>204.2</ele>
        <time>2021-08-28T14:30:28Z</time>
      </trkpt>
      <trkpt lat="46.57932" lon="5.37997">
        <ele>204.4</ele>
        <time>2021-08-28T14:30:29Z</time>
      </trkpt>
      <trkpt lat="46.5792" lon="5.38011">
        <ele>204.6</ele>
        <time>2021-08-28T14:30:31Z</time>
      </trkpt>
      <trkpt lat="46.5791" lon="5.38026">
        <ele>205.2</ele>
        <time>2021-08-28T14:30:33Z</time>
      </trkpt>
      <trkpt lat="46.57905" lon="5.38034">
        <ele>205.4</ele>
        <time>2021-08-28T14:30:34Z</time>
      </trkpt>
      <trkpt lat="46.57902" lon="5.38043">
        <ele>205.8</ele>
        <time>2021-08-28T14:30:35Z</time>
      </trkpt>
      <trkpt lat="46.57891" lon="5.38071">
        <ele>206.4</ele>
        <time>2021-08-28T14:30:38Z</time>
      </trkpt>
      <trkpt lat="46.57882" lon="5.38103">
        <ele>207.4</ele>
        <time>2021-08-28T14:30:41Z</time>
      </trkpt>
      <trkpt lat="46.57855" lon="5.38175">
        <ele>208.2</ele>
        <time>2021-08-28T14:30:47Z</time>
      </trkpt>
      <trkpt lat="46.57851" lon="5.38185">
        <ele>208.2</ele>
        <time>2021-08-28T14:30:48Z</time>
      </trkpt>
      <trkpt lat="46.57839" lon="5.38203">
        <ele>208.2</ele>
        <time>2021-08-28T14:30:50Z</time>
      </trkpt>
      <trkpt lat="46.57839" lon="5.38203">
        <ele>208.2</ele>
        <time>2021-08-28T14:30:51Z</time>
      </trkpt>
      <trkpt lat="46.57806" lon="5.38233">
        <ele>208.2</ele>
        <time>2021-08-28T14:30:56Z</time>
      </trkpt>
      <trkpt lat="46.57784" lon="5.38254">
        <ele>208.6</ele>
        <time>2021-08-28T14:30:59Z</time>
      </trkpt>
      <trkpt lat="46.57758" lon="5.3828">
        <ele>209</ele>
        <time>2021-08-28T14:31:02Z</time>
      </trkpt>
      <trkpt lat="46.57744" lon="5.38291">
        <ele>209.2</ele>
        <time>2021-08-28T14:31:04Z</time>
      </trkpt>
      <trkpt lat="46.57736" lon="5.38294">
        <ele>209.2</ele>
        <time>2021-08-28T14:31:06Z</time>
      </trkpt>
      <trkpt lat="46.57721" lon="5.38301">
        <ele>209.4</ele>
        <time>2021-08-28T14:31:07Z</time>
      </trkpt>
      <trkpt lat="46.57713" lon="5.38303">
        <ele>209.6</ele>
        <time>2021-08-28T14:31:08Z</time>
      </trkpt>
      <trkpt lat="46.57683" lon="5.38311">
        <ele>209.8</ele>
        <time>2021-08-28T14:31:12Z</time>
      </trkpt>
      <trkpt lat="46.57652" lon="5.38316">
        <ele>209.6</ele>
        <time>2021-08-28T14:31:16Z</time>
      </trkpt>
      <trkpt lat="46.57645" lon="5.3832">
        <ele>209.6</ele>
        <time>2021-08-28T14:31:17Z</time>
      </trkpt>
      <trkpt lat="46.57637" lon="5.38323">
        <ele>209.6</ele>
        <time>2021-08-28T14:31:18Z</time>
      </trkpt>
      <trkpt lat="46.57621" lon="5.38318">
        <ele>209.2</ele>
        <time>2021-08-28T14:31:20Z</time>
      </trkpt>
      <trkpt lat="46.57616" lon="5.3831">
        <ele>209</ele>
        <time>2021-08-28T14:31:22Z</time>
      </trkpt>
      <trkpt lat="46.57602" lon="5.38276">
        <ele>208.6</ele>
        <time>2021-08-28T14:31:24Z</time>
      </trkpt>
      <trkpt lat="46.57596" lon="5.38265">
        <ele>208.4</ele>
        <time>2021-08-28T14:31:25Z</time>
      </trkpt>
      <trkpt lat="46.5759" lon="5.38254">
        <ele>208.2</ele>
        <time>2021-08-28T14:31:26Z</time>
      </trkpt>
      <trkpt lat="46.57575" lon="5.38234">
        <ele>207.4</ele>
        <time>2021-08-28T14:31:28Z</time>
      </trkpt>
      <trkpt lat="46.57559" lon="5.38217">
        <ele>206.4</ele>
        <time>2021-08-28T14:31:30Z</time>
      </trkpt>
      <trkpt lat="46.57534" lon="5.38196">
        <ele>205.2</ele>
        <time>2021-08-28T14:31:33Z</time>
      </trkpt>
      <trkpt lat="46.57502" lon="5.38171">
        <ele>204.8</ele>
        <time>2021-08-28T14:31:37Z</time>
      </trkpt>
      <trkpt lat="46.57447" lon="5.38128">
        <ele>204.8</ele>
        <time>2021-08-28T14:31:44Z</time>
      </trkpt>
      <trkpt lat="46.57393" lon="5.38086">
        <ele>205.2</ele>
        <time>2021-08-28T14:31:51Z</time>
      </trkpt>
      <trkpt lat="46.57387" lon="5.38078">
        <ele>205.2</ele>
        <time>2021-08-28T14:31:52Z</time>
      </trkpt>
      <trkpt lat="46.57376" lon="5.38061">
        <ele>205.2</ele>
        <time>2021-08-28T14:31:54Z</time>
      </trkpt>
      <trkpt lat="46.57367" lon="5.38043">
        <ele>205.2</ele>
        <time>2021-08-28T14:31:56Z</time>
      </trkpt>
      <trkpt lat="46.57341" lon="5.37987">
        <ele>206.4</ele>
        <time>2021-08-28T14:32:03Z</time>
      </trkpt>
      <trkpt lat="46.5733" lon="5.37964">
        <ele>207.8</ele>
        <time>2021-08-28T14:32:07Z</time>
      </trkpt>
      <trkpt lat="46.57319" lon="5.37942">
        <ele>209</ele>
        <time>2021-08-28T14:32:09Z</time>
      </trkpt>
      <trkpt lat="46.57315" lon="5.37934">
        <ele>209.4</ele>
        <time>2021-08-28T14:32:10Z</time>
      </trkpt>
      <trkpt lat="46.57296" lon="5.37898">
        <ele>210.2</ele>
        <time>2021-08-28T14:32:15Z</time>
      </trkpt>
      <trkpt lat="46.57278" lon="5.37862">
        <ele>210.8</ele>
        <time>2021-08-28T14:32:20Z</time>
      </trkpt>
      <trkpt lat="46.57271" lon="5.37848">
        <ele>211.6</ele>
        <time>2021-08-28T14:32:22Z</time>
      </trkpt>
      <trkpt lat="46.57262" lon="5.37828">
        <ele>212.6</ele>
        <time>2021-08-28T14:32:25Z</time>
      </trkpt>
      <trkpt lat="46.57262" lon="5.37828">
        <ele>213.2</ele>
        <time>2021-08-28T14:32:26Z</time>
      </trkpt>
      <trkpt lat="46.5725" lon="5.37803">
        <ele>214.8</ele>
        <time>2021-08-28T14:32:29Z</time>
      </trkpt>
      <trkpt lat="46.57247" lon="5.37797">
        <ele>215</ele>
        <time>2021-08-28T14:32:30Z</time>
      </trkpt>
      <trkpt lat="46.5723" lon="5.37767">
        <ele>216</ele>
        <time>2021-08-28T14:32:35Z</time>
      </trkpt>
      <trkpt lat="46.57223" lon="5.37758">
        <ele>216.4</ele>
        <time>2021-08-28T14:32:37Z</time>
      </trkpt>
      <trkpt lat="46.57214" lon="5.37755">
        <ele>217</ele>
        <time>2021-08-28T14:32:39Z</time>
      </trkpt>
      <trkpt lat="46.57214" lon="5.37755">
        <ele>217.4</ele>
        <time>2021-08-28T14:32:40Z</time>
      </trkpt>
      <trkpt lat="46.57206" lon="5.37761">
        <ele>217.4</ele>
        <time>2021-08-28T14:32:41Z</time>
      </trkpt>
      <trkpt lat="46.57197" lon="5.37771">
        <ele>218</ele>
        <time>2021-08-28T14:32:43Z</time>
      </trkpt>
      <trkpt lat="46.57192" lon="5.37776">
        <ele>218.6</ele>
        <time>2021-08-28T14:32:45Z</time>
      </trkpt>
      <trkpt lat="46.57167" lon="5.37805">
        <ele>218.8</ele>
        <time>2021-08-28T14:32:49Z</time>
      </trkpt>
      <trkpt lat="46.57128" lon="5.37842">
        <ele>217.6</ele>
        <time>2021-08-28T14:32:55Z</time>
      </trkpt>
      <trkpt lat="46.57121" lon="5.37849">
        <ele>217.4</ele>
        <time>2021-08-28T14:32:56Z</time>
      </trkpt>
      <trkpt lat="46.57069" lon="5.37897">
        <ele>216</ele>
        <time>2021-08-28T14:33:03Z</time>
      </trkpt>
      <trkpt lat="46.57054" lon="5.37909">
        <ele>215</ele>
        <time>2021-08-28T14:33:05Z</time>
      </trkpt>
      <trkpt lat="46.57025" lon="5.37933">
        <ele>214</ele>
        <time>2021-08-28T14:33:09Z</time>
      </trkpt>
      <trkpt lat="46.5701" lon="5.37944">
        <ele>213.8</ele>
        <time>2021-08-28T14:33:11Z</time>
      </trkpt>
      <trkpt lat="46.56955" lon="5.37982">
        <ele>214.6</ele>
        <time>2021-08-28T14:33:19Z</time>
      </trkpt>
      <trkpt lat="46.5694" lon="5.37988">
        <ele>215</ele>
        <time>2021-08-28T14:33:21Z</time>
      </trkpt>
      <trkpt lat="46.56932" lon="5.37988">
        <ele>215</ele>
        <time>2021-08-28T14:33:22Z</time>
      </trkpt>
      <trkpt lat="46.56924" lon="5.37988">
        <ele>215.2</ele>
        <time>2021-08-28T14:33:23Z</time>
      </trkpt>
      <trkpt lat="46.56916" lon="5.37987">
        <ele>215.4</ele>
        <time>2021-08-28T14:33:24Z</time>
      </trkpt>
      <trkpt lat="46.56883" lon="5.37978">
        <ele>216.4</ele>
        <time>2021-08-28T14:33:28Z</time>
      </trkpt>
      <trkpt lat="46.56843" lon="5.3797">
        <ele>217.2</ele>
        <time>2021-08-28T14:33:33Z</time>
      </trkpt>
      <trkpt lat="46.56835" lon="5.37969">
        <ele>217.4</ele>
        <time>2021-08-28T14:33:34Z</time>
      </trkpt>
      <trkpt lat="46.56818" lon="5.37965">
        <ele>217.6</ele>
        <time>2021-08-28T14:33:36Z</time>
      </trkpt>
      <trkpt lat="46.56771" lon="5.37954">
        <ele>218.6</ele>
        <time>2021-08-28T14:33:42Z</time>
      </trkpt>
      <trkpt lat="46.5674" lon="5.37947">
        <ele>219</ele>
        <time>2021-08-28T14:33:46Z</time>
      </trkpt>
      <trkpt lat="46.56681" lon="5.37933">
        <ele>219.4</ele>
        <time>2021-08-28T14:33:54Z</time>
      </trkpt>
      <trkpt lat="46.56673" lon="5.37931">
        <ele>219.6</ele>
        <time>2021-08-28T14:33:55Z</time>
      </trkpt>
      <trkpt lat="46.56666" lon="5.37929">
        <ele>219.6</ele>
        <time>2021-08-28T14:33:56Z</time>
      </trkpt>
      <trkpt lat="46.56607" lon="5.37917">
        <ele>220.2</ele>
        <time>2021-08-28T14:34:04Z</time>
      </trkpt>
      <trkpt lat="46.56599" lon="5.37916">
        <ele>220.2</ele>
        <time>2021-08-28T14:34:05Z</time>
      </trkpt>
      <trkpt lat="46.56576" lon="5.37915">
        <ele>220.4</ele>
        <time>2021-08-28T14:34:08Z</time>
      </trkpt>
      <trkpt lat="46.5656" lon="5.3792">
        <ele>220.4</ele>
        <time>2021-08-28T14:34:10Z</time>
      </trkpt>
      <trkpt lat="46.56521" lon="5.37945">
        <ele>220.6</ele>
        <time>2021-08-28T14:34:15Z</time>
      </trkpt>
      <trkpt lat="46.56512" lon="5.37948">
        <ele>220.6</ele>
        <time>2021-08-28T14:34:16Z</time>
      </trkpt>
      <trkpt lat="46.56486" lon="5.37949">
        <ele>220.4</ele>
        <time>2021-08-28T14:34:19Z</time>
      </trkpt>
      <trkpt lat="46.56422" lon="5.37934">
        <ele>219.2</ele>
        <time>2021-08-28T14:34:26Z</time>
      </trkpt>
      <trkpt lat="46.56413" lon="5.37932">
        <ele>218.8</ele>
        <time>2021-08-28T14:34:28Z</time>
      </trkpt>
      <trkpt lat="46.56394" lon="5.37929">
        <ele>218.8</ele>
        <time>2021-08-28T14:34:29Z</time>
      </trkpt>
      <trkpt lat="46.56375" lon="5.37934">
        <ele>218.2</ele>
        <time>2021-08-28T14:34:31Z</time>
      </trkpt>
      <trkpt lat="46.56329" lon="5.37953">
        <ele>217.6</ele>
        <time>2021-08-28T14:34:36Z</time>
      </trkpt>
      <trkpt lat="46.563" lon="5.37949">
        <ele>217.2</ele>
        <time>2021-08-28T14:34:39Z</time>
      </trkpt>
      <trkpt lat="46.5629" lon="5.3795">
        <ele>217.2</ele>
        <time>2021-08-28T14:34:40Z</time>
      </trkpt>
      <trkpt lat="46.5628" lon="5.37953">
        <ele>217</ele>
        <time>2021-08-28T14:34:41Z</time>
      </trkpt>
      <trkpt lat="46.56252" lon="5.37966">
        <ele>216.8</ele>
        <time>2021-08-28T14:34:44Z</time>
      </trkpt>
      <trkpt lat="46.56208" lon="5.37992">
        <ele>216.2</ele>
        <time>2021-08-28T14:34:49Z</time>
      </trkpt>
      <trkpt lat="46.56201" lon="5.38">
        <ele>216.4</ele>
        <time>2021-08-28T14:34:50Z</time>
      </trkpt>
      <trkpt lat="46.56194" lon="5.3801">
        <ele>216.4</ele>
        <time>2021-08-28T14:34:51Z</time>
      </trkpt>
      <trkpt lat="46.56177" lon="5.38042">
        <ele>216.6</ele>
        <time>2021-08-28T14:34:54Z</time>
      </trkpt>
      <trkpt lat="46.56148" lon="5.38092">
        <ele>217</ele>
        <time>2021-08-28T14:34:59Z</time>
      </trkpt>
      <trkpt lat="46.56116" lon="5.3812">
        <ele>217.4</ele>
        <time>2021-08-28T14:35:03Z</time>
      </trkpt>
      <trkpt lat="46.56092" lon="5.38138">
        <ele>217.4</ele>
        <time>2021-08-28T14:35:06Z</time>
      </trkpt>
      <trkpt lat="46.56038" lon="5.38176">
        <ele>218.4</ele>
        <time>2021-08-28T14:35:13Z</time>
      </trkpt>
      <trkpt lat="46.56024" lon="5.38189">
        <ele>218.4</ele>
        <time>2021-08-28T14:35:15Z</time>
      </trkpt>
      <trkpt lat="46.56012" lon="5.38206">
        <ele>218.4</ele>
        <time>2021-08-28T14:35:17Z</time>
      </trkpt>
      <trkpt lat="46.56001" lon="5.3824">
        <ele>218.4</ele>
        <time>2021-08-28T14:35:20Z</time>
      </trkpt>
      <trkpt lat="46.56" lon="5.38252">
        <ele>218.4</ele>
        <time>2021-08-28T14:35:21Z</time>
      </trkpt>
      <trkpt lat="46.55989" lon="5.38332">
        <ele>218.2</ele>
        <time>2021-08-28T14:35:28Z</time>
      </trkpt>
      <trkpt lat="46.55987" lon="5.38343">
        <ele>218.4</ele>
        <time>2021-08-28T14:35:29Z</time>
      </trkpt>
      <trkpt lat="46.55986" lon="5.38354">
        <ele>218.4</ele>
        <time>2021-08-28T14:35:30Z</time>
      </trkpt>
      <trkpt lat="46.55978" lon="5.38416">
        <ele>219.6</ele>
        <time>2021-08-28T14:35:36Z</time>
      </trkpt>
      <trkpt lat="46.55976" lon="5.38464">
        <ele>220.8</ele>
        <time>2021-08-28T14:35:41Z</time>
      </trkpt>
      <trkpt lat="46.55976" lon="5.3849">
        <ele>221.2</ele>
        <time>2021-08-28T14:35:44Z</time>
      </trkpt>
      <trkpt lat="46.55978" lon="5.38509">
        <ele>221.6</ele>
        <time>2021-08-28T14:35:46Z</time>
      </trkpt>
      <trkpt lat="46.55979" lon="5.3852">
        <ele>221.8</ele>
        <time>2021-08-28T14:35:47Z</time>
      </trkpt>
      <trkpt lat="46.55983" lon="5.38561">
        <ele>222.2</ele>
        <time>2021-08-28T14:35:51Z</time>
      </trkpt>
      <trkpt lat="46.55992" lon="5.38624">
        <ele>222</ele>
        <time>2021-08-28T14:35:57Z</time>
      </trkpt>
      <trkpt lat="46.55997" lon="5.38695">
        <ele>222</ele>
        <time>2021-08-28T14:36:04Z</time>
      </trkpt>
      <trkpt lat="46.56005" lon="5.38758">
        <ele>222</ele>
        <time>2021-08-28T14:36:10Z</time>
      </trkpt>
      <trkpt lat="46.56005" lon="5.38807">
        <ele>221.4</ele>
        <time>2021-08-28T14:36:14Z</time>
      </trkpt>
      <trkpt lat="46.56002" lon="5.38834">
        <ele>220.4</ele>
        <time>2021-08-28T14:36:16Z</time>
      </trkpt>
      <trkpt lat="46.55997" lon="5.3886">
        <ele>219.8</ele>
        <time>2021-08-28T14:36:18Z</time>
      </trkpt>
      <trkpt lat="46.5599" lon="5.38885">
        <ele>219</ele>
        <time>2021-08-28T14:36:20Z</time>
      </trkpt>
      <trkpt lat="46.55974" lon="5.38933">
        <ele>217.8</ele>
        <time>2021-08-28T14:36:24Z</time>
      </trkpt>
      <trkpt lat="46.5597" lon="5.38945">
        <ele>217.6</ele>
        <time>2021-08-28T14:36:25Z</time>
      </trkpt>
      <trkpt lat="46.55944" lon="5.39022">
        <ele>216.8</ele>
        <time>2021-08-28T14:36:32Z</time>
      </trkpt>
      <trkpt lat="46.55941" lon="5.39043">
        <ele>216.8</ele>
        <time>2021-08-28T14:36:34Z</time>
      </trkpt>
      <trkpt lat="46.55939" lon="5.39062">
        <ele>216.8</ele>
        <time>2021-08-28T14:36:36Z</time>
      </trkpt>
      <trkpt lat="46.55936" lon="5.39112">
        <ele>218</ele>
        <time>2021-08-28T14:36:42Z</time>
      </trkpt>
      <trkpt lat="46.55935" lon="5.39131">
        <ele>218.6</ele>
        <time>2021-08-28T14:36:44Z</time>
      </trkpt>
      <trkpt lat="46.55934" lon="5.3914">
        <ele>219.2</ele>
        <time>2021-08-28T14:36:46Z</time>
      </trkpt>
      <trkpt lat="46.55933" lon="5.39204">
        <ele>220.4</ele>
        <time>2021-08-28T14:36:52Z</time>
      </trkpt>
      <trkpt lat="46.55931" lon="5.39252">
        <ele>221.4</ele>
        <time>2021-08-28T14:36:57Z</time>
      </trkpt>
      <trkpt lat="46.55927" lon="5.39281">
        <ele>222</ele>
        <time>2021-08-28T14:37:00Z</time>
      </trkpt>
      <trkpt lat="46.55923" lon="5.39318">
        <ele>222.6</ele>
        <time>2021-08-28T14:37:04Z</time>
      </trkpt>
      <trkpt lat="46.55918" lon="5.39353">
        <ele>222.8</ele>
        <time>2021-08-28T14:37:08Z</time>
      </trkpt>
      <trkpt lat="46.55911" lon="5.39414">
        <ele>223.8</ele>
        <time>2021-08-28T14:37:15Z</time>
      </trkpt>
      <trkpt lat="46.5591" lon="5.39423">
        <ele>224</ele>
        <time>2021-08-28T14:37:16Z</time>
      </trkpt>
      <trkpt lat="46.55905" lon="5.39474">
        <ele>224.8</ele>
        <time>2021-08-28T14:37:22Z</time>
      </trkpt>
      <trkpt lat="46.559" lon="5.39517">
        <ele>225.2</ele>
        <time>2021-08-28T14:37:27Z</time>
      </trkpt>
      <trkpt lat="46.55893" lon="5.3957">
        <ele>225.8</ele>
        <time>2021-08-28T14:37:33Z</time>
      </trkpt>
      <trkpt lat="46.55888" lon="5.39606">
        <ele>226</ele>
        <time>2021-08-28T14:37:37Z</time>
      </trkpt>
      <trkpt lat="46.55874" lon="5.39675">
        <ele>226.6</ele>
        <time>2021-08-28T14:37:45Z</time>
      </trkpt>
      <trkpt lat="46.55855" lon="5.39749">
        <ele>226.6</ele>
        <time>2021-08-28T14:37:54Z</time>
      </trkpt>
      <trkpt lat="46.55853" lon="5.39757">
        <ele>227</ele>
        <time>2021-08-28T14:37:55Z</time>
      </trkpt>
      <trkpt lat="46.55839" lon="5.39812">
        <ele>228</ele>
        <time>2021-08-28T14:38:02Z</time>
      </trkpt>
      <trkpt lat="46.5583" lon="5.39846">
        <ele>228.4</ele>
        <time>2021-08-28T14:38:06Z</time>
      </trkpt>
      <trkpt lat="46.55816" lon="5.39902">
        <ele>228.6</ele>
        <time>2021-08-28T14:38:12Z</time>
      </trkpt>
      <trkpt lat="46.55812" lon="5.39909">
        <ele>228.6</ele>
        <time>2021-08-28T14:38:13Z</time>
      </trkpt>
      <trkpt lat="46.55807" lon="5.39914">
        <ele>228.6</ele>
        <time>2021-08-28T14:38:14Z</time>
      </trkpt>
      <trkpt lat="46.55801" lon="5.39915">
        <ele>228.4</ele>
        <time>2021-08-28T14:38:15Z</time>
      </trkpt>
      <trkpt lat="46.55795" lon="5.39912">
        <ele>228.2</ele>
        <time>2021-08-28T14:38:16Z</time>
      </trkpt>
      <trkpt lat="46.55784" lon="5.39903">
        <ele>228.2</ele>
        <time>2021-08-28T14:38:18Z</time>
      </trkpt>
      <trkpt lat="46.55743" lon="5.3987">
        <ele>228.4</ele>
        <time>2021-08-28T14:38:25Z</time>
      </trkpt>
      <trkpt lat="46.55711" lon="5.3984">
        <ele>229.4</ele>
        <time>2021-08-28T14:38:31Z</time>
      </trkpt>
      <trkpt lat="46.55695" lon="5.39825">
        <ele>230.2</ele>
        <time>2021-08-28T14:38:34Z</time>
      </trkpt>
      <trkpt lat="46.5569" lon="5.3982">
        <ele>230.4</ele>
        <time>2021-08-28T14:38:35Z</time>
      </trkpt>
      <trkpt lat="46.55667" lon="5.39801">
        <ele>231.6</ele>
        <time>2021-08-28T14:38:39Z</time>
      </trkpt>
      <trkpt lat="46.55641" lon="5.39783">
        <ele>232.2</ele>
        <time>2021-08-28T14:38:43Z</time>
      </trkpt>
      <trkpt lat="46.55596" lon="5.39752">
        <ele>232</ele>
        <time>2021-08-28T14:38:49Z</time>
      </trkpt>
      <trkpt lat="46.55581" lon="5.3974">
        <ele>231.4</ele>
        <time>2021-08-28T14:38:51Z</time>
      </trkpt>
      <trkpt lat="46.55544" lon="5.39709">
        <ele>231</ele>
        <time>2021-08-28T14:38:56Z</time>
      </trkpt>
      <trkpt lat="46.55504" lon="5.39675">
        <ele>230.6</ele>
        <time>2021-08-28T14:39:02Z</time>
      </trkpt>
      <trkpt lat="46.55455" lon="5.39635">
        <ele>230.8</ele>
        <time>2021-08-28T14:39:09Z</time>
      </trkpt>
      <trkpt lat="46.55435" lon="5.39618">
        <ele>231.2</ele>
        <time>2021-08-28T14:39:12Z</time>
      </trkpt>
      <trkpt lat="46.55406" lon="5.39593">
        <ele>232.6</ele>
        <time>2021-08-28T14:39:17Z</time>
      </trkpt>
      <trkpt lat="46.554" lon="5.39587">
        <ele>233</ele>
        <time>2021-08-28T14:39:18Z</time>
      </trkpt>
      <trkpt lat="46.55383" lon="5.39572">
        <ele>234.4</ele>
        <time>2021-08-28T14:39:21Z</time>
      </trkpt>
      <trkpt lat="46.55347" lon="5.39542">
        <ele>235.4</ele>
        <time>2021-08-28T14:39:27Z</time>
      </trkpt>
      <trkpt lat="46.5534" lon="5.39537">
        <ele>235.6</ele>
        <time>2021-08-28T14:39:28Z</time>
      </trkpt>
      <trkpt lat="46.55288" lon="5.39497">
        <ele>235.8</ele>
        <time>2021-08-28T14:39:36Z</time>
      </trkpt>
      <trkpt lat="46.55238" lon="5.39455">
        <ele>235.8</ele>
        <time>2021-08-28T14:39:43Z</time>
      </trkpt>
      <trkpt lat="46.55232" lon="5.39447">
        <ele>235.6</ele>
        <time>2021-08-28T14:39:44Z</time>
      </trkpt>
      <trkpt lat="46.5522" lon="5.39431">
        <ele>235.6</ele>
        <time>2021-08-28T14:39:46Z</time>
      </trkpt>
      <trkpt lat="46.55212" lon="5.39427">
        <ele>235.6</ele>
        <time>2021-08-28T14:39:47Z</time>
      </trkpt>
      <trkpt lat="46.55204" lon="5.39425">
        <ele>235.4</ele>
        <time>2021-08-28T14:39:48Z</time>
      </trkpt>
      <trkpt lat="46.55178" lon="5.39424">
        <ele>235.2</ele>
        <time>2021-08-28T14:39:51Z</time>
      </trkpt>
      <trkpt lat="46.55139" lon="5.39413">
        <ele>235.4</ele>
        <time>2021-08-28T14:39:56Z</time>
      </trkpt>
      <trkpt lat="46.55085" lon="5.39387">
        <ele>235.6</ele>
        <time>2021-08-28T14:40:03Z</time>
      </trkpt>
      <trkpt lat="46.55034" lon="5.39359">
        <ele>235.2</ele>
        <time>2021-08-28T14:40:09Z</time>
      </trkpt>
      <trkpt lat="46.55005" lon="5.3934">
        <ele>234.4</ele>
        <time>2021-08-28T14:40:12Z</time>
      </trkpt>
      <trkpt lat="46.54983" lon="5.39328">
        <ele>233.6</ele>
        <time>2021-08-28T14:40:14Z</time>
      </trkpt>
      <trkpt lat="46.54973" lon="5.39323">
        <ele>233</ele>
        <time>2021-08-28T14:40:15Z</time>
      </trkpt>
      <trkpt lat="46.54963" lon="5.39317">
        <ele>231.6</ele>
        <time>2021-08-28T14:40:16Z</time>
      </trkpt>
      <trkpt lat="46.54942" lon="5.39309">
        <ele>229.8</ele>
        <time>2021-08-28T14:40:18Z</time>
      </trkpt>
      <trkpt lat="46.54922" lon="5.39302">
        <ele>229</ele>
        <time>2021-08-28T14:40:20Z</time>
      </trkpt>
      <trkpt lat="46.54913" lon="5.39299">
        <ele>228.8</ele>
        <time>2021-08-28T14:40:21Z</time>
      </trkpt>
      <trkpt lat="46.54878" lon="5.39288">
        <ele>229.4</ele>
        <time>2021-08-28T14:40:25Z</time>
      </trkpt>
      <trkpt lat="46.5487" lon="5.39285">
        <ele>230.6</ele>
        <time>2021-08-28T14:40:26Z</time>
      </trkpt>
      <trkpt lat="46.54854" lon="5.39279">
        <ele>232</ele>
        <time>2021-08-28T14:40:28Z</time>
      </trkpt>
      <trkpt lat="46.54822" lon="5.39264">
        <ele>233.4</ele>
        <time>2021-08-28T14:40:32Z</time>
      </trkpt>
      <trkpt lat="46.54798" lon="5.39252">
        <ele>234.6</ele>
        <time>2021-08-28T14:40:35Z</time>
      </trkpt>
      <trkpt lat="46.54767" lon="5.39236">
        <ele>235.6</ele>
        <time>2021-08-28T14:40:39Z</time>
      </trkpt>
      <trkpt lat="46.54744" lon="5.39225">
        <ele>236.8</ele>
        <time>2021-08-28T14:40:42Z</time>
      </trkpt>
      <trkpt lat="46.54709" lon="5.39208">
        <ele>237.8</ele>
        <time>2021-08-28T14:40:47Z</time>
      </trkpt>
      <trkpt lat="46.54688" lon="5.39197">
        <ele>238.8</ele>
        <time>2021-08-28T14:40:50Z</time>
      </trkpt>
      <trkpt lat="46.54681" lon="5.39194">
        <ele>239</ele>
        <time>2021-08-28T14:40:51Z</time>
      </trkpt>
      <trkpt lat="46.54629" lon="5.39171">
        <ele>239.4</ele>
        <time>2021-08-28T14:40:58Z</time>
      </trkpt>
      <trkpt lat="46.54598" lon="5.39157">
        <ele>239.2</ele>
        <time>2021-08-28T14:41:02Z</time>
      </trkpt>
      <trkpt lat="46.54541" lon="5.39127">
        <ele>239.2</ele>
        <time>2021-08-28T14:41:10Z</time>
      </trkpt>
      <trkpt lat="46.54534" lon="5.39122">
        <ele>239.2</ele>
        <time>2021-08-28T14:41:11Z</time>
      </trkpt>
      <trkpt lat="46.54517" lon="5.39112">
        <ele>240</ele>
        <time>2021-08-28T14:41:14Z</time>
      </trkpt>
      <trkpt lat="46.54511" lon="5.39111">
        <ele>240.2</ele>
        <time>2021-08-28T14:41:15Z</time>
      </trkpt>
      <trkpt lat="46.54506" lon="5.39114">
        <ele>240.8</ele>
        <time>2021-08-28T14:41:16Z</time>
      </trkpt>
      <trkpt lat="46.54502" lon="5.39119">
        <ele>241.2</ele>
        <time>2021-08-28T14:41:17Z</time>
      </trkpt>
      <trkpt lat="46.545" lon="5.39125">
        <ele>241.6</ele>
        <time>2021-08-28T14:41:18Z</time>
      </trkpt>
      <trkpt lat="46.54497" lon="5.39137">
        <ele>242.4</ele>
        <time>2021-08-28T14:41:20Z</time>
      </trkpt>
      <trkpt lat="46.5449" lon="5.39147">
        <ele>243</ele>
        <time>2021-08-28T14:41:22Z</time>
      </trkpt>
      <trkpt lat="46.54484" lon="5.39147">
        <ele>243.4</ele>
        <time>2021-08-28T14:41:23Z</time>
      </trkpt>
      <trkpt lat="46.54477" lon="5.39145">
        <ele>243.4</ele>
        <time>2021-08-28T14:41:24Z</time>
      </trkpt>
      <trkpt lat="46.54462" lon="5.39137">
        <ele>243.4</ele>
        <time>2021-08-28T14:41:26Z</time>
      </trkpt>
      <trkpt lat="46.54426" lon="5.39124">
        <ele>242.6</ele>
        <time>2021-08-28T14:41:30Z</time>
      </trkpt>
      <trkpt lat="46.54416" lon="5.39122">
        <ele>241.8</ele>
        <time>2021-08-28T14:41:31Z</time>
      </trkpt>
      <trkpt lat="46.54406" lon="5.39119">
        <ele>240.6</ele>
        <time>2021-08-28T14:41:32Z</time>
      </trkpt>
      <trkpt lat="46.54385" lon="5.39112">
        <ele>239.2</ele>
        <time>2021-08-28T14:41:34Z</time>
      </trkpt>
      <trkpt lat="46.54375" lon="5.39108">
        <ele>238.6</ele>
        <time>2021-08-28T14:41:35Z</time>
      </trkpt>
      <trkpt lat="46.54355" lon="5.391">
        <ele>237.6</ele>
        <time>2021-08-28T14:41:37Z</time>
      </trkpt>
      <trkpt lat="46.54325" lon="5.39087">
        <ele>236.4</ele>
        <time>2021-08-28T14:41:40Z</time>
      </trkpt>
      <trkpt lat="46.54315" lon="5.39082">
        <ele>236.2</ele>
        <time>2021-08-28T14:41:41Z</time>
      </trkpt>
      <trkpt lat="46.54285" lon="5.39067">
        <ele>235.4</ele>
        <time>2021-08-28T14:41:44Z</time>
      </trkpt>
      <trkpt lat="46.54238" lon="5.39042">
        <ele>235</ele>
        <time>2021-08-28T14:41:49Z</time>
      </trkpt>
      <trkpt lat="46.54184" lon="5.39015">
        <ele>234.8</ele>
        <time>2021-08-28T14:41:55Z</time>
      </trkpt>
      <trkpt lat="46.54176" lon="5.39012">
        <ele>234.8</ele>
        <time>2021-08-28T14:41:56Z</time>
      </trkpt>
      <trkpt lat="46.54123" lon="5.38992">
        <ele>235.8</ele>
        <time>2021-08-28T14:42:02Z</time>
      </trkpt>
      <trkpt lat="46.54114" lon="5.38989">
        <ele>236.2</ele>
        <time>2021-08-28T14:42:03Z</time>
      </trkpt>
      <trkpt lat="46.54088" lon="5.3898">
        <ele>236.4</ele>
        <time>2021-08-28T14:42:06Z</time>
      </trkpt>
      <trkpt lat="46.54052" lon="5.38963">
        <ele>237</ele>
        <time>2021-08-28T14:42:10Z</time>
      </trkpt>
      <trkpt lat="46.54007" lon="5.38949">
        <ele>237.2</ele>
        <time>2021-08-28T14:42:15Z</time>
      </trkpt>
      <trkpt lat="46.53989" lon="5.38944">
        <ele>237.6</ele>
        <time>2021-08-28T14:42:17Z</time>
      </trkpt>
      <trkpt lat="46.53944" lon="5.38938">
        <ele>238</ele>
        <time>2021-08-28T14:42:22Z</time>
      </trkpt>
      <trkpt lat="46.53882" lon="5.38934">
        <ele>238.8</ele>
        <time>2021-08-28T14:42:29Z</time>
      </trkpt>
      <trkpt lat="46.53857" lon="5.38932">
        <ele>239</ele>
        <time>2021-08-28T14:42:32Z</time>
      </trkpt>
      <trkpt lat="46.53849" lon="5.3893">
        <ele>239</ele>
        <time>2021-08-28T14:42:33Z</time>
      </trkpt>
      <trkpt lat="46.53825" lon="5.38919">
        <ele>239.4</ele>
        <time>2021-08-28T14:42:36Z</time>
      </trkpt>
      <trkpt lat="46.53764" lon="5.38899">
        <ele>239.6</ele>
        <time>2021-08-28T14:42:43Z</time>
      </trkpt>
      <trkpt lat="46.53755" lon="5.38896">
        <ele>239.6</ele>
        <time>2021-08-28T14:42:44Z</time>
      </trkpt>
      <trkpt lat="46.53696" lon="5.38872">
        <ele>239.2</ele>
        <time>2021-08-28T14:42:51Z</time>
      </trkpt>
      <trkpt lat="46.53638" lon="5.38846">
        <ele>239.6</ele>
        <time>2021-08-28T14:42:58Z</time>
      </trkpt>
      <trkpt lat="46.53631" lon="5.38842">
        <ele>239.6</ele>
        <time>2021-08-28T14:42:59Z</time>
      </trkpt>
      <trkpt lat="46.53623" lon="5.38838">
        <ele>239.8</ele>
        <time>2021-08-28T14:43:00Z</time>
      </trkpt>
      <trkpt lat="46.53572" lon="5.38807">
        <ele>240.2</ele>
        <time>2021-08-28T14:43:07Z</time>
      </trkpt>
      <trkpt lat="46.53565" lon="5.38802">
        <ele>240.2</ele>
        <time>2021-08-28T14:43:08Z</time>
      </trkpt>
      <trkpt lat="46.53553" lon="5.38789">
        <ele>240.2</ele>
        <time>2021-08-28T14:43:10Z</time>
      </trkpt>
      <trkpt lat="46.53547" lon="5.38781">
        <ele>240.2</ele>
        <time>2021-08-28T14:43:11Z</time>
      </trkpt>
      <trkpt lat="46.5353" lon="5.38754">
        <ele>240.2</ele>
        <time>2021-08-28T14:43:14Z</time>
      </trkpt>
      <trkpt lat="46.53515" lon="5.38743">
        <ele>239.6</ele>
        <time>2021-08-28T14:43:16Z</time>
      </trkpt>
      <trkpt lat="46.535" lon="5.38746">
        <ele>239.2</ele>
        <time>2021-08-28T14:43:18Z</time>
      </trkpt>
      <trkpt lat="46.53487" lon="5.38741">
        <ele>238.8</ele>
        <time>2021-08-28T14:43:20Z</time>
      </trkpt>
      <trkpt lat="46.53481" lon="5.38734">
        <ele>238.6</ele>
        <time>2021-08-28T14:43:21Z</time>
      </trkpt>
      <trkpt lat="46.53474" lon="5.38727">
        <ele>238.4</ele>
        <time>2021-08-28T14:43:22Z</time>
      </trkpt>
      <trkpt lat="46.53459" lon="5.38715">
        <ele>238.4</ele>
        <time>2021-08-28T14:43:24Z</time>
      </trkpt>
      <trkpt lat="46.53426" lon="5.38705">
        <ele>238.4</ele>
        <time>2021-08-28T14:43:28Z</time>
      </trkpt>
      <trkpt lat="46.5338" lon="5.38701">
        <ele>238.4</ele>
        <time>2021-08-28T14:43:33Z</time>
      </trkpt>
      <trkpt lat="46.53324" lon="5.38695">
        <ele>238</ele>
        <time>2021-08-28T14:43:39Z</time>
      </trkpt>
      <trkpt lat="46.53305" lon="5.3869">
        <ele>237.6</ele>
        <time>2021-08-28T14:43:41Z</time>
      </trkpt>
      <trkpt lat="46.53251" lon="5.3867">
        <ele>236.6</ele>
        <time>2021-08-28T14:43:47Z</time>
      </trkpt>
      <trkpt lat="46.53242" lon="5.38666">
        <ele>236.4</ele>
        <time>2021-08-28T14:43:48Z</time>
      </trkpt>
      <trkpt lat="46.53215" lon="5.38653">
        <ele>235.8</ele>
        <time>2021-08-28T14:43:51Z</time>
      </trkpt>
      <trkpt lat="46.53198" lon="5.38639">
        <ele>235.4</ele>
        <time>2021-08-28T14:43:53Z</time>
      </trkpt>
      <trkpt lat="46.5319" lon="5.3863">
        <ele>235</ele>
        <time>2021-08-28T14:43:54Z</time>
      </trkpt>
      <trkpt lat="46.53174" lon="5.38613">
        <ele>234.6</ele>
        <time>2021-08-28T14:43:56Z</time>
      </trkpt>
      <trkpt lat="46.53165" lon="5.38605">
        <ele>234.4</ele>
        <time>2021-08-28T14:43:57Z</time>
      </trkpt>
      <trkpt lat="46.53155" lon="5.38598">
        <ele>234</ele>
        <time>2021-08-28T14:43:58Z</time>
      </trkpt>
      <trkpt lat="46.53132" lon="5.38585">
        <ele>232.8</ele>
        <time>2021-08-28T14:44:01Z</time>
      </trkpt>
      <trkpt lat="46.53126" lon="5.38581">
        <ele>232.6</ele>
        <time>2021-08-28T14:44:02Z</time>
      </trkpt>
      <trkpt lat="46.53111" lon="5.38581">
        <ele>232</ele>
        <time>2021-08-28T14:44:04Z</time>
      </trkpt>
      <trkpt lat="46.53103" lon="5.38583">
        <ele>231.8</ele>
        <time>2021-08-28T14:44:05Z</time>
      </trkpt>
      <trkpt lat="46.53078" lon="5.38593">
        <ele>230.8</ele>
        <time>2021-08-28T14:44:08Z</time>
      </trkpt>
      <trkpt lat="46.5306" lon="5.38598">
        <ele>230.4</ele>
        <time>2021-08-28T14:44:10Z</time>
      </trkpt>
      <trkpt lat="46.53023" lon="5.38607">
        <ele>229.8</ele>
        <time>2021-08-28T14:44:14Z</time>
      </trkpt>
      <trkpt lat="46.53004" lon="5.3861">
        <ele>229.4</ele>
        <time>2021-08-28T14:44:16Z</time>
      </trkpt>
      <trkpt lat="46.52994" lon="5.3861">
        <ele>229</ele>
        <time>2021-08-28T14:44:17Z</time>
      </trkpt>
      <trkpt lat="46.52975" lon="5.38608">
        <ele>228.4</ele>
        <time>2021-08-28T14:44:19Z</time>
      </trkpt>
      <trkpt lat="46.52965" lon="5.38606">
        <ele>228.2</ele>
        <time>2021-08-28T14:44:20Z</time>
      </trkpt>
      <trkpt lat="46.52946" lon="5.38604">
        <ele>227.4</ele>
        <time>2021-08-28T14:44:22Z</time>
      </trkpt>
      <trkpt lat="46.52937" lon="5.38606">
        <ele>227.2</ele>
        <time>2021-08-28T14:44:23Z</time>
      </trkpt>
      <trkpt lat="46.52928" lon="5.38607">
        <ele>226.8</ele>
        <time>2021-08-28T14:44:24Z</time>
      </trkpt>
      <trkpt lat="46.52912" lon="5.38606">
        <ele>225.8</ele>
        <time>2021-08-28T14:44:26Z</time>
      </trkpt>
      <trkpt lat="46.52897" lon="5.38611">
        <ele>224.8</ele>
        <time>2021-08-28T14:44:28Z</time>
      </trkpt>
      <trkpt lat="46.52879" lon="5.3861">
        <ele>224.2</ele>
        <time>2021-08-28T14:44:30Z</time>
      </trkpt>
      <trkpt lat="46.5287" lon="5.38608">
        <ele>223.4</ele>
        <time>2021-08-28T14:44:31Z</time>
      </trkpt>
      <trkpt lat="46.52851" lon="5.38604">
        <ele>222.2</ele>
        <time>2021-08-28T14:44:33Z</time>
      </trkpt>
      <trkpt lat="46.52824" lon="5.38596">
        <ele>221</ele>
        <time>2021-08-28T14:44:36Z</time>
      </trkpt>
      <trkpt lat="46.52807" lon="5.38585">
        <ele>220.4</ele>
        <time>2021-08-28T14:44:38Z</time>
      </trkpt>
      <trkpt lat="46.528" lon="5.38577">
        <ele>220.2</ele>
        <time>2021-08-28T14:44:39Z</time>
      </trkpt>
      <trkpt lat="46.52795" lon="5.38568">
        <ele>220</ele>
        <time>2021-08-28T14:44:40Z</time>
      </trkpt>
      <trkpt lat="46.52786" lon="5.38548">
        <ele>219.8</ele>
        <time>2021-08-28T14:44:42Z</time>
      </trkpt>
      <trkpt lat="46.52782" lon="5.38539">
        <ele>219.8</ele>
        <time>2021-08-28T14:44:43Z</time>
      </trkpt>
      <trkpt lat="46.52777" lon="5.38531">
        <ele>219.8</ele>
        <time>2021-08-28T14:44:44Z</time>
      </trkpt>
      <trkpt lat="46.52765" lon="5.38523">
        <ele>219.6</ele>
        <time>2021-08-28T14:44:46Z</time>
      </trkpt>
      <trkpt lat="46.5275" lon="5.38526">
        <ele>219.8</ele>
        <time>2021-08-28T14:44:48Z</time>
      </trkpt>
      <trkpt lat="46.52742" lon="5.38527">
        <ele>219.8</ele>
        <time>2021-08-28T14:44:49Z</time>
      </trkpt>
      <trkpt lat="46.52726" lon="5.38523">
        <ele>220</ele>
        <time>2021-08-28T14:44:51Z</time>
      </trkpt>
      <trkpt lat="46.52701" lon="5.38512">
        <ele>220.4</ele>
        <time>2021-08-28T14:44:54Z</time>
      </trkpt>
      <trkpt lat="46.52684" lon="5.38508">
        <ele>220.6</ele>
        <time>2021-08-28T14:44:56Z</time>
      </trkpt>
      <trkpt lat="46.52659" lon="5.38505">
        <ele>221</ele>
        <time>2021-08-28T14:44:59Z</time>
      </trkpt>
      <trkpt lat="46.52625" lon="5.38501">
        <ele>221.2</ele>
        <time>2021-08-28T14:45:03Z</time>
      </trkpt>
      <trkpt lat="46.52571" lon="5.38488">
        <ele>222.2</ele>
        <time>2021-08-28T14:45:10Z</time>
      </trkpt>
      <trkpt lat="46.52557" lon="5.38481">
        <ele>222.6</ele>
        <time>2021-08-28T14:45:12Z</time>
      </trkpt>
      <trkpt lat="46.52544" lon="5.3847">
        <ele>222.8</ele>
        <time>2021-08-28T14:45:14Z</time>
      </trkpt>
      <trkpt lat="46.52539" lon="5.38463">
        <ele>223</ele>
        <time>2021-08-28T14:45:15Z</time>
      </trkpt>
      <trkpt lat="46.52534" lon="5.38455">
        <ele>223</ele>
        <time>2021-08-28T14:45:16Z</time>
      </trkpt>
      <trkpt lat="46.52528" lon="5.38436">
        <ele>223</ele>
        <time>2021-08-28T14:45:18Z</time>
      </trkpt>
      <trkpt lat="46.52526" lon="5.38425">
        <ele>223.4</ele>
        <time>2021-08-28T14:45:19Z</time>
      </trkpt>
      <trkpt lat="46.52525" lon="5.38393">
        <ele>223.8</ele>
        <time>2021-08-28T14:45:22Z</time>
      </trkpt>
      <trkpt lat="46.52525" lon="5.38369">
        <ele>223.6</ele>
        <time>2021-08-28T14:45:24Z</time>
      </trkpt>
      <trkpt lat="46.52522" lon="5.38345">
        <ele>223.6</ele>
        <time>2021-08-28T14:45:26Z</time>
      </trkpt>
      <trkpt lat="46.52514" lon="5.38264">
        <ele>223.4</ele>
        <time>2021-08-28T14:45:32Z</time>
      </trkpt>
      <trkpt lat="46.52521" lon="5.38212">
        <ele>222.6</ele>
        <time>2021-08-28T14:45:36Z</time>
      </trkpt>
      <trkpt lat="46.52524" lon="5.38198">
        <ele>222</ele>
        <time>2021-08-28T14:45:37Z</time>
      </trkpt>
      <trkpt lat="46.52535" lon="5.38158">
        <ele>220.2</ele>
        <time>2021-08-28T14:45:40Z</time>
      </trkpt>
      <trkpt lat="46.52541" lon="5.38131">
        <ele>219.4</ele>
        <time>2021-08-28T14:45:42Z</time>
      </trkpt>
      <trkpt lat="46.52543" lon="5.38118">
        <ele>218.8</ele>
        <time>2021-08-28T14:45:43Z</time>
      </trkpt>
      <trkpt lat="46.52545" lon="5.38076">
        <ele>218</ele>
        <time>2021-08-28T14:45:46Z</time>
      </trkpt>
      <trkpt lat="46.52544" lon="5.38049">
        <ele>217.8</ele>
        <time>2021-08-28T14:45:48Z</time>
      </trkpt>
      <trkpt lat="46.52537" lon="5.38009">
        <ele>217.4</ele>
        <time>2021-08-28T14:45:51Z</time>
      </trkpt>
      <trkpt lat="46.52534" lon="5.37997">
        <ele>217</ele>
        <time>2021-08-28T14:45:52Z</time>
      </trkpt>
      <trkpt lat="46.52527" lon="5.37972">
        <ele>216.6</ele>
        <time>2021-08-28T14:45:54Z</time>
      </trkpt>
      <trkpt lat="46.52521" lon="5.37946">
        <ele>216.2</ele>
        <time>2021-08-28T14:45:56Z</time>
      </trkpt>
      <trkpt lat="46.5252" lon="5.37932">
        <ele>216</ele>
        <time>2021-08-28T14:45:57Z</time>
      </trkpt>
      <trkpt lat="46.5252" lon="5.37919">
        <ele>215.8</ele>
        <time>2021-08-28T14:45:58Z</time>
      </trkpt>
      <trkpt lat="46.52523" lon="5.37878">
        <ele>215.4</ele>
        <time>2021-08-28T14:46:01Z</time>
      </trkpt>
      <trkpt lat="46.52529" lon="5.37788">
        <ele>214.4</ele>
        <time>2021-08-28T14:46:08Z</time>
      </trkpt>
      <trkpt lat="46.52532" lon="5.37737">
        <ele>214.6</ele>
        <time>2021-08-28T14:46:12Z</time>
      </trkpt>
      <trkpt lat="46.52535" lon="5.37688">
        <ele>214.4</ele>
        <time>2021-08-28T14:46:16Z</time>
      </trkpt>
      <trkpt lat="46.52541" lon="5.37616">
        <ele>214</ele>
        <time>2021-08-28T14:46:22Z</time>
      </trkpt>
      <trkpt lat="46.52549" lon="5.37534">
        <ele>214</ele>
        <time>2021-08-28T14:46:29Z</time>
      </trkpt>
      <trkpt lat="46.52551" lon="5.37511">
        <ele>214</ele>
        <time>2021-08-28T14:46:31Z</time>
      </trkpt>
      <trkpt lat="46.52559" lon="5.37431">
        <ele>214.2</ele>
        <time>2021-08-28T14:46:38Z</time>
      </trkpt>
      <trkpt lat="46.5256" lon="5.3742">
        <ele>214.2</ele>
        <time>2021-08-28T14:46:39Z</time>
      </trkpt>
      <trkpt lat="46.52565" lon="5.3734">
        <ele>213.6</ele>
        <time>2021-08-28T14:46:46Z</time>
      </trkpt>
      <trkpt lat="46.52565" lon="5.37329">
        <ele>213.6</ele>
        <time>2021-08-28T14:46:47Z</time>
      </trkpt>
      <trkpt lat="46.52565" lon="5.37294">
        <ele>213.4</ele>
        <time>2021-08-28T14:46:50Z</time>
      </trkpt>
      <trkpt lat="46.5256" lon="5.37261">
        <ele>213</ele>
        <time>2021-08-28T14:46:53Z</time>
      </trkpt>
      <trkpt lat="46.52541" lon="5.37211">
        <ele>212.8</ele>
        <time>2021-08-28T14:46:58Z</time>
      </trkpt>
      <trkpt lat="46.52536" lon="5.37203">
        <ele>212.8</ele>
        <time>2021-08-28T14:46:59Z</time>
      </trkpt>
      <trkpt lat="46.52518" lon="5.37179">
        <ele>212.6</ele>
        <time>2021-08-28T14:47:02Z</time>
      </trkpt>
      <trkpt lat="46.52499" lon="5.37156">
        <ele>212.6</ele>
        <time>2021-08-28T14:47:05Z</time>
      </trkpt>
      <trkpt lat="46.52475" lon="5.37126">
        <ele>212.2</ele>
        <time>2021-08-28T14:47:09Z</time>
      </trkpt>
      <trkpt lat="46.52451" lon="5.37081">
        <ele>211.6</ele>
        <time>2021-08-28T14:47:14Z</time>
      </trkpt>
      <trkpt lat="46.52445" lon="5.37062">
        <ele>211.6</ele>
        <time>2021-08-28T14:47:16Z</time>
      </trkpt>
      <trkpt lat="46.52443" lon="5.37052">
        <ele>211.4</ele>
        <time>2021-08-28T14:47:17Z</time>
      </trkpt>
      <trkpt lat="46.52441" lon="5.37043">
        <ele>211.4</ele>
        <time>2021-08-28T14:47:18Z</time>
      </trkpt>
      <trkpt lat="46.52436" lon="5.37025">
        <ele>211.4</ele>
        <time>2021-08-28T14:47:20Z</time>
      </trkpt>
      <trkpt lat="46.52427" lon="5.37016">
        <ele>211.4</ele>
        <time>2021-08-28T14:47:22Z</time>
      </trkpt>
      <trkpt lat="46.52418" lon="5.37023">
        <ele>211.4</ele>
        <time>2021-08-28T14:47:24Z</time>
      </trkpt>
      <trkpt lat="46.52393" lon="5.37064">
        <ele>211.4</ele>
        <time>2021-08-28T14:47:30Z</time>
      </trkpt>
      <trkpt lat="46.52371" lon="5.37092">
        <ele>211.2</ele>
        <time>2021-08-28T14:47:34Z</time>
      </trkpt>
      <trkpt lat="46.5236" lon="5.37103">
        <ele>211.2</ele>
        <time>2021-08-28T14:47:36Z</time>
      </trkpt>
      <trkpt lat="46.52314" lon="5.37152">
        <ele>212.4</ele>
        <time>2021-08-28T14:47:45Z</time>
      </trkpt>
      <trkpt lat="46.52309" lon="5.37157">
        <ele>212.4</ele>
        <time>2021-08-28T14:47:46Z</time>
      </trkpt>
      <trkpt lat="46.5229" lon="5.37177">
        <ele>214</ele>
        <time>2021-08-28T14:47:50Z</time>
      </trkpt>
      <trkpt lat="46.52276" lon="5.37192">
        <ele>215</ele>
        <time>2021-08-28T14:47:53Z</time>
      </trkpt>
      <trkpt lat="46.52272" lon="5.37197">
        <ele>215.2</ele>
        <time>2021-08-28T14:47:54Z</time>
      </trkpt>
      <trkpt lat="46.52262" lon="5.37207">
        <ele>216.2</ele>
        <time>2021-08-28T14:47:56Z</time>
      </trkpt>
      <trkpt lat="46.52241" lon="5.3723">
        <ele>217.4</ele>
        <time>2021-08-28T14:48:01Z</time>
      </trkpt>
      <trkpt lat="46.52233" lon="5.37238">
        <ele>217.8</ele>
        <time>2021-08-28T14:48:03Z</time>
      </trkpt>
      <trkpt lat="46.52219" lon="5.3725">
        <ele>218.4</ele>
        <time>2021-08-28T14:48:06Z</time>
      </trkpt>
      <trkpt lat="46.52197" lon="5.37268">
        <ele>219.8</ele>
        <time>2021-08-28T14:48:11Z</time>
      </trkpt>
      <trkpt lat="46.52193" lon="5.37271">
        <ele>220</ele>
        <time>2021-08-28T14:48:12Z</time>
      </trkpt>
      <trkpt lat="46.52174" lon="5.37286">
        <ele>220.8</ele>
        <time>2021-08-28T14:48:16Z</time>
      </trkpt>
      <trkpt lat="46.5216" lon="5.37296">
        <ele>221.8</ele>
        <time>2021-08-28T14:48:19Z</time>
      </trkpt>
      <trkpt lat="46.52156" lon="5.37299">
        <ele>222.2</ele>
        <time>2021-08-28T14:48:20Z</time>
      </trkpt>
      <trkpt lat="46.52125" lon="5.3732">
        <ele>223.6</ele>
        <time>2021-08-28T14:48:27Z</time>
      </trkpt>
      <trkpt lat="46.52112" lon="5.37329">
        <ele>224.2</ele>
        <time>2021-08-28T14:48:30Z</time>
      </trkpt>
      <trkpt lat="46.52108" lon="5.37332">
        <ele>224.8</ele>
        <time>2021-08-28T14:48:31Z</time>
      </trkpt>
      <trkpt lat="46.521" lon="5.37337">
        <ele>225.6</ele>
        <time>2021-08-28T14:48:33Z</time>
      </trkpt>
      <trkpt lat="46.52095" lon="5.37342">
        <ele>226</ele>
        <time>2021-08-28T14:48:34Z</time>
      </trkpt>
      <trkpt lat="46.52085" lon="5.37354">
        <ele>226.6</ele>
        <time>2021-08-28T14:48:37Z</time>
      </trkpt>
      <trkpt lat="46.52079" lon="5.37364">
        <ele>227</ele>
        <time>2021-08-28T14:48:39Z</time>
      </trkpt>
      <trkpt lat="46.52074" lon="5.37383">
        <ele>227.8</ele>
        <time>2021-08-28T14:48:42Z</time>
      </trkpt>
      <trkpt lat="46.52071" lon="5.37398">
        <ele>228.2</ele>
        <time>2021-08-28T14:48:44Z</time>
      </trkpt>
      <trkpt lat="46.52059" lon="5.37452">
        <ele>229</ele>
        <time>2021-08-28T14:48:51Z</time>
      </trkpt>
      <trkpt lat="46.5205" lon="5.37497">
        <ele>229</ele>
        <time>2021-08-28T14:48:56Z</time>
      </trkpt>
      <trkpt lat="46.52043" lon="5.37524">
        <ele>229.2</ele>
        <time>2021-08-28T14:48:59Z</time>
      </trkpt>
      <trkpt lat="46.52036" lon="5.37558">
        <ele>229.2</ele>
        <time>2021-08-28T14:49:03Z</time>
      </trkpt>
      <trkpt lat="46.52023" lon="5.37614">
        <ele>229.2</ele>
        <time>2021-08-28T14:49:09Z</time>
      </trkpt>
      <trkpt lat="46.52019" lon="5.37621">
        <ele>229.2</ele>
        <time>2021-08-28T14:49:10Z</time>
      </trkpt>
      <trkpt lat="46.52015" lon="5.37626">
        <ele>229.4</ele>
        <time>2021-08-28T14:49:11Z</time>
      </trkpt>
      <trkpt lat="46.52003" lon="5.37632">
        <ele>229.4</ele>
        <time>2021-08-28T14:49:13Z</time>
      </trkpt>
      <trkpt lat="46.51966" lon="5.37637">
        <ele>229.4</ele>
        <time>2021-08-28T14:49:18Z</time>
      </trkpt>
      <trkpt lat="46.51909" lon="5.37647">
        <ele>229.4</ele>
        <time>2021-08-28T14:49:25Z</time>
      </trkpt>
      <trkpt lat="46.51887" lon="5.37649">
        <ele>229.4</ele>
        <time>2021-08-28T14:49:28Z</time>
      </trkpt>
      <trkpt lat="46.51832" lon="5.37649">
        <ele>229.8</ele>
        <time>2021-08-28T14:49:35Z</time>
      </trkpt>
      <trkpt lat="46.51816" lon="5.3765">
        <ele>230</ele>
        <time>2021-08-28T14:49:37Z</time>
      </trkpt>
      <trkpt lat="46.51791" lon="5.37651">
        <ele>230</ele>
        <time>2021-08-28T14:49:40Z</time>
      </trkpt>
      <trkpt lat="46.51774" lon="5.37648">
        <ele>229.8</ele>
        <time>2021-08-28T14:49:42Z</time>
      </trkpt>
      <trkpt lat="46.51723" lon="5.37633">
        <ele>228.2</ele>
        <time>2021-08-28T14:49:48Z</time>
      </trkpt>
      <trkpt lat="46.51714" lon="5.37631">
        <ele>228</ele>
        <time>2021-08-28T14:49:49Z</time>
      </trkpt>
      <trkpt lat="46.51705" lon="5.3763">
        <ele>227.6</ele>
        <time>2021-08-28T14:49:50Z</time>
      </trkpt>
      <trkpt lat="46.51689" lon="5.37634">
        <ele>227</ele>
        <time>2021-08-28T14:49:52Z</time>
      </trkpt>
      <trkpt lat="46.5166" lon="5.37655">
        <ele>226.2</ele>
        <time>2021-08-28T14:49:56Z</time>
      </trkpt>
      <trkpt lat="46.51602" lon="5.37678">
        <ele>226</ele>
        <time>2021-08-28T14:50:03Z</time>
      </trkpt>
      <trkpt lat="46.51548" lon="5.37686">
        <ele>226.4</ele>
        <time>2021-08-28T14:50:10Z</time>
      </trkpt>
      <trkpt lat="46.51505" lon="5.37696">
        <ele>227.2</ele>
        <time>2021-08-28T14:50:16Z</time>
      </trkpt>
      <trkpt lat="46.51484" lon="5.37701">
        <ele>227.8</ele>
        <time>2021-08-28T14:50:19Z</time>
      </trkpt>
      <trkpt lat="46.51477" lon="5.37702">
        <ele>228</ele>
        <time>2021-08-28T14:50:20Z</time>
      </trkpt>
      <trkpt lat="46.51428" lon="5.37715">
        <ele>229.4</ele>
        <time>2021-08-28T14:50:27Z</time>
      </trkpt>
      <trkpt lat="46.51401" lon="5.37724">
        <ele>229.8</ele>
        <time>2021-08-28T14:50:31Z</time>
      </trkpt>
      <trkpt lat="46.51373" lon="5.37736">
        <ele>230.4</ele>
        <time>2021-08-28T14:50:35Z</time>
      </trkpt>
      <trkpt lat="46.51347" lon="5.3775">
        <ele>231</ele>
        <time>2021-08-28T14:50:39Z</time>
      </trkpt>
      <trkpt lat="46.51313" lon="5.37767">
        <ele>231.6</ele>
        <time>2021-08-28T14:50:44Z</time>
      </trkpt>
      <trkpt lat="46.51286" lon="5.37782">
        <ele>232.4</ele>
        <time>2021-08-28T14:50:48Z</time>
      </trkpt>
      <trkpt lat="46.51272" lon="5.37788">
        <ele>232.8</ele>
        <time>2021-08-28T14:50:50Z</time>
      </trkpt>
      <trkpt lat="46.51243" lon="5.37801">
        <ele>233.8</ele>
        <time>2021-08-28T14:50:54Z</time>
      </trkpt>
      <trkpt lat="46.51236" lon="5.37803">
        <ele>234</ele>
        <time>2021-08-28T14:50:55Z</time>
      </trkpt>
      <trkpt lat="46.51229" lon="5.37803">
        <ele>234.2</ele>
        <time>2021-08-28T14:50:56Z</time>
      </trkpt>
      <trkpt lat="46.512" lon="5.37808">
        <ele>234.4</ele>
        <time>2021-08-28T14:51:00Z</time>
      </trkpt>
      <trkpt lat="46.51172" lon="5.37815">
        <ele>234.8</ele>
        <time>2021-08-28T14:51:04Z</time>
      </trkpt>
      <trkpt lat="46.51166" lon="5.37818">
        <ele>235.2</ele>
        <time>2021-08-28T14:51:05Z</time>
      </trkpt>
      <trkpt lat="46.51147" lon="5.37833">
        <ele>235.8</ele>
        <time>2021-08-28T14:51:08Z</time>
      </trkpt>
      <trkpt lat="46.51134" lon="5.37843">
        <ele>236.4</ele>
        <time>2021-08-28T14:51:10Z</time>
      </trkpt>
      <trkpt lat="46.51108" lon="5.37859">
        <ele>237.2</ele>
        <time>2021-08-28T14:51:14Z</time>
      </trkpt>
      <trkpt lat="46.51102" lon="5.37862">
        <ele>237.4</ele>
        <time>2021-08-28T14:51:15Z</time>
      </trkpt>
      <trkpt lat="46.51069" lon="5.37872">
        <ele>238.2</ele>
        <time>2021-08-28T14:51:20Z</time>
      </trkpt>
      <trkpt lat="46.51055" lon="5.37872">
        <ele>238.4</ele>
        <time>2021-08-28T14:51:22Z</time>
      </trkpt>
      <trkpt lat="46.51028" lon="5.37875">
        <ele>239.6</ele>
        <time>2021-08-28T14:51:26Z</time>
      </trkpt>
      <trkpt lat="46.51021" lon="5.37876">
        <ele>239.8</ele>
        <time>2021-08-28T14:51:27Z</time>
      </trkpt>
      <trkpt lat="46.51001" lon="5.37879">
        <ele>240.6</ele>
        <time>2021-08-28T14:51:30Z</time>
      </trkpt>
      <trkpt lat="46.50959" lon="5.37888">
        <ele>241.6</ele>
        <time>2021-08-28T14:51:36Z</time>
      </trkpt>
      <trkpt lat="46.50952" lon="5.3789">
        <ele>241.8</ele>
        <time>2021-08-28T14:51:37Z</time>
      </trkpt>
      <trkpt lat="46.50909" lon="5.37903">
        <ele>242.4</ele>
        <time>2021-08-28T14:51:43Z</time>
      </trkpt>
      <trkpt lat="46.50861" lon="5.37901">
        <ele>242.2</ele>
        <time>2021-08-28T14:51:49Z</time>
      </trkpt>
      <trkpt lat="46.5083" lon="5.37898">
        <ele>242.2</ele>
        <time>2021-08-28T14:51:53Z</time>
      </trkpt>
      <trkpt lat="46.50814" lon="5.37892">
        <ele>242.2</ele>
        <time>2021-08-28T14:51:55Z</time>
      </trkpt>
      <trkpt lat="46.50801" lon="5.37881">
        <ele>242.4</ele>
        <time>2021-08-28T14:51:57Z</time>
      </trkpt>
      <trkpt lat="46.50795" lon="5.37873">
        <ele>242.2</ele>
        <time>2021-08-28T14:51:58Z</time>
      </trkpt>
      <trkpt lat="46.50764" lon="5.37824">
        <ele>242.4</ele>
        <time>2021-08-28T14:52:04Z</time>
      </trkpt>
      <trkpt lat="46.50756" lon="5.37803">
        <ele>242.2</ele>
        <time>2021-08-28T14:52:06Z</time>
      </trkpt>
      <trkpt lat="46.50747" lon="5.37767">
        <ele>242</ele>
        <time>2021-08-28T14:52:09Z</time>
      </trkpt>
      <trkpt lat="46.50739" lon="5.3769">
        <ele>241.2</ele>
        <time>2021-08-28T14:52:16Z</time>
      </trkpt>
      <trkpt lat="46.50737" lon="5.3764">
        <ele>240.8</ele>
        <time>2021-08-28T14:52:20Z</time>
      </trkpt>
      <trkpt lat="46.50735" lon="5.37627">
        <ele>240.4</ele>
        <time>2021-08-28T14:52:21Z</time>
      </trkpt>
      <trkpt lat="46.50727" lon="5.37603">
        <ele>239.6</ele>
        <time>2021-08-28T14:52:23Z</time>
      </trkpt>
      <trkpt lat="46.50721" lon="5.37593">
        <ele>239.2</ele>
        <time>2021-08-28T14:52:24Z</time>
      </trkpt>
      <trkpt lat="46.50715" lon="5.37584">
        <ele>238.4</ele>
        <time>2021-08-28T14:52:25Z</time>
      </trkpt>
      <trkpt lat="46.50701" lon="5.37566">
        <ele>237.2</ele>
        <time>2021-08-28T14:52:28Z</time>
      </trkpt>
      <trkpt lat="46.50695" lon="5.37558">
        <ele>236.6</ele>
        <time>2021-08-28T14:52:31Z</time>
      </trkpt>
      <trkpt lat="46.50685" lon="5.37564">
        <ele>236.4</ele>
        <time>2021-08-28T14:52:34Z</time>
      </trkpt>
      <trkpt lat="46.50678" lon="5.37576">
        <ele>236.2</ele>
        <time>2021-08-28T14:52:36Z</time>
      </trkpt>
      <trkpt lat="46.5067" lon="5.37589">
        <ele>236.2</ele>
        <time>2021-08-28T14:52:38Z</time>
      </trkpt>
      <trkpt lat="46.50641" lon="5.37634">
        <ele>236.4</ele>
        <time>2021-08-28T14:52:44Z</time>
      </trkpt>
      <trkpt lat="46.50602" lon="5.37693">
        <ele>236.8</ele>
        <time>2021-08-28T14:52:52Z</time>
      </trkpt>
      <trkpt lat="46.50579" lon="5.37728">
        <ele>237.4</ele>
        <time>2021-08-28T14:52:57Z</time>
      </trkpt>
      <trkpt lat="46.50558" lon="5.3776">
        <ele>238.2</ele>
        <time>2021-08-28T14:53:02Z</time>
      </trkpt>
      <trkpt lat="46.5055" lon="5.37772">
        <ele>238.6</ele>
        <time>2021-08-28T14:53:04Z</time>
      </trkpt>
      <trkpt lat="46.50534" lon="5.37796">
        <ele>239.6</ele>
        <time>2021-08-28T14:53:08Z</time>
      </trkpt>
      <trkpt lat="46.50531" lon="5.37801">
        <ele>239.8</ele>
        <time>2021-08-28T14:53:09Z</time>
      </trkpt>
      <trkpt lat="46.50512" lon="5.37829">
        <ele>241</ele>
        <time>2021-08-28T14:53:14Z</time>
      </trkpt>
      <trkpt lat="46.50505" lon="5.3784">
        <ele>241.6</ele>
        <time>2021-08-28T14:53:16Z</time>
      </trkpt>
      <trkpt lat="46.50498" lon="5.37851">
        <ele>242</ele>
        <time>2021-08-28T14:53:18Z</time>
      </trkpt>
      <trkpt lat="46.50484" lon="5.37873">
        <ele>243.2</ele>
        <time>2021-08-28T14:53:22Z</time>
      </trkpt>
      <trkpt lat="46.50467" lon="5.37899">
        <ele>244.4</ele>
        <time>2021-08-28T14:53:27Z</time>
      </trkpt>
      <trkpt lat="46.50449" lon="5.37927">
        <ele>245.6</ele>
        <time>2021-08-28T14:53:32Z</time>
      </trkpt>
      <trkpt lat="46.50439" lon="5.3794">
        <ele>246.2</ele>
        <time>2021-08-28T14:53:35Z</time>
      </trkpt>
      <trkpt lat="46.50436" lon="5.37944">
        <ele>246.2</ele>
        <time>2021-08-28T14:53:36Z</time>
      </trkpt>
      <trkpt lat="46.50433" lon="5.37949">
        <ele>246.8</ele>
        <time>2021-08-28T14:53:37Z</time>
      </trkpt>
      <trkpt lat="46.5043" lon="5.37954">
        <ele>247</ele>
        <time>2021-08-28T14:53:38Z</time>
      </trkpt>
      <trkpt lat="46.50419" lon="5.37969">
        <ele>248</ele>
        <time>2021-08-28T14:53:41Z</time>
      </trkpt>
      <trkpt lat="46.50403" lon="5.37995">
        <ele>249.2</ele>
        <time>2021-08-28T14:53:46Z</time>
      </trkpt>
      <trkpt lat="46.50396" lon="5.38006">
        <ele>249.6</ele>
        <time>2021-08-28T14:53:48Z</time>
      </trkpt>
      <trkpt lat="46.50383" lon="5.38026">
        <ele>250.4</ele>
        <time>2021-08-28T14:53:52Z</time>
      </trkpt>
      <trkpt lat="46.50374" lon="5.38031">
        <ele>251</ele>
        <time>2021-08-28T14:53:54Z</time>
      </trkpt>
      <trkpt lat="46.50366" lon="5.38028">
        <ele>251.6</ele>
        <time>2021-08-28T14:53:56Z</time>
      </trkpt>
      <trkpt lat="46.50362" lon="5.38022">
        <ele>251.6</ele>
        <time>2021-08-28T14:53:57Z</time>
      </trkpt>
      <trkpt lat="46.50361" lon="5.38015">
        <ele>251.8</ele>
        <time>2021-08-28T14:53:58Z</time>
      </trkpt>
      <trkpt lat="46.50359" lon="5.38003">
        <ele>252.2</ele>
        <time>2021-08-28T14:54:00Z</time>
      </trkpt>
      <trkpt lat="46.50359" lon="5.37996">
        <ele>252.2</ele>
        <time>2021-08-28T14:54:01Z</time>
      </trkpt>
      <trkpt lat="46.5036" lon="5.37972">
        <ele>252.6</ele>
        <time>2021-08-28T14:54:04Z</time>
      </trkpt>
      <trkpt lat="46.50358" lon="5.37941">
        <ele>253</ele>
        <time>2021-08-28T14:54:08Z</time>
      </trkpt>
      <trkpt lat="46.50355" lon="5.37925">
        <ele>253.4</ele>
        <time>2021-08-28T14:54:10Z</time>
      </trkpt>
      <trkpt lat="46.5035" lon="5.37908">
        <ele>253.4</ele>
        <time>2021-08-28T14:54:12Z</time>
      </trkpt>
      <trkpt lat="46.50346" lon="5.379">
        <ele>253.4</ele>
        <time>2021-08-28T14:54:13Z</time>
      </trkpt>
      <trkpt lat="46.50334" lon="5.37882">
        <ele>253.4</ele>
        <time>2021-08-28T14:54:16Z</time>
      </trkpt>
      <trkpt lat="46.50291" lon="5.37835">
        <ele>252.6</ele>
        <time>2021-08-28T14:54:24Z</time>
      </trkpt>
      <trkpt lat="46.50248" lon="5.37794">
        <ele>252.8</ele>
        <time>2021-08-28T14:54:31Z</time>
      </trkpt>
      <trkpt lat="46.50223" lon="5.37771">
        <ele>252.8</ele>
        <time>2021-08-28T14:54:35Z</time>
      </trkpt>
      <trkpt lat="46.50202" lon="5.37758">
        <ele>252.6</ele>
        <time>2021-08-28T14:54:38Z</time>
      </trkpt>
      <trkpt lat="46.50153" lon="5.37743">
        <ele>252</ele>
        <time>2021-08-28T14:54:44Z</time>
      </trkpt>
      <trkpt lat="46.50104" lon="5.37731">
        <ele>252.2</ele>
        <time>2021-08-28T14:54:51Z</time>
      </trkpt>
      <trkpt lat="46.50064" lon="5.37718">
        <ele>253.2</ele>
        <time>2021-08-28T14:54:57Z</time>
      </trkpt>
      <trkpt lat="46.50021" lon="5.37697">
        <ele>253.8</ele>
        <time>2021-08-28T14:55:03Z</time>
      </trkpt>
      <trkpt lat="46.49996" lon="5.37685">
        <ele>254</ele>
        <time>2021-08-28T14:55:06Z</time>
      </trkpt>
      <trkpt lat="46.4994" lon="5.3766">
        <ele>253.4</ele>
        <time>2021-08-28T14:55:13Z</time>
      </trkpt>
      <trkpt lat="46.4989" lon="5.37643">
        <ele>252.8</ele>
        <time>2021-08-28T14:55:19Z</time>
      </trkpt>
      <trkpt lat="46.49871" lon="5.37637">
        <ele>252.6</ele>
        <time>2021-08-28T14:55:21Z</time>
      </trkpt>
      <trkpt lat="46.49819" lon="5.37616">
        <ele>252.2</ele>
        <time>2021-08-28T14:55:27Z</time>
      </trkpt>
      <trkpt lat="46.4977" lon="5.37583">
        <ele>252.2</ele>
        <time>2021-08-28T14:55:33Z</time>
      </trkpt>
      <trkpt lat="46.4973" lon="5.37557">
        <ele>251.8</ele>
        <time>2021-08-28T14:55:38Z</time>
      </trkpt>
      <trkpt lat="46.49716" lon="5.37548">
        <ele>251.6</ele>
        <time>2021-08-28T14:55:40Z</time>
      </trkpt>
      <trkpt lat="46.4967" lon="5.37528">
        <ele>250.8</ele>
        <time>2021-08-28T14:55:46Z</time>
      </trkpt>
      <trkpt lat="46.49661" lon="5.37523">
        <ele>250.6</ele>
        <time>2021-08-28T14:55:47Z</time>
      </trkpt>
      <trkpt lat="46.49636" lon="5.3751">
        <ele>250.6</ele>
        <time>2021-08-28T14:55:51Z</time>
      </trkpt>
      <trkpt lat="46.4963" lon="5.37506">
        <ele>250.6</ele>
        <time>2021-08-28T14:55:52Z</time>
      </trkpt>
      <trkpt lat="46.49625" lon="5.37503">
        <ele>250.6</ele>
        <time>2021-08-28T14:55:53Z</time>
      </trkpt>
      <trkpt lat="46.4962" lon="5.37502">
        <ele>250.6</ele>
        <time>2021-08-28T14:55:55Z</time>
      </trkpt>
      <trkpt lat="46.49611" lon="5.37505">
        <ele>250.8</ele>
        <time>2021-08-28T14:55:56Z</time>
      </trkpt>
      <trkpt lat="46.496" lon="5.37513">
        <ele>251</ele>
        <time>2021-08-28T14:55:58Z</time>
      </trkpt>
      <trkpt lat="46.49571" lon="5.37538">
        <ele>251.6</ele>
        <time>2021-08-28T14:56:04Z</time>
      </trkpt>
      <trkpt lat="46.49551" lon="5.37554">
        <ele>252.6</ele>
        <time>2021-08-28T14:56:08Z</time>
      </trkpt>
      <trkpt lat="46.49546" lon="5.37558">
        <ele>252.8</ele>
        <time>2021-08-28T14:56:09Z</time>
      </trkpt>
      <trkpt lat="46.49531" lon="5.37571">
        <ele>253.8</ele>
        <time>2021-08-28T14:56:12Z</time>
      </trkpt>
      <trkpt lat="46.4951" lon="5.37591">
        <ele>254.4</ele>
        <time>2021-08-28T14:56:16Z</time>
      </trkpt>
      <trkpt lat="46.49493" lon="5.37606">
        <ele>255.2</ele>
        <time>2021-08-28T14:56:19Z</time>
      </trkpt>
      <trkpt lat="46.49466" lon="5.37629">
        <ele>256</ele>
        <time>2021-08-28T14:56:24Z</time>
      </trkpt>
      <trkpt lat="46.49456" lon="5.37637">
        <ele>256.6</ele>
        <time>2021-08-28T14:56:26Z</time>
      </trkpt>
      <trkpt lat="46.49434" lon="5.37659">
        <ele>257.8</ele>
        <time>2021-08-28T14:56:31Z</time>
      </trkpt>
      <trkpt lat="46.4943" lon="5.37663">
        <ele>258.2</ele>
        <time>2021-08-28T14:56:32Z</time>
      </trkpt>
      <trkpt lat="46.49418" lon="5.37677">
        <ele>259</ele>
        <time>2021-08-28T14:56:35Z</time>
      </trkpt>
      <trkpt lat="46.49408" lon="5.37692">
        <ele>260.6</ele>
        <time>2021-08-28T14:56:38Z</time>
      </trkpt>
      <trkpt lat="46.49398" lon="5.37713">
        <ele>261.6</ele>
        <time>2021-08-28T14:56:42Z</time>
      </trkpt>
      <trkpt lat="46.49391" lon="5.37732">
        <ele>262.4</ele>
        <time>2021-08-28T14:56:45Z</time>
      </trkpt>
      <trkpt lat="46.49388" lon="5.37744">
        <ele>262.8</ele>
        <time>2021-08-28T14:56:47Z</time>
      </trkpt>
      <trkpt lat="46.49379" lon="5.37768">
        <ele>264</ele>
        <time>2021-08-28T14:56:51Z</time>
      </trkpt>
      <trkpt lat="46.49373" lon="5.37787">
        <ele>264.6</ele>
        <time>2021-08-28T14:56:54Z</time>
      </trkpt>
      <trkpt lat="46.49361" lon="5.37822">
        <ele>265</ele>
        <time>2021-08-28T14:56:59Z</time>
      </trkpt>
      <trkpt lat="46.49354" lon="5.37844">
        <ele>265.2</ele>
        <time>2021-08-28T14:57:02Z</time>
      </trkpt>
      <trkpt lat="46.49336" lon="5.37903">
        <ele>265.2</ele>
        <time>2021-08-28T14:57:09Z</time>
      </trkpt>
      <trkpt lat="46.49322" lon="5.3798">
        <ele>264.2</ele>
        <time>2021-08-28T14:57:16Z</time>
      </trkpt>
      <trkpt lat="46.4932" lon="5.37991">
        <ele>263.8</ele>
        <time>2021-08-28T14:57:17Z</time>
      </trkpt>
      <trkpt lat="46.49307" lon="5.38051">
        <ele>263.4</ele>
        <time>2021-08-28T14:57:23Z</time>
      </trkpt>
      <trkpt lat="46.49297" lon="5.38107">
        <ele>263.8</ele>
        <time>2021-08-28T14:57:29Z</time>
      </trkpt>
      <trkpt lat="46.49285" lon="5.38176">
        <ele>265</ele>
        <time>2021-08-28T14:57:37Z</time>
      </trkpt>
      <trkpt lat="46.49283" lon="5.38186">
        <ele>265.2</ele>
        <time>2021-08-28T14:57:38Z</time>
      </trkpt>
      <trkpt lat="46.49273" lon="5.38242">
        <ele>266.2</ele>
        <time>2021-08-28T14:57:45Z</time>
      </trkpt>
      <trkpt lat="46.4927" lon="5.38256">
        <ele>266.8</ele>
        <time>2021-08-28T14:57:47Z</time>
      </trkpt>
      <trkpt lat="46.49267" lon="5.38273">
        <ele>267.2</ele>
        <time>2021-08-28T14:57:49Z</time>
      </trkpt>
      <trkpt lat="46.4926" lon="5.38311">
        <ele>268.4</ele>
        <time>2021-08-28T14:57:54Z</time>
      </trkpt>
      <trkpt lat="46.49256" lon="5.38324">
        <ele>268.6</ele>
        <time>2021-08-28T14:57:56Z</time>
      </trkpt>
      <trkpt lat="46.49253" lon="5.3833">
        <ele>268.8</ele>
        <time>2021-08-28T14:57:57Z</time>
      </trkpt>
      <trkpt lat="46.49243" lon="5.38339">
        <ele>269.2</ele>
        <time>2021-08-28T14:57:59Z</time>
      </trkpt>
      <trkpt lat="46.49233" lon="5.38339">
        <ele>269.4</ele>
        <time>2021-08-28T14:58:01Z</time>
      </trkpt>
      <trkpt lat="46.49228" lon="5.38336">
        <ele>269.4</ele>
        <time>2021-08-28T14:58:02Z</time>
      </trkpt>
      <trkpt lat="46.49198" lon="5.38318">
        <ele>269.6</ele>
        <time>2021-08-28T14:58:07Z</time>
      </trkpt>
      <trkpt lat="46.49162" lon="5.38303">
        <ele>268.8</ele>
        <time>2021-08-28T14:58:12Z</time>
      </trkpt>
      <trkpt lat="46.49139" lon="5.38295">
        <ele>268.4</ele>
        <time>2021-08-28T14:58:15Z</time>
      </trkpt>
      <trkpt lat="46.4911" lon="5.38287">
        <ele>267.4</ele>
        <time>2021-08-28T14:58:19Z</time>
      </trkpt>
      <trkpt lat="46.49103" lon="5.38283">
        <ele>267</ele>
        <time>2021-08-28T14:58:20Z</time>
      </trkpt>
      <trkpt lat="46.49094" lon="5.38274">
        <ele>266.4</ele>
        <time>2021-08-28T14:58:22Z</time>
      </trkpt>
      <trkpt lat="46.49087" lon="5.38257">
        <ele>266.2</ele>
        <time>2021-08-28T14:58:24Z</time>
      </trkpt>
      <trkpt lat="46.49083" lon="5.38244">
        <ele>266.2</ele>
        <time>2021-08-28T14:58:25Z</time>
      </trkpt>
      <trkpt lat="46.4908" lon="5.38233">
        <ele>265.8</ele>
        <time>2021-08-28T14:58:26Z</time>
      </trkpt>
      <trkpt lat="46.49065" lon="5.38184">
        <ele>264.6</ele>
        <time>2021-08-28T14:58:30Z</time>
      </trkpt>
      <trkpt lat="46.49046" lon="5.38119">
        <ele>263.6</ele>
        <time>2021-08-28T14:58:35Z</time>
      </trkpt>
      <trkpt lat="46.49037" lon="5.38093">
        <ele>262.4</ele>
        <time>2021-08-28T14:58:37Z</time>
      </trkpt>
      <trkpt lat="46.49033" lon="5.38083">
        <ele>261.8</ele>
        <time>2021-08-28T14:58:38Z</time>
      </trkpt>
      <trkpt lat="46.49024" lon="5.38056">
        <ele>261.4</ele>
        <time>2021-08-28T14:58:40Z</time>
      </trkpt>
      <trkpt lat="46.49011" lon="5.38014">
        <ele>260</ele>
        <time>2021-08-28T14:58:43Z</time>
      </trkpt>
      <trkpt lat="46.49002" lon="5.37986">
        <ele>259.2</ele>
        <time>2021-08-28T14:58:45Z</time>
      </trkpt>
      <trkpt lat="46.48997" lon="5.37969">
        <ele>259</ele>
        <time>2021-08-28T14:58:46Z</time>
      </trkpt>
      <trkpt lat="46.48989" lon="5.37941">
        <ele>257.6</ele>
        <time>2021-08-28T14:58:48Z</time>
      </trkpt>
      <trkpt lat="46.4897" lon="5.37874">
        <ele>256.4</ele>
        <time>2021-08-28T14:58:53Z</time>
      </trkpt>
      <trkpt lat="46.48954" lon="5.37822">
        <ele>255.4</ele>
        <time>2021-08-28T14:58:57Z</time>
      </trkpt>
      <trkpt lat="46.48939" lon="5.37774">
        <ele>255</ele>
        <time>2021-08-28T14:59:01Z</time>
      </trkpt>
      <trkpt lat="46.48917" lon="5.377">
        <ele>254.6</ele>
        <time>2021-08-28T14:59:07Z</time>
      </trkpt>
      <trkpt lat="46.48913" lon="5.37689">
        <ele>254.6</ele>
        <time>2021-08-28T14:59:08Z</time>
      </trkpt>
      <trkpt lat="46.48899" lon="5.37642">
        <ele>254.6</ele>
        <time>2021-08-28T14:59:13Z</time>
      </trkpt>
      <trkpt lat="46.48895" lon="5.37634">
        <ele>254.8</ele>
        <time>2021-08-28T14:59:14Z</time>
      </trkpt>
      <trkpt lat="46.48886" lon="5.37626">
        <ele>255.2</ele>
        <time>2021-08-28T14:59:16Z</time>
      </trkpt>
      <trkpt lat="46.48873" lon="5.37627">
        <ele>255.6</ele>
        <time>2021-08-28T14:59:18Z</time>
      </trkpt>
      <trkpt lat="46.48867" lon="5.37626">
        <ele>256</ele>
        <time>2021-08-28T14:59:19Z</time>
      </trkpt>
      <trkpt lat="46.48862" lon="5.37623">
        <ele>256.2</ele>
        <time>2021-08-28T14:59:20Z</time>
      </trkpt>
      <trkpt lat="46.48856" lon="5.37613">
        <ele>256.6</ele>
        <time>2021-08-28T14:59:22Z</time>
      </trkpt>
      <trkpt lat="46.48851" lon="5.37591">
        <ele>257</ele>
        <time>2021-08-28T14:59:25Z</time>
      </trkpt>
      <trkpt lat="46.48836" lon="5.37544">
        <ele>257.8</ele>
        <time>2021-08-28T14:59:31Z</time>
      </trkpt>
      <trkpt lat="46.48834" lon="5.37538">
        <ele>258.2</ele>
        <time>2021-08-28T14:59:32Z</time>
      </trkpt>
      <trkpt lat="46.48823" lon="5.37517">
        <ele>258.8</ele>
        <time>2021-08-28T14:59:35Z</time>
      </trkpt>
      <trkpt lat="46.48819" lon="5.3751">
        <ele>259</ele>
        <time>2021-08-28T14:59:36Z</time>
      </trkpt>
      <trkpt lat="46.48805" lon="5.37489">
        <ele>259.8</ele>
        <time>2021-08-28T14:59:40Z</time>
      </trkpt>
      <trkpt lat="46.48802" lon="5.37484">
        <ele>260</ele>
        <time>2021-08-28T14:59:41Z</time>
      </trkpt>
      <trkpt lat="46.48778" lon="5.37453">
        <ele>261</ele>
        <time>2021-08-28T14:59:46Z</time>
      </trkpt>
      <trkpt lat="46.48768" lon="5.37439">
        <ele>261.2</ele>
        <time>2021-08-28T14:59:48Z</time>
      </trkpt>
      <trkpt lat="46.48729" lon="5.37382">
        <ele>260.6</ele>
        <time>2021-08-28T14:59:55Z</time>
      </trkpt>
      <trkpt lat="46.487" lon="5.37342">
        <ele>259.8</ele>
        <time>2021-08-28T15:00:00Z</time>
      </trkpt>
      <trkpt lat="46.48695" lon="5.37333">
        <ele>259.8</ele>
        <time>2021-08-28T15:00:01Z</time>
      </trkpt>
      <trkpt lat="46.48656" lon="5.3728">
        <ele>258.8</ele>
        <time>2021-08-28T15:00:08Z</time>
      </trkpt>
      <trkpt lat="46.48651" lon="5.37273">
        <ele>258.8</ele>
        <time>2021-08-28T15:00:09Z</time>
      </trkpt>
    </trkseg>
  </trk>
</gpx>